<?xml version="1.0" encoding="UTF-8" standalone="no" ?>
<gpx xmlns="http://www.topografix.com/GPX/1/1" xmlns:xsi="http://www.w3.org/2001/XMLSchema-instance" xsi:schemaLocation="http://www.topografix.com/GPX/1/1 http://www.topografix.com/GPX/1/1/gpx.xsd" version="1.1" creator="VisuGPX - https://www.visugpx.com">
  <metadata>
    <name>Grand et Petit Som</name>
    <desc><![CDATA[Grand Som depuis la Ruchère, passage par le petit Som]]></desc>
  </metadata>
  <trk>
    <name><![CDATA[2017-01-21 09-15]]></name>
    <trkseg>
      <trkpt lat="45.40016" lon="5.79906">
        <ele>1068.4</ele>
        <time>2017-01-21T08:15:47Z</time>
      </trkpt>
      <trkpt lat="45.40016" lon="5.79905">
        <ele>1087.6</ele>
        <time>2017-01-21T08:15:52Z</time>
      </trkpt>
      <trkpt lat="45.40015" lon="5.79905">
        <ele>1101.6</ele>
        <time>2017-01-21T08:15:57Z</time>
      </trkpt>
      <trkpt lat="45.40015" lon="5.79905">
        <ele>1111.4</ele>
        <time>2017-01-21T08:16:02Z</time>
      </trkpt>
      <trkpt lat="45.40015" lon="5.79906">
        <ele>1118.4</ele>
        <time>2017-01-21T08:16:07Z</time>
      </trkpt>
      <trkpt lat="45.40015" lon="5.79906">
        <ele>1123.2</ele>
        <time>2017-01-21T08:16:12Z</time>
      </trkpt>
      <trkpt lat="45.40015" lon="5.79906">
        <ele>1126.6</ele>
        <time>2017-01-21T08:16:17Z</time>
      </trkpt>
      <trkpt lat="45.40015" lon="5.79906">
        <ele>1129</ele>
        <time>2017-01-21T08:16:22Z</time>
      </trkpt>
      <trkpt lat="45.40015" lon="5.79906">
        <ele>1130.6</ele>
        <time>2017-01-21T08:16:28Z</time>
      </trkpt>
      <trkpt lat="45.40015" lon="5.79906">
        <ele>1131.8</ele>
        <time>2017-01-21T08:16:34Z</time>
      </trkpt>
      <trkpt lat="45.40015" lon="5.79906">
        <ele>1132.8</ele>
        <time>2017-01-21T08:16:39Z</time>
      </trkpt>
      <trkpt lat="45.40015" lon="5.79906">
        <ele>1133.4</ele>
        <time>2017-01-21T08:16:44Z</time>
      </trkpt>
      <trkpt lat="45.40015" lon="5.79906">
        <ele>1134</ele>
        <time>2017-01-21T08:16:49Z</time>
      </trkpt>
      <trkpt lat="45.40015" lon="5.79906">
        <ele>1134.2</ele>
        <time>2017-01-21T08:16:54Z</time>
      </trkpt>
      <trkpt lat="45.40015" lon="5.79906">
        <ele>1134.6</ele>
        <time>2017-01-21T08:16:59Z</time>
      </trkpt>
      <trkpt lat="45.40015" lon="5.79906">
        <ele>1134.8</ele>
        <time>2017-01-21T08:17:04Z</time>
      </trkpt>
      <trkpt lat="45.40015" lon="5.79906">
        <ele>1135</ele>
        <time>2017-01-21T08:17:09Z</time>
      </trkpt>
      <trkpt lat="45.40015" lon="5.79906">
        <ele>1135</ele>
        <time>2017-01-21T08:17:14Z</time>
      </trkpt>
      <trkpt lat="45.40015" lon="5.79906">
        <ele>1135.2</ele>
        <time>2017-01-21T08:17:19Z</time>
      </trkpt>
      <trkpt lat="45.40015" lon="5.79906">
        <ele>1135.2</ele>
        <time>2017-01-21T08:17:24Z</time>
      </trkpt>
      <trkpt lat="45.40015" lon="5.79906">
        <ele>1135.4</ele>
        <time>2017-01-21T08:17:29Z</time>
      </trkpt>
      <trkpt lat="45.40015" lon="5.79906">
        <ele>1135.4</ele>
        <time>2017-01-21T08:17:34Z</time>
      </trkpt>
      <trkpt lat="45.40015" lon="5.79906">
        <ele>1135.4</ele>
        <time>2017-01-21T08:17:39Z</time>
      </trkpt>
      <trkpt lat="45.40015" lon="5.79906">
        <ele>1135.4</ele>
        <time>2017-01-21T08:17:44Z</time>
      </trkpt>
      <trkpt lat="45.40015" lon="5.79906">
        <ele>1135.6</ele>
        <time>2017-01-21T08:17:49Z</time>
      </trkpt>
      <trkpt lat="45.40015" lon="5.79906">
        <ele>1135.6</ele>
        <time>2017-01-21T08:17:54Z</time>
      </trkpt>
      <trkpt lat="45.40015" lon="5.79906">
        <ele>1135.6</ele>
        <time>2017-01-21T08:17:59Z</time>
      </trkpt>
      <trkpt lat="45.40015" lon="5.79906">
        <ele>1135.6</ele>
        <time>2017-01-21T08:18:04Z</time>
      </trkpt>
      <trkpt lat="45.40015" lon="5.79906">
        <ele>1135.6</ele>
        <time>2017-01-21T08:18:09Z</time>
      </trkpt>
      <trkpt lat="45.40015" lon="5.79906">
        <ele>1135.6</ele>
        <time>2017-01-21T08:18:14Z</time>
      </trkpt>
      <trkpt lat="45.40015" lon="5.79906">
        <ele>1135.6</ele>
        <time>2017-01-21T08:18:19Z</time>
      </trkpt>
      <trkpt lat="45.40015" lon="5.79906">
        <ele>1135.6</ele>
        <time>2017-01-21T08:18:24Z</time>
      </trkpt>
      <trkpt lat="45.40015" lon="5.79906">
        <ele>1135.8</ele>
        <time>2017-01-21T08:18:29Z</time>
      </trkpt>
      <trkpt lat="45.40015" lon="5.79906">
        <ele>1135.8</ele>
        <time>2017-01-21T08:18:34Z</time>
      </trkpt>
      <trkpt lat="45.40015" lon="5.79906">
        <ele>1135.8</ele>
        <time>2017-01-21T08:18:39Z</time>
      </trkpt>
      <trkpt lat="45.40015" lon="5.79906">
        <ele>1135.8</ele>
        <time>2017-01-21T08:18:44Z</time>
      </trkpt>
      <trkpt lat="45.40015" lon="5.79906">
        <ele>1135.8</ele>
        <time>2017-01-21T08:18:49Z</time>
      </trkpt>
      <trkpt lat="45.40015" lon="5.79906">
        <ele>1135.8</ele>
        <time>2017-01-21T08:18:54Z</time>
      </trkpt>
      <trkpt lat="45.40016" lon="5.79909">
        <ele>1136.2</ele>
        <time>2017-01-21T08:18:59Z</time>
      </trkpt>
      <trkpt lat="45.40015" lon="5.79909">
        <ele>1136.6</ele>
        <time>2017-01-21T08:19:04Z</time>
      </trkpt>
      <trkpt lat="45.40015" lon="5.79909">
        <ele>1136.8</ele>
        <time>2017-01-21T08:19:09Z</time>
      </trkpt>
      <trkpt lat="45.40014" lon="5.79909">
        <ele>1136.8</ele>
        <time>2017-01-21T08:19:14Z</time>
      </trkpt>
      <trkpt lat="45.40014" lon="5.79915">
        <ele>1136.6</ele>
        <time>2017-01-21T08:19:19Z</time>
      </trkpt>
      <trkpt lat="45.40015" lon="5.79916">
        <ele>1136.6</ele>
        <time>2017-01-21T08:19:24Z</time>
      </trkpt>
      <trkpt lat="45.40016" lon="5.79914">
        <ele>1135.8</ele>
        <time>2017-01-21T08:19:29Z</time>
      </trkpt>
      <trkpt lat="45.40016" lon="5.79912">
        <ele>1137.4</ele>
        <time>2017-01-21T08:19:34Z</time>
      </trkpt>
      <trkpt lat="45.40016" lon="5.79911">
        <ele>1138.2</ele>
        <time>2017-01-21T08:19:39Z</time>
      </trkpt>
      <trkpt lat="45.40016" lon="5.79911">
        <ele>1138.8</ele>
        <time>2017-01-21T08:19:44Z</time>
      </trkpt>
      <trkpt lat="45.40016" lon="5.79911">
        <ele>1139</ele>
        <time>2017-01-21T08:19:49Z</time>
      </trkpt>
      <trkpt lat="45.40016" lon="5.7991">
        <ele>1139.4</ele>
        <time>2017-01-21T08:19:54Z</time>
      </trkpt>
      <trkpt lat="45.40015" lon="5.7991">
        <ele>1138.8</ele>
        <time>2017-01-21T08:19:59Z</time>
      </trkpt>
      <trkpt lat="45.40015" lon="5.79912">
        <ele>1139.2</ele>
        <time>2017-01-21T08:20:04Z</time>
      </trkpt>
      <trkpt lat="45.40016" lon="5.79912">
        <ele>1139.4</ele>
        <time>2017-01-21T08:20:09Z</time>
      </trkpt>
      <trkpt lat="45.40016" lon="5.79912">
        <ele>1139.6</ele>
        <time>2017-01-21T08:20:14Z</time>
      </trkpt>
      <trkpt lat="45.40016" lon="5.7991">
        <ele>1139.6</ele>
        <time>2017-01-21T08:20:19Z</time>
      </trkpt>
      <trkpt lat="45.40015" lon="5.79907">
        <ele>1139.4</ele>
        <time>2017-01-21T08:20:24Z</time>
      </trkpt>
      <trkpt lat="45.40015" lon="5.79907">
        <ele>1139.4</ele>
        <time>2017-01-21T08:20:29Z</time>
      </trkpt>
      <trkpt lat="45.40016" lon="5.79908">
        <ele>1139.2</ele>
        <time>2017-01-21T08:20:34Z</time>
      </trkpt>
      <trkpt lat="45.40016" lon="5.79908">
        <ele>1139</ele>
        <time>2017-01-21T08:20:39Z</time>
      </trkpt>
      <trkpt lat="45.40016" lon="5.79908">
        <ele>1138.8</ele>
        <time>2017-01-21T08:20:44Z</time>
      </trkpt>
      <trkpt lat="45.40016" lon="5.79908">
        <ele>1138.8</ele>
        <time>2017-01-21T08:20:49Z</time>
      </trkpt>
      <trkpt lat="45.40016" lon="5.79908">
        <ele>1138.6</ele>
        <time>2017-01-21T08:20:54Z</time>
      </trkpt>
      <trkpt lat="45.40016" lon="5.79908">
        <ele>1138.6</ele>
        <time>2017-01-21T08:20:59Z</time>
      </trkpt>
      <trkpt lat="45.40016" lon="5.79908">
        <ele>1138.6</ele>
        <time>2017-01-21T08:21:04Z</time>
      </trkpt>
      <trkpt lat="45.40016" lon="5.79908">
        <ele>1138.6</ele>
        <time>2017-01-21T08:21:09Z</time>
      </trkpt>
      <trkpt lat="45.40016" lon="5.79908">
        <ele>1138.6</ele>
        <time>2017-01-21T08:21:14Z</time>
      </trkpt>
      <trkpt lat="45.40016" lon="5.79908">
        <ele>1138.6</ele>
        <time>2017-01-21T08:21:19Z</time>
      </trkpt>
      <trkpt lat="45.40016" lon="5.79908">
        <ele>1138.6</ele>
        <time>2017-01-21T08:21:24Z</time>
      </trkpt>
      <trkpt lat="45.40017" lon="5.79908">
        <ele>1138.4</ele>
        <time>2017-01-21T08:21:29Z</time>
      </trkpt>
      <trkpt lat="45.40017" lon="5.79908">
        <ele>1138.4</ele>
        <time>2017-01-21T08:21:34Z</time>
      </trkpt>
      <trkpt lat="45.40017" lon="5.79908">
        <ele>1138.4</ele>
        <time>2017-01-21T08:21:39Z</time>
      </trkpt>
      <trkpt lat="45.40017" lon="5.79908">
        <ele>1138.2</ele>
        <time>2017-01-21T08:21:44Z</time>
      </trkpt>
      <trkpt lat="45.40017" lon="5.79908">
        <ele>1138.2</ele>
        <time>2017-01-21T08:21:49Z</time>
      </trkpt>
      <trkpt lat="45.40017" lon="5.79908">
        <ele>1138.2</ele>
        <time>2017-01-21T08:21:54Z</time>
      </trkpt>
      <trkpt lat="45.40017" lon="5.79908">
        <ele>1138.2</ele>
        <time>2017-01-21T08:21:59Z</time>
      </trkpt>
      <trkpt lat="45.40017" lon="5.79908">
        <ele>1138</ele>
        <time>2017-01-21T08:22:04Z</time>
      </trkpt>
      <trkpt lat="45.40017" lon="5.79908">
        <ele>1137.8</ele>
        <time>2017-01-21T08:22:09Z</time>
      </trkpt>
      <trkpt lat="45.40017" lon="5.79908">
        <ele>1137.8</ele>
        <time>2017-01-21T08:22:14Z</time>
      </trkpt>
      <trkpt lat="45.40017" lon="5.79908">
        <ele>1137.8</ele>
        <time>2017-01-21T08:22:19Z</time>
      </trkpt>
      <trkpt lat="45.40017" lon="5.79908">
        <ele>1139.2</ele>
        <time>2017-01-21T08:22:24Z</time>
      </trkpt>
      <trkpt lat="45.40016" lon="5.79909">
        <ele>1138.4</ele>
        <time>2017-01-21T08:22:29Z</time>
      </trkpt>
      <trkpt lat="45.40016" lon="5.7991">
        <ele>1137.6</ele>
        <time>2017-01-21T08:22:34Z</time>
      </trkpt>
      <trkpt lat="45.40016" lon="5.7991">
        <ele>1136.2</ele>
        <time>2017-01-21T08:22:39Z</time>
      </trkpt>
      <trkpt lat="45.40016" lon="5.7991">
        <ele>1136</ele>
        <time>2017-01-21T08:22:44Z</time>
      </trkpt>
      <trkpt lat="45.40017" lon="5.79912">
        <ele>1136.6</ele>
        <time>2017-01-21T08:22:49Z</time>
      </trkpt>
      <trkpt lat="45.40018" lon="5.79912">
        <ele>1136.6</ele>
        <time>2017-01-21T08:22:54Z</time>
      </trkpt>
      <trkpt lat="45.4002" lon="5.79912">
        <ele>1138.2</ele>
        <time>2017-01-21T08:22:59Z</time>
      </trkpt>
      <trkpt lat="45.40021" lon="5.79912">
        <ele>1139</ele>
        <time>2017-01-21T08:23:04Z</time>
      </trkpt>
      <trkpt lat="45.40022" lon="5.79911">
        <ele>1141.6</ele>
        <time>2017-01-21T08:23:09Z</time>
      </trkpt>
      <trkpt lat="45.40024" lon="5.7991">
        <ele>1142</ele>
        <time>2017-01-21T08:23:14Z</time>
      </trkpt>
      <trkpt lat="45.40027" lon="5.7991">
        <ele>1142</ele>
        <time>2017-01-21T08:23:19Z</time>
      </trkpt>
      <trkpt lat="45.40032" lon="5.79912">
        <ele>1141.6</ele>
        <time>2017-01-21T08:23:24Z</time>
      </trkpt>
      <trkpt lat="45.40039" lon="5.79917">
        <ele>1142.2</ele>
        <time>2017-01-21T08:23:29Z</time>
      </trkpt>
      <trkpt lat="45.40045" lon="5.79921">
        <ele>1142.6</ele>
        <time>2017-01-21T08:23:34Z</time>
      </trkpt>
      <trkpt lat="45.40049" lon="5.79926">
        <ele>1140.2</ele>
        <time>2017-01-21T08:23:39Z</time>
      </trkpt>
      <trkpt lat="45.40053" lon="5.79931">
        <ele>1140</ele>
        <time>2017-01-21T08:23:44Z</time>
      </trkpt>
      <trkpt lat="45.40059" lon="5.79934">
        <ele>1140.2</ele>
        <time>2017-01-21T08:23:49Z</time>
      </trkpt>
      <trkpt lat="45.40064" lon="5.79937">
        <ele>1139.6</ele>
        <time>2017-01-21T08:23:54Z</time>
      </trkpt>
      <trkpt lat="45.40068" lon="5.79942">
        <ele>1140</ele>
        <time>2017-01-21T08:23:59Z</time>
      </trkpt>
      <trkpt lat="45.40069" lon="5.79951">
        <ele>1138.4</ele>
        <time>2017-01-21T08:24:04Z</time>
      </trkpt>
      <trkpt lat="45.40068" lon="5.79959">
        <ele>1138.4</ele>
        <time>2017-01-21T08:24:09Z</time>
      </trkpt>
      <trkpt lat="45.40066" lon="5.79967">
        <ele>1135.2</ele>
        <time>2017-01-21T08:24:14Z</time>
      </trkpt>
      <trkpt lat="45.40063" lon="5.79973">
        <ele>1134.4</ele>
        <time>2017-01-21T08:24:19Z</time>
      </trkpt>
      <trkpt lat="45.4006" lon="5.79979">
        <ele>1131.6</ele>
        <time>2017-01-21T08:24:24Z</time>
      </trkpt>
      <trkpt lat="45.40058" lon="5.79984">
        <ele>1135.2</ele>
        <time>2017-01-21T08:24:29Z</time>
      </trkpt>
      <trkpt lat="45.40057" lon="5.7999">
        <ele>1132.2</ele>
        <time>2017-01-21T08:24:34Z</time>
      </trkpt>
      <trkpt lat="45.40056" lon="5.79995">
        <ele>1132.6</ele>
        <time>2017-01-21T08:24:39Z</time>
      </trkpt>
      <trkpt lat="45.40055" lon="5.8">
        <ele>1135.4</ele>
        <time>2017-01-21T08:24:44Z</time>
      </trkpt>
      <trkpt lat="45.40054" lon="5.80006">
        <ele>1136</ele>
        <time>2017-01-21T08:24:49Z</time>
      </trkpt>
      <trkpt lat="45.40052" lon="5.80012">
        <ele>1136.6</ele>
        <time>2017-01-21T08:24:54Z</time>
      </trkpt>
      <trkpt lat="45.40052" lon="5.80018">
        <ele>1133.8</ele>
        <time>2017-01-21T08:24:59Z</time>
      </trkpt>
      <trkpt lat="45.40051" lon="5.80024">
        <ele>1136</ele>
        <time>2017-01-21T08:25:04Z</time>
      </trkpt>
      <trkpt lat="45.4005" lon="5.8003">
        <ele>1134.6</ele>
        <time>2017-01-21T08:25:09Z</time>
      </trkpt>
      <trkpt lat="45.4005" lon="5.80035">
        <ele>1135.2</ele>
        <time>2017-01-21T08:25:14Z</time>
      </trkpt>
      <trkpt lat="45.40051" lon="5.80039">
        <ele>1137.6</ele>
        <time>2017-01-21T08:25:19Z</time>
      </trkpt>
      <trkpt lat="45.40053" lon="5.80043">
        <ele>1136.6</ele>
        <time>2017-01-21T08:25:24Z</time>
      </trkpt>
      <trkpt lat="45.40054" lon="5.80047">
        <ele>1138.6</ele>
        <time>2017-01-21T08:25:29Z</time>
      </trkpt>
      <trkpt lat="45.40055" lon="5.80052">
        <ele>1140.4</ele>
        <time>2017-01-21T08:25:34Z</time>
      </trkpt>
      <trkpt lat="45.40055" lon="5.80056">
        <ele>1142.4</ele>
        <time>2017-01-21T08:25:39Z</time>
      </trkpt>
      <trkpt lat="45.40056" lon="5.8006">
        <ele>1141.8</ele>
        <time>2017-01-21T08:25:44Z</time>
      </trkpt>
      <trkpt lat="45.40055" lon="5.80064">
        <ele>1144.2</ele>
        <time>2017-01-21T08:25:49Z</time>
      </trkpt>
      <trkpt lat="45.40054" lon="5.80068">
        <ele>1142.4</ele>
        <time>2017-01-21T08:25:54Z</time>
      </trkpt>
      <trkpt lat="45.40053" lon="5.80072">
        <ele>1145.6</ele>
        <time>2017-01-21T08:26:00Z</time>
      </trkpt>
      <trkpt lat="45.40052" lon="5.80076">
        <ele>1142</ele>
        <time>2017-01-21T08:26:05Z</time>
      </trkpt>
      <trkpt lat="45.40051" lon="5.8008">
        <ele>1144.2</ele>
        <time>2017-01-21T08:26:10Z</time>
      </trkpt>
      <trkpt lat="45.4005" lon="5.80084">
        <ele>1145</ele>
        <time>2017-01-21T08:26:15Z</time>
      </trkpt>
      <trkpt lat="45.40048" lon="5.80088">
        <ele>1146.2</ele>
        <time>2017-01-21T08:26:20Z</time>
      </trkpt>
      <trkpt lat="45.40046" lon="5.80094">
        <ele>1143.8</ele>
        <time>2017-01-21T08:26:25Z</time>
      </trkpt>
      <trkpt lat="45.40045" lon="5.80098">
        <ele>1145</ele>
        <time>2017-01-21T08:26:30Z</time>
      </trkpt>
      <trkpt lat="45.40045" lon="5.80102">
        <ele>1145.6</ele>
        <time>2017-01-21T08:26:35Z</time>
      </trkpt>
      <trkpt lat="45.40044" lon="5.80107">
        <ele>1146.2</ele>
        <time>2017-01-21T08:26:40Z</time>
      </trkpt>
      <trkpt lat="45.40044" lon="5.80107">
        <ele>1145.4</ele>
        <time>2017-01-21T08:26:45Z</time>
      </trkpt>
      <trkpt lat="45.40044" lon="5.80108">
        <ele>1145</ele>
        <time>2017-01-21T08:26:50Z</time>
      </trkpt>
      <trkpt lat="45.40043" lon="5.8011">
        <ele>1144.2</ele>
        <time>2017-01-21T08:26:55Z</time>
      </trkpt>
      <trkpt lat="45.40041" lon="5.80114">
        <ele>1147.2</ele>
        <time>2017-01-21T08:27:00Z</time>
      </trkpt>
      <trkpt lat="45.40039" lon="5.80117">
        <ele>1144.2</ele>
        <time>2017-01-21T08:27:05Z</time>
      </trkpt>
      <trkpt lat="45.40037" lon="5.80121">
        <ele>1145.6</ele>
        <time>2017-01-21T08:27:10Z</time>
      </trkpt>
      <trkpt lat="45.40034" lon="5.80123">
        <ele>1145.8</ele>
        <time>2017-01-21T08:27:15Z</time>
      </trkpt>
      <trkpt lat="45.40033" lon="5.80125">
        <ele>1145.2</ele>
        <time>2017-01-21T08:27:20Z</time>
      </trkpt>
      <trkpt lat="45.40031" lon="5.80128">
        <ele>1145.2</ele>
        <time>2017-01-21T08:27:25Z</time>
      </trkpt>
      <trkpt lat="45.40029" lon="5.8013">
        <ele>1149.8</ele>
        <time>2017-01-21T08:27:30Z</time>
      </trkpt>
      <trkpt lat="45.40027" lon="5.80132">
        <ele>1147.8</ele>
        <time>2017-01-21T08:27:35Z</time>
      </trkpt>
      <trkpt lat="45.40025" lon="5.80134">
        <ele>1149.6</ele>
        <time>2017-01-21T08:27:40Z</time>
      </trkpt>
      <trkpt lat="45.40022" lon="5.80136">
        <ele>1149.8</ele>
        <time>2017-01-21T08:27:45Z</time>
      </trkpt>
      <trkpt lat="45.40021" lon="5.80138">
        <ele>1144.6</ele>
        <time>2017-01-21T08:27:50Z</time>
      </trkpt>
      <trkpt lat="45.40019" lon="5.80139">
        <ele>1148.2</ele>
        <time>2017-01-21T08:27:55Z</time>
      </trkpt>
      <trkpt lat="45.40017" lon="5.80141">
        <ele>1149.4</ele>
        <time>2017-01-21T08:28:00Z</time>
      </trkpt>
      <trkpt lat="45.40016" lon="5.80144">
        <ele>1151</ele>
        <time>2017-01-21T08:28:05Z</time>
      </trkpt>
      <trkpt lat="45.40015" lon="5.80146">
        <ele>1149.8</ele>
        <time>2017-01-21T08:28:10Z</time>
      </trkpt>
      <trkpt lat="45.40014" lon="5.80149">
        <ele>1148.4</ele>
        <time>2017-01-21T08:28:15Z</time>
      </trkpt>
      <trkpt lat="45.40013" lon="5.80151">
        <ele>1148.8</ele>
        <time>2017-01-21T08:28:20Z</time>
      </trkpt>
      <trkpt lat="45.40012" lon="5.80153">
        <ele>1148.2</ele>
        <time>2017-01-21T08:28:25Z</time>
      </trkpt>
      <trkpt lat="45.40011" lon="5.80155">
        <ele>1148.8</ele>
        <time>2017-01-21T08:28:30Z</time>
      </trkpt>
      <trkpt lat="45.4001" lon="5.80156">
        <ele>1149.6</ele>
        <time>2017-01-21T08:28:35Z</time>
      </trkpt>
      <trkpt lat="45.40009" lon="5.80158">
        <ele>1152.4</ele>
        <time>2017-01-21T08:28:40Z</time>
      </trkpt>
      <trkpt lat="45.40007" lon="5.8016">
        <ele>1154.2</ele>
        <time>2017-01-21T08:28:45Z</time>
      </trkpt>
      <trkpt lat="45.40006" lon="5.80163">
        <ele>1153.4</ele>
        <time>2017-01-21T08:28:50Z</time>
      </trkpt>
      <trkpt lat="45.40004" lon="5.80164">
        <ele>1154.6</ele>
        <time>2017-01-21T08:28:55Z</time>
      </trkpt>
      <trkpt lat="45.40003" lon="5.80167">
        <ele>1158.2</ele>
        <time>2017-01-21T08:29:00Z</time>
      </trkpt>
      <trkpt lat="45.40001" lon="5.80169">
        <ele>1159.2</ele>
        <time>2017-01-21T08:29:05Z</time>
      </trkpt>
      <trkpt lat="45.4" lon="5.80171">
        <ele>1159.4</ele>
        <time>2017-01-21T08:29:10Z</time>
      </trkpt>
      <trkpt lat="45.39999" lon="5.80172">
        <ele>1159.2</ele>
        <time>2017-01-21T08:29:15Z</time>
      </trkpt>
      <trkpt lat="45.39997" lon="5.80174">
        <ele>1158.6</ele>
        <time>2017-01-21T08:29:20Z</time>
      </trkpt>
      <trkpt lat="45.39996" lon="5.80176">
        <ele>1163.6</ele>
        <time>2017-01-21T08:29:25Z</time>
      </trkpt>
      <trkpt lat="45.39994" lon="5.80178">
        <ele>1163</ele>
        <time>2017-01-21T08:29:30Z</time>
      </trkpt>
      <trkpt lat="45.39993" lon="5.8018">
        <ele>1163.4</ele>
        <time>2017-01-21T08:29:35Z</time>
      </trkpt>
      <trkpt lat="45.39992" lon="5.80181">
        <ele>1163.4</ele>
        <time>2017-01-21T08:29:40Z</time>
      </trkpt>
      <trkpt lat="45.39991" lon="5.80182">
        <ele>1164</ele>
        <time>2017-01-21T08:29:45Z</time>
      </trkpt>
      <trkpt lat="45.39989" lon="5.80184">
        <ele>1163.6</ele>
        <time>2017-01-21T08:29:50Z</time>
      </trkpt>
      <trkpt lat="45.39988" lon="5.80186">
        <ele>1163.2</ele>
        <time>2017-01-21T08:29:55Z</time>
      </trkpt>
      <trkpt lat="45.39986" lon="5.80189">
        <ele>1165.8</ele>
        <time>2017-01-21T08:30:00Z</time>
      </trkpt>
      <trkpt lat="45.39985" lon="5.80191">
        <ele>1166.6</ele>
        <time>2017-01-21T08:30:05Z</time>
      </trkpt>
      <trkpt lat="45.39983" lon="5.80193">
        <ele>1169.4</ele>
        <time>2017-01-21T08:30:10Z</time>
      </trkpt>
      <trkpt lat="45.3998" lon="5.80195">
        <ele>1168</ele>
        <time>2017-01-21T08:30:15Z</time>
      </trkpt>
      <trkpt lat="45.39978" lon="5.80198">
        <ele>1170.8</ele>
        <time>2017-01-21T08:30:20Z</time>
      </trkpt>
      <trkpt lat="45.39976" lon="5.80199">
        <ele>1169.4</ele>
        <time>2017-01-21T08:30:25Z</time>
      </trkpt>
      <trkpt lat="45.39973" lon="5.80201">
        <ele>1171.8</ele>
        <time>2017-01-21T08:30:30Z</time>
      </trkpt>
      <trkpt lat="45.3997" lon="5.80202">
        <ele>1172</ele>
        <time>2017-01-21T08:30:35Z</time>
      </trkpt>
      <trkpt lat="45.39968" lon="5.80203">
        <ele>1172.6</ele>
        <time>2017-01-21T08:30:40Z</time>
      </trkpt>
      <trkpt lat="45.39968" lon="5.80202">
        <ele>1173.6</ele>
        <time>2017-01-21T08:30:45Z</time>
      </trkpt>
      <trkpt lat="45.39968" lon="5.80202">
        <ele>1175</ele>
        <time>2017-01-21T08:30:50Z</time>
      </trkpt>
      <trkpt lat="45.39969" lon="5.80202">
        <ele>1175.8</ele>
        <time>2017-01-21T08:30:55Z</time>
      </trkpt>
      <trkpt lat="45.39969" lon="5.80203">
        <ele>1176.6</ele>
        <time>2017-01-21T08:31:00Z</time>
      </trkpt>
      <trkpt lat="45.39969" lon="5.80203">
        <ele>1177.2</ele>
        <time>2017-01-21T08:31:05Z</time>
      </trkpt>
      <trkpt lat="45.39969" lon="5.80203">
        <ele>1177.6</ele>
        <time>2017-01-21T08:31:10Z</time>
      </trkpt>
      <trkpt lat="45.39968" lon="5.80203">
        <ele>1177.8</ele>
        <time>2017-01-21T08:31:15Z</time>
      </trkpt>
      <trkpt lat="45.39969" lon="5.80204">
        <ele>1178.2</ele>
        <time>2017-01-21T08:31:20Z</time>
      </trkpt>
      <trkpt lat="45.39969" lon="5.80204">
        <ele>1178.4</ele>
        <time>2017-01-21T08:31:25Z</time>
      </trkpt>
      <trkpt lat="45.39969" lon="5.80204">
        <ele>1178.6</ele>
        <time>2017-01-21T08:31:30Z</time>
      </trkpt>
      <trkpt lat="45.39969" lon="5.80204">
        <ele>1178.8</ele>
        <time>2017-01-21T08:31:35Z</time>
      </trkpt>
      <trkpt lat="45.39969" lon="5.80203">
        <ele>1179</ele>
        <time>2017-01-21T08:31:40Z</time>
      </trkpt>
      <trkpt lat="45.3997" lon="5.80203">
        <ele>1179.6</ele>
        <time>2017-01-21T08:31:45Z</time>
      </trkpt>
      <trkpt lat="45.3997" lon="5.80203">
        <ele>1180</ele>
        <time>2017-01-21T08:31:50Z</time>
      </trkpt>
      <trkpt lat="45.3997" lon="5.80203">
        <ele>1180.4</ele>
        <time>2017-01-21T08:31:55Z</time>
      </trkpt>
      <trkpt lat="45.3997" lon="5.80203">
        <ele>1180.6</ele>
        <time>2017-01-21T08:32:00Z</time>
      </trkpt>
      <trkpt lat="45.3997" lon="5.80203">
        <ele>1180.8</ele>
        <time>2017-01-21T08:32:05Z</time>
      </trkpt>
      <trkpt lat="45.3997" lon="5.80204">
        <ele>1181</ele>
        <time>2017-01-21T08:32:10Z</time>
      </trkpt>
      <trkpt lat="45.39969" lon="5.80204">
        <ele>1181.8</ele>
        <time>2017-01-21T08:32:15Z</time>
      </trkpt>
      <trkpt lat="45.39969" lon="5.80204">
        <ele>1182.6</ele>
        <time>2017-01-21T08:32:20Z</time>
      </trkpt>
      <trkpt lat="45.39969" lon="5.80204">
        <ele>1183.2</ele>
        <time>2017-01-21T08:32:25Z</time>
      </trkpt>
      <trkpt lat="45.39969" lon="5.80204">
        <ele>1183.6</ele>
        <time>2017-01-21T08:32:30Z</time>
      </trkpt>
      <trkpt lat="45.39969" lon="5.80204">
        <ele>1183.8</ele>
        <time>2017-01-21T08:32:35Z</time>
      </trkpt>
      <trkpt lat="45.39969" lon="5.80204">
        <ele>1184</ele>
        <time>2017-01-21T08:32:40Z</time>
      </trkpt>
      <trkpt lat="45.39969" lon="5.80204">
        <ele>1184</ele>
        <time>2017-01-21T08:32:45Z</time>
      </trkpt>
      <trkpt lat="45.39968" lon="5.80204">
        <ele>1184.2</ele>
        <time>2017-01-21T08:32:50Z</time>
      </trkpt>
      <trkpt lat="45.39968" lon="5.80203">
        <ele>1184.2</ele>
        <time>2017-01-21T08:32:55Z</time>
      </trkpt>
      <trkpt lat="45.39968" lon="5.80205">
        <ele>1185.2</ele>
        <time>2017-01-21T08:33:00Z</time>
      </trkpt>
      <trkpt lat="45.39964" lon="5.80207">
        <ele>1184.8</ele>
        <time>2017-01-21T08:33:05Z</time>
      </trkpt>
      <trkpt lat="45.3996" lon="5.80208">
        <ele>1186</ele>
        <time>2017-01-21T08:33:10Z</time>
      </trkpt>
      <trkpt lat="45.39956" lon="5.80208">
        <ele>1185.4</ele>
        <time>2017-01-21T08:33:15Z</time>
      </trkpt>
      <trkpt lat="45.39956" lon="5.80208">
        <ele>1184.6</ele>
        <time>2017-01-21T08:33:20Z</time>
      </trkpt>
      <trkpt lat="45.39952" lon="5.8021">
        <ele>1183.8</ele>
        <time>2017-01-21T08:33:25Z</time>
      </trkpt>
      <trkpt lat="45.39948" lon="5.80209">
        <ele>1186.6</ele>
        <time>2017-01-21T08:33:30Z</time>
      </trkpt>
      <trkpt lat="45.39945" lon="5.80209">
        <ele>1185.4</ele>
        <time>2017-01-21T08:33:35Z</time>
      </trkpt>
      <trkpt lat="45.39942" lon="5.8021">
        <ele>1188</ele>
        <time>2017-01-21T08:33:40Z</time>
      </trkpt>
      <trkpt lat="45.39939" lon="5.8021">
        <ele>1189.2</ele>
        <time>2017-01-21T08:33:45Z</time>
      </trkpt>
      <trkpt lat="45.39936" lon="5.8021">
        <ele>1189.2</ele>
        <time>2017-01-21T08:33:50Z</time>
      </trkpt>
      <trkpt lat="45.39934" lon="5.8021">
        <ele>1189.6</ele>
        <time>2017-01-21T08:33:55Z</time>
      </trkpt>
      <trkpt lat="45.39931" lon="5.8021">
        <ele>1192.8</ele>
        <time>2017-01-21T08:34:00Z</time>
      </trkpt>
      <trkpt lat="45.39928" lon="5.80211">
        <ele>1194.6</ele>
        <time>2017-01-21T08:34:05Z</time>
      </trkpt>
      <trkpt lat="45.39925" lon="5.80213">
        <ele>1195.6</ele>
        <time>2017-01-21T08:34:10Z</time>
      </trkpt>
      <trkpt lat="45.39922" lon="5.80214">
        <ele>1196</ele>
        <time>2017-01-21T08:34:15Z</time>
      </trkpt>
      <trkpt lat="45.3992" lon="5.80215">
        <ele>1195.2</ele>
        <time>2017-01-21T08:34:20Z</time>
      </trkpt>
      <trkpt lat="45.39919" lon="5.80216">
        <ele>1195</ele>
        <time>2017-01-21T08:34:25Z</time>
      </trkpt>
      <trkpt lat="45.39917" lon="5.80216">
        <ele>1195.4</ele>
        <time>2017-01-21T08:34:30Z</time>
      </trkpt>
      <trkpt lat="45.39914" lon="5.80216">
        <ele>1196.6</ele>
        <time>2017-01-21T08:34:35Z</time>
      </trkpt>
      <trkpt lat="45.39912" lon="5.80216">
        <ele>1197</ele>
        <time>2017-01-21T08:34:40Z</time>
      </trkpt>
      <trkpt lat="45.3991" lon="5.80217">
        <ele>1197.2</ele>
        <time>2017-01-21T08:34:45Z</time>
      </trkpt>
      <trkpt lat="45.39907" lon="5.80218">
        <ele>1197.8</ele>
        <time>2017-01-21T08:34:50Z</time>
      </trkpt>
      <trkpt lat="45.39906" lon="5.8022">
        <ele>1196</ele>
        <time>2017-01-21T08:34:55Z</time>
      </trkpt>
      <trkpt lat="45.39904" lon="5.80222">
        <ele>1196.4</ele>
        <time>2017-01-21T08:35:00Z</time>
      </trkpt>
      <trkpt lat="45.39902" lon="5.80224">
        <ele>1196.2</ele>
        <time>2017-01-21T08:35:05Z</time>
      </trkpt>
      <trkpt lat="45.399" lon="5.80226">
        <ele>1197.6</ele>
        <time>2017-01-21T08:35:10Z</time>
      </trkpt>
      <trkpt lat="45.39898" lon="5.80229">
        <ele>1195.2</ele>
        <time>2017-01-21T08:35:15Z</time>
      </trkpt>
      <trkpt lat="45.39896" lon="5.80231">
        <ele>1196.6</ele>
        <time>2017-01-21T08:35:20Z</time>
      </trkpt>
      <trkpt lat="45.39894" lon="5.80233">
        <ele>1198.4</ele>
        <time>2017-01-21T08:35:25Z</time>
      </trkpt>
      <trkpt lat="45.39892" lon="5.80234">
        <ele>1198.6</ele>
        <time>2017-01-21T08:35:30Z</time>
      </trkpt>
      <trkpt lat="45.3989" lon="5.80237">
        <ele>1200.6</ele>
        <time>2017-01-21T08:35:35Z</time>
      </trkpt>
      <trkpt lat="45.39888" lon="5.80239">
        <ele>1200.8</ele>
        <time>2017-01-21T08:35:40Z</time>
      </trkpt>
      <trkpt lat="45.39886" lon="5.8024">
        <ele>1199.6</ele>
        <time>2017-01-21T08:35:45Z</time>
      </trkpt>
      <trkpt lat="45.39883" lon="5.80242">
        <ele>1201.2</ele>
        <time>2017-01-21T08:35:50Z</time>
      </trkpt>
      <trkpt lat="45.39881" lon="5.80244">
        <ele>1202</ele>
        <time>2017-01-21T08:35:55Z</time>
      </trkpt>
      <trkpt lat="45.39878" lon="5.80246">
        <ele>1204.8</ele>
        <time>2017-01-21T08:36:00Z</time>
      </trkpt>
      <trkpt lat="45.39875" lon="5.80248">
        <ele>1202.4</ele>
        <time>2017-01-21T08:36:05Z</time>
      </trkpt>
      <trkpt lat="45.39873" lon="5.8025">
        <ele>1204.2</ele>
        <time>2017-01-21T08:36:10Z</time>
      </trkpt>
      <trkpt lat="45.39871" lon="5.80251">
        <ele>1203.6</ele>
        <time>2017-01-21T08:36:15Z</time>
      </trkpt>
      <trkpt lat="45.39869" lon="5.80252">
        <ele>1203.4</ele>
        <time>2017-01-21T08:36:20Z</time>
      </trkpt>
      <trkpt lat="45.39867" lon="5.80253">
        <ele>1205.6</ele>
        <time>2017-01-21T08:36:25Z</time>
      </trkpt>
      <trkpt lat="45.39865" lon="5.80253">
        <ele>1205.4</ele>
        <time>2017-01-21T08:36:30Z</time>
      </trkpt>
      <trkpt lat="45.39864" lon="5.80253">
        <ele>1205.2</ele>
        <time>2017-01-21T08:36:35Z</time>
      </trkpt>
      <trkpt lat="45.39862" lon="5.80253">
        <ele>1207.6</ele>
        <time>2017-01-21T08:36:40Z</time>
      </trkpt>
      <trkpt lat="45.39859" lon="5.80254">
        <ele>1210.6</ele>
        <time>2017-01-21T08:36:45Z</time>
      </trkpt>
      <trkpt lat="45.39857" lon="5.80254">
        <ele>1212.6</ele>
        <time>2017-01-21T08:36:50Z</time>
      </trkpt>
      <trkpt lat="45.39855" lon="5.80254">
        <ele>1212</ele>
        <time>2017-01-21T08:36:55Z</time>
      </trkpt>
      <trkpt lat="45.39853" lon="5.80256">
        <ele>1216.4</ele>
        <time>2017-01-21T08:37:00Z</time>
      </trkpt>
      <trkpt lat="45.39852" lon="5.80258">
        <ele>1212.6</ele>
        <time>2017-01-21T08:37:05Z</time>
      </trkpt>
      <trkpt lat="45.3985" lon="5.80261">
        <ele>1212.6</ele>
        <time>2017-01-21T08:37:10Z</time>
      </trkpt>
      <trkpt lat="45.39849" lon="5.80263">
        <ele>1215.8</ele>
        <time>2017-01-21T08:37:15Z</time>
      </trkpt>
      <trkpt lat="45.39847" lon="5.80264">
        <ele>1216.2</ele>
        <time>2017-01-21T08:37:20Z</time>
      </trkpt>
      <trkpt lat="45.39846" lon="5.80266">
        <ele>1218.4</ele>
        <time>2017-01-21T08:37:25Z</time>
      </trkpt>
      <trkpt lat="45.39844" lon="5.80267">
        <ele>1218.4</ele>
        <time>2017-01-21T08:37:30Z</time>
      </trkpt>
      <trkpt lat="45.39842" lon="5.80268">
        <ele>1219.8</ele>
        <time>2017-01-21T08:37:35Z</time>
      </trkpt>
      <trkpt lat="45.3984" lon="5.80269">
        <ele>1221.6</ele>
        <time>2017-01-21T08:37:40Z</time>
      </trkpt>
      <trkpt lat="45.39838" lon="5.8027">
        <ele>1221.8</ele>
        <time>2017-01-21T08:37:45Z</time>
      </trkpt>
      <trkpt lat="45.39837" lon="5.80271">
        <ele>1222</ele>
        <time>2017-01-21T08:37:50Z</time>
      </trkpt>
      <trkpt lat="45.39835" lon="5.80271">
        <ele>1223.2</ele>
        <time>2017-01-21T08:37:55Z</time>
      </trkpt>
      <trkpt lat="45.39833" lon="5.80271">
        <ele>1223.2</ele>
        <time>2017-01-21T08:38:00Z</time>
      </trkpt>
      <trkpt lat="45.39831" lon="5.80272">
        <ele>1223.6</ele>
        <time>2017-01-21T08:38:05Z</time>
      </trkpt>
      <trkpt lat="45.39829" lon="5.80271">
        <ele>1224</ele>
        <time>2017-01-21T08:38:10Z</time>
      </trkpt>
      <trkpt lat="45.39827" lon="5.8027">
        <ele>1225</ele>
        <time>2017-01-21T08:38:15Z</time>
      </trkpt>
      <trkpt lat="45.39825" lon="5.8027">
        <ele>1227</ele>
        <time>2017-01-21T08:38:20Z</time>
      </trkpt>
      <trkpt lat="45.39824" lon="5.8027">
        <ele>1227.4</ele>
        <time>2017-01-21T08:38:25Z</time>
      </trkpt>
      <trkpt lat="45.39822" lon="5.8027">
        <ele>1225.4</ele>
        <time>2017-01-21T08:38:30Z</time>
      </trkpt>
      <trkpt lat="45.39819" lon="5.80269">
        <ele>1229.8</ele>
        <time>2017-01-21T08:38:35Z</time>
      </trkpt>
      <trkpt lat="45.39817" lon="5.80268">
        <ele>1231.4</ele>
        <time>2017-01-21T08:38:40Z</time>
      </trkpt>
      <trkpt lat="45.39816" lon="5.80268">
        <ele>1232.8</ele>
        <time>2017-01-21T08:38:45Z</time>
      </trkpt>
      <trkpt lat="45.39814" lon="5.80268">
        <ele>1235</ele>
        <time>2017-01-21T08:38:50Z</time>
      </trkpt>
      <trkpt lat="45.39812" lon="5.80268">
        <ele>1230.2</ele>
        <time>2017-01-21T08:38:55Z</time>
      </trkpt>
      <trkpt lat="45.3981" lon="5.80266">
        <ele>1233.8</ele>
        <time>2017-01-21T08:39:00Z</time>
      </trkpt>
      <trkpt lat="45.39808" lon="5.80265">
        <ele>1233.8</ele>
        <time>2017-01-21T08:39:05Z</time>
      </trkpt>
      <trkpt lat="45.39806" lon="5.80264">
        <ele>1236.8</ele>
        <time>2017-01-21T08:39:10Z</time>
      </trkpt>
      <trkpt lat="45.39804" lon="5.80263">
        <ele>1237.6</ele>
        <time>2017-01-21T08:39:15Z</time>
      </trkpt>
      <trkpt lat="45.39802" lon="5.80261">
        <ele>1238.6</ele>
        <time>2017-01-21T08:39:20Z</time>
      </trkpt>
      <trkpt lat="45.398" lon="5.8026">
        <ele>1239.2</ele>
        <time>2017-01-21T08:39:25Z</time>
      </trkpt>
      <trkpt lat="45.39798" lon="5.8026">
        <ele>1239.2</ele>
        <time>2017-01-21T08:39:30Z</time>
      </trkpt>
      <trkpt lat="45.39796" lon="5.8026">
        <ele>1239.2</ele>
        <time>2017-01-21T08:39:35Z</time>
      </trkpt>
      <trkpt lat="45.39794" lon="5.8026">
        <ele>1241.8</ele>
        <time>2017-01-21T08:39:40Z</time>
      </trkpt>
      <trkpt lat="45.39792" lon="5.80259">
        <ele>1243.6</ele>
        <time>2017-01-21T08:39:45Z</time>
      </trkpt>
      <trkpt lat="45.3979" lon="5.80258">
        <ele>1244.4</ele>
        <time>2017-01-21T08:39:50Z</time>
      </trkpt>
      <trkpt lat="45.39787" lon="5.80259">
        <ele>1243</ele>
        <time>2017-01-21T08:39:55Z</time>
      </trkpt>
      <trkpt lat="45.39785" lon="5.80259">
        <ele>1244.2</ele>
        <time>2017-01-21T08:40:00Z</time>
      </trkpt>
      <trkpt lat="45.39782" lon="5.80259">
        <ele>1244</ele>
        <time>2017-01-21T08:40:05Z</time>
      </trkpt>
      <trkpt lat="45.39781" lon="5.80258">
        <ele>1242.4</ele>
        <time>2017-01-21T08:40:10Z</time>
      </trkpt>
      <trkpt lat="45.39777" lon="5.80259">
        <ele>1244.2</ele>
        <time>2017-01-21T08:40:15Z</time>
      </trkpt>
      <trkpt lat="45.39774" lon="5.80259">
        <ele>1244.8</ele>
        <time>2017-01-21T08:40:20Z</time>
      </trkpt>
      <trkpt lat="45.39771" lon="5.80259">
        <ele>1244.8</ele>
        <time>2017-01-21T08:40:25Z</time>
      </trkpt>
      <trkpt lat="45.39768" lon="5.80259">
        <ele>1248</ele>
        <time>2017-01-21T08:40:30Z</time>
      </trkpt>
      <trkpt lat="45.39765" lon="5.80259">
        <ele>1246.4</ele>
        <time>2017-01-21T08:40:35Z</time>
      </trkpt>
      <trkpt lat="45.39761" lon="5.80259">
        <ele>1247</ele>
        <time>2017-01-21T08:40:40Z</time>
      </trkpt>
      <trkpt lat="45.39757" lon="5.8026">
        <ele>1248.6</ele>
        <time>2017-01-21T08:40:46Z</time>
      </trkpt>
      <trkpt lat="45.39752" lon="5.8026">
        <ele>1248.2</ele>
        <time>2017-01-21T08:40:52Z</time>
      </trkpt>
      <trkpt lat="45.39749" lon="5.80262">
        <ele>1250.4</ele>
        <time>2017-01-21T08:40:57Z</time>
      </trkpt>
      <trkpt lat="45.39745" lon="5.80264">
        <ele>1249.4</ele>
        <time>2017-01-21T08:41:02Z</time>
      </trkpt>
      <trkpt lat="45.3974" lon="5.80265">
        <ele>1247.6</ele>
        <time>2017-01-21T08:41:08Z</time>
      </trkpt>
      <trkpt lat="45.39736" lon="5.80266">
        <ele>1248.4</ele>
        <time>2017-01-21T08:41:13Z</time>
      </trkpt>
      <trkpt lat="45.39732" lon="5.80268">
        <ele>1248</ele>
        <time>2017-01-21T08:41:18Z</time>
      </trkpt>
      <trkpt lat="45.39728" lon="5.80269">
        <ele>1248</ele>
        <time>2017-01-21T08:41:23Z</time>
      </trkpt>
      <trkpt lat="45.39725" lon="5.8027">
        <ele>1247.2</ele>
        <time>2017-01-21T08:41:28Z</time>
      </trkpt>
      <trkpt lat="45.39721" lon="5.80271">
        <ele>1249.6</ele>
        <time>2017-01-21T08:41:33Z</time>
      </trkpt>
      <trkpt lat="45.39717" lon="5.80272">
        <ele>1246</ele>
        <time>2017-01-21T08:41:38Z</time>
      </trkpt>
      <trkpt lat="45.39713" lon="5.80273">
        <ele>1249</ele>
        <time>2017-01-21T08:41:43Z</time>
      </trkpt>
      <trkpt lat="45.39709" lon="5.80275">
        <ele>1247.4</ele>
        <time>2017-01-21T08:41:48Z</time>
      </trkpt>
      <trkpt lat="45.39705" lon="5.80277">
        <ele>1250.4</ele>
        <time>2017-01-21T08:41:53Z</time>
      </trkpt>
      <trkpt lat="45.39703" lon="5.80277">
        <ele>1248.6</ele>
        <time>2017-01-21T08:41:58Z</time>
      </trkpt>
      <trkpt lat="45.39699" lon="5.80278">
        <ele>1249.6</ele>
        <time>2017-01-21T08:42:03Z</time>
      </trkpt>
      <trkpt lat="45.39695" lon="5.80278">
        <ele>1252</ele>
        <time>2017-01-21T08:42:08Z</time>
      </trkpt>
      <trkpt lat="45.39691" lon="5.80278">
        <ele>1253</ele>
        <time>2017-01-21T08:42:13Z</time>
      </trkpt>
      <trkpt lat="45.39689" lon="5.80281">
        <ele>1253.2</ele>
        <time>2017-01-21T08:42:18Z</time>
      </trkpt>
      <trkpt lat="45.39687" lon="5.80283">
        <ele>1252</ele>
        <time>2017-01-21T08:42:23Z</time>
      </trkpt>
      <trkpt lat="45.39687" lon="5.80283">
        <ele>1252.4</ele>
        <time>2017-01-21T08:42:28Z</time>
      </trkpt>
      <trkpt lat="45.39687" lon="5.80283">
        <ele>1252.8</ele>
        <time>2017-01-21T08:42:33Z</time>
      </trkpt>
      <trkpt lat="45.39687" lon="5.80283">
        <ele>1252.6</ele>
        <time>2017-01-21T08:42:38Z</time>
      </trkpt>
      <trkpt lat="45.39687" lon="5.80283">
        <ele>1253</ele>
        <time>2017-01-21T08:42:43Z</time>
      </trkpt>
      <trkpt lat="45.39687" lon="5.80283">
        <ele>1253.2</ele>
        <time>2017-01-21T08:42:48Z</time>
      </trkpt>
      <trkpt lat="45.39687" lon="5.80283">
        <ele>1253.2</ele>
        <time>2017-01-21T08:42:53Z</time>
      </trkpt>
      <trkpt lat="45.39687" lon="5.80283">
        <ele>1253.4</ele>
        <time>2017-01-21T08:42:58Z</time>
      </trkpt>
      <trkpt lat="45.39687" lon="5.80283">
        <ele>1253.4</ele>
        <time>2017-01-21T08:43:03Z</time>
      </trkpt>
      <trkpt lat="45.39687" lon="5.80283">
        <ele>1253.4</ele>
        <time>2017-01-21T08:43:08Z</time>
      </trkpt>
      <trkpt lat="45.39687" lon="5.80283">
        <ele>1253.6</ele>
        <time>2017-01-21T08:43:13Z</time>
      </trkpt>
      <trkpt lat="45.39687" lon="5.80283">
        <ele>1253.6</ele>
        <time>2017-01-21T08:43:18Z</time>
      </trkpt>
      <trkpt lat="45.39687" lon="5.80283">
        <ele>1253.6</ele>
        <time>2017-01-21T08:43:23Z</time>
      </trkpt>
      <trkpt lat="45.39687" lon="5.80283">
        <ele>1253.8</ele>
        <time>2017-01-21T08:43:28Z</time>
      </trkpt>
      <trkpt lat="45.39687" lon="5.80283">
        <ele>1253.8</ele>
        <time>2017-01-21T08:43:33Z</time>
      </trkpt>
      <trkpt lat="45.39687" lon="5.80283">
        <ele>1254</ele>
        <time>2017-01-21T08:43:38Z</time>
      </trkpt>
      <trkpt lat="45.39687" lon="5.80283">
        <ele>1254</ele>
        <time>2017-01-21T08:43:43Z</time>
      </trkpt>
      <trkpt lat="45.39687" lon="5.80283">
        <ele>1254</ele>
        <time>2017-01-21T08:43:48Z</time>
      </trkpt>
      <trkpt lat="45.39687" lon="5.80283">
        <ele>1254</ele>
        <time>2017-01-21T08:43:53Z</time>
      </trkpt>
      <trkpt lat="45.39687" lon="5.80283">
        <ele>1254</ele>
        <time>2017-01-21T08:43:58Z</time>
      </trkpt>
      <trkpt lat="45.39687" lon="5.80283">
        <ele>1254</ele>
        <time>2017-01-21T08:44:03Z</time>
      </trkpt>
      <trkpt lat="45.39687" lon="5.80283">
        <ele>1254.2</ele>
        <time>2017-01-21T08:44:08Z</time>
      </trkpt>
      <trkpt lat="45.39687" lon="5.80283">
        <ele>1254.2</ele>
        <time>2017-01-21T08:44:13Z</time>
      </trkpt>
      <trkpt lat="45.39684" lon="5.80283">
        <ele>1256.6</ele>
        <time>2017-01-21T08:44:18Z</time>
      </trkpt>
      <trkpt lat="45.39681" lon="5.80282">
        <ele>1252.2</ele>
        <time>2017-01-21T08:44:23Z</time>
      </trkpt>
      <trkpt lat="45.39677" lon="5.80282">
        <ele>1257.4</ele>
        <time>2017-01-21T08:44:28Z</time>
      </trkpt>
      <trkpt lat="45.39673" lon="5.80282">
        <ele>1257.6</ele>
        <time>2017-01-21T08:44:33Z</time>
      </trkpt>
      <trkpt lat="45.39669" lon="5.80282">
        <ele>1258.4</ele>
        <time>2017-01-21T08:44:38Z</time>
      </trkpt>
      <trkpt lat="45.39665" lon="5.80283">
        <ele>1259.2</ele>
        <time>2017-01-21T08:44:43Z</time>
      </trkpt>
      <trkpt lat="45.39662" lon="5.80284">
        <ele>1261.8</ele>
        <time>2017-01-21T08:44:48Z</time>
      </trkpt>
      <trkpt lat="45.39659" lon="5.80285">
        <ele>1262.4</ele>
        <time>2017-01-21T08:44:53Z</time>
      </trkpt>
      <trkpt lat="45.39656" lon="5.80286">
        <ele>1264</ele>
        <time>2017-01-21T08:44:58Z</time>
      </trkpt>
      <trkpt lat="45.39653" lon="5.80287">
        <ele>1264.4</ele>
        <time>2017-01-21T08:45:03Z</time>
      </trkpt>
      <trkpt lat="45.3965" lon="5.80289">
        <ele>1264.6</ele>
        <time>2017-01-21T08:45:08Z</time>
      </trkpt>
      <trkpt lat="45.39647" lon="5.80292">
        <ele>1267</ele>
        <time>2017-01-21T08:45:13Z</time>
      </trkpt>
      <trkpt lat="45.39644" lon="5.80294">
        <ele>1267.6</ele>
        <time>2017-01-21T08:45:18Z</time>
      </trkpt>
      <trkpt lat="45.39641" lon="5.80295">
        <ele>1264.8</ele>
        <time>2017-01-21T08:45:23Z</time>
      </trkpt>
      <trkpt lat="45.39639" lon="5.80295">
        <ele>1266.8</ele>
        <time>2017-01-21T08:45:28Z</time>
      </trkpt>
      <trkpt lat="45.39636" lon="5.80296">
        <ele>1265.2</ele>
        <time>2017-01-21T08:45:33Z</time>
      </trkpt>
      <trkpt lat="45.39632" lon="5.80297">
        <ele>1265.2</ele>
        <time>2017-01-21T08:45:38Z</time>
      </trkpt>
      <trkpt lat="45.39629" lon="5.803">
        <ele>1263.6</ele>
        <time>2017-01-21T08:45:43Z</time>
      </trkpt>
      <trkpt lat="45.39626" lon="5.80301">
        <ele>1263.4</ele>
        <time>2017-01-21T08:45:48Z</time>
      </trkpt>
      <trkpt lat="45.39624" lon="5.80303">
        <ele>1262.6</ele>
        <time>2017-01-21T08:45:53Z</time>
      </trkpt>
      <trkpt lat="45.39621" lon="5.80304">
        <ele>1263.2</ele>
        <time>2017-01-21T08:45:58Z</time>
      </trkpt>
      <trkpt lat="45.39619" lon="5.80304">
        <ele>1262.4</ele>
        <time>2017-01-21T08:46:03Z</time>
      </trkpt>
      <trkpt lat="45.39616" lon="5.80304">
        <ele>1263.8</ele>
        <time>2017-01-21T08:46:08Z</time>
      </trkpt>
      <trkpt lat="45.39613" lon="5.80304">
        <ele>1265.2</ele>
        <time>2017-01-21T08:46:13Z</time>
      </trkpt>
      <trkpt lat="45.3961" lon="5.80304">
        <ele>1267.2</ele>
        <time>2017-01-21T08:46:18Z</time>
      </trkpt>
      <trkpt lat="45.39607" lon="5.80305">
        <ele>1265</ele>
        <time>2017-01-21T08:46:23Z</time>
      </trkpt>
      <trkpt lat="45.39605" lon="5.80307">
        <ele>1264.4</ele>
        <time>2017-01-21T08:46:28Z</time>
      </trkpt>
      <trkpt lat="45.39602" lon="5.80308">
        <ele>1266.6</ele>
        <time>2017-01-21T08:46:33Z</time>
      </trkpt>
      <trkpt lat="45.396" lon="5.80309">
        <ele>1266</ele>
        <time>2017-01-21T08:46:38Z</time>
      </trkpt>
      <trkpt lat="45.39598" lon="5.8031">
        <ele>1268</ele>
        <time>2017-01-21T08:46:43Z</time>
      </trkpt>
      <trkpt lat="45.39596" lon="5.80311">
        <ele>1266.2</ele>
        <time>2017-01-21T08:46:48Z</time>
      </trkpt>
      <trkpt lat="45.39594" lon="5.80313">
        <ele>1267.2</ele>
        <time>2017-01-21T08:46:53Z</time>
      </trkpt>
      <trkpt lat="45.39592" lon="5.80314">
        <ele>1270.8</ele>
        <time>2017-01-21T08:46:58Z</time>
      </trkpt>
      <trkpt lat="45.3959" lon="5.80316">
        <ele>1270.6</ele>
        <time>2017-01-21T08:47:03Z</time>
      </trkpt>
      <trkpt lat="45.39588" lon="5.80318">
        <ele>1270.6</ele>
        <time>2017-01-21T08:47:08Z</time>
      </trkpt>
      <trkpt lat="45.39586" lon="5.8032">
        <ele>1270.2</ele>
        <time>2017-01-21T08:47:13Z</time>
      </trkpt>
      <trkpt lat="45.39585" lon="5.80321">
        <ele>1274.4</ele>
        <time>2017-01-21T08:47:18Z</time>
      </trkpt>
      <trkpt lat="45.39583" lon="5.80322">
        <ele>1272</ele>
        <time>2017-01-21T08:47:23Z</time>
      </trkpt>
      <trkpt lat="45.39581" lon="5.80324">
        <ele>1271</ele>
        <time>2017-01-21T08:47:28Z</time>
      </trkpt>
      <trkpt lat="45.39579" lon="5.80325">
        <ele>1274</ele>
        <time>2017-01-21T08:47:33Z</time>
      </trkpt>
      <trkpt lat="45.39577" lon="5.80326">
        <ele>1276.4</ele>
        <time>2017-01-21T08:47:38Z</time>
      </trkpt>
      <trkpt lat="45.39575" lon="5.80327">
        <ele>1274.4</ele>
        <time>2017-01-21T08:47:43Z</time>
      </trkpt>
      <trkpt lat="45.39573" lon="5.80329">
        <ele>1273.2</ele>
        <time>2017-01-21T08:47:48Z</time>
      </trkpt>
      <trkpt lat="45.39571" lon="5.8033">
        <ele>1275</ele>
        <time>2017-01-21T08:47:53Z</time>
      </trkpt>
      <trkpt lat="45.39569" lon="5.80331">
        <ele>1274.8</ele>
        <time>2017-01-21T08:47:58Z</time>
      </trkpt>
      <trkpt lat="45.39567" lon="5.80332">
        <ele>1277</ele>
        <time>2017-01-21T08:48:03Z</time>
      </trkpt>
      <trkpt lat="45.39565" lon="5.80332">
        <ele>1276.6</ele>
        <time>2017-01-21T08:48:08Z</time>
      </trkpt>
      <trkpt lat="45.39564" lon="5.80333">
        <ele>1274.6</ele>
        <time>2017-01-21T08:48:13Z</time>
      </trkpt>
      <trkpt lat="45.39562" lon="5.80334">
        <ele>1273.2</ele>
        <time>2017-01-21T08:48:18Z</time>
      </trkpt>
      <trkpt lat="45.3956" lon="5.80334">
        <ele>1275.2</ele>
        <time>2017-01-21T08:48:23Z</time>
      </trkpt>
      <trkpt lat="45.39559" lon="5.80335">
        <ele>1273.4</ele>
        <time>2017-01-21T08:48:28Z</time>
      </trkpt>
      <trkpt lat="45.39557" lon="5.80335">
        <ele>1275.2</ele>
        <time>2017-01-21T08:48:33Z</time>
      </trkpt>
      <trkpt lat="45.39555" lon="5.80336">
        <ele>1275</ele>
        <time>2017-01-21T08:48:38Z</time>
      </trkpt>
      <trkpt lat="45.39553" lon="5.80336">
        <ele>1277</ele>
        <time>2017-01-21T08:48:43Z</time>
      </trkpt>
      <trkpt lat="45.39551" lon="5.80336">
        <ele>1280.6</ele>
        <time>2017-01-21T08:48:48Z</time>
      </trkpt>
      <trkpt lat="45.39549" lon="5.80337">
        <ele>1281</ele>
        <time>2017-01-21T08:48:53Z</time>
      </trkpt>
      <trkpt lat="45.39547" lon="5.80337">
        <ele>1281.2</ele>
        <time>2017-01-21T08:48:58Z</time>
      </trkpt>
      <trkpt lat="45.39546" lon="5.80338">
        <ele>1283</ele>
        <time>2017-01-21T08:49:03Z</time>
      </trkpt>
      <trkpt lat="45.39544" lon="5.80341">
        <ele>1283.6</ele>
        <time>2017-01-21T08:49:08Z</time>
      </trkpt>
      <trkpt lat="45.39543" lon="5.80342">
        <ele>1283.6</ele>
        <time>2017-01-21T08:49:13Z</time>
      </trkpt>
      <trkpt lat="45.39541" lon="5.80343">
        <ele>1284.4</ele>
        <time>2017-01-21T08:49:18Z</time>
      </trkpt>
      <trkpt lat="45.3954" lon="5.80345">
        <ele>1285.4</ele>
        <time>2017-01-21T08:49:23Z</time>
      </trkpt>
      <trkpt lat="45.39538" lon="5.80346">
        <ele>1289.2</ele>
        <time>2017-01-21T08:49:28Z</time>
      </trkpt>
      <trkpt lat="45.39536" lon="5.80348">
        <ele>1289</ele>
        <time>2017-01-21T08:49:33Z</time>
      </trkpt>
      <trkpt lat="45.39534" lon="5.8035">
        <ele>1291.2</ele>
        <time>2017-01-21T08:49:38Z</time>
      </trkpt>
      <trkpt lat="45.39532" lon="5.8035">
        <ele>1290.8</ele>
        <time>2017-01-21T08:49:43Z</time>
      </trkpt>
      <trkpt lat="45.3953" lon="5.80352">
        <ele>1288.6</ele>
        <time>2017-01-21T08:49:48Z</time>
      </trkpt>
      <trkpt lat="45.39528" lon="5.80353">
        <ele>1289.4</ele>
        <time>2017-01-21T08:49:53Z</time>
      </trkpt>
      <trkpt lat="45.39525" lon="5.80354">
        <ele>1287.6</ele>
        <time>2017-01-21T08:49:59Z</time>
      </trkpt>
      <trkpt lat="45.39523" lon="5.80354">
        <ele>1289</ele>
        <time>2017-01-21T08:50:04Z</time>
      </trkpt>
      <trkpt lat="45.39521" lon="5.80355">
        <ele>1289</ele>
        <time>2017-01-21T08:50:09Z</time>
      </trkpt>
      <trkpt lat="45.39519" lon="5.80356">
        <ele>1290</ele>
        <time>2017-01-21T08:50:14Z</time>
      </trkpt>
      <trkpt lat="45.39517" lon="5.80356">
        <ele>1289.2</ele>
        <time>2017-01-21T08:50:19Z</time>
      </trkpt>
      <trkpt lat="45.39516" lon="5.80355">
        <ele>1288.8</ele>
        <time>2017-01-21T08:50:24Z</time>
      </trkpt>
      <trkpt lat="45.39515" lon="5.80353">
        <ele>1287.2</ele>
        <time>2017-01-21T08:50:29Z</time>
      </trkpt>
      <trkpt lat="45.39513" lon="5.80351">
        <ele>1288</ele>
        <time>2017-01-21T08:50:34Z</time>
      </trkpt>
      <trkpt lat="45.39511" lon="5.8035">
        <ele>1290</ele>
        <time>2017-01-21T08:50:39Z</time>
      </trkpt>
      <trkpt lat="45.39509" lon="5.80348">
        <ele>1291.2</ele>
        <time>2017-01-21T08:50:44Z</time>
      </trkpt>
      <trkpt lat="45.39507" lon="5.80347">
        <ele>1288.2</ele>
        <time>2017-01-21T08:50:49Z</time>
      </trkpt>
      <trkpt lat="45.39505" lon="5.80346">
        <ele>1291.6</ele>
        <time>2017-01-21T08:50:54Z</time>
      </trkpt>
      <trkpt lat="45.39503" lon="5.80347">
        <ele>1294</ele>
        <time>2017-01-21T08:50:59Z</time>
      </trkpt>
      <trkpt lat="45.39501" lon="5.80349">
        <ele>1293.4</ele>
        <time>2017-01-21T08:51:04Z</time>
      </trkpt>
      <trkpt lat="45.39499" lon="5.80352">
        <ele>1294.4</ele>
        <time>2017-01-21T08:51:09Z</time>
      </trkpt>
      <trkpt lat="45.39497" lon="5.80355">
        <ele>1292.4</ele>
        <time>2017-01-21T08:51:14Z</time>
      </trkpt>
      <trkpt lat="45.39495" lon="5.80357">
        <ele>1295</ele>
        <time>2017-01-21T08:51:19Z</time>
      </trkpt>
      <trkpt lat="45.39493" lon="5.8036">
        <ele>1297.6</ele>
        <time>2017-01-21T08:51:24Z</time>
      </trkpt>
      <trkpt lat="45.39492" lon="5.80362">
        <ele>1294.4</ele>
        <time>2017-01-21T08:51:29Z</time>
      </trkpt>
      <trkpt lat="45.3949" lon="5.80359">
        <ele>1295.4</ele>
        <time>2017-01-21T08:51:34Z</time>
      </trkpt>
      <trkpt lat="45.39488" lon="5.80357">
        <ele>1295.8</ele>
        <time>2017-01-21T08:51:39Z</time>
      </trkpt>
      <trkpt lat="45.39487" lon="5.80354">
        <ele>1296</ele>
        <time>2017-01-21T08:51:44Z</time>
      </trkpt>
      <trkpt lat="45.39486" lon="5.80351">
        <ele>1297.8</ele>
        <time>2017-01-21T08:51:49Z</time>
      </trkpt>
      <trkpt lat="45.39484" lon="5.8035">
        <ele>1298.4</ele>
        <time>2017-01-21T08:51:54Z</time>
      </trkpt>
      <trkpt lat="45.39482" lon="5.80351">
        <ele>1299</ele>
        <time>2017-01-21T08:51:59Z</time>
      </trkpt>
      <trkpt lat="45.39479" lon="5.80353">
        <ele>1299.4</ele>
        <time>2017-01-21T08:52:04Z</time>
      </trkpt>
      <trkpt lat="45.39477" lon="5.80355">
        <ele>1298</ele>
        <time>2017-01-21T08:52:09Z</time>
      </trkpt>
      <trkpt lat="45.39475" lon="5.80358">
        <ele>1299.2</ele>
        <time>2017-01-21T08:52:14Z</time>
      </trkpt>
      <trkpt lat="45.39473" lon="5.80359">
        <ele>1297.4</ele>
        <time>2017-01-21T08:52:19Z</time>
      </trkpt>
      <trkpt lat="45.39472" lon="5.80356">
        <ele>1301.8</ele>
        <time>2017-01-21T08:52:24Z</time>
      </trkpt>
      <trkpt lat="45.3947" lon="5.80353">
        <ele>1301.8</ele>
        <time>2017-01-21T08:52:29Z</time>
      </trkpt>
      <trkpt lat="45.39469" lon="5.8035">
        <ele>1299.8</ele>
        <time>2017-01-21T08:52:34Z</time>
      </trkpt>
      <trkpt lat="45.39468" lon="5.80348">
        <ele>1302.8</ele>
        <time>2017-01-21T08:52:39Z</time>
      </trkpt>
      <trkpt lat="45.39466" lon="5.80349">
        <ele>1302.6</ele>
        <time>2017-01-21T08:52:44Z</time>
      </trkpt>
      <trkpt lat="45.39464" lon="5.80351">
        <ele>1304.4</ele>
        <time>2017-01-21T08:52:49Z</time>
      </trkpt>
      <trkpt lat="45.39462" lon="5.80352">
        <ele>1303.8</ele>
        <time>2017-01-21T08:52:54Z</time>
      </trkpt>
      <trkpt lat="45.3946" lon="5.80353">
        <ele>1305.2</ele>
        <time>2017-01-21T08:52:59Z</time>
      </trkpt>
      <trkpt lat="45.39458" lon="5.80353">
        <ele>1307.8</ele>
        <time>2017-01-21T08:53:04Z</time>
      </trkpt>
      <trkpt lat="45.39456" lon="5.80354">
        <ele>1306.6</ele>
        <time>2017-01-21T08:53:09Z</time>
      </trkpt>
      <trkpt lat="45.39455" lon="5.80354">
        <ele>1307</ele>
        <time>2017-01-21T08:53:14Z</time>
      </trkpt>
      <trkpt lat="45.39453" lon="5.80354">
        <ele>1304.8</ele>
        <time>2017-01-21T08:53:19Z</time>
      </trkpt>
      <trkpt lat="45.39452" lon="5.80355">
        <ele>1307.6</ele>
        <time>2017-01-21T08:53:24Z</time>
      </trkpt>
      <trkpt lat="45.39449" lon="5.80354">
        <ele>1308.4</ele>
        <time>2017-01-21T08:53:29Z</time>
      </trkpt>
      <trkpt lat="45.39447" lon="5.80354">
        <ele>1309.8</ele>
        <time>2017-01-21T08:53:34Z</time>
      </trkpt>
      <trkpt lat="45.39445" lon="5.80353">
        <ele>1311.4</ele>
        <time>2017-01-21T08:53:39Z</time>
      </trkpt>
      <trkpt lat="45.39442" lon="5.80353">
        <ele>1310.2</ele>
        <time>2017-01-21T08:53:44Z</time>
      </trkpt>
      <trkpt lat="45.39441" lon="5.80354">
        <ele>1310</ele>
        <time>2017-01-21T08:53:49Z</time>
      </trkpt>
      <trkpt lat="45.39441" lon="5.80353">
        <ele>1310.8</ele>
        <time>2017-01-21T08:53:54Z</time>
      </trkpt>
      <trkpt lat="45.39439" lon="5.80352">
        <ele>1312.4</ele>
        <time>2017-01-21T08:53:59Z</time>
      </trkpt>
      <trkpt lat="45.39437" lon="5.80352">
        <ele>1311.6</ele>
        <time>2017-01-21T08:54:04Z</time>
      </trkpt>
      <trkpt lat="45.39435" lon="5.80352">
        <ele>1314</ele>
        <time>2017-01-21T08:54:09Z</time>
      </trkpt>
      <trkpt lat="45.39433" lon="5.80352">
        <ele>1315.8</ele>
        <time>2017-01-21T08:54:14Z</time>
      </trkpt>
      <trkpt lat="45.39431" lon="5.80352">
        <ele>1315.2</ele>
        <time>2017-01-21T08:54:19Z</time>
      </trkpt>
      <trkpt lat="45.39429" lon="5.80351">
        <ele>1317.2</ele>
        <time>2017-01-21T08:54:24Z</time>
      </trkpt>
      <trkpt lat="45.39429" lon="5.80351">
        <ele>1317.4</ele>
        <time>2017-01-21T08:54:29Z</time>
      </trkpt>
      <trkpt lat="45.39429" lon="5.80351">
        <ele>1317.6</ele>
        <time>2017-01-21T08:54:34Z</time>
      </trkpt>
      <trkpt lat="45.39428" lon="5.8035">
        <ele>1317.2</ele>
        <time>2017-01-21T08:54:39Z</time>
      </trkpt>
      <trkpt lat="45.39426" lon="5.80349">
        <ele>1319</ele>
        <time>2017-01-21T08:54:44Z</time>
      </trkpt>
      <trkpt lat="45.39423" lon="5.8035">
        <ele>1316.6</ele>
        <time>2017-01-21T08:54:49Z</time>
      </trkpt>
      <trkpt lat="45.39421" lon="5.8035">
        <ele>1318</ele>
        <time>2017-01-21T08:54:54Z</time>
      </trkpt>
      <trkpt lat="45.3942" lon="5.8035">
        <ele>1320.4</ele>
        <time>2017-01-21T08:54:59Z</time>
      </trkpt>
      <trkpt lat="45.3942" lon="5.8035">
        <ele>1320.4</ele>
        <time>2017-01-21T08:55:04Z</time>
      </trkpt>
      <trkpt lat="45.39419" lon="5.8035">
        <ele>1320.2</ele>
        <time>2017-01-21T08:55:09Z</time>
      </trkpt>
      <trkpt lat="45.39419" lon="5.8035">
        <ele>1320.2</ele>
        <time>2017-01-21T08:55:14Z</time>
      </trkpt>
      <trkpt lat="45.39419" lon="5.80349">
        <ele>1320.2</ele>
        <time>2017-01-21T08:55:19Z</time>
      </trkpt>
      <trkpt lat="45.39417" lon="5.80349">
        <ele>1321</ele>
        <time>2017-01-21T08:55:24Z</time>
      </trkpt>
      <trkpt lat="45.39415" lon="5.80348">
        <ele>1324.2</ele>
        <time>2017-01-21T08:55:29Z</time>
      </trkpt>
      <trkpt lat="45.39413" lon="5.80348">
        <ele>1325.6</ele>
        <time>2017-01-21T08:55:34Z</time>
      </trkpt>
      <trkpt lat="45.39411" lon="5.80348">
        <ele>1324.2</ele>
        <time>2017-01-21T08:55:39Z</time>
      </trkpt>
      <trkpt lat="45.3941" lon="5.80348">
        <ele>1323.8</ele>
        <time>2017-01-21T08:55:44Z</time>
      </trkpt>
      <trkpt lat="45.39408" lon="5.80347">
        <ele>1324.8</ele>
        <time>2017-01-21T08:55:49Z</time>
      </trkpt>
      <trkpt lat="45.39406" lon="5.80348">
        <ele>1321</ele>
        <time>2017-01-21T08:55:54Z</time>
      </trkpt>
      <trkpt lat="45.39404" lon="5.80348">
        <ele>1324</ele>
        <time>2017-01-21T08:55:59Z</time>
      </trkpt>
      <trkpt lat="45.39402" lon="5.80347">
        <ele>1327</ele>
        <time>2017-01-21T08:56:04Z</time>
      </trkpt>
      <trkpt lat="45.394" lon="5.80346">
        <ele>1326.8</ele>
        <time>2017-01-21T08:56:09Z</time>
      </trkpt>
      <trkpt lat="45.39399" lon="5.80346">
        <ele>1325.8</ele>
        <time>2017-01-21T08:56:14Z</time>
      </trkpt>
      <trkpt lat="45.39396" lon="5.80345">
        <ele>1329</ele>
        <time>2017-01-21T08:56:19Z</time>
      </trkpt>
      <trkpt lat="45.39394" lon="5.80344">
        <ele>1329.4</ele>
        <time>2017-01-21T08:56:24Z</time>
      </trkpt>
      <trkpt lat="45.39392" lon="5.80343">
        <ele>1330.6</ele>
        <time>2017-01-21T08:56:29Z</time>
      </trkpt>
      <trkpt lat="45.39389" lon="5.80342">
        <ele>1330.4</ele>
        <time>2017-01-21T08:56:34Z</time>
      </trkpt>
      <trkpt lat="45.39387" lon="5.80341">
        <ele>1330.6</ele>
        <time>2017-01-21T08:56:39Z</time>
      </trkpt>
      <trkpt lat="45.39385" lon="5.8034">
        <ele>1333.2</ele>
        <time>2017-01-21T08:56:44Z</time>
      </trkpt>
      <trkpt lat="45.39382" lon="5.8034">
        <ele>1330.8</ele>
        <time>2017-01-21T08:56:49Z</time>
      </trkpt>
      <trkpt lat="45.3938" lon="5.8034">
        <ele>1333.2</ele>
        <time>2017-01-21T08:56:54Z</time>
      </trkpt>
      <trkpt lat="45.39379" lon="5.80339">
        <ele>1331.4</ele>
        <time>2017-01-21T08:56:59Z</time>
      </trkpt>
      <trkpt lat="45.39377" lon="5.80338">
        <ele>1332.4</ele>
        <time>2017-01-21T08:57:04Z</time>
      </trkpt>
      <trkpt lat="45.39376" lon="5.80337">
        <ele>1332.6</ele>
        <time>2017-01-21T08:57:09Z</time>
      </trkpt>
      <trkpt lat="45.39376" lon="5.80337">
        <ele>1333.6</ele>
        <time>2017-01-21T08:57:14Z</time>
      </trkpt>
      <trkpt lat="45.39376" lon="5.80337">
        <ele>1336.4</ele>
        <time>2017-01-21T08:57:19Z</time>
      </trkpt>
      <trkpt lat="45.39374" lon="5.80337">
        <ele>1337.4</ele>
        <time>2017-01-21T08:57:24Z</time>
      </trkpt>
      <trkpt lat="45.39373" lon="5.80336">
        <ele>1336.8</ele>
        <time>2017-01-21T08:57:29Z</time>
      </trkpt>
      <trkpt lat="45.39372" lon="5.80336">
        <ele>1336.6</ele>
        <time>2017-01-21T08:57:34Z</time>
      </trkpt>
      <trkpt lat="45.3937" lon="5.80336">
        <ele>1336.4</ele>
        <time>2017-01-21T08:57:39Z</time>
      </trkpt>
      <trkpt lat="45.39369" lon="5.80336">
        <ele>1337</ele>
        <time>2017-01-21T08:57:44Z</time>
      </trkpt>
      <trkpt lat="45.39369" lon="5.80336">
        <ele>1338.4</ele>
        <time>2017-01-21T08:57:49Z</time>
      </trkpt>
      <trkpt lat="45.39368" lon="5.80338">
        <ele>1343.2</ele>
        <time>2017-01-21T08:57:54Z</time>
      </trkpt>
      <trkpt lat="45.39366" lon="5.80339">
        <ele>1341.6</ele>
        <time>2017-01-21T08:57:59Z</time>
      </trkpt>
      <trkpt lat="45.39365" lon="5.80338">
        <ele>1342.2</ele>
        <time>2017-01-21T08:58:04Z</time>
      </trkpt>
      <trkpt lat="45.39364" lon="5.80339">
        <ele>1343.4</ele>
        <time>2017-01-21T08:58:09Z</time>
      </trkpt>
      <trkpt lat="45.39362" lon="5.8034">
        <ele>1342</ele>
        <time>2017-01-21T08:58:14Z</time>
      </trkpt>
      <trkpt lat="45.39362" lon="5.80341">
        <ele>1343</ele>
        <time>2017-01-21T08:58:19Z</time>
      </trkpt>
      <trkpt lat="45.39362" lon="5.80341">
        <ele>1343.8</ele>
        <time>2017-01-21T08:58:24Z</time>
      </trkpt>
      <trkpt lat="45.39361" lon="5.80345">
        <ele>1345.8</ele>
        <time>2017-01-21T08:58:29Z</time>
      </trkpt>
      <trkpt lat="45.3936" lon="5.80348">
        <ele>1347.8</ele>
        <time>2017-01-21T08:58:34Z</time>
      </trkpt>
      <trkpt lat="45.39359" lon="5.8035">
        <ele>1349.4</ele>
        <time>2017-01-21T08:58:39Z</time>
      </trkpt>
      <trkpt lat="45.39357" lon="5.80352">
        <ele>1349.8</ele>
        <time>2017-01-21T08:58:44Z</time>
      </trkpt>
      <trkpt lat="45.39357" lon="5.80355">
        <ele>1349</ele>
        <time>2017-01-21T08:58:49Z</time>
      </trkpt>
      <trkpt lat="45.39357" lon="5.80359">
        <ele>1348.8</ele>
        <time>2017-01-21T08:58:54Z</time>
      </trkpt>
      <trkpt lat="45.39358" lon="5.8036">
        <ele>1348.8</ele>
        <time>2017-01-21T08:58:59Z</time>
      </trkpt>
      <trkpt lat="45.39358" lon="5.8036">
        <ele>1348.8</ele>
        <time>2017-01-21T08:59:04Z</time>
      </trkpt>
      <trkpt lat="45.39358" lon="5.8036">
        <ele>1348.8</ele>
        <time>2017-01-21T08:59:09Z</time>
      </trkpt>
      <trkpt lat="45.39357" lon="5.80361">
        <ele>1348.2</ele>
        <time>2017-01-21T08:59:14Z</time>
      </trkpt>
      <trkpt lat="45.39357" lon="5.80364">
        <ele>1348.4</ele>
        <time>2017-01-21T08:59:19Z</time>
      </trkpt>
      <trkpt lat="45.39357" lon="5.80365">
        <ele>1348.6</ele>
        <time>2017-01-21T08:59:24Z</time>
      </trkpt>
      <trkpt lat="45.39357" lon="5.80367">
        <ele>1347.8</ele>
        <time>2017-01-21T08:59:29Z</time>
      </trkpt>
      <trkpt lat="45.39357" lon="5.80369">
        <ele>1351</ele>
        <time>2017-01-21T08:59:34Z</time>
      </trkpt>
      <trkpt lat="45.39358" lon="5.80372">
        <ele>1348.6</ele>
        <time>2017-01-21T08:59:39Z</time>
      </trkpt>
      <trkpt lat="45.39359" lon="5.80376">
        <ele>1349.2</ele>
        <time>2017-01-21T08:59:44Z</time>
      </trkpt>
      <trkpt lat="45.39358" lon="5.8038">
        <ele>1350.8</ele>
        <time>2017-01-21T08:59:49Z</time>
      </trkpt>
      <trkpt lat="45.39357" lon="5.80383">
        <ele>1351</ele>
        <time>2017-01-21T08:59:54Z</time>
      </trkpt>
      <trkpt lat="45.39357" lon="5.80387">
        <ele>1353</ele>
        <time>2017-01-21T08:59:59Z</time>
      </trkpt>
      <trkpt lat="45.39357" lon="5.8039">
        <ele>1352.4</ele>
        <time>2017-01-21T09:00:04Z</time>
      </trkpt>
      <trkpt lat="45.39357" lon="5.80393">
        <ele>1352.2</ele>
        <time>2017-01-21T09:00:09Z</time>
      </trkpt>
      <trkpt lat="45.39358" lon="5.80396">
        <ele>1351.8</ele>
        <time>2017-01-21T09:00:14Z</time>
      </trkpt>
      <trkpt lat="45.39359" lon="5.804">
        <ele>1354.8</ele>
        <time>2017-01-21T09:00:19Z</time>
      </trkpt>
      <trkpt lat="45.3936" lon="5.80403">
        <ele>1355</ele>
        <time>2017-01-21T09:00:24Z</time>
      </trkpt>
      <trkpt lat="45.39361" lon="5.80406">
        <ele>1354.4</ele>
        <time>2017-01-21T09:00:29Z</time>
      </trkpt>
      <trkpt lat="45.39362" lon="5.80409">
        <ele>1355.8</ele>
        <time>2017-01-21T09:00:34Z</time>
      </trkpt>
      <trkpt lat="45.39363" lon="5.80411">
        <ele>1354.4</ele>
        <time>2017-01-21T09:00:39Z</time>
      </trkpt>
      <trkpt lat="45.39363" lon="5.80413">
        <ele>1357</ele>
        <time>2017-01-21T09:00:44Z</time>
      </trkpt>
      <trkpt lat="45.39365" lon="5.80415">
        <ele>1357.4</ele>
        <time>2017-01-21T09:00:49Z</time>
      </trkpt>
      <trkpt lat="45.39365" lon="5.80415">
        <ele>1358.2</ele>
        <time>2017-01-21T09:00:54Z</time>
      </trkpt>
      <trkpt lat="45.39367" lon="5.80418">
        <ele>1362</ele>
        <time>2017-01-21T09:00:59Z</time>
      </trkpt>
      <trkpt lat="45.39368" lon="5.80421">
        <ele>1358.8</ele>
        <time>2017-01-21T09:01:04Z</time>
      </trkpt>
      <trkpt lat="45.39369" lon="5.80424">
        <ele>1360.2</ele>
        <time>2017-01-21T09:01:09Z</time>
      </trkpt>
      <trkpt lat="45.39369" lon="5.80429">
        <ele>1363.8</ele>
        <time>2017-01-21T09:01:14Z</time>
      </trkpt>
      <trkpt lat="45.39369" lon="5.80432">
        <ele>1362.4</ele>
        <time>2017-01-21T09:01:19Z</time>
      </trkpt>
      <trkpt lat="45.3937" lon="5.80435">
        <ele>1362.2</ele>
        <time>2017-01-21T09:01:24Z</time>
      </trkpt>
      <trkpt lat="45.39371" lon="5.80438">
        <ele>1366.2</ele>
        <time>2017-01-21T09:01:29Z</time>
      </trkpt>
      <trkpt lat="45.39372" lon="5.8044">
        <ele>1365.4</ele>
        <time>2017-01-21T09:01:35Z</time>
      </trkpt>
      <trkpt lat="45.39374" lon="5.80442">
        <ele>1365.6</ele>
        <time>2017-01-21T09:01:40Z</time>
      </trkpt>
      <trkpt lat="45.39374" lon="5.80445">
        <ele>1365.2</ele>
        <time>2017-01-21T09:01:45Z</time>
      </trkpt>
      <trkpt lat="45.39375" lon="5.80447">
        <ele>1366</ele>
        <time>2017-01-21T09:01:50Z</time>
      </trkpt>
      <trkpt lat="45.39376" lon="5.80449">
        <ele>1370</ele>
        <time>2017-01-21T09:01:55Z</time>
      </trkpt>
      <trkpt lat="45.39377" lon="5.80451">
        <ele>1372</ele>
        <time>2017-01-21T09:02:00Z</time>
      </trkpt>
      <trkpt lat="45.39378" lon="5.80453">
        <ele>1371.4</ele>
        <time>2017-01-21T09:02:05Z</time>
      </trkpt>
      <trkpt lat="45.39379" lon="5.80458">
        <ele>1379.6</ele>
        <time>2017-01-21T09:02:10Z</time>
      </trkpt>
      <trkpt lat="45.39381" lon="5.80464">
        <ele>1377.2</ele>
        <time>2017-01-21T09:02:15Z</time>
      </trkpt>
      <trkpt lat="45.39383" lon="5.80468">
        <ele>1376.8</ele>
        <time>2017-01-21T09:02:20Z</time>
      </trkpt>
      <trkpt lat="45.39384" lon="5.80473">
        <ele>1373.2</ele>
        <time>2017-01-21T09:02:25Z</time>
      </trkpt>
      <trkpt lat="45.39384" lon="5.80477">
        <ele>1372.6</ele>
        <time>2017-01-21T09:02:30Z</time>
      </trkpt>
      <trkpt lat="45.39385" lon="5.80481">
        <ele>1369.8</ele>
        <time>2017-01-21T09:02:35Z</time>
      </trkpt>
      <trkpt lat="45.39385" lon="5.80484">
        <ele>1371</ele>
        <time>2017-01-21T09:02:40Z</time>
      </trkpt>
      <trkpt lat="45.39387" lon="5.80486">
        <ele>1371.2</ele>
        <time>2017-01-21T09:02:45Z</time>
      </trkpt>
      <trkpt lat="45.39388" lon="5.80489">
        <ele>1369.6</ele>
        <time>2017-01-21T09:02:50Z</time>
      </trkpt>
      <trkpt lat="45.39389" lon="5.80491">
        <ele>1373.4</ele>
        <time>2017-01-21T09:02:55Z</time>
      </trkpt>
      <trkpt lat="45.3939" lon="5.80493">
        <ele>1372.4</ele>
        <time>2017-01-21T09:03:00Z</time>
      </trkpt>
      <trkpt lat="45.39391" lon="5.80495">
        <ele>1374.2</ele>
        <time>2017-01-21T09:03:05Z</time>
      </trkpt>
      <trkpt lat="45.39392" lon="5.80497">
        <ele>1370.4</ele>
        <time>2017-01-21T09:03:10Z</time>
      </trkpt>
      <trkpt lat="45.39393" lon="5.80499">
        <ele>1374.8</ele>
        <time>2017-01-21T09:03:15Z</time>
      </trkpt>
      <trkpt lat="45.39394" lon="5.80501">
        <ele>1376.2</ele>
        <time>2017-01-21T09:03:20Z</time>
      </trkpt>
      <trkpt lat="45.39395" lon="5.80504">
        <ele>1375.2</ele>
        <time>2017-01-21T09:03:25Z</time>
      </trkpt>
      <trkpt lat="45.39397" lon="5.80508">
        <ele>1374.2</ele>
        <time>2017-01-21T09:03:30Z</time>
      </trkpt>
      <trkpt lat="45.39398" lon="5.80512">
        <ele>1375.2</ele>
        <time>2017-01-21T09:03:35Z</time>
      </trkpt>
      <trkpt lat="45.39398" lon="5.80516">
        <ele>1375.2</ele>
        <time>2017-01-21T09:03:40Z</time>
      </trkpt>
      <trkpt lat="45.39399" lon="5.80519">
        <ele>1376</ele>
        <time>2017-01-21T09:03:45Z</time>
      </trkpt>
      <trkpt lat="45.39399" lon="5.80522">
        <ele>1374.6</ele>
        <time>2017-01-21T09:03:50Z</time>
      </trkpt>
      <trkpt lat="45.394" lon="5.80524">
        <ele>1378.2</ele>
        <time>2017-01-21T09:03:55Z</time>
      </trkpt>
      <trkpt lat="45.39402" lon="5.80526">
        <ele>1379.6</ele>
        <time>2017-01-21T09:04:00Z</time>
      </trkpt>
      <trkpt lat="45.39403" lon="5.80529">
        <ele>1377.2</ele>
        <time>2017-01-21T09:04:05Z</time>
      </trkpt>
      <trkpt lat="45.39404" lon="5.80531">
        <ele>1378.6</ele>
        <time>2017-01-21T09:04:10Z</time>
      </trkpt>
      <trkpt lat="45.39405" lon="5.80534">
        <ele>1376.8</ele>
        <time>2017-01-21T09:04:15Z</time>
      </trkpt>
      <trkpt lat="45.39406" lon="5.80537">
        <ele>1378.2</ele>
        <time>2017-01-21T09:04:20Z</time>
      </trkpt>
      <trkpt lat="45.39407" lon="5.80539">
        <ele>1376.6</ele>
        <time>2017-01-21T09:04:25Z</time>
      </trkpt>
      <trkpt lat="45.39408" lon="5.80543">
        <ele>1378.8</ele>
        <time>2017-01-21T09:04:30Z</time>
      </trkpt>
      <trkpt lat="45.3941" lon="5.80545">
        <ele>1378.4</ele>
        <time>2017-01-21T09:04:35Z</time>
      </trkpt>
      <trkpt lat="45.39412" lon="5.80548">
        <ele>1379.6</ele>
        <time>2017-01-21T09:04:40Z</time>
      </trkpt>
      <trkpt lat="45.39413" lon="5.80551">
        <ele>1379</ele>
        <time>2017-01-21T09:04:45Z</time>
      </trkpt>
      <trkpt lat="45.39414" lon="5.80554">
        <ele>1383.8</ele>
        <time>2017-01-21T09:04:50Z</time>
      </trkpt>
      <trkpt lat="45.39415" lon="5.80557">
        <ele>1384.2</ele>
        <time>2017-01-21T09:04:55Z</time>
      </trkpt>
      <trkpt lat="45.39417" lon="5.80559">
        <ele>1384.6</ele>
        <time>2017-01-21T09:05:00Z</time>
      </trkpt>
      <trkpt lat="45.39418" lon="5.80563">
        <ele>1383</ele>
        <time>2017-01-21T09:05:05Z</time>
      </trkpt>
      <trkpt lat="45.39419" lon="5.80565">
        <ele>1380.6</ele>
        <time>2017-01-21T09:05:10Z</time>
      </trkpt>
      <trkpt lat="45.39421" lon="5.80567">
        <ele>1382.8</ele>
        <time>2017-01-21T09:05:15Z</time>
      </trkpt>
      <trkpt lat="45.39422" lon="5.80569">
        <ele>1383.2</ele>
        <time>2017-01-21T09:05:20Z</time>
      </trkpt>
      <trkpt lat="45.39424" lon="5.80571">
        <ele>1385.6</ele>
        <time>2017-01-21T09:05:25Z</time>
      </trkpt>
      <trkpt lat="45.39426" lon="5.80572">
        <ele>1385.2</ele>
        <time>2017-01-21T09:05:30Z</time>
      </trkpt>
      <trkpt lat="45.39428" lon="5.80573">
        <ele>1389.2</ele>
        <time>2017-01-21T09:05:35Z</time>
      </trkpt>
      <trkpt lat="45.39428" lon="5.80575">
        <ele>1387</ele>
        <time>2017-01-21T09:05:40Z</time>
      </trkpt>
      <trkpt lat="45.39429" lon="5.80576">
        <ele>1388.8</ele>
        <time>2017-01-21T09:05:45Z</time>
      </trkpt>
      <trkpt lat="45.39431" lon="5.80577">
        <ele>1388.8</ele>
        <time>2017-01-21T09:05:50Z</time>
      </trkpt>
      <trkpt lat="45.39431" lon="5.80578">
        <ele>1387.4</ele>
        <time>2017-01-21T09:05:55Z</time>
      </trkpt>
      <trkpt lat="45.39432" lon="5.80581">
        <ele>1387</ele>
        <time>2017-01-21T09:06:00Z</time>
      </trkpt>
      <trkpt lat="45.39433" lon="5.80583">
        <ele>1391</ele>
        <time>2017-01-21T09:06:05Z</time>
      </trkpt>
      <trkpt lat="45.39435" lon="5.80585">
        <ele>1390.2</ele>
        <time>2017-01-21T09:06:10Z</time>
      </trkpt>
      <trkpt lat="45.39437" lon="5.80587">
        <ele>1393.8</ele>
        <time>2017-01-21T09:06:15Z</time>
      </trkpt>
      <trkpt lat="45.39439" lon="5.8059">
        <ele>1395.8</ele>
        <time>2017-01-21T09:06:20Z</time>
      </trkpt>
      <trkpt lat="45.39441" lon="5.80592">
        <ele>1390.2</ele>
        <time>2017-01-21T09:06:25Z</time>
      </trkpt>
      <trkpt lat="45.39442" lon="5.80594">
        <ele>1395</ele>
        <time>2017-01-21T09:06:30Z</time>
      </trkpt>
      <trkpt lat="45.39443" lon="5.80598">
        <ele>1397.4</ele>
        <time>2017-01-21T09:06:35Z</time>
      </trkpt>
      <trkpt lat="45.39444" lon="5.80601">
        <ele>1397.8</ele>
        <time>2017-01-21T09:06:40Z</time>
      </trkpt>
      <trkpt lat="45.39446" lon="5.80603">
        <ele>1398.8</ele>
        <time>2017-01-21T09:06:45Z</time>
      </trkpt>
      <trkpt lat="45.39447" lon="5.80605">
        <ele>1399.4</ele>
        <time>2017-01-21T09:06:50Z</time>
      </trkpt>
      <trkpt lat="45.39449" lon="5.80606">
        <ele>1398.2</ele>
        <time>2017-01-21T09:06:55Z</time>
      </trkpt>
      <trkpt lat="45.3945" lon="5.80605">
        <ele>1398.8</ele>
        <time>2017-01-21T09:07:00Z</time>
      </trkpt>
      <trkpt lat="45.39451" lon="5.80608">
        <ele>1399</ele>
        <time>2017-01-21T09:07:05Z</time>
      </trkpt>
      <trkpt lat="45.39451" lon="5.8061">
        <ele>1400.4</ele>
        <time>2017-01-21T09:07:10Z</time>
      </trkpt>
      <trkpt lat="45.39454" lon="5.80611">
        <ele>1398.6</ele>
        <time>2017-01-21T09:07:15Z</time>
      </trkpt>
      <trkpt lat="45.39454" lon="5.80612">
        <ele>1400.8</ele>
        <time>2017-01-21T09:07:20Z</time>
      </trkpt>
      <trkpt lat="45.39455" lon="5.80613">
        <ele>1401</ele>
        <time>2017-01-21T09:07:25Z</time>
      </trkpt>
      <trkpt lat="45.39457" lon="5.80615">
        <ele>1402.2</ele>
        <time>2017-01-21T09:07:30Z</time>
      </trkpt>
      <trkpt lat="45.39458" lon="5.80617">
        <ele>1400.8</ele>
        <time>2017-01-21T09:07:36Z</time>
      </trkpt>
      <trkpt lat="45.39459" lon="5.80618">
        <ele>1401.6</ele>
        <time>2017-01-21T09:07:41Z</time>
      </trkpt>
      <trkpt lat="45.39459" lon="5.80619">
        <ele>1404.4</ele>
        <time>2017-01-21T09:07:46Z</time>
      </trkpt>
      <trkpt lat="45.3946" lon="5.8062">
        <ele>1404.8</ele>
        <time>2017-01-21T09:07:51Z</time>
      </trkpt>
      <trkpt lat="45.3946" lon="5.8062">
        <ele>1404.8</ele>
        <time>2017-01-21T09:07:56Z</time>
      </trkpt>
      <trkpt lat="45.3946" lon="5.80621">
        <ele>1404.8</ele>
        <time>2017-01-21T09:08:01Z</time>
      </trkpt>
      <trkpt lat="45.39461" lon="5.80622">
        <ele>1406.2</ele>
        <time>2017-01-21T09:08:06Z</time>
      </trkpt>
      <trkpt lat="45.39463" lon="5.80624">
        <ele>1408</ele>
        <time>2017-01-21T09:08:11Z</time>
      </trkpt>
      <trkpt lat="45.39465" lon="5.80626">
        <ele>1408.2</ele>
        <time>2017-01-21T09:08:16Z</time>
      </trkpt>
      <trkpt lat="45.39466" lon="5.80628">
        <ele>1408.2</ele>
        <time>2017-01-21T09:08:21Z</time>
      </trkpt>
      <trkpt lat="45.39465" lon="5.80628">
        <ele>1407.8</ele>
        <time>2017-01-21T09:08:26Z</time>
      </trkpt>
      <trkpt lat="45.39466" lon="5.80628">
        <ele>1407.4</ele>
        <time>2017-01-21T09:08:31Z</time>
      </trkpt>
      <trkpt lat="45.39467" lon="5.80628">
        <ele>1409.6</ele>
        <time>2017-01-21T09:08:36Z</time>
      </trkpt>
      <trkpt lat="45.39469" lon="5.8063">
        <ele>1406.6</ele>
        <time>2017-01-21T09:08:41Z</time>
      </trkpt>
      <trkpt lat="45.39471" lon="5.80632">
        <ele>1409.6</ele>
        <time>2017-01-21T09:08:46Z</time>
      </trkpt>
      <trkpt lat="45.39473" lon="5.80632">
        <ele>1411.2</ele>
        <time>2017-01-21T09:08:51Z</time>
      </trkpt>
      <trkpt lat="45.39475" lon="5.80633">
        <ele>1410.8</ele>
        <time>2017-01-21T09:08:56Z</time>
      </trkpt>
      <trkpt lat="45.39477" lon="5.80634">
        <ele>1408.8</ele>
        <time>2017-01-21T09:09:01Z</time>
      </trkpt>
      <trkpt lat="45.39479" lon="5.80634">
        <ele>1411.4</ele>
        <time>2017-01-21T09:09:06Z</time>
      </trkpt>
      <trkpt lat="45.3948" lon="5.80636">
        <ele>1410.8</ele>
        <time>2017-01-21T09:09:11Z</time>
      </trkpt>
      <trkpt lat="45.39482" lon="5.80639">
        <ele>1412.2</ele>
        <time>2017-01-21T09:09:16Z</time>
      </trkpt>
      <trkpt lat="45.39483" lon="5.8064">
        <ele>1411.8</ele>
        <time>2017-01-21T09:09:21Z</time>
      </trkpt>
      <trkpt lat="45.39485" lon="5.80642">
        <ele>1410.8</ele>
        <time>2017-01-21T09:09:26Z</time>
      </trkpt>
      <trkpt lat="45.39486" lon="5.80644">
        <ele>1414.6</ele>
        <time>2017-01-21T09:09:31Z</time>
      </trkpt>
      <trkpt lat="45.39488" lon="5.80646">
        <ele>1414</ele>
        <time>2017-01-21T09:09:36Z</time>
      </trkpt>
      <trkpt lat="45.39489" lon="5.80648">
        <ele>1415</ele>
        <time>2017-01-21T09:09:41Z</time>
      </trkpt>
      <trkpt lat="45.3949" lon="5.8065">
        <ele>1417.2</ele>
        <time>2017-01-21T09:09:46Z</time>
      </trkpt>
      <trkpt lat="45.39491" lon="5.80653">
        <ele>1416</ele>
        <time>2017-01-21T09:09:51Z</time>
      </trkpt>
      <trkpt lat="45.39493" lon="5.80655">
        <ele>1418.4</ele>
        <time>2017-01-21T09:09:56Z</time>
      </trkpt>
      <trkpt lat="45.39494" lon="5.80656">
        <ele>1417.8</ele>
        <time>2017-01-21T09:10:01Z</time>
      </trkpt>
      <trkpt lat="45.39495" lon="5.80659">
        <ele>1416.8</ele>
        <time>2017-01-21T09:10:06Z</time>
      </trkpt>
      <trkpt lat="45.39497" lon="5.80659">
        <ele>1414.6</ele>
        <time>2017-01-21T09:10:11Z</time>
      </trkpt>
      <trkpt lat="45.39498" lon="5.8066">
        <ele>1417.4</ele>
        <time>2017-01-21T09:10:16Z</time>
      </trkpt>
      <trkpt lat="45.39498" lon="5.80662">
        <ele>1416.4</ele>
        <time>2017-01-21T09:10:21Z</time>
      </trkpt>
      <trkpt lat="45.39499" lon="5.80665">
        <ele>1420</ele>
        <time>2017-01-21T09:10:26Z</time>
      </trkpt>
      <trkpt lat="45.39501" lon="5.80667">
        <ele>1421</ele>
        <time>2017-01-21T09:10:31Z</time>
      </trkpt>
      <trkpt lat="45.39502" lon="5.80669">
        <ele>1422.6</ele>
        <time>2017-01-21T09:10:36Z</time>
      </trkpt>
      <trkpt lat="45.39504" lon="5.80671">
        <ele>1424</ele>
        <time>2017-01-21T09:10:41Z</time>
      </trkpt>
      <trkpt lat="45.39505" lon="5.80673">
        <ele>1424</ele>
        <time>2017-01-21T09:10:46Z</time>
      </trkpt>
      <trkpt lat="45.39507" lon="5.80676">
        <ele>1425.4</ele>
        <time>2017-01-21T09:10:51Z</time>
      </trkpt>
      <trkpt lat="45.39508" lon="5.80679">
        <ele>1423.2</ele>
        <time>2017-01-21T09:10:56Z</time>
      </trkpt>
      <trkpt lat="45.39508" lon="5.80682">
        <ele>1424</ele>
        <time>2017-01-21T09:11:01Z</time>
      </trkpt>
      <trkpt lat="45.3951" lon="5.80683">
        <ele>1422.4</ele>
        <time>2017-01-21T09:11:06Z</time>
      </trkpt>
      <trkpt lat="45.39512" lon="5.80685">
        <ele>1424.8</ele>
        <time>2017-01-21T09:11:11Z</time>
      </trkpt>
      <trkpt lat="45.39513" lon="5.80687">
        <ele>1425.2</ele>
        <time>2017-01-21T09:11:16Z</time>
      </trkpt>
      <trkpt lat="45.39514" lon="5.80689">
        <ele>1425.8</ele>
        <time>2017-01-21T09:11:21Z</time>
      </trkpt>
      <trkpt lat="45.39515" lon="5.80692">
        <ele>1426.4</ele>
        <time>2017-01-21T09:11:26Z</time>
      </trkpt>
      <trkpt lat="45.39516" lon="5.80694">
        <ele>1427</ele>
        <time>2017-01-21T09:11:31Z</time>
      </trkpt>
      <trkpt lat="45.39518" lon="5.80696">
        <ele>1428</ele>
        <time>2017-01-21T09:11:36Z</time>
      </trkpt>
      <trkpt lat="45.39519" lon="5.80698">
        <ele>1428.8</ele>
        <time>2017-01-21T09:11:41Z</time>
      </trkpt>
      <trkpt lat="45.3952" lon="5.807">
        <ele>1429.8</ele>
        <time>2017-01-21T09:11:46Z</time>
      </trkpt>
      <trkpt lat="45.39521" lon="5.80703">
        <ele>1430.6</ele>
        <time>2017-01-21T09:11:51Z</time>
      </trkpt>
      <trkpt lat="45.3952" lon="5.80707">
        <ele>1435.4</ele>
        <time>2017-01-21T09:11:56Z</time>
      </trkpt>
      <trkpt lat="45.39519" lon="5.8071">
        <ele>1434</ele>
        <time>2017-01-21T09:12:01Z</time>
      </trkpt>
      <trkpt lat="45.39518" lon="5.80712">
        <ele>1432.2</ele>
        <time>2017-01-21T09:12:06Z</time>
      </trkpt>
      <trkpt lat="45.39517" lon="5.80716">
        <ele>1434.2</ele>
        <time>2017-01-21T09:12:11Z</time>
      </trkpt>
      <trkpt lat="45.39516" lon="5.80718">
        <ele>1438</ele>
        <time>2017-01-21T09:12:16Z</time>
      </trkpt>
      <trkpt lat="45.39515" lon="5.8072">
        <ele>1433.2</ele>
        <time>2017-01-21T09:12:21Z</time>
      </trkpt>
      <trkpt lat="45.39513" lon="5.80722">
        <ele>1435.2</ele>
        <time>2017-01-21T09:12:26Z</time>
      </trkpt>
      <trkpt lat="45.39512" lon="5.80723">
        <ele>1439.2</ele>
        <time>2017-01-21T09:12:31Z</time>
      </trkpt>
      <trkpt lat="45.39511" lon="5.80727">
        <ele>1437.2</ele>
        <time>2017-01-21T09:12:36Z</time>
      </trkpt>
      <trkpt lat="45.39512" lon="5.80731">
        <ele>1436.6</ele>
        <time>2017-01-21T09:12:41Z</time>
      </trkpt>
      <trkpt lat="45.39511" lon="5.80732">
        <ele>1438.8</ele>
        <time>2017-01-21T09:12:46Z</time>
      </trkpt>
      <trkpt lat="45.3951" lon="5.80735">
        <ele>1441.4</ele>
        <time>2017-01-21T09:12:51Z</time>
      </trkpt>
      <trkpt lat="45.39509" lon="5.80738">
        <ele>1440.8</ele>
        <time>2017-01-21T09:12:56Z</time>
      </trkpt>
      <trkpt lat="45.39508" lon="5.80741">
        <ele>1442.2</ele>
        <time>2017-01-21T09:13:01Z</time>
      </trkpt>
      <trkpt lat="45.39507" lon="5.80744">
        <ele>1444</ele>
        <time>2017-01-21T09:13:06Z</time>
      </trkpt>
      <trkpt lat="45.39507" lon="5.80748">
        <ele>1445.4</ele>
        <time>2017-01-21T09:13:11Z</time>
      </trkpt>
      <trkpt lat="45.39506" lon="5.80751">
        <ele>1444</ele>
        <time>2017-01-21T09:13:16Z</time>
      </trkpt>
      <trkpt lat="45.39505" lon="5.80755">
        <ele>1447.2</ele>
        <time>2017-01-21T09:13:21Z</time>
      </trkpt>
      <trkpt lat="45.39504" lon="5.80759">
        <ele>1444.4</ele>
        <time>2017-01-21T09:13:26Z</time>
      </trkpt>
      <trkpt lat="45.39503" lon="5.80764">
        <ele>1443.8</ele>
        <time>2017-01-21T09:13:31Z</time>
      </trkpt>
      <trkpt lat="45.39502" lon="5.80768">
        <ele>1444.4</ele>
        <time>2017-01-21T09:13:36Z</time>
      </trkpt>
      <trkpt lat="45.39502" lon="5.80773">
        <ele>1444</ele>
        <time>2017-01-21T09:13:41Z</time>
      </trkpt>
      <trkpt lat="45.39502" lon="5.80777">
        <ele>1442.2</ele>
        <time>2017-01-21T09:13:46Z</time>
      </trkpt>
      <trkpt lat="45.39501" lon="5.80781">
        <ele>1445</ele>
        <time>2017-01-21T09:13:51Z</time>
      </trkpt>
      <trkpt lat="45.39501" lon="5.80784">
        <ele>1444.2</ele>
        <time>2017-01-21T09:13:56Z</time>
      </trkpt>
      <trkpt lat="45.395" lon="5.80789">
        <ele>1445.4</ele>
        <time>2017-01-21T09:14:01Z</time>
      </trkpt>
      <trkpt lat="45.39499" lon="5.80792">
        <ele>1446.6</ele>
        <time>2017-01-21T09:14:06Z</time>
      </trkpt>
      <trkpt lat="45.39499" lon="5.80796">
        <ele>1446.4</ele>
        <time>2017-01-21T09:14:11Z</time>
      </trkpt>
      <trkpt lat="45.39499" lon="5.808">
        <ele>1449.6</ele>
        <time>2017-01-21T09:14:16Z</time>
      </trkpt>
      <trkpt lat="45.39499" lon="5.80803">
        <ele>1450.2</ele>
        <time>2017-01-21T09:14:21Z</time>
      </trkpt>
      <trkpt lat="45.39499" lon="5.80804">
        <ele>1449.6</ele>
        <time>2017-01-21T09:14:26Z</time>
      </trkpt>
      <trkpt lat="45.39499" lon="5.80807">
        <ele>1448.4</ele>
        <time>2017-01-21T09:14:31Z</time>
      </trkpt>
      <trkpt lat="45.39498" lon="5.80812">
        <ele>1451.4</ele>
        <time>2017-01-21T09:14:36Z</time>
      </trkpt>
      <trkpt lat="45.39498" lon="5.80816">
        <ele>1450.4</ele>
        <time>2017-01-21T09:14:41Z</time>
      </trkpt>
      <trkpt lat="45.39498" lon="5.80817">
        <ele>1451.8</ele>
        <time>2017-01-21T09:14:46Z</time>
      </trkpt>
      <trkpt lat="45.39498" lon="5.80817">
        <ele>1451</ele>
        <time>2017-01-21T09:14:51Z</time>
      </trkpt>
      <trkpt lat="45.39497" lon="5.80819">
        <ele>1450.6</ele>
        <time>2017-01-21T09:14:56Z</time>
      </trkpt>
      <trkpt lat="45.39497" lon="5.80819">
        <ele>1451.6</ele>
        <time>2017-01-21T09:15:01Z</time>
      </trkpt>
      <trkpt lat="45.39497" lon="5.80819">
        <ele>1451</ele>
        <time>2017-01-21T09:15:06Z</time>
      </trkpt>
      <trkpt lat="45.39497" lon="5.80819">
        <ele>1450.6</ele>
        <time>2017-01-21T09:15:11Z</time>
      </trkpt>
      <trkpt lat="45.39497" lon="5.80819">
        <ele>1450.4</ele>
        <time>2017-01-21T09:15:16Z</time>
      </trkpt>
      <trkpt lat="45.39497" lon="5.80818">
        <ele>1450.8</ele>
        <time>2017-01-21T09:15:21Z</time>
      </trkpt>
      <trkpt lat="45.39497" lon="5.80818">
        <ele>1451.4</ele>
        <time>2017-01-21T09:15:26Z</time>
      </trkpt>
      <trkpt lat="45.39497" lon="5.80818">
        <ele>1451.8</ele>
        <time>2017-01-21T09:15:31Z</time>
      </trkpt>
      <trkpt lat="45.39497" lon="5.80818">
        <ele>1452.2</ele>
        <time>2017-01-21T09:15:36Z</time>
      </trkpt>
      <trkpt lat="45.39496" lon="5.80818">
        <ele>1452.6</ele>
        <time>2017-01-21T09:15:41Z</time>
      </trkpt>
      <trkpt lat="45.39495" lon="5.80821">
        <ele>1454</ele>
        <time>2017-01-21T09:15:46Z</time>
      </trkpt>
      <trkpt lat="45.39492" lon="5.80825">
        <ele>1453.2</ele>
        <time>2017-01-21T09:15:51Z</time>
      </trkpt>
      <trkpt lat="45.3949" lon="5.80828">
        <ele>1453.2</ele>
        <time>2017-01-21T09:15:56Z</time>
      </trkpt>
      <trkpt lat="45.39487" lon="5.80832">
        <ele>1454.2</ele>
        <time>2017-01-21T09:16:01Z</time>
      </trkpt>
      <trkpt lat="45.39484" lon="5.80833">
        <ele>1453.2</ele>
        <time>2017-01-21T09:16:06Z</time>
      </trkpt>
      <trkpt lat="45.39481" lon="5.80835">
        <ele>1452.4</ele>
        <time>2017-01-21T09:16:11Z</time>
      </trkpt>
      <trkpt lat="45.39478" lon="5.80838">
        <ele>1453</ele>
        <time>2017-01-21T09:16:16Z</time>
      </trkpt>
      <trkpt lat="45.39475" lon="5.8084">
        <ele>1458.4</ele>
        <time>2017-01-21T09:16:21Z</time>
      </trkpt>
      <trkpt lat="45.39472" lon="5.80843">
        <ele>1457</ele>
        <time>2017-01-21T09:16:26Z</time>
      </trkpt>
      <trkpt lat="45.3947" lon="5.80845">
        <ele>1455</ele>
        <time>2017-01-21T09:16:31Z</time>
      </trkpt>
      <trkpt lat="45.39468" lon="5.80847">
        <ele>1454</ele>
        <time>2017-01-21T09:16:36Z</time>
      </trkpt>
      <trkpt lat="45.39466" lon="5.80849">
        <ele>1457.6</ele>
        <time>2017-01-21T09:16:41Z</time>
      </trkpt>
      <trkpt lat="45.39466" lon="5.8085">
        <ele>1456.8</ele>
        <time>2017-01-21T09:16:46Z</time>
      </trkpt>
      <trkpt lat="45.39466" lon="5.8085">
        <ele>1456.2</ele>
        <time>2017-01-21T09:16:51Z</time>
      </trkpt>
      <trkpt lat="45.39465" lon="5.8085">
        <ele>1455.8</ele>
        <time>2017-01-21T09:16:56Z</time>
      </trkpt>
      <trkpt lat="45.39464" lon="5.80852">
        <ele>1454.2</ele>
        <time>2017-01-21T09:17:01Z</time>
      </trkpt>
      <trkpt lat="45.39461" lon="5.80855">
        <ele>1454.4</ele>
        <time>2017-01-21T09:17:06Z</time>
      </trkpt>
      <trkpt lat="45.39459" lon="5.80857">
        <ele>1454.6</ele>
        <time>2017-01-21T09:17:11Z</time>
      </trkpt>
      <trkpt lat="45.39456" lon="5.80859">
        <ele>1453.4</ele>
        <time>2017-01-21T09:17:16Z</time>
      </trkpt>
      <trkpt lat="45.39453" lon="5.80862">
        <ele>1456.4</ele>
        <time>2017-01-21T09:17:21Z</time>
      </trkpt>
      <trkpt lat="45.3945" lon="5.80865">
        <ele>1458</ele>
        <time>2017-01-21T09:17:26Z</time>
      </trkpt>
      <trkpt lat="45.39446" lon="5.80866">
        <ele>1455.4</ele>
        <time>2017-01-21T09:17:31Z</time>
      </trkpt>
      <trkpt lat="45.39443" lon="5.80869">
        <ele>1455.4</ele>
        <time>2017-01-21T09:17:36Z</time>
      </trkpt>
      <trkpt lat="45.39439" lon="5.80871">
        <ele>1457.4</ele>
        <time>2017-01-21T09:17:41Z</time>
      </trkpt>
      <trkpt lat="45.39436" lon="5.80875">
        <ele>1459.4</ele>
        <time>2017-01-21T09:17:46Z</time>
      </trkpt>
      <trkpt lat="45.39432" lon="5.80878">
        <ele>1455.4</ele>
        <time>2017-01-21T09:17:51Z</time>
      </trkpt>
      <trkpt lat="45.39429" lon="5.80878">
        <ele>1459.4</ele>
        <time>2017-01-21T09:17:56Z</time>
      </trkpt>
      <trkpt lat="45.39425" lon="5.8088">
        <ele>1460.4</ele>
        <time>2017-01-21T09:18:01Z</time>
      </trkpt>
      <trkpt lat="45.39422" lon="5.80882">
        <ele>1463</ele>
        <time>2017-01-21T09:18:06Z</time>
      </trkpt>
      <trkpt lat="45.39419" lon="5.80884">
        <ele>1463.6</ele>
        <time>2017-01-21T09:18:11Z</time>
      </trkpt>
      <trkpt lat="45.39416" lon="5.80886">
        <ele>1459.2</ele>
        <time>2017-01-21T09:18:16Z</time>
      </trkpt>
      <trkpt lat="45.39413" lon="5.80887">
        <ele>1461.8</ele>
        <time>2017-01-21T09:18:21Z</time>
      </trkpt>
      <trkpt lat="45.39411" lon="5.80888">
        <ele>1460.6</ele>
        <time>2017-01-21T09:18:26Z</time>
      </trkpt>
      <trkpt lat="45.39408" lon="5.80889">
        <ele>1463</ele>
        <time>2017-01-21T09:18:31Z</time>
      </trkpt>
      <trkpt lat="45.39406" lon="5.8089">
        <ele>1461.6</ele>
        <time>2017-01-21T09:18:36Z</time>
      </trkpt>
      <trkpt lat="45.39402" lon="5.80892">
        <ele>1465.6</ele>
        <time>2017-01-21T09:18:41Z</time>
      </trkpt>
      <trkpt lat="45.39397" lon="5.80893">
        <ele>1467</ele>
        <time>2017-01-21T09:18:46Z</time>
      </trkpt>
      <trkpt lat="45.39396" lon="5.80894">
        <ele>1462.2</ele>
        <time>2017-01-21T09:18:51Z</time>
      </trkpt>
      <trkpt lat="45.39396" lon="5.80894">
        <ele>1465.2</ele>
        <time>2017-01-21T09:18:56Z</time>
      </trkpt>
      <trkpt lat="45.39396" lon="5.80894">
        <ele>1464.6</ele>
        <time>2017-01-21T09:19:01Z</time>
      </trkpt>
      <trkpt lat="45.39396" lon="5.80894">
        <ele>1464</ele>
        <time>2017-01-21T09:19:06Z</time>
      </trkpt>
      <trkpt lat="45.39396" lon="5.80894">
        <ele>1463.8</ele>
        <time>2017-01-21T09:19:11Z</time>
      </trkpt>
      <trkpt lat="45.39396" lon="5.80894">
        <ele>1463.6</ele>
        <time>2017-01-21T09:19:16Z</time>
      </trkpt>
      <trkpt lat="45.39396" lon="5.80894">
        <ele>1463.4</ele>
        <time>2017-01-21T09:19:21Z</time>
      </trkpt>
      <trkpt lat="45.39396" lon="5.80894">
        <ele>1463.2</ele>
        <time>2017-01-21T09:19:26Z</time>
      </trkpt>
      <trkpt lat="45.39396" lon="5.80895">
        <ele>1463.2</ele>
        <time>2017-01-21T09:19:31Z</time>
      </trkpt>
      <trkpt lat="45.39393" lon="5.80898">
        <ele>1461.8</ele>
        <time>2017-01-21T09:19:36Z</time>
      </trkpt>
      <trkpt lat="45.3939" lon="5.80899">
        <ele>1462.8</ele>
        <time>2017-01-21T09:19:41Z</time>
      </trkpt>
      <trkpt lat="45.39387" lon="5.809">
        <ele>1459.4</ele>
        <time>2017-01-21T09:19:46Z</time>
      </trkpt>
      <trkpt lat="45.39383" lon="5.80902">
        <ele>1462</ele>
        <time>2017-01-21T09:19:51Z</time>
      </trkpt>
      <trkpt lat="45.3938" lon="5.80903">
        <ele>1462.6</ele>
        <time>2017-01-21T09:19:56Z</time>
      </trkpt>
      <trkpt lat="45.39378" lon="5.80904">
        <ele>1467</ele>
        <time>2017-01-21T09:20:01Z</time>
      </trkpt>
      <trkpt lat="45.39376" lon="5.80904">
        <ele>1467</ele>
        <time>2017-01-21T09:20:06Z</time>
      </trkpt>
      <trkpt lat="45.39373" lon="5.80905">
        <ele>1467.6</ele>
        <time>2017-01-21T09:20:11Z</time>
      </trkpt>
      <trkpt lat="45.39371" lon="5.80906">
        <ele>1466.4</ele>
        <time>2017-01-21T09:20:16Z</time>
      </trkpt>
      <trkpt lat="45.39368" lon="5.80907">
        <ele>1471</ele>
        <time>2017-01-21T09:20:21Z</time>
      </trkpt>
      <trkpt lat="45.39366" lon="5.80907">
        <ele>1469.4</ele>
        <time>2017-01-21T09:20:26Z</time>
      </trkpt>
      <trkpt lat="45.39364" lon="5.80908">
        <ele>1469.6</ele>
        <time>2017-01-21T09:20:31Z</time>
      </trkpt>
      <trkpt lat="45.39361" lon="5.80908">
        <ele>1471.4</ele>
        <time>2017-01-21T09:20:36Z</time>
      </trkpt>
      <trkpt lat="45.39361" lon="5.80909">
        <ele>1471.2</ele>
        <time>2017-01-21T09:20:41Z</time>
      </trkpt>
      <trkpt lat="45.3936" lon="5.80909">
        <ele>1472.2</ele>
        <time>2017-01-21T09:20:46Z</time>
      </trkpt>
      <trkpt lat="45.39357" lon="5.80909">
        <ele>1470.4</ele>
        <time>2017-01-21T09:20:51Z</time>
      </trkpt>
      <trkpt lat="45.39354" lon="5.80909">
        <ele>1473</ele>
        <time>2017-01-21T09:20:56Z</time>
      </trkpt>
      <trkpt lat="45.3935" lon="5.80908">
        <ele>1470.6</ele>
        <time>2017-01-21T09:21:01Z</time>
      </trkpt>
      <trkpt lat="45.39347" lon="5.80905">
        <ele>1473.2</ele>
        <time>2017-01-21T09:21:06Z</time>
      </trkpt>
      <trkpt lat="45.39345" lon="5.80901">
        <ele>1472</ele>
        <time>2017-01-21T09:21:11Z</time>
      </trkpt>
      <trkpt lat="45.39342" lon="5.809">
        <ele>1472.6</ele>
        <time>2017-01-21T09:21:16Z</time>
      </trkpt>
      <trkpt lat="45.39339" lon="5.809">
        <ele>1474.8</ele>
        <time>2017-01-21T09:21:21Z</time>
      </trkpt>
      <trkpt lat="45.39337" lon="5.809">
        <ele>1475.8</ele>
        <time>2017-01-21T09:21:26Z</time>
      </trkpt>
      <trkpt lat="45.39335" lon="5.80901">
        <ele>1476.8</ele>
        <time>2017-01-21T09:21:31Z</time>
      </trkpt>
      <trkpt lat="45.39333" lon="5.80901">
        <ele>1476.6</ele>
        <time>2017-01-21T09:21:36Z</time>
      </trkpt>
      <trkpt lat="45.39332" lon="5.80902">
        <ele>1476</ele>
        <time>2017-01-21T09:21:41Z</time>
      </trkpt>
      <trkpt lat="45.39329" lon="5.80902">
        <ele>1477.8</ele>
        <time>2017-01-21T09:21:46Z</time>
      </trkpt>
      <trkpt lat="45.39326" lon="5.80903">
        <ele>1475.8</ele>
        <time>2017-01-21T09:21:51Z</time>
      </trkpt>
      <trkpt lat="45.39323" lon="5.80905">
        <ele>1479.6</ele>
        <time>2017-01-21T09:21:56Z</time>
      </trkpt>
      <trkpt lat="45.3932" lon="5.80906">
        <ele>1479.8</ele>
        <time>2017-01-21T09:22:01Z</time>
      </trkpt>
      <trkpt lat="45.39318" lon="5.80906">
        <ele>1482.4</ele>
        <time>2017-01-21T09:22:06Z</time>
      </trkpt>
      <trkpt lat="45.39314" lon="5.80906">
        <ele>1481.6</ele>
        <time>2017-01-21T09:22:11Z</time>
      </trkpt>
      <trkpt lat="45.39311" lon="5.80908">
        <ele>1483.6</ele>
        <time>2017-01-21T09:22:16Z</time>
      </trkpt>
      <trkpt lat="45.39308" lon="5.80908">
        <ele>1484.6</ele>
        <time>2017-01-21T09:22:21Z</time>
      </trkpt>
      <trkpt lat="45.39306" lon="5.80906">
        <ele>1485.6</ele>
        <time>2017-01-21T09:22:26Z</time>
      </trkpt>
      <trkpt lat="45.39305" lon="5.80904">
        <ele>1483.6</ele>
        <time>2017-01-21T09:22:31Z</time>
      </trkpt>
      <trkpt lat="45.39304" lon="5.80901">
        <ele>1486.4</ele>
        <time>2017-01-21T09:22:36Z</time>
      </trkpt>
      <trkpt lat="45.39304" lon="5.809">
        <ele>1486.4</ele>
        <time>2017-01-21T09:22:41Z</time>
      </trkpt>
      <trkpt lat="45.39304" lon="5.809">
        <ele>1486.6</ele>
        <time>2017-01-21T09:22:46Z</time>
      </trkpt>
      <trkpt lat="45.39304" lon="5.80899">
        <ele>1486.8</ele>
        <time>2017-01-21T09:22:51Z</time>
      </trkpt>
      <trkpt lat="45.39302" lon="5.80898">
        <ele>1486</ele>
        <time>2017-01-21T09:22:56Z</time>
      </trkpt>
      <trkpt lat="45.393" lon="5.80897">
        <ele>1488.6</ele>
        <time>2017-01-21T09:23:01Z</time>
      </trkpt>
      <trkpt lat="45.39297" lon="5.80895">
        <ele>1488.2</ele>
        <time>2017-01-21T09:23:06Z</time>
      </trkpt>
      <trkpt lat="45.39295" lon="5.80895">
        <ele>1490.8</ele>
        <time>2017-01-21T09:23:11Z</time>
      </trkpt>
      <trkpt lat="45.39293" lon="5.80896">
        <ele>1489.6</ele>
        <time>2017-01-21T09:23:16Z</time>
      </trkpt>
      <trkpt lat="45.39292" lon="5.80896">
        <ele>1489.2</ele>
        <time>2017-01-21T09:23:21Z</time>
      </trkpt>
      <trkpt lat="45.39292" lon="5.80896">
        <ele>1489.4</ele>
        <time>2017-01-21T09:23:26Z</time>
      </trkpt>
      <trkpt lat="45.39291" lon="5.80896">
        <ele>1489.6</ele>
        <time>2017-01-21T09:23:31Z</time>
      </trkpt>
      <trkpt lat="45.39291" lon="5.80895">
        <ele>1490</ele>
        <time>2017-01-21T09:23:36Z</time>
      </trkpt>
      <trkpt lat="45.3929" lon="5.80893">
        <ele>1490.2</ele>
        <time>2017-01-21T09:23:41Z</time>
      </trkpt>
      <trkpt lat="45.3929" lon="5.80888">
        <ele>1485.8</ele>
        <time>2017-01-21T09:23:46Z</time>
      </trkpt>
      <trkpt lat="45.39291" lon="5.80887">
        <ele>1491.4</ele>
        <time>2017-01-21T09:23:51Z</time>
      </trkpt>
      <trkpt lat="45.39291" lon="5.80887">
        <ele>1491.8</ele>
        <time>2017-01-21T09:23:56Z</time>
      </trkpt>
      <trkpt lat="45.39291" lon="5.80887">
        <ele>1492</ele>
        <time>2017-01-21T09:24:01Z</time>
      </trkpt>
      <trkpt lat="45.39291" lon="5.80887">
        <ele>1492.2</ele>
        <time>2017-01-21T09:24:06Z</time>
      </trkpt>
      <trkpt lat="45.39291" lon="5.80887">
        <ele>1492.2</ele>
        <time>2017-01-21T09:24:11Z</time>
      </trkpt>
      <trkpt lat="45.39291" lon="5.80887">
        <ele>1492.4</ele>
        <time>2017-01-21T09:24:16Z</time>
      </trkpt>
      <trkpt lat="45.39291" lon="5.80887">
        <ele>1492.6</ele>
        <time>2017-01-21T09:24:21Z</time>
      </trkpt>
      <trkpt lat="45.39291" lon="5.80887">
        <ele>1492.6</ele>
        <time>2017-01-21T09:24:26Z</time>
      </trkpt>
      <trkpt lat="45.39291" lon="5.80887">
        <ele>1492.6</ele>
        <time>2017-01-21T09:24:31Z</time>
      </trkpt>
      <trkpt lat="45.39291" lon="5.80886">
        <ele>1492.8</ele>
        <time>2017-01-21T09:24:36Z</time>
      </trkpt>
      <trkpt lat="45.39291" lon="5.80886">
        <ele>1492.8</ele>
        <time>2017-01-21T09:24:41Z</time>
      </trkpt>
      <trkpt lat="45.39291" lon="5.80886">
        <ele>1492.8</ele>
        <time>2017-01-21T09:24:46Z</time>
      </trkpt>
      <trkpt lat="45.39291" lon="5.80887">
        <ele>1492.8</ele>
        <time>2017-01-21T09:24:51Z</time>
      </trkpt>
      <trkpt lat="45.39291" lon="5.80887">
        <ele>1492.8</ele>
        <time>2017-01-21T09:24:56Z</time>
      </trkpt>
      <trkpt lat="45.39291" lon="5.80887">
        <ele>1492.6</ele>
        <time>2017-01-21T09:25:01Z</time>
      </trkpt>
      <trkpt lat="45.39291" lon="5.80887">
        <ele>1492.6</ele>
        <time>2017-01-21T09:25:06Z</time>
      </trkpt>
      <trkpt lat="45.3929" lon="5.80887">
        <ele>1492.6</ele>
        <time>2017-01-21T09:25:11Z</time>
      </trkpt>
      <trkpt lat="45.3929" lon="5.80887">
        <ele>1492.4</ele>
        <time>2017-01-21T09:25:16Z</time>
      </trkpt>
      <trkpt lat="45.3929" lon="5.80887">
        <ele>1492.4</ele>
        <time>2017-01-21T09:25:21Z</time>
      </trkpt>
      <trkpt lat="45.39289" lon="5.80887">
        <ele>1492.6</ele>
        <time>2017-01-21T09:25:26Z</time>
      </trkpt>
      <trkpt lat="45.39289" lon="5.80887">
        <ele>1493</ele>
        <time>2017-01-21T09:25:31Z</time>
      </trkpt>
      <trkpt lat="45.39289" lon="5.80887">
        <ele>1493.4</ele>
        <time>2017-01-21T09:25:36Z</time>
      </trkpt>
      <trkpt lat="45.39289" lon="5.80887">
        <ele>1493.4</ele>
        <time>2017-01-21T09:25:41Z</time>
      </trkpt>
      <trkpt lat="45.39289" lon="5.80887">
        <ele>1493.6</ele>
        <time>2017-01-21T09:25:46Z</time>
      </trkpt>
      <trkpt lat="45.39289" lon="5.80887">
        <ele>1493.8</ele>
        <time>2017-01-21T09:25:51Z</time>
      </trkpt>
      <trkpt lat="45.39289" lon="5.80887">
        <ele>1493.8</ele>
        <time>2017-01-21T09:25:56Z</time>
      </trkpt>
      <trkpt lat="45.39289" lon="5.80887">
        <ele>1493.8</ele>
        <time>2017-01-21T09:26:01Z</time>
      </trkpt>
      <trkpt lat="45.39289" lon="5.80887">
        <ele>1493.8</ele>
        <time>2017-01-21T09:26:06Z</time>
      </trkpt>
      <trkpt lat="45.39289" lon="5.80887">
        <ele>1493.8</ele>
        <time>2017-01-21T09:26:11Z</time>
      </trkpt>
      <trkpt lat="45.39289" lon="5.80887">
        <ele>1493.8</ele>
        <time>2017-01-21T09:26:16Z</time>
      </trkpt>
      <trkpt lat="45.39289" lon="5.80887">
        <ele>1493.8</ele>
        <time>2017-01-21T09:26:21Z</time>
      </trkpt>
      <trkpt lat="45.39289" lon="5.80887">
        <ele>1493.8</ele>
        <time>2017-01-21T09:26:26Z</time>
      </trkpt>
      <trkpt lat="45.3929" lon="5.80883">
        <ele>1493</ele>
        <time>2017-01-21T09:26:31Z</time>
      </trkpt>
      <trkpt lat="45.3929" lon="5.8088">
        <ele>1495</ele>
        <time>2017-01-21T09:26:36Z</time>
      </trkpt>
      <trkpt lat="45.39292" lon="5.80877">
        <ele>1493.4</ele>
        <time>2017-01-21T09:26:41Z</time>
      </trkpt>
      <trkpt lat="45.39292" lon="5.80874">
        <ele>1494</ele>
        <time>2017-01-21T09:26:46Z</time>
      </trkpt>
      <trkpt lat="45.39291" lon="5.8087">
        <ele>1492.8</ele>
        <time>2017-01-21T09:26:51Z</time>
      </trkpt>
      <trkpt lat="45.39291" lon="5.80866">
        <ele>1498.2</ele>
        <time>2017-01-21T09:26:56Z</time>
      </trkpt>
      <trkpt lat="45.39289" lon="5.80865">
        <ele>1495.8</ele>
        <time>2017-01-21T09:27:01Z</time>
      </trkpt>
      <trkpt lat="45.39286" lon="5.80865">
        <ele>1494.8</ele>
        <time>2017-01-21T09:27:06Z</time>
      </trkpt>
      <trkpt lat="45.39285" lon="5.80863">
        <ele>1495</ele>
        <time>2017-01-21T09:27:11Z</time>
      </trkpt>
      <trkpt lat="45.39284" lon="5.8086">
        <ele>1496.8</ele>
        <time>2017-01-21T09:27:16Z</time>
      </trkpt>
      <trkpt lat="45.39282" lon="5.80859">
        <ele>1497.6</ele>
        <time>2017-01-21T09:27:21Z</time>
      </trkpt>
      <trkpt lat="45.3928" lon="5.80858">
        <ele>1497.8</ele>
        <time>2017-01-21T09:27:26Z</time>
      </trkpt>
      <trkpt lat="45.39278" lon="5.80857">
        <ele>1497.6</ele>
        <time>2017-01-21T09:27:31Z</time>
      </trkpt>
      <trkpt lat="45.39277" lon="5.80854">
        <ele>1498.4</ele>
        <time>2017-01-21T09:27:36Z</time>
      </trkpt>
      <trkpt lat="45.39276" lon="5.80851">
        <ele>1500</ele>
        <time>2017-01-21T09:27:41Z</time>
      </trkpt>
      <trkpt lat="45.39275" lon="5.80849">
        <ele>1500</ele>
        <time>2017-01-21T09:27:46Z</time>
      </trkpt>
      <trkpt lat="45.39272" lon="5.80847">
        <ele>1501.8</ele>
        <time>2017-01-21T09:27:51Z</time>
      </trkpt>
      <trkpt lat="45.39271" lon="5.80844">
        <ele>1500.4</ele>
        <time>2017-01-21T09:27:56Z</time>
      </trkpt>
      <trkpt lat="45.3927" lon="5.80842">
        <ele>1503.6</ele>
        <time>2017-01-21T09:28:01Z</time>
      </trkpt>
      <trkpt lat="45.39268" lon="5.80841">
        <ele>1504.4</ele>
        <time>2017-01-21T09:28:06Z</time>
      </trkpt>
      <trkpt lat="45.39265" lon="5.80839">
        <ele>1505.2</ele>
        <time>2017-01-21T09:28:11Z</time>
      </trkpt>
      <trkpt lat="45.39264" lon="5.80838">
        <ele>1497.8</ele>
        <time>2017-01-21T09:28:16Z</time>
      </trkpt>
      <trkpt lat="45.39262" lon="5.80839">
        <ele>1506.4</ele>
        <time>2017-01-21T09:28:21Z</time>
      </trkpt>
      <trkpt lat="45.3926" lon="5.80838">
        <ele>1503.6</ele>
        <time>2017-01-21T09:28:26Z</time>
      </trkpt>
      <trkpt lat="45.39258" lon="5.80837">
        <ele>1503.4</ele>
        <time>2017-01-21T09:28:31Z</time>
      </trkpt>
      <trkpt lat="45.39257" lon="5.80835">
        <ele>1502.6</ele>
        <time>2017-01-21T09:28:36Z</time>
      </trkpt>
      <trkpt lat="45.39255" lon="5.80833">
        <ele>1502.6</ele>
        <time>2017-01-21T09:28:41Z</time>
      </trkpt>
      <trkpt lat="45.39253" lon="5.80832">
        <ele>1507</ele>
        <time>2017-01-21T09:28:46Z</time>
      </trkpt>
      <trkpt lat="45.39253" lon="5.80832">
        <ele>1506.6</ele>
        <time>2017-01-21T09:28:51Z</time>
      </trkpt>
      <trkpt lat="45.39253" lon="5.80832">
        <ele>1506.4</ele>
        <time>2017-01-21T09:28:56Z</time>
      </trkpt>
      <trkpt lat="45.39253" lon="5.80832">
        <ele>1506.4</ele>
        <time>2017-01-21T09:29:01Z</time>
      </trkpt>
      <trkpt lat="45.39253" lon="5.80832">
        <ele>1506.4</ele>
        <time>2017-01-21T09:29:06Z</time>
      </trkpt>
      <trkpt lat="45.39253" lon="5.80832">
        <ele>1506.4</ele>
        <time>2017-01-21T09:29:11Z</time>
      </trkpt>
      <trkpt lat="45.39252" lon="5.80828">
        <ele>1503.8</ele>
        <time>2017-01-21T09:29:16Z</time>
      </trkpt>
      <trkpt lat="45.39251" lon="5.80824">
        <ele>1502</ele>
        <time>2017-01-21T09:29:21Z</time>
      </trkpt>
      <trkpt lat="45.39249" lon="5.80822">
        <ele>1508</ele>
        <time>2017-01-21T09:29:26Z</time>
      </trkpt>
      <trkpt lat="45.39248" lon="5.8082">
        <ele>1509.2</ele>
        <time>2017-01-21T09:29:31Z</time>
      </trkpt>
      <trkpt lat="45.39246" lon="5.80818">
        <ele>1510.6</ele>
        <time>2017-01-21T09:29:36Z</time>
      </trkpt>
      <trkpt lat="45.39245" lon="5.80816">
        <ele>1510.6</ele>
        <time>2017-01-21T09:29:41Z</time>
      </trkpt>
      <trkpt lat="45.39244" lon="5.80815">
        <ele>1511.6</ele>
        <time>2017-01-21T09:29:46Z</time>
      </trkpt>
      <trkpt lat="45.39243" lon="5.80813">
        <ele>1511.4</ele>
        <time>2017-01-21T09:29:51Z</time>
      </trkpt>
      <trkpt lat="45.39243" lon="5.80812">
        <ele>1512</ele>
        <time>2017-01-21T09:29:56Z</time>
      </trkpt>
      <trkpt lat="45.39242" lon="5.8081">
        <ele>1515</ele>
        <time>2017-01-21T09:30:01Z</time>
      </trkpt>
      <trkpt lat="45.3924" lon="5.80809">
        <ele>1513.8</ele>
        <time>2017-01-21T09:30:06Z</time>
      </trkpt>
      <trkpt lat="45.39238" lon="5.80808">
        <ele>1514.4</ele>
        <time>2017-01-21T09:30:11Z</time>
      </trkpt>
      <trkpt lat="45.39236" lon="5.80805">
        <ele>1514</ele>
        <time>2017-01-21T09:30:16Z</time>
      </trkpt>
      <trkpt lat="45.39236" lon="5.80801">
        <ele>1513.4</ele>
        <time>2017-01-21T09:30:21Z</time>
      </trkpt>
      <trkpt lat="45.39235" lon="5.80801">
        <ele>1517</ele>
        <time>2017-01-21T09:30:26Z</time>
      </trkpt>
      <trkpt lat="45.39234" lon="5.808">
        <ele>1514.8</ele>
        <time>2017-01-21T09:30:31Z</time>
      </trkpt>
      <trkpt lat="45.39232" lon="5.80799">
        <ele>1513.8</ele>
        <time>2017-01-21T09:30:36Z</time>
      </trkpt>
      <trkpt lat="45.3923" lon="5.808">
        <ele>1515.2</ele>
        <time>2017-01-21T09:30:41Z</time>
      </trkpt>
      <trkpt lat="45.39228" lon="5.808">
        <ele>1515.8</ele>
        <time>2017-01-21T09:30:46Z</time>
      </trkpt>
      <trkpt lat="45.39227" lon="5.808">
        <ele>1516.8</ele>
        <time>2017-01-21T09:30:51Z</time>
      </trkpt>
      <trkpt lat="45.39225" lon="5.80799">
        <ele>1519.8</ele>
        <time>2017-01-21T09:30:56Z</time>
      </trkpt>
      <trkpt lat="45.39223" lon="5.80799">
        <ele>1519.8</ele>
        <time>2017-01-21T09:31:01Z</time>
      </trkpt>
      <trkpt lat="45.39222" lon="5.80798">
        <ele>1520.4</ele>
        <time>2017-01-21T09:31:06Z</time>
      </trkpt>
      <trkpt lat="45.3922" lon="5.80798">
        <ele>1524.4</ele>
        <time>2017-01-21T09:31:11Z</time>
      </trkpt>
      <trkpt lat="45.3922" lon="5.80798">
        <ele>1524.2</ele>
        <time>2017-01-21T09:31:16Z</time>
      </trkpt>
      <trkpt lat="45.39219" lon="5.80801">
        <ele>1523.6</ele>
        <time>2017-01-21T09:31:21Z</time>
      </trkpt>
      <trkpt lat="45.39218" lon="5.80801">
        <ele>1523.2</ele>
        <time>2017-01-21T09:31:26Z</time>
      </trkpt>
      <trkpt lat="45.39218" lon="5.80802">
        <ele>1523.8</ele>
        <time>2017-01-21T09:31:31Z</time>
      </trkpt>
      <trkpt lat="45.39218" lon="5.80802">
        <ele>1524.2</ele>
        <time>2017-01-21T09:31:36Z</time>
      </trkpt>
      <trkpt lat="45.39218" lon="5.80802">
        <ele>1524.4</ele>
        <time>2017-01-21T09:31:41Z</time>
      </trkpt>
      <trkpt lat="45.39218" lon="5.80802">
        <ele>1524.6</ele>
        <time>2017-01-21T09:31:46Z</time>
      </trkpt>
      <trkpt lat="45.39218" lon="5.80802">
        <ele>1524.8</ele>
        <time>2017-01-21T09:31:51Z</time>
      </trkpt>
      <trkpt lat="45.39218" lon="5.80802">
        <ele>1524.8</ele>
        <time>2017-01-21T09:31:56Z</time>
      </trkpt>
      <trkpt lat="45.39218" lon="5.80802">
        <ele>1524.8</ele>
        <time>2017-01-21T09:32:01Z</time>
      </trkpt>
      <trkpt lat="45.39218" lon="5.80802">
        <ele>1525</ele>
        <time>2017-01-21T09:32:06Z</time>
      </trkpt>
      <trkpt lat="45.39218" lon="5.80802">
        <ele>1525.2</ele>
        <time>2017-01-21T09:32:11Z</time>
      </trkpt>
      <trkpt lat="45.39218" lon="5.80802">
        <ele>1525.2</ele>
        <time>2017-01-21T09:32:16Z</time>
      </trkpt>
      <trkpt lat="45.39218" lon="5.80802">
        <ele>1525.2</ele>
        <time>2017-01-21T09:32:21Z</time>
      </trkpt>
      <trkpt lat="45.39218" lon="5.80802">
        <ele>1525.2</ele>
        <time>2017-01-21T09:32:26Z</time>
      </trkpt>
      <trkpt lat="45.39218" lon="5.80802">
        <ele>1525.2</ele>
        <time>2017-01-21T09:32:31Z</time>
      </trkpt>
      <trkpt lat="45.39218" lon="5.80802">
        <ele>1525.4</ele>
        <time>2017-01-21T09:32:36Z</time>
      </trkpt>
      <trkpt lat="45.39218" lon="5.80802">
        <ele>1525.4</ele>
        <time>2017-01-21T09:32:41Z</time>
      </trkpt>
      <trkpt lat="45.39218" lon="5.80802">
        <ele>1525.6</ele>
        <time>2017-01-21T09:32:46Z</time>
      </trkpt>
      <trkpt lat="45.39218" lon="5.80802">
        <ele>1525.6</ele>
        <time>2017-01-21T09:32:51Z</time>
      </trkpt>
      <trkpt lat="45.39219" lon="5.80802">
        <ele>1525.6</ele>
        <time>2017-01-21T09:32:56Z</time>
      </trkpt>
      <trkpt lat="45.39219" lon="5.80802">
        <ele>1525.6</ele>
        <time>2017-01-21T09:33:01Z</time>
      </trkpt>
      <trkpt lat="45.39219" lon="5.80802">
        <ele>1525.4</ele>
        <time>2017-01-21T09:33:06Z</time>
      </trkpt>
      <trkpt lat="45.39219" lon="5.80802">
        <ele>1525.4</ele>
        <time>2017-01-21T09:33:11Z</time>
      </trkpt>
      <trkpt lat="45.39219" lon="5.80802">
        <ele>1525.4</ele>
        <time>2017-01-21T09:33:16Z</time>
      </trkpt>
      <trkpt lat="45.39219" lon="5.80802">
        <ele>1525.4</ele>
        <time>2017-01-21T09:33:21Z</time>
      </trkpt>
      <trkpt lat="45.39219" lon="5.80802">
        <ele>1525.4</ele>
        <time>2017-01-21T09:33:26Z</time>
      </trkpt>
      <trkpt lat="45.39219" lon="5.80802">
        <ele>1525.4</ele>
        <time>2017-01-21T09:33:31Z</time>
      </trkpt>
      <trkpt lat="45.39219" lon="5.80802">
        <ele>1525.4</ele>
        <time>2017-01-21T09:33:36Z</time>
      </trkpt>
      <trkpt lat="45.39219" lon="5.80802">
        <ele>1525.4</ele>
        <time>2017-01-21T09:33:41Z</time>
      </trkpt>
      <trkpt lat="45.39219" lon="5.80802">
        <ele>1525.4</ele>
        <time>2017-01-21T09:33:46Z</time>
      </trkpt>
      <trkpt lat="45.39219" lon="5.80802">
        <ele>1525.4</ele>
        <time>2017-01-21T09:33:51Z</time>
      </trkpt>
      <trkpt lat="45.39219" lon="5.80802">
        <ele>1525.4</ele>
        <time>2017-01-21T09:33:56Z</time>
      </trkpt>
      <trkpt lat="45.39219" lon="5.80802">
        <ele>1525.4</ele>
        <time>2017-01-21T09:34:01Z</time>
      </trkpt>
      <trkpt lat="45.39219" lon="5.80802">
        <ele>1525.4</ele>
        <time>2017-01-21T09:34:06Z</time>
      </trkpt>
      <trkpt lat="45.39219" lon="5.80802">
        <ele>1525.4</ele>
        <time>2017-01-21T09:34:11Z</time>
      </trkpt>
      <trkpt lat="45.39219" lon="5.80802">
        <ele>1525.4</ele>
        <time>2017-01-21T09:34:16Z</time>
      </trkpt>
      <trkpt lat="45.39218" lon="5.80802">
        <ele>1525.4</ele>
        <time>2017-01-21T09:34:21Z</time>
      </trkpt>
      <trkpt lat="45.39218" lon="5.80802">
        <ele>1525.2</ele>
        <time>2017-01-21T09:34:26Z</time>
      </trkpt>
      <trkpt lat="45.39218" lon="5.80803">
        <ele>1525.2</ele>
        <time>2017-01-21T09:34:31Z</time>
      </trkpt>
      <trkpt lat="45.39218" lon="5.80804">
        <ele>1525</ele>
        <time>2017-01-21T09:34:36Z</time>
      </trkpt>
      <trkpt lat="45.39218" lon="5.80804">
        <ele>1524.8</ele>
        <time>2017-01-21T09:34:41Z</time>
      </trkpt>
      <trkpt lat="45.39218" lon="5.80804">
        <ele>1524.8</ele>
        <time>2017-01-21T09:34:46Z</time>
      </trkpt>
      <trkpt lat="45.39219" lon="5.80802">
        <ele>1524.6</ele>
        <time>2017-01-21T09:34:52Z</time>
      </trkpt>
      <trkpt lat="45.39219" lon="5.80802">
        <ele>1524.6</ele>
        <time>2017-01-21T09:34:57Z</time>
      </trkpt>
      <trkpt lat="45.39219" lon="5.80802">
        <ele>1524.4</ele>
        <time>2017-01-21T09:35:02Z</time>
      </trkpt>
      <trkpt lat="45.39219" lon="5.80802">
        <ele>1524.4</ele>
        <time>2017-01-21T09:35:08Z</time>
      </trkpt>
      <trkpt lat="45.39219" lon="5.80803">
        <ele>1524.4</ele>
        <time>2017-01-21T09:35:13Z</time>
      </trkpt>
      <trkpt lat="45.3922" lon="5.80803">
        <ele>1524.2</ele>
        <time>2017-01-21T09:35:18Z</time>
      </trkpt>
      <trkpt lat="45.3922" lon="5.80805">
        <ele>1524.4</ele>
        <time>2017-01-21T09:35:23Z</time>
      </trkpt>
      <trkpt lat="45.39218" lon="5.80807">
        <ele>1525.8</ele>
        <time>2017-01-21T09:35:28Z</time>
      </trkpt>
      <trkpt lat="45.39218" lon="5.8081">
        <ele>1525.2</ele>
        <time>2017-01-21T09:35:33Z</time>
      </trkpt>
      <trkpt lat="45.39217" lon="5.80812">
        <ele>1524.8</ele>
        <time>2017-01-21T09:35:38Z</time>
      </trkpt>
      <trkpt lat="45.39216" lon="5.80814">
        <ele>1525.6</ele>
        <time>2017-01-21T09:35:43Z</time>
      </trkpt>
      <trkpt lat="45.39214" lon="5.80816">
        <ele>1525</ele>
        <time>2017-01-21T09:35:48Z</time>
      </trkpt>
      <trkpt lat="45.39213" lon="5.80819">
        <ele>1526.2</ele>
        <time>2017-01-21T09:35:53Z</time>
      </trkpt>
      <trkpt lat="45.39214" lon="5.80822">
        <ele>1524.6</ele>
        <time>2017-01-21T09:35:58Z</time>
      </trkpt>
      <trkpt lat="45.39216" lon="5.80823">
        <ele>1523.4</ele>
        <time>2017-01-21T09:36:03Z</time>
      </trkpt>
      <trkpt lat="45.39215" lon="5.80824">
        <ele>1525</ele>
        <time>2017-01-21T09:36:08Z</time>
      </trkpt>
      <trkpt lat="45.39213" lon="5.80826">
        <ele>1527.4</ele>
        <time>2017-01-21T09:36:13Z</time>
      </trkpt>
      <trkpt lat="45.39212" lon="5.80827">
        <ele>1530</ele>
        <time>2017-01-21T09:36:18Z</time>
      </trkpt>
      <trkpt lat="45.3921" lon="5.80828">
        <ele>1529.4</ele>
        <time>2017-01-21T09:36:23Z</time>
      </trkpt>
      <trkpt lat="45.39207" lon="5.80829">
        <ele>1531.6</ele>
        <time>2017-01-21T09:36:28Z</time>
      </trkpt>
      <trkpt lat="45.39207" lon="5.8083">
        <ele>1531.4</ele>
        <time>2017-01-21T09:36:33Z</time>
      </trkpt>
      <trkpt lat="45.39205" lon="5.80832">
        <ele>1531.2</ele>
        <time>2017-01-21T09:36:38Z</time>
      </trkpt>
      <trkpt lat="45.39203" lon="5.80834">
        <ele>1532.8</ele>
        <time>2017-01-21T09:36:43Z</time>
      </trkpt>
      <trkpt lat="45.39202" lon="5.80836">
        <ele>1535</ele>
        <time>2017-01-21T09:36:48Z</time>
      </trkpt>
      <trkpt lat="45.39201" lon="5.80837">
        <ele>1534.8</ele>
        <time>2017-01-21T09:36:53Z</time>
      </trkpt>
      <trkpt lat="45.392" lon="5.80836">
        <ele>1535.6</ele>
        <time>2017-01-21T09:36:58Z</time>
      </trkpt>
      <trkpt lat="45.39199" lon="5.80835">
        <ele>1535.4</ele>
        <time>2017-01-21T09:37:03Z</time>
      </trkpt>
      <trkpt lat="45.39197" lon="5.80834">
        <ele>1535</ele>
        <time>2017-01-21T09:37:08Z</time>
      </trkpt>
      <trkpt lat="45.39195" lon="5.80833">
        <ele>1534.8</ele>
        <time>2017-01-21T09:37:13Z</time>
      </trkpt>
      <trkpt lat="45.39193" lon="5.80831">
        <ele>1536.8</ele>
        <time>2017-01-21T09:37:18Z</time>
      </trkpt>
      <trkpt lat="45.39192" lon="5.8083">
        <ele>1536.6</ele>
        <time>2017-01-21T09:37:23Z</time>
      </trkpt>
      <trkpt lat="45.39192" lon="5.8083">
        <ele>1536</ele>
        <time>2017-01-21T09:37:28Z</time>
      </trkpt>
      <trkpt lat="45.3919" lon="5.8083">
        <ele>1533.8</ele>
        <time>2017-01-21T09:37:33Z</time>
      </trkpt>
      <trkpt lat="45.39187" lon="5.80829">
        <ele>1534.8</ele>
        <time>2017-01-21T09:37:38Z</time>
      </trkpt>
      <trkpt lat="45.39185" lon="5.80828">
        <ele>1536.6</ele>
        <time>2017-01-21T09:37:43Z</time>
      </trkpt>
      <trkpt lat="45.39183" lon="5.80827">
        <ele>1534.6</ele>
        <time>2017-01-21T09:37:48Z</time>
      </trkpt>
      <trkpt lat="45.39183" lon="5.80827">
        <ele>1537.8</ele>
        <time>2017-01-21T09:37:53Z</time>
      </trkpt>
      <trkpt lat="45.39179" lon="5.80827">
        <ele>1536.8</ele>
        <time>2017-01-21T09:37:58Z</time>
      </trkpt>
      <trkpt lat="45.39176" lon="5.80826">
        <ele>1540.6</ele>
        <time>2017-01-21T09:38:03Z</time>
      </trkpt>
      <trkpt lat="45.39173" lon="5.80826">
        <ele>1538</ele>
        <time>2017-01-21T09:38:08Z</time>
      </trkpt>
      <trkpt lat="45.39171" lon="5.80825">
        <ele>1541.8</ele>
        <time>2017-01-21T09:38:13Z</time>
      </trkpt>
      <trkpt lat="45.39169" lon="5.80825">
        <ele>1542.4</ele>
        <time>2017-01-21T09:38:18Z</time>
      </trkpt>
      <trkpt lat="45.39166" lon="5.80824">
        <ele>1542</ele>
        <time>2017-01-21T09:38:23Z</time>
      </trkpt>
      <trkpt lat="45.39164" lon="5.80824">
        <ele>1543</ele>
        <time>2017-01-21T09:38:28Z</time>
      </trkpt>
      <trkpt lat="45.39163" lon="5.80823">
        <ele>1542</ele>
        <time>2017-01-21T09:38:33Z</time>
      </trkpt>
      <trkpt lat="45.39161" lon="5.80822">
        <ele>1545</ele>
        <time>2017-01-21T09:38:38Z</time>
      </trkpt>
      <trkpt lat="45.39159" lon="5.80821">
        <ele>1546</ele>
        <time>2017-01-21T09:38:43Z</time>
      </trkpt>
      <trkpt lat="45.39156" lon="5.8082">
        <ele>1545.2</ele>
        <time>2017-01-21T09:38:48Z</time>
      </trkpt>
      <trkpt lat="45.39152" lon="5.80818">
        <ele>1547.8</ele>
        <time>2017-01-21T09:38:53Z</time>
      </trkpt>
      <trkpt lat="45.39149" lon="5.80816">
        <ele>1548.8</ele>
        <time>2017-01-21T09:38:58Z</time>
      </trkpt>
      <trkpt lat="45.39145" lon="5.80816">
        <ele>1549.2</ele>
        <time>2017-01-21T09:39:03Z</time>
      </trkpt>
      <trkpt lat="45.39142" lon="5.80816">
        <ele>1549.6</ele>
        <time>2017-01-21T09:39:08Z</time>
      </trkpt>
      <trkpt lat="45.3914" lon="5.80815">
        <ele>1551.2</ele>
        <time>2017-01-21T09:39:13Z</time>
      </trkpt>
      <trkpt lat="45.39137" lon="5.80816">
        <ele>1550.4</ele>
        <time>2017-01-21T09:39:18Z</time>
      </trkpt>
      <trkpt lat="45.39134" lon="5.80816">
        <ele>1551</ele>
        <time>2017-01-21T09:39:23Z</time>
      </trkpt>
      <trkpt lat="45.39131" lon="5.80816">
        <ele>1552.8</ele>
        <time>2017-01-21T09:39:28Z</time>
      </trkpt>
      <trkpt lat="45.39129" lon="5.80816">
        <ele>1553.6</ele>
        <time>2017-01-21T09:39:33Z</time>
      </trkpt>
      <trkpt lat="45.39127" lon="5.80817">
        <ele>1557</ele>
        <time>2017-01-21T09:39:38Z</time>
      </trkpt>
      <trkpt lat="45.39125" lon="5.80817">
        <ele>1556.8</ele>
        <time>2017-01-21T09:39:43Z</time>
      </trkpt>
      <trkpt lat="45.39124" lon="5.80817">
        <ele>1552.6</ele>
        <time>2017-01-21T09:39:48Z</time>
      </trkpt>
      <trkpt lat="45.39123" lon="5.80817">
        <ele>1553.2</ele>
        <time>2017-01-21T09:39:53Z</time>
      </trkpt>
      <trkpt lat="45.39121" lon="5.80819">
        <ele>1554</ele>
        <time>2017-01-21T09:39:58Z</time>
      </trkpt>
      <trkpt lat="45.39118" lon="5.8082">
        <ele>1557.4</ele>
        <time>2017-01-21T09:40:03Z</time>
      </trkpt>
      <trkpt lat="45.39116" lon="5.8082">
        <ele>1558.8</ele>
        <time>2017-01-21T09:40:08Z</time>
      </trkpt>
      <trkpt lat="45.39114" lon="5.8082">
        <ele>1558.2</ele>
        <time>2017-01-21T09:40:13Z</time>
      </trkpt>
      <trkpt lat="45.39112" lon="5.80821">
        <ele>1555.8</ele>
        <time>2017-01-21T09:40:18Z</time>
      </trkpt>
      <trkpt lat="45.3911" lon="5.80821">
        <ele>1556</ele>
        <time>2017-01-21T09:40:23Z</time>
      </trkpt>
      <trkpt lat="45.39109" lon="5.80822">
        <ele>1556.4</ele>
        <time>2017-01-21T09:40:28Z</time>
      </trkpt>
      <trkpt lat="45.39109" lon="5.80823">
        <ele>1557</ele>
        <time>2017-01-21T09:40:33Z</time>
      </trkpt>
      <trkpt lat="45.39107" lon="5.80825">
        <ele>1560.6</ele>
        <time>2017-01-21T09:40:38Z</time>
      </trkpt>
      <trkpt lat="45.39107" lon="5.80826">
        <ele>1561.2</ele>
        <time>2017-01-21T09:40:43Z</time>
      </trkpt>
      <trkpt lat="45.39105" lon="5.80827">
        <ele>1561.8</ele>
        <time>2017-01-21T09:40:48Z</time>
      </trkpt>
      <trkpt lat="45.39104" lon="5.8083">
        <ele>1564.8</ele>
        <time>2017-01-21T09:40:53Z</time>
      </trkpt>
      <trkpt lat="45.39102" lon="5.80831">
        <ele>1564</ele>
        <time>2017-01-21T09:40:58Z</time>
      </trkpt>
      <trkpt lat="45.391" lon="5.80832">
        <ele>1565.8</ele>
        <time>2017-01-21T09:41:03Z</time>
      </trkpt>
      <trkpt lat="45.39097" lon="5.80834">
        <ele>1567.4</ele>
        <time>2017-01-21T09:41:08Z</time>
      </trkpt>
      <trkpt lat="45.39095" lon="5.80835">
        <ele>1567.6</ele>
        <time>2017-01-21T09:41:13Z</time>
      </trkpt>
      <trkpt lat="45.39094" lon="5.80836">
        <ele>1566.2</ele>
        <time>2017-01-21T09:41:18Z</time>
      </trkpt>
      <trkpt lat="45.39091" lon="5.80837">
        <ele>1568.8</ele>
        <time>2017-01-21T09:41:23Z</time>
      </trkpt>
      <trkpt lat="45.3909" lon="5.80838">
        <ele>1566.6</ele>
        <time>2017-01-21T09:41:28Z</time>
      </trkpt>
      <trkpt lat="45.39088" lon="5.8084">
        <ele>1568</ele>
        <time>2017-01-21T09:41:33Z</time>
      </trkpt>
      <trkpt lat="45.39084" lon="5.80841">
        <ele>1567</ele>
        <time>2017-01-21T09:41:38Z</time>
      </trkpt>
      <trkpt lat="45.39081" lon="5.80843">
        <ele>1569.6</ele>
        <time>2017-01-21T09:41:43Z</time>
      </trkpt>
      <trkpt lat="45.39079" lon="5.80844">
        <ele>1567.6</ele>
        <time>2017-01-21T09:41:48Z</time>
      </trkpt>
      <trkpt lat="45.39076" lon="5.80846">
        <ele>1569.8</ele>
        <time>2017-01-21T09:41:53Z</time>
      </trkpt>
      <trkpt lat="45.39074" lon="5.80846">
        <ele>1563.2</ele>
        <time>2017-01-21T09:41:58Z</time>
      </trkpt>
      <trkpt lat="45.39072" lon="5.80847">
        <ele>1566.2</ele>
        <time>2017-01-21T09:42:03Z</time>
      </trkpt>
      <trkpt lat="45.3907" lon="5.80848">
        <ele>1563.8</ele>
        <time>2017-01-21T09:42:08Z</time>
      </trkpt>
      <trkpt lat="45.39069" lon="5.8085">
        <ele>1566.8</ele>
        <time>2017-01-21T09:42:13Z</time>
      </trkpt>
      <trkpt lat="45.39067" lon="5.80851">
        <ele>1566.4</ele>
        <time>2017-01-21T09:42:18Z</time>
      </trkpt>
      <trkpt lat="45.39064" lon="5.80851">
        <ele>1565.8</ele>
        <time>2017-01-21T09:42:23Z</time>
      </trkpt>
      <trkpt lat="45.39062" lon="5.80852">
        <ele>1565</ele>
        <time>2017-01-21T09:42:28Z</time>
      </trkpt>
      <trkpt lat="45.3906" lon="5.80852">
        <ele>1570.2</ele>
        <time>2017-01-21T09:42:33Z</time>
      </trkpt>
      <trkpt lat="45.39058" lon="5.80852">
        <ele>1570.2</ele>
        <time>2017-01-21T09:42:38Z</time>
      </trkpt>
      <trkpt lat="45.39055" lon="5.80851">
        <ele>1570.2</ele>
        <time>2017-01-21T09:42:43Z</time>
      </trkpt>
      <trkpt lat="45.39053" lon="5.80851">
        <ele>1570.2</ele>
        <time>2017-01-21T09:42:48Z</time>
      </trkpt>
      <trkpt lat="45.39051" lon="5.80851">
        <ele>1572.2</ele>
        <time>2017-01-21T09:42:53Z</time>
      </trkpt>
      <trkpt lat="45.39048" lon="5.80852">
        <ele>1568.2</ele>
        <time>2017-01-21T09:42:58Z</time>
      </trkpt>
      <trkpt lat="45.39046" lon="5.80853">
        <ele>1572</ele>
        <time>2017-01-21T09:43:03Z</time>
      </trkpt>
      <trkpt lat="45.39043" lon="5.80854">
        <ele>1573</ele>
        <time>2017-01-21T09:43:08Z</time>
      </trkpt>
      <trkpt lat="45.39042" lon="5.80854">
        <ele>1573.8</ele>
        <time>2017-01-21T09:43:13Z</time>
      </trkpt>
      <trkpt lat="45.39042" lon="5.80854">
        <ele>1573.2</ele>
        <time>2017-01-21T09:43:18Z</time>
      </trkpt>
      <trkpt lat="45.39042" lon="5.80854">
        <ele>1573</ele>
        <time>2017-01-21T09:43:23Z</time>
      </trkpt>
      <trkpt lat="45.39042" lon="5.80854">
        <ele>1572.8</ele>
        <time>2017-01-21T09:43:28Z</time>
      </trkpt>
      <trkpt lat="45.39042" lon="5.80854">
        <ele>1572.6</ele>
        <time>2017-01-21T09:43:33Z</time>
      </trkpt>
      <trkpt lat="45.39041" lon="5.80854">
        <ele>1572.4</ele>
        <time>2017-01-21T09:43:38Z</time>
      </trkpt>
      <trkpt lat="45.39041" lon="5.80854">
        <ele>1572.4</ele>
        <time>2017-01-21T09:43:43Z</time>
      </trkpt>
      <trkpt lat="45.39041" lon="5.80854">
        <ele>1571.8</ele>
        <time>2017-01-21T09:43:48Z</time>
      </trkpt>
      <trkpt lat="45.39039" lon="5.80853">
        <ele>1572.4</ele>
        <time>2017-01-21T09:43:53Z</time>
      </trkpt>
      <trkpt lat="45.39037" lon="5.80851">
        <ele>1574.4</ele>
        <time>2017-01-21T09:43:58Z</time>
      </trkpt>
      <trkpt lat="45.39034" lon="5.80848">
        <ele>1572.8</ele>
        <time>2017-01-21T09:44:03Z</time>
      </trkpt>
      <trkpt lat="45.39031" lon="5.80847">
        <ele>1573.2</ele>
        <time>2017-01-21T09:44:08Z</time>
      </trkpt>
      <trkpt lat="45.39029" lon="5.80847">
        <ele>1576</ele>
        <time>2017-01-21T09:44:13Z</time>
      </trkpt>
      <trkpt lat="45.39027" lon="5.80846">
        <ele>1573.8</ele>
        <time>2017-01-21T09:44:18Z</time>
      </trkpt>
      <trkpt lat="45.39024" lon="5.80845">
        <ele>1578</ele>
        <time>2017-01-21T09:44:23Z</time>
      </trkpt>
      <trkpt lat="45.39022" lon="5.80845">
        <ele>1572.8</ele>
        <time>2017-01-21T09:44:28Z</time>
      </trkpt>
      <trkpt lat="45.3902" lon="5.80844">
        <ele>1575.4</ele>
        <time>2017-01-21T09:44:33Z</time>
      </trkpt>
      <trkpt lat="45.3902" lon="5.80844">
        <ele>1577</ele>
        <time>2017-01-21T09:44:38Z</time>
      </trkpt>
      <trkpt lat="45.39019" lon="5.8084">
        <ele>1578</ele>
        <time>2017-01-21T09:44:43Z</time>
      </trkpt>
      <trkpt lat="45.39018" lon="5.80836">
        <ele>1579.8</ele>
        <time>2017-01-21T09:44:48Z</time>
      </trkpt>
      <trkpt lat="45.39018" lon="5.80833">
        <ele>1580</ele>
        <time>2017-01-21T09:44:53Z</time>
      </trkpt>
      <trkpt lat="45.39019" lon="5.8083">
        <ele>1583.6</ele>
        <time>2017-01-21T09:44:58Z</time>
      </trkpt>
      <trkpt lat="45.39018" lon="5.80827">
        <ele>1585.6</ele>
        <time>2017-01-21T09:45:03Z</time>
      </trkpt>
      <trkpt lat="45.3902" lon="5.80825">
        <ele>1584</ele>
        <time>2017-01-21T09:45:08Z</time>
      </trkpt>
      <trkpt lat="45.3902" lon="5.80822">
        <ele>1587.4</ele>
        <time>2017-01-21T09:45:13Z</time>
      </trkpt>
      <trkpt lat="45.39019" lon="5.80819">
        <ele>1585.2</ele>
        <time>2017-01-21T09:45:18Z</time>
      </trkpt>
      <trkpt lat="45.39018" lon="5.80817">
        <ele>1585.4</ele>
        <time>2017-01-21T09:45:23Z</time>
      </trkpt>
      <trkpt lat="45.39017" lon="5.80816">
        <ele>1585.6</ele>
        <time>2017-01-21T09:45:28Z</time>
      </trkpt>
      <trkpt lat="45.39016" lon="5.80816">
        <ele>1585.8</ele>
        <time>2017-01-21T09:45:33Z</time>
      </trkpt>
      <trkpt lat="45.39015" lon="5.80817">
        <ele>1586</ele>
        <time>2017-01-21T09:45:38Z</time>
      </trkpt>
      <trkpt lat="45.39013" lon="5.80818">
        <ele>1586</ele>
        <time>2017-01-21T09:45:43Z</time>
      </trkpt>
      <trkpt lat="45.39011" lon="5.8082">
        <ele>1587.8</ele>
        <time>2017-01-21T09:45:48Z</time>
      </trkpt>
      <trkpt lat="45.39009" lon="5.80822">
        <ele>1591.8</ele>
        <time>2017-01-21T09:45:53Z</time>
      </trkpt>
      <trkpt lat="45.39008" lon="5.80822">
        <ele>1589.6</ele>
        <time>2017-01-21T09:45:58Z</time>
      </trkpt>
      <trkpt lat="45.39008" lon="5.80821">
        <ele>1592.6</ele>
        <time>2017-01-21T09:46:03Z</time>
      </trkpt>
      <trkpt lat="45.39007" lon="5.80818">
        <ele>1592.2</ele>
        <time>2017-01-21T09:46:08Z</time>
      </trkpt>
      <trkpt lat="45.39007" lon="5.80815">
        <ele>1589.6</ele>
        <time>2017-01-21T09:46:13Z</time>
      </trkpt>
      <trkpt lat="45.39007" lon="5.80812">
        <ele>1590.8</ele>
        <time>2017-01-21T09:46:18Z</time>
      </trkpt>
      <trkpt lat="45.39008" lon="5.80809">
        <ele>1591</ele>
        <time>2017-01-21T09:46:23Z</time>
      </trkpt>
      <trkpt lat="45.39008" lon="5.80807">
        <ele>1592</ele>
        <time>2017-01-21T09:46:28Z</time>
      </trkpt>
      <trkpt lat="45.39007" lon="5.80807">
        <ele>1592.4</ele>
        <time>2017-01-21T09:46:33Z</time>
      </trkpt>
      <trkpt lat="45.39005" lon="5.80808">
        <ele>1590</ele>
        <time>2017-01-21T09:46:38Z</time>
      </trkpt>
      <trkpt lat="45.39003" lon="5.80808">
        <ele>1592</ele>
        <time>2017-01-21T09:46:43Z</time>
      </trkpt>
      <trkpt lat="45.39003" lon="5.80807">
        <ele>1593</ele>
        <time>2017-01-21T09:46:48Z</time>
      </trkpt>
      <trkpt lat="45.39003" lon="5.80805">
        <ele>1593.2</ele>
        <time>2017-01-21T09:46:53Z</time>
      </trkpt>
      <trkpt lat="45.39004" lon="5.80801">
        <ele>1594.8</ele>
        <time>2017-01-21T09:46:58Z</time>
      </trkpt>
      <trkpt lat="45.39003" lon="5.80799">
        <ele>1594</ele>
        <time>2017-01-21T09:47:03Z</time>
      </trkpt>
      <trkpt lat="45.39003" lon="5.80798">
        <ele>1594.6</ele>
        <time>2017-01-21T09:47:08Z</time>
      </trkpt>
      <trkpt lat="45.39001" lon="5.80798">
        <ele>1594.4</ele>
        <time>2017-01-21T09:47:13Z</time>
      </trkpt>
      <trkpt lat="45.39001" lon="5.80797">
        <ele>1595</ele>
        <time>2017-01-21T09:47:18Z</time>
      </trkpt>
      <trkpt lat="45.39" lon="5.80797">
        <ele>1595.6</ele>
        <time>2017-01-21T09:47:23Z</time>
      </trkpt>
      <trkpt lat="45.38998" lon="5.80796">
        <ele>1596.4</ele>
        <time>2017-01-21T09:47:28Z</time>
      </trkpt>
      <trkpt lat="45.38996" lon="5.80794">
        <ele>1597.8</ele>
        <time>2017-01-21T09:47:33Z</time>
      </trkpt>
      <trkpt lat="45.38995" lon="5.80791">
        <ele>1598</ele>
        <time>2017-01-21T09:47:38Z</time>
      </trkpt>
      <trkpt lat="45.38993" lon="5.80788">
        <ele>1598.6</ele>
        <time>2017-01-21T09:47:43Z</time>
      </trkpt>
      <trkpt lat="45.38993" lon="5.80788">
        <ele>1598.6</ele>
        <time>2017-01-21T09:47:48Z</time>
      </trkpt>
      <trkpt lat="45.38993" lon="5.80788">
        <ele>1598.4</ele>
        <time>2017-01-21T09:47:53Z</time>
      </trkpt>
      <trkpt lat="45.38993" lon="5.80788">
        <ele>1598.4</ele>
        <time>2017-01-21T09:47:58Z</time>
      </trkpt>
      <trkpt lat="45.38993" lon="5.80787">
        <ele>1598.4</ele>
        <time>2017-01-21T09:48:03Z</time>
      </trkpt>
      <trkpt lat="45.38994" lon="5.80787">
        <ele>1598.4</ele>
        <time>2017-01-21T09:48:08Z</time>
      </trkpt>
      <trkpt lat="45.38994" lon="5.80788">
        <ele>1598.2</ele>
        <time>2017-01-21T09:48:13Z</time>
      </trkpt>
      <trkpt lat="45.38994" lon="5.80788">
        <ele>1598.2</ele>
        <time>2017-01-21T09:48:18Z</time>
      </trkpt>
      <trkpt lat="45.38992" lon="5.80786">
        <ele>1600.4</ele>
        <time>2017-01-21T09:48:23Z</time>
      </trkpt>
      <trkpt lat="45.3899" lon="5.80787">
        <ele>1599.8</ele>
        <time>2017-01-21T09:48:28Z</time>
      </trkpt>
      <trkpt lat="45.38988" lon="5.8079">
        <ele>1598.8</ele>
        <time>2017-01-21T09:48:33Z</time>
      </trkpt>
      <trkpt lat="45.38987" lon="5.80792">
        <ele>1599.4</ele>
        <time>2017-01-21T09:48:38Z</time>
      </trkpt>
      <trkpt lat="45.38985" lon="5.80793">
        <ele>1597.8</ele>
        <time>2017-01-21T09:48:43Z</time>
      </trkpt>
      <trkpt lat="45.38982" lon="5.80796">
        <ele>1601.4</ele>
        <time>2017-01-21T09:48:48Z</time>
      </trkpt>
      <trkpt lat="45.3898" lon="5.80797">
        <ele>1602.2</ele>
        <time>2017-01-21T09:48:53Z</time>
      </trkpt>
      <trkpt lat="45.38979" lon="5.80799">
        <ele>1605.8</ele>
        <time>2017-01-21T09:48:58Z</time>
      </trkpt>
      <trkpt lat="45.38977" lon="5.808">
        <ele>1605.8</ele>
        <time>2017-01-21T09:49:03Z</time>
      </trkpt>
      <trkpt lat="45.38974" lon="5.80802">
        <ele>1606</ele>
        <time>2017-01-21T09:49:08Z</time>
      </trkpt>
      <trkpt lat="45.38972" lon="5.80803">
        <ele>1610.2</ele>
        <time>2017-01-21T09:49:13Z</time>
      </trkpt>
      <trkpt lat="45.3897" lon="5.80805">
        <ele>1610</ele>
        <time>2017-01-21T09:49:18Z</time>
      </trkpt>
      <trkpt lat="45.38967" lon="5.80807">
        <ele>1609</ele>
        <time>2017-01-21T09:49:23Z</time>
      </trkpt>
      <trkpt lat="45.38964" lon="5.80809">
        <ele>1611.8</ele>
        <time>2017-01-21T09:49:28Z</time>
      </trkpt>
      <trkpt lat="45.38961" lon="5.80811">
        <ele>1611.2</ele>
        <time>2017-01-21T09:49:33Z</time>
      </trkpt>
      <trkpt lat="45.38957" lon="5.80814">
        <ele>1611.4</ele>
        <time>2017-01-21T09:49:38Z</time>
      </trkpt>
      <trkpt lat="45.38954" lon="5.80816">
        <ele>1611.2</ele>
        <time>2017-01-21T09:49:43Z</time>
      </trkpt>
      <trkpt lat="45.38951" lon="5.80818">
        <ele>1613</ele>
        <time>2017-01-21T09:49:48Z</time>
      </trkpt>
      <trkpt lat="45.38948" lon="5.80821">
        <ele>1611.6</ele>
        <time>2017-01-21T09:49:53Z</time>
      </trkpt>
      <trkpt lat="45.38946" lon="5.80826">
        <ele>1611.4</ele>
        <time>2017-01-21T09:49:58Z</time>
      </trkpt>
      <trkpt lat="45.38944" lon="5.80831">
        <ele>1611.6</ele>
        <time>2017-01-21T09:50:03Z</time>
      </trkpt>
      <trkpt lat="45.38943" lon="5.80837">
        <ele>1613.8</ele>
        <time>2017-01-21T09:50:08Z</time>
      </trkpt>
      <trkpt lat="45.38942" lon="5.80842">
        <ele>1610.8</ele>
        <time>2017-01-21T09:50:13Z</time>
      </trkpt>
      <trkpt lat="45.38942" lon="5.80845">
        <ele>1613</ele>
        <time>2017-01-21T09:50:18Z</time>
      </trkpt>
      <trkpt lat="45.38942" lon="5.80845">
        <ele>1613.2</ele>
        <time>2017-01-21T09:50:24Z</time>
      </trkpt>
      <trkpt lat="45.38941" lon="5.80847">
        <ele>1613.2</ele>
        <time>2017-01-21T09:50:29Z</time>
      </trkpt>
      <trkpt lat="45.3894" lon="5.8085">
        <ele>1615.8</ele>
        <time>2017-01-21T09:50:35Z</time>
      </trkpt>
      <trkpt lat="45.38939" lon="5.80854">
        <ele>1615.6</ele>
        <time>2017-01-21T09:50:40Z</time>
      </trkpt>
      <trkpt lat="45.38937" lon="5.80858">
        <ele>1616.4</ele>
        <time>2017-01-21T09:50:45Z</time>
      </trkpt>
      <trkpt lat="45.38936" lon="5.8086">
        <ele>1616.6</ele>
        <time>2017-01-21T09:50:50Z</time>
      </trkpt>
      <trkpt lat="45.38934" lon="5.80862">
        <ele>1615.4</ele>
        <time>2017-01-21T09:50:55Z</time>
      </trkpt>
      <trkpt lat="45.38932" lon="5.80861">
        <ele>1616.6</ele>
        <time>2017-01-21T09:51:00Z</time>
      </trkpt>
      <trkpt lat="45.3893" lon="5.80859">
        <ele>1617</ele>
        <time>2017-01-21T09:51:05Z</time>
      </trkpt>
      <trkpt lat="45.38928" lon="5.80856">
        <ele>1621.6</ele>
        <time>2017-01-21T09:51:10Z</time>
      </trkpt>
      <trkpt lat="45.38926" lon="5.80855">
        <ele>1619.4</ele>
        <time>2017-01-21T09:51:15Z</time>
      </trkpt>
      <trkpt lat="45.38924" lon="5.80854">
        <ele>1618</ele>
        <time>2017-01-21T09:51:20Z</time>
      </trkpt>
      <trkpt lat="45.38921" lon="5.80853">
        <ele>1617.2</ele>
        <time>2017-01-21T09:51:25Z</time>
      </trkpt>
      <trkpt lat="45.38919" lon="5.80852">
        <ele>1620.4</ele>
        <time>2017-01-21T09:51:30Z</time>
      </trkpt>
      <trkpt lat="45.38916" lon="5.80851">
        <ele>1620.4</ele>
        <time>2017-01-21T09:51:35Z</time>
      </trkpt>
      <trkpt lat="45.38914" lon="5.80851">
        <ele>1619.4</ele>
        <time>2017-01-21T09:51:40Z</time>
      </trkpt>
      <trkpt lat="45.38911" lon="5.80851">
        <ele>1623</ele>
        <time>2017-01-21T09:51:45Z</time>
      </trkpt>
      <trkpt lat="45.38909" lon="5.80853">
        <ele>1622</ele>
        <time>2017-01-21T09:51:50Z</time>
      </trkpt>
      <trkpt lat="45.38907" lon="5.80854">
        <ele>1624.2</ele>
        <time>2017-01-21T09:51:55Z</time>
      </trkpt>
      <trkpt lat="45.38905" lon="5.80856">
        <ele>1626.2</ele>
        <time>2017-01-21T09:52:00Z</time>
      </trkpt>
      <trkpt lat="45.38904" lon="5.80857">
        <ele>1629.4</ele>
        <time>2017-01-21T09:52:05Z</time>
      </trkpt>
      <trkpt lat="45.38902" lon="5.80858">
        <ele>1624.8</ele>
        <time>2017-01-21T09:52:10Z</time>
      </trkpt>
      <trkpt lat="45.38899" lon="5.80859">
        <ele>1627.2</ele>
        <time>2017-01-21T09:52:15Z</time>
      </trkpt>
      <trkpt lat="45.38897" lon="5.80859">
        <ele>1627.2</ele>
        <time>2017-01-21T09:52:20Z</time>
      </trkpt>
      <trkpt lat="45.38895" lon="5.80859">
        <ele>1628.8</ele>
        <time>2017-01-21T09:52:25Z</time>
      </trkpt>
      <trkpt lat="45.38893" lon="5.8086">
        <ele>1633</ele>
        <time>2017-01-21T09:52:30Z</time>
      </trkpt>
      <trkpt lat="45.38892" lon="5.80863">
        <ele>1631.6</ele>
        <time>2017-01-21T09:52:35Z</time>
      </trkpt>
      <trkpt lat="45.38891" lon="5.80866">
        <ele>1630.4</ele>
        <time>2017-01-21T09:52:40Z</time>
      </trkpt>
      <trkpt lat="45.3889" lon="5.80869">
        <ele>1630.8</ele>
        <time>2017-01-21T09:52:45Z</time>
      </trkpt>
      <trkpt lat="45.38888" lon="5.80871">
        <ele>1631</ele>
        <time>2017-01-21T09:52:50Z</time>
      </trkpt>
      <trkpt lat="45.38886" lon="5.80872">
        <ele>1634.6</ele>
        <time>2017-01-21T09:52:55Z</time>
      </trkpt>
      <trkpt lat="45.38884" lon="5.80871">
        <ele>1636.4</ele>
        <time>2017-01-21T09:53:00Z</time>
      </trkpt>
      <trkpt lat="45.38883" lon="5.80871">
        <ele>1634.8</ele>
        <time>2017-01-21T09:53:05Z</time>
      </trkpt>
      <trkpt lat="45.38881" lon="5.80871">
        <ele>1634.4</ele>
        <time>2017-01-21T09:53:10Z</time>
      </trkpt>
      <trkpt lat="45.38879" lon="5.80871">
        <ele>1636.8</ele>
        <time>2017-01-21T09:53:15Z</time>
      </trkpt>
      <trkpt lat="45.38877" lon="5.80873">
        <ele>1637</ele>
        <time>2017-01-21T09:53:20Z</time>
      </trkpt>
      <trkpt lat="45.38876" lon="5.80875">
        <ele>1640</ele>
        <time>2017-01-21T09:53:25Z</time>
      </trkpt>
      <trkpt lat="45.38876" lon="5.80877">
        <ele>1641.2</ele>
        <time>2017-01-21T09:53:30Z</time>
      </trkpt>
      <trkpt lat="45.38877" lon="5.80879">
        <ele>1638</ele>
        <time>2017-01-21T09:53:35Z</time>
      </trkpt>
      <trkpt lat="45.38878" lon="5.80882">
        <ele>1639.6</ele>
        <time>2017-01-21T09:53:40Z</time>
      </trkpt>
      <trkpt lat="45.38878" lon="5.80885">
        <ele>1640.6</ele>
        <time>2017-01-21T09:53:45Z</time>
      </trkpt>
      <trkpt lat="45.38879" lon="5.80888">
        <ele>1642</ele>
        <time>2017-01-21T09:53:50Z</time>
      </trkpt>
      <trkpt lat="45.38879" lon="5.80892">
        <ele>1645.2</ele>
        <time>2017-01-21T09:53:56Z</time>
      </trkpt>
      <trkpt lat="45.38878" lon="5.80894">
        <ele>1640.2</ele>
        <time>2017-01-21T09:54:01Z</time>
      </trkpt>
      <trkpt lat="45.38876" lon="5.80894">
        <ele>1646.2</ele>
        <time>2017-01-21T09:54:06Z</time>
      </trkpt>
      <trkpt lat="45.38874" lon="5.80894">
        <ele>1639.6</ele>
        <time>2017-01-21T09:54:11Z</time>
      </trkpt>
      <trkpt lat="45.38871" lon="5.80894">
        <ele>1642</ele>
        <time>2017-01-21T09:54:16Z</time>
      </trkpt>
      <trkpt lat="45.3887" lon="5.80894">
        <ele>1643.2</ele>
        <time>2017-01-21T09:54:21Z</time>
      </trkpt>
      <trkpt lat="45.38869" lon="5.80896">
        <ele>1641.2</ele>
        <time>2017-01-21T09:54:26Z</time>
      </trkpt>
      <trkpt lat="45.38869" lon="5.809">
        <ele>1644.2</ele>
        <time>2017-01-21T09:54:31Z</time>
      </trkpt>
      <trkpt lat="45.38869" lon="5.80903">
        <ele>1642.8</ele>
        <time>2017-01-21T09:54:36Z</time>
      </trkpt>
      <trkpt lat="45.38868" lon="5.80906">
        <ele>1646.4</ele>
        <time>2017-01-21T09:54:41Z</time>
      </trkpt>
      <trkpt lat="45.38866" lon="5.80906">
        <ele>1648.6</ele>
        <time>2017-01-21T09:54:46Z</time>
      </trkpt>
      <trkpt lat="45.38863" lon="5.80906">
        <ele>1647.6</ele>
        <time>2017-01-21T09:54:51Z</time>
      </trkpt>
      <trkpt lat="45.38862" lon="5.80906">
        <ele>1649.8</ele>
        <time>2017-01-21T09:54:56Z</time>
      </trkpt>
      <trkpt lat="45.38861" lon="5.80908">
        <ele>1650.6</ele>
        <time>2017-01-21T09:55:01Z</time>
      </trkpt>
      <trkpt lat="45.38862" lon="5.80911">
        <ele>1651.6</ele>
        <time>2017-01-21T09:55:06Z</time>
      </trkpt>
      <trkpt lat="45.38862" lon="5.80914">
        <ele>1652.4</ele>
        <time>2017-01-21T09:55:11Z</time>
      </trkpt>
      <trkpt lat="45.38862" lon="5.80916">
        <ele>1655.6</ele>
        <time>2017-01-21T09:55:16Z</time>
      </trkpt>
      <trkpt lat="45.38861" lon="5.80915">
        <ele>1651.6</ele>
        <time>2017-01-21T09:55:21Z</time>
      </trkpt>
      <trkpt lat="45.3886" lon="5.80915">
        <ele>1651.4</ele>
        <time>2017-01-21T09:55:26Z</time>
      </trkpt>
      <trkpt lat="45.38859" lon="5.80915">
        <ele>1651.8</ele>
        <time>2017-01-21T09:55:31Z</time>
      </trkpt>
      <trkpt lat="45.38857" lon="5.80914">
        <ele>1655.2</ele>
        <time>2017-01-21T09:55:36Z</time>
      </trkpt>
      <trkpt lat="45.38855" lon="5.80916">
        <ele>1655.2</ele>
        <time>2017-01-21T09:55:41Z</time>
      </trkpt>
      <trkpt lat="45.38854" lon="5.80918">
        <ele>1655</ele>
        <time>2017-01-21T09:55:46Z</time>
      </trkpt>
      <trkpt lat="45.38854" lon="5.8092">
        <ele>1656.6</ele>
        <time>2017-01-21T09:55:51Z</time>
      </trkpt>
      <trkpt lat="45.38853" lon="5.80922">
        <ele>1657.8</ele>
        <time>2017-01-21T09:55:56Z</time>
      </trkpt>
      <trkpt lat="45.38851" lon="5.80924">
        <ele>1659.6</ele>
        <time>2017-01-21T09:56:01Z</time>
      </trkpt>
      <trkpt lat="45.3885" lon="5.80925">
        <ele>1658.4</ele>
        <time>2017-01-21T09:56:06Z</time>
      </trkpt>
      <trkpt lat="45.38848" lon="5.80925">
        <ele>1658</ele>
        <time>2017-01-21T09:56:11Z</time>
      </trkpt>
      <trkpt lat="45.38846" lon="5.80924">
        <ele>1659.8</ele>
        <time>2017-01-21T09:56:16Z</time>
      </trkpt>
      <trkpt lat="45.38844" lon="5.80924">
        <ele>1659</ele>
        <time>2017-01-21T09:56:21Z</time>
      </trkpt>
      <trkpt lat="45.38843" lon="5.80924">
        <ele>1658.6</ele>
        <time>2017-01-21T09:56:26Z</time>
      </trkpt>
      <trkpt lat="45.3884" lon="5.80924">
        <ele>1659.2</ele>
        <time>2017-01-21T09:56:31Z</time>
      </trkpt>
      <trkpt lat="45.38838" lon="5.80924">
        <ele>1657.4</ele>
        <time>2017-01-21T09:56:36Z</time>
      </trkpt>
      <trkpt lat="45.38836" lon="5.80924">
        <ele>1658.6</ele>
        <time>2017-01-21T09:56:41Z</time>
      </trkpt>
      <trkpt lat="45.38835" lon="5.80924">
        <ele>1660.8</ele>
        <time>2017-01-21T09:56:46Z</time>
      </trkpt>
      <trkpt lat="45.38833" lon="5.80925">
        <ele>1661.2</ele>
        <time>2017-01-21T09:56:51Z</time>
      </trkpt>
      <trkpt lat="45.38832" lon="5.80926">
        <ele>1663.6</ele>
        <time>2017-01-21T09:56:56Z</time>
      </trkpt>
      <trkpt lat="45.3883" lon="5.80925">
        <ele>1664.6</ele>
        <time>2017-01-21T09:57:01Z</time>
      </trkpt>
      <trkpt lat="45.3883" lon="5.80922">
        <ele>1665.6</ele>
        <time>2017-01-21T09:57:06Z</time>
      </trkpt>
      <trkpt lat="45.3883" lon="5.80919">
        <ele>1667.4</ele>
        <time>2017-01-21T09:57:11Z</time>
      </trkpt>
      <trkpt lat="45.3883" lon="5.80917">
        <ele>1668</ele>
        <time>2017-01-21T09:57:16Z</time>
      </trkpt>
      <trkpt lat="45.38828" lon="5.80914">
        <ele>1669</ele>
        <time>2017-01-21T09:57:21Z</time>
      </trkpt>
      <trkpt lat="45.38827" lon="5.80912">
        <ele>1667.4</ele>
        <time>2017-01-21T09:57:26Z</time>
      </trkpt>
      <trkpt lat="45.38825" lon="5.8091">
        <ele>1668</ele>
        <time>2017-01-21T09:57:31Z</time>
      </trkpt>
      <trkpt lat="45.38823" lon="5.80909">
        <ele>1668.8</ele>
        <time>2017-01-21T09:57:36Z</time>
      </trkpt>
      <trkpt lat="45.38821" lon="5.80907">
        <ele>1666.4</ele>
        <time>2017-01-21T09:57:41Z</time>
      </trkpt>
      <trkpt lat="45.3882" lon="5.80906">
        <ele>1667.8</ele>
        <time>2017-01-21T09:57:46Z</time>
      </trkpt>
      <trkpt lat="45.38819" lon="5.80907">
        <ele>1664.4</ele>
        <time>2017-01-21T09:57:51Z</time>
      </trkpt>
      <trkpt lat="45.3882" lon="5.80911">
        <ele>1666.4</ele>
        <time>2017-01-21T09:57:56Z</time>
      </trkpt>
      <trkpt lat="45.3882" lon="5.80913">
        <ele>1667</ele>
        <time>2017-01-21T09:58:01Z</time>
      </trkpt>
      <trkpt lat="45.3882" lon="5.80913">
        <ele>1668</ele>
        <time>2017-01-21T09:58:07Z</time>
      </trkpt>
      <trkpt lat="45.38819" lon="5.80916">
        <ele>1668.4</ele>
        <time>2017-01-21T09:58:12Z</time>
      </trkpt>
      <trkpt lat="45.38819" lon="5.80916">
        <ele>1668.8</ele>
        <time>2017-01-21T09:58:17Z</time>
      </trkpt>
      <trkpt lat="45.38818" lon="5.80915">
        <ele>1669.2</ele>
        <time>2017-01-21T09:58:22Z</time>
      </trkpt>
      <trkpt lat="45.38818" lon="5.80915">
        <ele>1669.6</ele>
        <time>2017-01-21T09:58:27Z</time>
      </trkpt>
      <trkpt lat="45.38817" lon="5.80914">
        <ele>1668.4</ele>
        <time>2017-01-21T09:58:32Z</time>
      </trkpt>
      <trkpt lat="45.38816" lon="5.80912">
        <ele>1666.4</ele>
        <time>2017-01-21T09:58:37Z</time>
      </trkpt>
      <trkpt lat="45.38814" lon="5.80911">
        <ele>1668.4</ele>
        <time>2017-01-21T09:58:42Z</time>
      </trkpt>
      <trkpt lat="45.38812" lon="5.80909">
        <ele>1671.6</ele>
        <time>2017-01-21T09:58:47Z</time>
      </trkpt>
      <trkpt lat="45.38811" lon="5.80909">
        <ele>1675.4</ele>
        <time>2017-01-21T09:58:52Z</time>
      </trkpt>
      <trkpt lat="45.38811" lon="5.80911">
        <ele>1673.4</ele>
        <time>2017-01-21T09:58:57Z</time>
      </trkpt>
      <trkpt lat="45.38811" lon="5.80911">
        <ele>1674</ele>
        <time>2017-01-21T09:59:02Z</time>
      </trkpt>
      <trkpt lat="45.38811" lon="5.80913">
        <ele>1667.8</ele>
        <time>2017-01-21T09:59:07Z</time>
      </trkpt>
      <trkpt lat="45.3881" lon="5.80916">
        <ele>1671</ele>
        <time>2017-01-21T09:59:12Z</time>
      </trkpt>
      <trkpt lat="45.3881" lon="5.80918">
        <ele>1673.2</ele>
        <time>2017-01-21T09:59:17Z</time>
      </trkpt>
      <trkpt lat="45.38809" lon="5.8092">
        <ele>1671.4</ele>
        <time>2017-01-21T09:59:22Z</time>
      </trkpt>
      <trkpt lat="45.38808" lon="5.80922">
        <ele>1676</ele>
        <time>2017-01-21T09:59:27Z</time>
      </trkpt>
      <trkpt lat="45.38807" lon="5.80925">
        <ele>1678.4</ele>
        <time>2017-01-21T09:59:32Z</time>
      </trkpt>
      <trkpt lat="45.38806" lon="5.80928">
        <ele>1677</ele>
        <time>2017-01-21T09:59:37Z</time>
      </trkpt>
      <trkpt lat="45.38805" lon="5.8093">
        <ele>1679.2</ele>
        <time>2017-01-21T09:59:42Z</time>
      </trkpt>
      <trkpt lat="45.38804" lon="5.80927">
        <ele>1679.6</ele>
        <time>2017-01-21T09:59:47Z</time>
      </trkpt>
      <trkpt lat="45.38804" lon="5.80927">
        <ele>1679.8</ele>
        <time>2017-01-21T09:59:52Z</time>
      </trkpt>
      <trkpt lat="45.38802" lon="5.80924">
        <ele>1677.8</ele>
        <time>2017-01-21T09:59:57Z</time>
      </trkpt>
      <trkpt lat="45.38801" lon="5.80921">
        <ele>1682.4</ele>
        <time>2017-01-21T10:00:02Z</time>
      </trkpt>
      <trkpt lat="45.38799" lon="5.80918">
        <ele>1680.4</ele>
        <time>2017-01-21T10:00:07Z</time>
      </trkpt>
      <trkpt lat="45.38797" lon="5.80916">
        <ele>1681.2</ele>
        <time>2017-01-21T10:00:12Z</time>
      </trkpt>
      <trkpt lat="45.38796" lon="5.80915">
        <ele>1681.6</ele>
        <time>2017-01-21T10:00:17Z</time>
      </trkpt>
      <trkpt lat="45.38795" lon="5.80915">
        <ele>1682.2</ele>
        <time>2017-01-21T10:00:22Z</time>
      </trkpt>
      <trkpt lat="45.38793" lon="5.80914">
        <ele>1684.2</ele>
        <time>2017-01-21T10:00:27Z</time>
      </trkpt>
      <trkpt lat="45.38791" lon="5.80913">
        <ele>1682.8</ele>
        <time>2017-01-21T10:00:32Z</time>
      </trkpt>
      <trkpt lat="45.38789" lon="5.80912">
        <ele>1682.6</ele>
        <time>2017-01-21T10:00:38Z</time>
      </trkpt>
      <trkpt lat="45.38788" lon="5.80911">
        <ele>1680.8</ele>
        <time>2017-01-21T10:00:43Z</time>
      </trkpt>
      <trkpt lat="45.38787" lon="5.8091">
        <ele>1681</ele>
        <time>2017-01-21T10:00:48Z</time>
      </trkpt>
      <trkpt lat="45.38785" lon="5.80907">
        <ele>1682.6</ele>
        <time>2017-01-21T10:00:53Z</time>
      </trkpt>
      <trkpt lat="45.38783" lon="5.80905">
        <ele>1685.4</ele>
        <time>2017-01-21T10:00:58Z</time>
      </trkpt>
      <trkpt lat="45.38782" lon="5.80904">
        <ele>1686</ele>
        <time>2017-01-21T10:01:03Z</time>
      </trkpt>
      <trkpt lat="45.38782" lon="5.80903">
        <ele>1685.6</ele>
        <time>2017-01-21T10:01:08Z</time>
      </trkpt>
      <trkpt lat="45.3878" lon="5.80901">
        <ele>1688</ele>
        <time>2017-01-21T10:01:13Z</time>
      </trkpt>
      <trkpt lat="45.38779" lon="5.80898">
        <ele>1692.8</ele>
        <time>2017-01-21T10:01:18Z</time>
      </trkpt>
      <trkpt lat="45.38778" lon="5.80896">
        <ele>1691.8</ele>
        <time>2017-01-21T10:01:23Z</time>
      </trkpt>
      <trkpt lat="45.38776" lon="5.80894">
        <ele>1694.6</ele>
        <time>2017-01-21T10:01:28Z</time>
      </trkpt>
      <trkpt lat="45.38775" lon="5.80891">
        <ele>1692.2</ele>
        <time>2017-01-21T10:01:33Z</time>
      </trkpt>
      <trkpt lat="45.38773" lon="5.80889">
        <ele>1690</ele>
        <time>2017-01-21T10:01:38Z</time>
      </trkpt>
      <trkpt lat="45.38771" lon="5.80887">
        <ele>1692.8</ele>
        <time>2017-01-21T10:01:43Z</time>
      </trkpt>
      <trkpt lat="45.3877" lon="5.80885">
        <ele>1695.6</ele>
        <time>2017-01-21T10:01:48Z</time>
      </trkpt>
      <trkpt lat="45.38768" lon="5.80883">
        <ele>1693</ele>
        <time>2017-01-21T10:01:53Z</time>
      </trkpt>
      <trkpt lat="45.38767" lon="5.80881">
        <ele>1693.4</ele>
        <time>2017-01-21T10:01:58Z</time>
      </trkpt>
      <trkpt lat="45.38766" lon="5.80879">
        <ele>1689.8</ele>
        <time>2017-01-21T10:02:03Z</time>
      </trkpt>
      <trkpt lat="45.38765" lon="5.80877">
        <ele>1690</ele>
        <time>2017-01-21T10:02:08Z</time>
      </trkpt>
      <trkpt lat="45.38764" lon="5.80874">
        <ele>1690.8</ele>
        <time>2017-01-21T10:02:13Z</time>
      </trkpt>
      <trkpt lat="45.38763" lon="5.80873">
        <ele>1688.6</ele>
        <time>2017-01-21T10:02:18Z</time>
      </trkpt>
      <trkpt lat="45.38762" lon="5.8087">
        <ele>1691.4</ele>
        <time>2017-01-21T10:02:23Z</time>
      </trkpt>
      <trkpt lat="45.38762" lon="5.80867">
        <ele>1692</ele>
        <time>2017-01-21T10:02:28Z</time>
      </trkpt>
      <trkpt lat="45.38762" lon="5.80864">
        <ele>1695.6</ele>
        <time>2017-01-21T10:02:33Z</time>
      </trkpt>
      <trkpt lat="45.38762" lon="5.80861">
        <ele>1693</ele>
        <time>2017-01-21T10:02:38Z</time>
      </trkpt>
      <trkpt lat="45.38762" lon="5.80858">
        <ele>1695.4</ele>
        <time>2017-01-21T10:02:43Z</time>
      </trkpt>
      <trkpt lat="45.38761" lon="5.80855">
        <ele>1694.6</ele>
        <time>2017-01-21T10:02:48Z</time>
      </trkpt>
      <trkpt lat="45.38761" lon="5.80852">
        <ele>1699.8</ele>
        <time>2017-01-21T10:02:53Z</time>
      </trkpt>
      <trkpt lat="45.3876" lon="5.80849">
        <ele>1702</ele>
        <time>2017-01-21T10:02:58Z</time>
      </trkpt>
      <trkpt lat="45.38759" lon="5.80847">
        <ele>1699.6</ele>
        <time>2017-01-21T10:03:03Z</time>
      </trkpt>
      <trkpt lat="45.38757" lon="5.80848">
        <ele>1702.6</ele>
        <time>2017-01-21T10:03:08Z</time>
      </trkpt>
      <trkpt lat="45.38755" lon="5.8085">
        <ele>1701.6</ele>
        <time>2017-01-21T10:03:13Z</time>
      </trkpt>
      <trkpt lat="45.38754" lon="5.8085">
        <ele>1701.2</ele>
        <time>2017-01-21T10:03:18Z</time>
      </trkpt>
      <trkpt lat="45.38754" lon="5.8085">
        <ele>1701.6</ele>
        <time>2017-01-21T10:03:23Z</time>
      </trkpt>
      <trkpt lat="45.38754" lon="5.8085">
        <ele>1701.8</ele>
        <time>2017-01-21T10:03:28Z</time>
      </trkpt>
      <trkpt lat="45.38754" lon="5.8085">
        <ele>1702</ele>
        <time>2017-01-21T10:03:33Z</time>
      </trkpt>
      <trkpt lat="45.38754" lon="5.8085">
        <ele>1702.2</ele>
        <time>2017-01-21T10:03:38Z</time>
      </trkpt>
      <trkpt lat="45.38754" lon="5.8085">
        <ele>1702.2</ele>
        <time>2017-01-21T10:03:44Z</time>
      </trkpt>
      <trkpt lat="45.38754" lon="5.8085">
        <ele>1702.2</ele>
        <time>2017-01-21T10:03:49Z</time>
      </trkpt>
      <trkpt lat="45.38754" lon="5.8085">
        <ele>1702.4</ele>
        <time>2017-01-21T10:03:54Z</time>
      </trkpt>
      <trkpt lat="45.38754" lon="5.8085">
        <ele>1702.4</ele>
        <time>2017-01-21T10:03:59Z</time>
      </trkpt>
      <trkpt lat="45.38754" lon="5.8085">
        <ele>1702.4</ele>
        <time>2017-01-21T10:04:04Z</time>
      </trkpt>
      <trkpt lat="45.38754" lon="5.8085">
        <ele>1702.4</ele>
        <time>2017-01-21T10:04:09Z</time>
      </trkpt>
      <trkpt lat="45.38754" lon="5.8085">
        <ele>1702.4</ele>
        <time>2017-01-21T10:04:14Z</time>
      </trkpt>
      <trkpt lat="45.38754" lon="5.8085">
        <ele>1702.4</ele>
        <time>2017-01-21T10:04:19Z</time>
      </trkpt>
      <trkpt lat="45.38754" lon="5.8085">
        <ele>1702.4</ele>
        <time>2017-01-21T10:04:24Z</time>
      </trkpt>
      <trkpt lat="45.38754" lon="5.8085">
        <ele>1702.4</ele>
        <time>2017-01-21T10:04:29Z</time>
      </trkpt>
      <trkpt lat="45.38754" lon="5.8085">
        <ele>1702.4</ele>
        <time>2017-01-21T10:04:34Z</time>
      </trkpt>
      <trkpt lat="45.38754" lon="5.8085">
        <ele>1702.4</ele>
        <time>2017-01-21T10:04:39Z</time>
      </trkpt>
      <trkpt lat="45.38754" lon="5.8085">
        <ele>1702.4</ele>
        <time>2017-01-21T10:04:44Z</time>
      </trkpt>
      <trkpt lat="45.38754" lon="5.8085">
        <ele>1702.6</ele>
        <time>2017-01-21T10:04:49Z</time>
      </trkpt>
      <trkpt lat="45.38754" lon="5.8085">
        <ele>1702.6</ele>
        <time>2017-01-21T10:04:54Z</time>
      </trkpt>
      <trkpt lat="45.38754" lon="5.8085">
        <ele>1702.6</ele>
        <time>2017-01-21T10:04:59Z</time>
      </trkpt>
      <trkpt lat="45.38754" lon="5.8085">
        <ele>1702.6</ele>
        <time>2017-01-21T10:05:04Z</time>
      </trkpt>
      <trkpt lat="45.38754" lon="5.8085">
        <ele>1702.6</ele>
        <time>2017-01-21T10:05:09Z</time>
      </trkpt>
      <trkpt lat="45.38754" lon="5.8085">
        <ele>1702.6</ele>
        <time>2017-01-21T10:05:14Z</time>
      </trkpt>
      <trkpt lat="45.38754" lon="5.8085">
        <ele>1702.6</ele>
        <time>2017-01-21T10:05:19Z</time>
      </trkpt>
      <trkpt lat="45.38754" lon="5.8085">
        <ele>1702.6</ele>
        <time>2017-01-21T10:05:24Z</time>
      </trkpt>
      <trkpt lat="45.38754" lon="5.8085">
        <ele>1702.6</ele>
        <time>2017-01-21T10:05:29Z</time>
      </trkpt>
      <trkpt lat="45.38754" lon="5.8085">
        <ele>1702.6</ele>
        <time>2017-01-21T10:05:34Z</time>
      </trkpt>
      <trkpt lat="45.38754" lon="5.8085">
        <ele>1702.6</ele>
        <time>2017-01-21T10:05:39Z</time>
      </trkpt>
      <trkpt lat="45.38754" lon="5.8085">
        <ele>1702.6</ele>
        <time>2017-01-21T10:05:44Z</time>
      </trkpt>
      <trkpt lat="45.38754" lon="5.8085">
        <ele>1702.6</ele>
        <time>2017-01-21T10:05:49Z</time>
      </trkpt>
      <trkpt lat="45.38754" lon="5.8085">
        <ele>1702.6</ele>
        <time>2017-01-21T10:05:54Z</time>
      </trkpt>
      <trkpt lat="45.38754" lon="5.8085">
        <ele>1702.6</ele>
        <time>2017-01-21T10:05:59Z</time>
      </trkpt>
      <trkpt lat="45.38754" lon="5.8085">
        <ele>1702.4</ele>
        <time>2017-01-21T10:06:04Z</time>
      </trkpt>
      <trkpt lat="45.38754" lon="5.8085">
        <ele>1702.4</ele>
        <time>2017-01-21T10:06:09Z</time>
      </trkpt>
      <trkpt lat="45.38754" lon="5.8085">
        <ele>1702.4</ele>
        <time>2017-01-21T10:06:14Z</time>
      </trkpt>
      <trkpt lat="45.38754" lon="5.8085">
        <ele>1702.4</ele>
        <time>2017-01-21T10:06:19Z</time>
      </trkpt>
      <trkpt lat="45.38754" lon="5.8085">
        <ele>1702.4</ele>
        <time>2017-01-21T10:06:24Z</time>
      </trkpt>
      <trkpt lat="45.38754" lon="5.8085">
        <ele>1702.4</ele>
        <time>2017-01-21T10:06:30Z</time>
      </trkpt>
      <trkpt lat="45.38754" lon="5.8085">
        <ele>1702.4</ele>
        <time>2017-01-21T10:06:35Z</time>
      </trkpt>
      <trkpt lat="45.38754" lon="5.8085">
        <ele>1702.4</ele>
        <time>2017-01-21T10:06:40Z</time>
      </trkpt>
      <trkpt lat="45.38754" lon="5.8085">
        <ele>1702.4</ele>
        <time>2017-01-21T10:06:45Z</time>
      </trkpt>
      <trkpt lat="45.38754" lon="5.8085">
        <ele>1702.4</ele>
        <time>2017-01-21T10:06:50Z</time>
      </trkpt>
      <trkpt lat="45.38754" lon="5.8085">
        <ele>1702.4</ele>
        <time>2017-01-21T10:06:55Z</time>
      </trkpt>
      <trkpt lat="45.38754" lon="5.8085">
        <ele>1702.4</ele>
        <time>2017-01-21T10:07:00Z</time>
      </trkpt>
      <trkpt lat="45.38754" lon="5.8085">
        <ele>1702.4</ele>
        <time>2017-01-21T10:07:05Z</time>
      </trkpt>
      <trkpt lat="45.38754" lon="5.8085">
        <ele>1702.4</ele>
        <time>2017-01-21T10:07:10Z</time>
      </trkpt>
      <trkpt lat="45.38754" lon="5.8085">
        <ele>1702.4</ele>
        <time>2017-01-21T10:07:15Z</time>
      </trkpt>
      <trkpt lat="45.38754" lon="5.8085">
        <ele>1702.4</ele>
        <time>2017-01-21T10:07:20Z</time>
      </trkpt>
      <trkpt lat="45.38754" lon="5.8085">
        <ele>1702.4</ele>
        <time>2017-01-21T10:07:25Z</time>
      </trkpt>
      <trkpt lat="45.38754" lon="5.8085">
        <ele>1702.4</ele>
        <time>2017-01-21T10:07:30Z</time>
      </trkpt>
      <trkpt lat="45.38754" lon="5.8085">
        <ele>1702.4</ele>
        <time>2017-01-21T10:07:35Z</time>
      </trkpt>
      <trkpt lat="45.38754" lon="5.8085">
        <ele>1702.4</ele>
        <time>2017-01-21T10:07:40Z</time>
      </trkpt>
      <trkpt lat="45.38754" lon="5.8085">
        <ele>1702.4</ele>
        <time>2017-01-21T10:07:45Z</time>
      </trkpt>
      <trkpt lat="45.38754" lon="5.8085">
        <ele>1702.4</ele>
        <time>2017-01-21T10:07:50Z</time>
      </trkpt>
      <trkpt lat="45.38754" lon="5.8085">
        <ele>1702.4</ele>
        <time>2017-01-21T10:07:55Z</time>
      </trkpt>
      <trkpt lat="45.38754" lon="5.8085">
        <ele>1702.4</ele>
        <time>2017-01-21T10:08:00Z</time>
      </trkpt>
      <trkpt lat="45.38754" lon="5.8085">
        <ele>1702.4</ele>
        <time>2017-01-21T10:08:05Z</time>
      </trkpt>
      <trkpt lat="45.38754" lon="5.8085">
        <ele>1702.4</ele>
        <time>2017-01-21T10:08:10Z</time>
      </trkpt>
      <trkpt lat="45.38754" lon="5.8085">
        <ele>1702.4</ele>
        <time>2017-01-21T10:08:15Z</time>
      </trkpt>
      <trkpt lat="45.38754" lon="5.8085">
        <ele>1702.4</ele>
        <time>2017-01-21T10:08:20Z</time>
      </trkpt>
      <trkpt lat="45.38754" lon="5.8085">
        <ele>1702.4</ele>
        <time>2017-01-21T10:08:25Z</time>
      </trkpt>
      <trkpt lat="45.38754" lon="5.8085">
        <ele>1702.4</ele>
        <time>2017-01-21T10:08:30Z</time>
      </trkpt>
      <trkpt lat="45.38754" lon="5.8085">
        <ele>1702.4</ele>
        <time>2017-01-21T10:08:35Z</time>
      </trkpt>
      <trkpt lat="45.38754" lon="5.8085">
        <ele>1702.4</ele>
        <time>2017-01-21T10:08:40Z</time>
      </trkpt>
      <trkpt lat="45.38754" lon="5.8085">
        <ele>1702.2</ele>
        <time>2017-01-21T10:08:45Z</time>
      </trkpt>
      <trkpt lat="45.38754" lon="5.80849">
        <ele>1702</ele>
        <time>2017-01-21T10:08:50Z</time>
      </trkpt>
      <trkpt lat="45.38754" lon="5.80849">
        <ele>1701.8</ele>
        <time>2017-01-21T10:08:55Z</time>
      </trkpt>
      <trkpt lat="45.38754" lon="5.80849">
        <ele>1701.6</ele>
        <time>2017-01-21T10:09:00Z</time>
      </trkpt>
      <trkpt lat="45.38754" lon="5.80849">
        <ele>1701.6</ele>
        <time>2017-01-21T10:09:05Z</time>
      </trkpt>
      <trkpt lat="45.38754" lon="5.80849">
        <ele>1701.4</ele>
        <time>2017-01-21T10:09:10Z</time>
      </trkpt>
      <trkpt lat="45.38754" lon="5.80849">
        <ele>1701.4</ele>
        <time>2017-01-21T10:09:15Z</time>
      </trkpt>
      <trkpt lat="45.38754" lon="5.80849">
        <ele>1701.4</ele>
        <time>2017-01-21T10:09:20Z</time>
      </trkpt>
      <trkpt lat="45.38754" lon="5.8085">
        <ele>1701.2</ele>
        <time>2017-01-21T10:09:25Z</time>
      </trkpt>
      <trkpt lat="45.38755" lon="5.8085">
        <ele>1701.2</ele>
        <time>2017-01-21T10:09:31Z</time>
      </trkpt>
      <trkpt lat="45.38755" lon="5.8085">
        <ele>1701.4</ele>
        <time>2017-01-21T10:09:36Z</time>
      </trkpt>
      <trkpt lat="45.38755" lon="5.8085">
        <ele>1701.4</ele>
        <time>2017-01-21T10:09:41Z</time>
      </trkpt>
      <trkpt lat="45.38755" lon="5.8085">
        <ele>1701.6</ele>
        <time>2017-01-21T10:09:46Z</time>
      </trkpt>
      <trkpt lat="45.38755" lon="5.80849">
        <ele>1701.6</ele>
        <time>2017-01-21T10:09:51Z</time>
      </trkpt>
      <trkpt lat="45.38754" lon="5.80851">
        <ele>1701.6</ele>
        <time>2017-01-21T10:09:56Z</time>
      </trkpt>
      <trkpt lat="45.38751" lon="5.80853">
        <ele>1702.8</ele>
        <time>2017-01-21T10:10:01Z</time>
      </trkpt>
      <trkpt lat="45.38749" lon="5.80856">
        <ele>1702.2</ele>
        <time>2017-01-21T10:10:06Z</time>
      </trkpt>
      <trkpt lat="45.38745" lon="5.8086">
        <ele>1702.4</ele>
        <time>2017-01-21T10:10:11Z</time>
      </trkpt>
      <trkpt lat="45.38742" lon="5.80862">
        <ele>1706.4</ele>
        <time>2017-01-21T10:10:16Z</time>
      </trkpt>
      <trkpt lat="45.38739" lon="5.80864">
        <ele>1704</ele>
        <time>2017-01-21T10:10:21Z</time>
      </trkpt>
      <trkpt lat="45.38738" lon="5.80865">
        <ele>1704.8</ele>
        <time>2017-01-21T10:10:26Z</time>
      </trkpt>
      <trkpt lat="45.38734" lon="5.80866">
        <ele>1705</ele>
        <time>2017-01-21T10:10:31Z</time>
      </trkpt>
      <trkpt lat="45.3873" lon="5.80867">
        <ele>1709</ele>
        <time>2017-01-21T10:10:36Z</time>
      </trkpt>
      <trkpt lat="45.38725" lon="5.80868">
        <ele>1704.8</ele>
        <time>2017-01-21T10:10:41Z</time>
      </trkpt>
      <trkpt lat="45.38722" lon="5.80871">
        <ele>1708.2</ele>
        <time>2017-01-21T10:10:46Z</time>
      </trkpt>
      <trkpt lat="45.38719" lon="5.80874">
        <ele>1707</ele>
        <time>2017-01-21T10:10:51Z</time>
      </trkpt>
      <trkpt lat="45.38717" lon="5.80877">
        <ele>1706.2</ele>
        <time>2017-01-21T10:10:56Z</time>
      </trkpt>
      <trkpt lat="45.38717" lon="5.80877">
        <ele>1706.8</ele>
        <time>2017-01-21T10:11:01Z</time>
      </trkpt>
      <trkpt lat="45.38716" lon="5.80877">
        <ele>1704.8</ele>
        <time>2017-01-21T10:11:06Z</time>
      </trkpt>
      <trkpt lat="45.38716" lon="5.80877">
        <ele>1705.6</ele>
        <time>2017-01-21T10:11:11Z</time>
      </trkpt>
      <trkpt lat="45.38716" lon="5.80877">
        <ele>1706.4</ele>
        <time>2017-01-21T10:11:16Z</time>
      </trkpt>
      <trkpt lat="45.38716" lon="5.80877">
        <ele>1706.8</ele>
        <time>2017-01-21T10:11:21Z</time>
      </trkpt>
      <trkpt lat="45.38716" lon="5.80877">
        <ele>1707</ele>
        <time>2017-01-21T10:11:26Z</time>
      </trkpt>
      <trkpt lat="45.38716" lon="5.80878">
        <ele>1708.8</ele>
        <time>2017-01-21T10:11:31Z</time>
      </trkpt>
      <trkpt lat="45.38716" lon="5.80879">
        <ele>1710.2</ele>
        <time>2017-01-21T10:11:36Z</time>
      </trkpt>
      <trkpt lat="45.38715" lon="5.80883">
        <ele>1711.4</ele>
        <time>2017-01-21T10:11:41Z</time>
      </trkpt>
      <trkpt lat="45.38713" lon="5.80887">
        <ele>1708.8</ele>
        <time>2017-01-21T10:11:46Z</time>
      </trkpt>
      <trkpt lat="45.38712" lon="5.80892">
        <ele>1710.6</ele>
        <time>2017-01-21T10:11:51Z</time>
      </trkpt>
      <trkpt lat="45.38711" lon="5.80897">
        <ele>1710.4</ele>
        <time>2017-01-21T10:11:56Z</time>
      </trkpt>
      <trkpt lat="45.38709" lon="5.80902">
        <ele>1710</ele>
        <time>2017-01-21T10:12:01Z</time>
      </trkpt>
      <trkpt lat="45.38708" lon="5.80906">
        <ele>1709.4</ele>
        <time>2017-01-21T10:12:06Z</time>
      </trkpt>
      <trkpt lat="45.38706" lon="5.80909">
        <ele>1713.2</ele>
        <time>2017-01-21T10:12:11Z</time>
      </trkpt>
      <trkpt lat="45.38706" lon="5.80913">
        <ele>1714.2</ele>
        <time>2017-01-21T10:12:16Z</time>
      </trkpt>
      <trkpt lat="45.38706" lon="5.80917">
        <ele>1712.4</ele>
        <time>2017-01-21T10:12:21Z</time>
      </trkpt>
      <trkpt lat="45.38707" lon="5.80921">
        <ele>1713.8</ele>
        <time>2017-01-21T10:12:26Z</time>
      </trkpt>
      <trkpt lat="45.38707" lon="5.80925">
        <ele>1713.6</ele>
        <time>2017-01-21T10:12:31Z</time>
      </trkpt>
      <trkpt lat="45.38707" lon="5.80928">
        <ele>1714.4</ele>
        <time>2017-01-21T10:12:36Z</time>
      </trkpt>
      <trkpt lat="45.38706" lon="5.80931">
        <ele>1714.2</ele>
        <time>2017-01-21T10:12:41Z</time>
      </trkpt>
      <trkpt lat="45.38706" lon="5.80934">
        <ele>1717</ele>
        <time>2017-01-21T10:12:46Z</time>
      </trkpt>
      <trkpt lat="45.38706" lon="5.80937">
        <ele>1716.4</ele>
        <time>2017-01-21T10:12:51Z</time>
      </trkpt>
      <trkpt lat="45.38706" lon="5.80941">
        <ele>1718.6</ele>
        <time>2017-01-21T10:12:56Z</time>
      </trkpt>
      <trkpt lat="45.38704" lon="5.80943">
        <ele>1718.8</ele>
        <time>2017-01-21T10:13:01Z</time>
      </trkpt>
      <trkpt lat="45.38703" lon="5.80946">
        <ele>1718.6</ele>
        <time>2017-01-21T10:13:06Z</time>
      </trkpt>
      <trkpt lat="45.38702" lon="5.80949">
        <ele>1720.4</ele>
        <time>2017-01-21T10:13:11Z</time>
      </trkpt>
      <trkpt lat="45.38702" lon="5.80949">
        <ele>1720.2</ele>
        <time>2017-01-21T10:13:16Z</time>
      </trkpt>
      <trkpt lat="45.38702" lon="5.80949">
        <ele>1720.2</ele>
        <time>2017-01-21T10:13:21Z</time>
      </trkpt>
      <trkpt lat="45.38702" lon="5.80949">
        <ele>1720</ele>
        <time>2017-01-21T10:13:26Z</time>
      </trkpt>
      <trkpt lat="45.387" lon="5.80952">
        <ele>1721.6</ele>
        <time>2017-01-21T10:13:31Z</time>
      </trkpt>
      <trkpt lat="45.38698" lon="5.80955">
        <ele>1719</ele>
        <time>2017-01-21T10:13:36Z</time>
      </trkpt>
      <trkpt lat="45.38696" lon="5.80958">
        <ele>1724</ele>
        <time>2017-01-21T10:13:41Z</time>
      </trkpt>
      <trkpt lat="45.38694" lon="5.80962">
        <ele>1722.8</ele>
        <time>2017-01-21T10:13:46Z</time>
      </trkpt>
      <trkpt lat="45.38692" lon="5.80965">
        <ele>1721.8</ele>
        <time>2017-01-21T10:13:51Z</time>
      </trkpt>
      <trkpt lat="45.3869" lon="5.80968">
        <ele>1723.4</ele>
        <time>2017-01-21T10:13:56Z</time>
      </trkpt>
      <trkpt lat="45.38689" lon="5.80971">
        <ele>1726</ele>
        <time>2017-01-21T10:14:01Z</time>
      </trkpt>
      <trkpt lat="45.38687" lon="5.80974">
        <ele>1727.2</ele>
        <time>2017-01-21T10:14:06Z</time>
      </trkpt>
      <trkpt lat="45.38685" lon="5.80977">
        <ele>1729.2</ele>
        <time>2017-01-21T10:14:11Z</time>
      </trkpt>
      <trkpt lat="45.38683" lon="5.8098">
        <ele>1728.6</ele>
        <time>2017-01-21T10:14:16Z</time>
      </trkpt>
      <trkpt lat="45.38682" lon="5.80983">
        <ele>1725.8</ele>
        <time>2017-01-21T10:14:21Z</time>
      </trkpt>
      <trkpt lat="45.3868" lon="5.80985">
        <ele>1731</ele>
        <time>2017-01-21T10:14:26Z</time>
      </trkpt>
      <trkpt lat="45.38679" lon="5.80988">
        <ele>1730.2</ele>
        <time>2017-01-21T10:14:31Z</time>
      </trkpt>
      <trkpt lat="45.38677" lon="5.80991">
        <ele>1733</ele>
        <time>2017-01-21T10:14:36Z</time>
      </trkpt>
      <trkpt lat="45.38675" lon="5.80994">
        <ele>1733</ele>
        <time>2017-01-21T10:14:41Z</time>
      </trkpt>
      <trkpt lat="45.38673" lon="5.80997">
        <ele>1732.4</ele>
        <time>2017-01-21T10:14:46Z</time>
      </trkpt>
      <trkpt lat="45.38671" lon="5.81001">
        <ele>1734.4</ele>
        <time>2017-01-21T10:14:51Z</time>
      </trkpt>
      <trkpt lat="45.38669" lon="5.81003">
        <ele>1732.4</ele>
        <time>2017-01-21T10:14:56Z</time>
      </trkpt>
      <trkpt lat="45.38668" lon="5.81007">
        <ele>1736.8</ele>
        <time>2017-01-21T10:15:01Z</time>
      </trkpt>
      <trkpt lat="45.38666" lon="5.8101">
        <ele>1734.4</ele>
        <time>2017-01-21T10:15:06Z</time>
      </trkpt>
      <trkpt lat="45.38665" lon="5.81012">
        <ele>1737.2</ele>
        <time>2017-01-21T10:15:11Z</time>
      </trkpt>
      <trkpt lat="45.38665" lon="5.81012">
        <ele>1737</ele>
        <time>2017-01-21T10:15:16Z</time>
      </trkpt>
      <trkpt lat="45.38663" lon="5.81015">
        <ele>1736.2</ele>
        <time>2017-01-21T10:15:21Z</time>
      </trkpt>
      <trkpt lat="45.38662" lon="5.81017">
        <ele>1736</ele>
        <time>2017-01-21T10:15:26Z</time>
      </trkpt>
      <trkpt lat="45.38662" lon="5.81017">
        <ele>1736</ele>
        <time>2017-01-21T10:15:31Z</time>
      </trkpt>
      <trkpt lat="45.38659" lon="5.8102">
        <ele>1737.4</ele>
        <time>2017-01-21T10:15:36Z</time>
      </trkpt>
      <trkpt lat="45.38656" lon="5.81024">
        <ele>1737.6</ele>
        <time>2017-01-21T10:15:41Z</time>
      </trkpt>
      <trkpt lat="45.38654" lon="5.81027">
        <ele>1738</ele>
        <time>2017-01-21T10:15:46Z</time>
      </trkpt>
      <trkpt lat="45.38653" lon="5.81028">
        <ele>1738.4</ele>
        <time>2017-01-21T10:15:51Z</time>
      </trkpt>
      <trkpt lat="45.38652" lon="5.81031">
        <ele>1737.8</ele>
        <time>2017-01-21T10:15:56Z</time>
      </trkpt>
      <trkpt lat="45.3865" lon="5.81033">
        <ele>1742.4</ele>
        <time>2017-01-21T10:16:01Z</time>
      </trkpt>
      <trkpt lat="45.38648" lon="5.81034">
        <ele>1740.6</ele>
        <time>2017-01-21T10:16:06Z</time>
      </trkpt>
      <trkpt lat="45.38646" lon="5.81036">
        <ele>1743.4</ele>
        <time>2017-01-21T10:16:11Z</time>
      </trkpt>
      <trkpt lat="45.38644" lon="5.81038">
        <ele>1745.4</ele>
        <time>2017-01-21T10:16:16Z</time>
      </trkpt>
      <trkpt lat="45.38642" lon="5.8104">
        <ele>1747.2</ele>
        <time>2017-01-21T10:16:21Z</time>
      </trkpt>
      <trkpt lat="45.38641" lon="5.81042">
        <ele>1743.8</ele>
        <time>2017-01-21T10:16:26Z</time>
      </trkpt>
      <trkpt lat="45.38639" lon="5.81045">
        <ele>1745.2</ele>
        <time>2017-01-21T10:16:31Z</time>
      </trkpt>
      <trkpt lat="45.38638" lon="5.81049">
        <ele>1743</ele>
        <time>2017-01-21T10:16:36Z</time>
      </trkpt>
      <trkpt lat="45.38637" lon="5.81052">
        <ele>1748.6</ele>
        <time>2017-01-21T10:16:41Z</time>
      </trkpt>
      <trkpt lat="45.38635" lon="5.81054">
        <ele>1748.2</ele>
        <time>2017-01-21T10:16:46Z</time>
      </trkpt>
      <trkpt lat="45.38633" lon="5.81057">
        <ele>1748</ele>
        <time>2017-01-21T10:16:51Z</time>
      </trkpt>
      <trkpt lat="45.38631" lon="5.8106">
        <ele>1746.8</ele>
        <time>2017-01-21T10:16:56Z</time>
      </trkpt>
      <trkpt lat="45.3863" lon="5.81062">
        <ele>1746.6</ele>
        <time>2017-01-21T10:17:01Z</time>
      </trkpt>
      <trkpt lat="45.38629" lon="5.81062">
        <ele>1746.4</ele>
        <time>2017-01-21T10:17:06Z</time>
      </trkpt>
      <trkpt lat="45.38627" lon="5.81065">
        <ele>1744.2</ele>
        <time>2017-01-21T10:17:11Z</time>
      </trkpt>
      <trkpt lat="45.38626" lon="5.81067">
        <ele>1744.4</ele>
        <time>2017-01-21T10:17:16Z</time>
      </trkpt>
      <trkpt lat="45.38622" lon="5.81071">
        <ele>1744.2</ele>
        <time>2017-01-21T10:17:21Z</time>
      </trkpt>
      <trkpt lat="45.3862" lon="5.81075">
        <ele>1745</ele>
        <time>2017-01-21T10:17:26Z</time>
      </trkpt>
      <trkpt lat="45.38614" lon="5.81079">
        <ele>1742</ele>
        <time>2017-01-21T10:17:31Z</time>
      </trkpt>
      <trkpt lat="45.38614" lon="5.81079">
        <ele>1741.4</ele>
        <time>2017-01-21T10:17:36Z</time>
      </trkpt>
      <trkpt lat="45.38615" lon="5.81079">
        <ele>1740.8</ele>
        <time>2017-01-21T10:17:41Z</time>
      </trkpt>
      <trkpt lat="45.38615" lon="5.81079">
        <ele>1740.4</ele>
        <time>2017-01-21T10:17:46Z</time>
      </trkpt>
      <trkpt lat="45.38613" lon="5.81082">
        <ele>1738.6</ele>
        <time>2017-01-21T10:17:51Z</time>
      </trkpt>
      <trkpt lat="45.38604" lon="5.81095">
        <ele>1732.2</ele>
        <time>2017-01-21T10:17:56Z</time>
      </trkpt>
      <trkpt lat="45.38601" lon="5.81102">
        <ele>1733.2</ele>
        <time>2017-01-21T10:18:01Z</time>
      </trkpt>
      <trkpt lat="45.38599" lon="5.81108">
        <ele>1728.2</ele>
        <time>2017-01-21T10:18:06Z</time>
      </trkpt>
      <trkpt lat="45.38597" lon="5.81111">
        <ele>1731.6</ele>
        <time>2017-01-21T10:18:11Z</time>
      </trkpt>
      <trkpt lat="45.38598" lon="5.81111">
        <ele>1731.2</ele>
        <time>2017-01-21T10:18:16Z</time>
      </trkpt>
      <trkpt lat="45.38598" lon="5.81111">
        <ele>1730.8</ele>
        <time>2017-01-21T10:18:21Z</time>
      </trkpt>
      <trkpt lat="45.38598" lon="5.81111">
        <ele>1730.6</ele>
        <time>2017-01-21T10:18:26Z</time>
      </trkpt>
      <trkpt lat="45.38598" lon="5.81111">
        <ele>1730.6</ele>
        <time>2017-01-21T10:18:31Z</time>
      </trkpt>
      <trkpt lat="45.38598" lon="5.8111">
        <ele>1733.8</ele>
        <time>2017-01-21T10:18:36Z</time>
      </trkpt>
      <trkpt lat="45.38599" lon="5.81106">
        <ele>1734.6</ele>
        <time>2017-01-21T10:18:41Z</time>
      </trkpt>
      <trkpt lat="45.38599" lon="5.81105">
        <ele>1733.4</ele>
        <time>2017-01-21T10:18:46Z</time>
      </trkpt>
      <trkpt lat="45.38599" lon="5.81105">
        <ele>1732.6</ele>
        <time>2017-01-21T10:18:51Z</time>
      </trkpt>
      <trkpt lat="45.38599" lon="5.81105">
        <ele>1732</ele>
        <time>2017-01-21T10:18:56Z</time>
      </trkpt>
      <trkpt lat="45.38599" lon="5.81105">
        <ele>1728.4</ele>
        <time>2017-01-21T10:19:01Z</time>
      </trkpt>
      <trkpt lat="45.38599" lon="5.81105">
        <ele>1731</ele>
        <time>2017-01-21T10:19:06Z</time>
      </trkpt>
      <trkpt lat="45.38598" lon="5.81107">
        <ele>1731.4</ele>
        <time>2017-01-21T10:19:11Z</time>
      </trkpt>
      <trkpt lat="45.38595" lon="5.81111">
        <ele>1729.4</ele>
        <time>2017-01-21T10:19:16Z</time>
      </trkpt>
      <trkpt lat="45.38591" lon="5.81117">
        <ele>1730.8</ele>
        <time>2017-01-21T10:19:22Z</time>
      </trkpt>
      <trkpt lat="45.38585" lon="5.81124">
        <ele>1727</ele>
        <time>2017-01-21T10:19:27Z</time>
      </trkpt>
      <trkpt lat="45.38582" lon="5.81128">
        <ele>1724</ele>
        <time>2017-01-21T10:19:33Z</time>
      </trkpt>
      <trkpt lat="45.38577" lon="5.81134">
        <ele>1724.8</ele>
        <time>2017-01-21T10:19:38Z</time>
      </trkpt>
      <trkpt lat="45.38576" lon="5.81135">
        <ele>1723.8</ele>
        <time>2017-01-21T10:19:43Z</time>
      </trkpt>
      <trkpt lat="45.38574" lon="5.8114">
        <ele>1720</ele>
        <time>2017-01-21T10:19:48Z</time>
      </trkpt>
      <trkpt lat="45.38569" lon="5.81152">
        <ele>1721.8</ele>
        <time>2017-01-21T10:19:53Z</time>
      </trkpt>
      <trkpt lat="45.38565" lon="5.81164">
        <ele>1718.2</ele>
        <time>2017-01-21T10:19:58Z</time>
      </trkpt>
      <trkpt lat="45.38564" lon="5.81174">
        <ele>1719.8</ele>
        <time>2017-01-21T10:20:03Z</time>
      </trkpt>
      <trkpt lat="45.38562" lon="5.81176">
        <ele>1719.6</ele>
        <time>2017-01-21T10:20:08Z</time>
      </trkpt>
      <trkpt lat="45.38558" lon="5.81178">
        <ele>1721.2</ele>
        <time>2017-01-21T10:20:13Z</time>
      </trkpt>
      <trkpt lat="45.38544" lon="5.81191">
        <ele>1713.2</ele>
        <time>2017-01-21T10:20:18Z</time>
      </trkpt>
      <trkpt lat="45.38533" lon="5.81205">
        <ele>1710.2</ele>
        <time>2017-01-21T10:20:23Z</time>
      </trkpt>
      <trkpt lat="45.38519" lon="5.81218">
        <ele>1708.2</ele>
        <time>2017-01-21T10:20:28Z</time>
      </trkpt>
      <trkpt lat="45.38514" lon="5.81222">
        <ele>1707</ele>
        <time>2017-01-21T10:20:33Z</time>
      </trkpt>
      <trkpt lat="45.38512" lon="5.81222">
        <ele>1706.2</ele>
        <time>2017-01-21T10:20:38Z</time>
      </trkpt>
      <trkpt lat="45.3851" lon="5.81222">
        <ele>1705.4</ele>
        <time>2017-01-21T10:20:43Z</time>
      </trkpt>
      <trkpt lat="45.3851" lon="5.81222">
        <ele>1704.8</ele>
        <time>2017-01-21T10:20:48Z</time>
      </trkpt>
      <trkpt lat="45.3851" lon="5.81222">
        <ele>1704.4</ele>
        <time>2017-01-21T10:20:53Z</time>
      </trkpt>
      <trkpt lat="45.38509" lon="5.81222">
        <ele>1704</ele>
        <time>2017-01-21T10:20:58Z</time>
      </trkpt>
      <trkpt lat="45.38508" lon="5.81221">
        <ele>1703</ele>
        <time>2017-01-21T10:21:03Z</time>
      </trkpt>
      <trkpt lat="45.38508" lon="5.81221">
        <ele>1703</ele>
        <time>2017-01-21T10:21:08Z</time>
      </trkpt>
      <trkpt lat="45.38508" lon="5.81221">
        <ele>1702.8</ele>
        <time>2017-01-21T10:21:13Z</time>
      </trkpt>
      <trkpt lat="45.38508" lon="5.81221">
        <ele>1702.8</ele>
        <time>2017-01-21T10:21:18Z</time>
      </trkpt>
      <trkpt lat="45.38508" lon="5.81221">
        <ele>1702.8</ele>
        <time>2017-01-21T10:21:23Z</time>
      </trkpt>
      <trkpt lat="45.38508" lon="5.81221">
        <ele>1702.8</ele>
        <time>2017-01-21T10:21:28Z</time>
      </trkpt>
      <trkpt lat="45.38508" lon="5.81221">
        <ele>1702.6</ele>
        <time>2017-01-21T10:21:33Z</time>
      </trkpt>
      <trkpt lat="45.38506" lon="5.81221">
        <ele>1702.6</ele>
        <time>2017-01-21T10:21:38Z</time>
      </trkpt>
      <trkpt lat="45.38502" lon="5.8122">
        <ele>1702.2</ele>
        <time>2017-01-21T10:21:43Z</time>
      </trkpt>
      <trkpt lat="45.38494" lon="5.8122">
        <ele>1704</ele>
        <time>2017-01-21T10:21:48Z</time>
      </trkpt>
      <trkpt lat="45.38486" lon="5.81228">
        <ele>1700.2</ele>
        <time>2017-01-21T10:21:53Z</time>
      </trkpt>
      <trkpt lat="45.3848" lon="5.81224">
        <ele>1702.2</ele>
        <time>2017-01-21T10:21:58Z</time>
      </trkpt>
      <trkpt lat="45.38475" lon="5.81225">
        <ele>1700.2</ele>
        <time>2017-01-21T10:22:03Z</time>
      </trkpt>
      <trkpt lat="45.38468" lon="5.81232">
        <ele>1694.8</ele>
        <time>2017-01-21T10:22:08Z</time>
      </trkpt>
      <trkpt lat="45.38462" lon="5.81231">
        <ele>1694.4</ele>
        <time>2017-01-21T10:22:13Z</time>
      </trkpt>
      <trkpt lat="45.38461" lon="5.8123">
        <ele>1694.2</ele>
        <time>2017-01-21T10:22:18Z</time>
      </trkpt>
      <trkpt lat="45.38456" lon="5.81231">
        <ele>1690.2</ele>
        <time>2017-01-21T10:22:23Z</time>
      </trkpt>
      <trkpt lat="45.38447" lon="5.81234">
        <ele>1686.6</ele>
        <time>2017-01-21T10:22:28Z</time>
      </trkpt>
      <trkpt lat="45.38441" lon="5.81237">
        <ele>1687.6</ele>
        <time>2017-01-21T10:22:33Z</time>
      </trkpt>
      <trkpt lat="45.38441" lon="5.81237">
        <ele>1687.6</ele>
        <time>2017-01-21T10:22:38Z</time>
      </trkpt>
      <trkpt lat="45.3844" lon="5.81242">
        <ele>1686</ele>
        <time>2017-01-21T10:22:43Z</time>
      </trkpt>
      <trkpt lat="45.3844" lon="5.81243">
        <ele>1686</ele>
        <time>2017-01-21T10:22:48Z</time>
      </trkpt>
      <trkpt lat="45.38441" lon="5.81243">
        <ele>1685.4</ele>
        <time>2017-01-21T10:22:53Z</time>
      </trkpt>
      <trkpt lat="45.38441" lon="5.81243">
        <ele>1685.4</ele>
        <time>2017-01-21T10:22:58Z</time>
      </trkpt>
      <trkpt lat="45.38441" lon="5.81243">
        <ele>1685.6</ele>
        <time>2017-01-21T10:23:03Z</time>
      </trkpt>
      <trkpt lat="45.38441" lon="5.81243">
        <ele>1685.6</ele>
        <time>2017-01-21T10:23:08Z</time>
      </trkpt>
      <trkpt lat="45.38441" lon="5.81244">
        <ele>1686.2</ele>
        <time>2017-01-21T10:23:13Z</time>
      </trkpt>
      <trkpt lat="45.38445" lon="5.81253">
        <ele>1684.2</ele>
        <time>2017-01-21T10:23:18Z</time>
      </trkpt>
      <trkpt lat="45.38447" lon="5.8126">
        <ele>1681.2</ele>
        <time>2017-01-21T10:23:23Z</time>
      </trkpt>
      <trkpt lat="45.38447" lon="5.81266">
        <ele>1681</ele>
        <time>2017-01-21T10:23:28Z</time>
      </trkpt>
      <trkpt lat="45.38448" lon="5.81288">
        <ele>1678</ele>
        <time>2017-01-21T10:23:34Z</time>
      </trkpt>
      <trkpt lat="45.38449" lon="5.81295">
        <ele>1674.8</ele>
        <time>2017-01-21T10:23:39Z</time>
      </trkpt>
      <trkpt lat="45.38449" lon="5.81304">
        <ele>1674.6</ele>
        <time>2017-01-21T10:23:44Z</time>
      </trkpt>
      <trkpt lat="45.3845" lon="5.81316">
        <ele>1671.8</ele>
        <time>2017-01-21T10:23:49Z</time>
      </trkpt>
      <trkpt lat="45.3845" lon="5.81318">
        <ele>1670</ele>
        <time>2017-01-21T10:23:54Z</time>
      </trkpt>
      <trkpt lat="45.3845" lon="5.81318">
        <ele>1670.4</ele>
        <time>2017-01-21T10:23:59Z</time>
      </trkpt>
      <trkpt lat="45.3845" lon="5.81318">
        <ele>1670.4</ele>
        <time>2017-01-21T10:24:04Z</time>
      </trkpt>
      <trkpt lat="45.3845" lon="5.8132">
        <ele>1670</ele>
        <time>2017-01-21T10:24:09Z</time>
      </trkpt>
      <trkpt lat="45.38451" lon="5.81326">
        <ele>1669.2</ele>
        <time>2017-01-21T10:24:14Z</time>
      </trkpt>
      <trkpt lat="45.38452" lon="5.81332">
        <ele>1667</ele>
        <time>2017-01-21T10:24:19Z</time>
      </trkpt>
      <trkpt lat="45.38453" lon="5.81342">
        <ele>1660.8</ele>
        <time>2017-01-21T10:24:24Z</time>
      </trkpt>
      <trkpt lat="45.38455" lon="5.81358">
        <ele>1661.6</ele>
        <time>2017-01-21T10:24:29Z</time>
      </trkpt>
      <trkpt lat="45.38455" lon="5.81374">
        <ele>1657</ele>
        <time>2017-01-21T10:24:34Z</time>
      </trkpt>
      <trkpt lat="45.38456" lon="5.81388">
        <ele>1656.4</ele>
        <time>2017-01-21T10:24:39Z</time>
      </trkpt>
      <trkpt lat="45.38456" lon="5.81388">
        <ele>1656.4</ele>
        <time>2017-01-21T10:24:44Z</time>
      </trkpt>
      <trkpt lat="45.38456" lon="5.81388">
        <ele>1656.4</ele>
        <time>2017-01-21T10:24:49Z</time>
      </trkpt>
      <trkpt lat="45.38456" lon="5.81388">
        <ele>1656.2</ele>
        <time>2017-01-21T10:24:54Z</time>
      </trkpt>
      <trkpt lat="45.38456" lon="5.81388">
        <ele>1656</ele>
        <time>2017-01-21T10:24:59Z</time>
      </trkpt>
      <trkpt lat="45.38456" lon="5.81388">
        <ele>1656</ele>
        <time>2017-01-21T10:25:04Z</time>
      </trkpt>
      <trkpt lat="45.38456" lon="5.81388">
        <ele>1656</ele>
        <time>2017-01-21T10:25:09Z</time>
      </trkpt>
      <trkpt lat="45.38456" lon="5.81388">
        <ele>1655.8</ele>
        <time>2017-01-21T10:25:14Z</time>
      </trkpt>
      <trkpt lat="45.38454" lon="5.81397">
        <ele>1654.8</ele>
        <time>2017-01-21T10:25:19Z</time>
      </trkpt>
      <trkpt lat="45.3845" lon="5.8141">
        <ele>1650.4</ele>
        <time>2017-01-21T10:25:24Z</time>
      </trkpt>
      <trkpt lat="45.38449" lon="5.81411">
        <ele>1651.2</ele>
        <time>2017-01-21T10:25:29Z</time>
      </trkpt>
      <trkpt lat="45.38449" lon="5.81414">
        <ele>1653.4</ele>
        <time>2017-01-21T10:25:34Z</time>
      </trkpt>
      <trkpt lat="45.38448" lon="5.81419">
        <ele>1653.4</ele>
        <time>2017-01-21T10:25:39Z</time>
      </trkpt>
      <trkpt lat="45.38447" lon="5.81424">
        <ele>1651.2</ele>
        <time>2017-01-21T10:25:44Z</time>
      </trkpt>
      <trkpt lat="45.38448" lon="5.81424">
        <ele>1654.8</ele>
        <time>2017-01-21T10:25:49Z</time>
      </trkpt>
      <trkpt lat="45.38448" lon="5.81425">
        <ele>1653.8</ele>
        <time>2017-01-21T10:25:54Z</time>
      </trkpt>
      <trkpt lat="45.38448" lon="5.81425">
        <ele>1653</ele>
        <time>2017-01-21T10:25:59Z</time>
      </trkpt>
      <trkpt lat="45.38448" lon="5.81425">
        <ele>1652.2</ele>
        <time>2017-01-21T10:26:04Z</time>
      </trkpt>
      <trkpt lat="45.38448" lon="5.81426">
        <ele>1651.8</ele>
        <time>2017-01-21T10:26:09Z</time>
      </trkpt>
      <trkpt lat="45.38448" lon="5.81426">
        <ele>1651.4</ele>
        <time>2017-01-21T10:26:14Z</time>
      </trkpt>
      <trkpt lat="45.38448" lon="5.81426">
        <ele>1651.2</ele>
        <time>2017-01-21T10:26:19Z</time>
      </trkpt>
      <trkpt lat="45.38448" lon="5.81426">
        <ele>1651</ele>
        <time>2017-01-21T10:26:24Z</time>
      </trkpt>
      <trkpt lat="45.38447" lon="5.81429">
        <ele>1652</ele>
        <time>2017-01-21T10:26:29Z</time>
      </trkpt>
      <trkpt lat="45.38445" lon="5.81433">
        <ele>1653.6</ele>
        <time>2017-01-21T10:26:34Z</time>
      </trkpt>
      <trkpt lat="45.38443" lon="5.81435">
        <ele>1650.2</ele>
        <time>2017-01-21T10:26:39Z</time>
      </trkpt>
      <trkpt lat="45.38442" lon="5.81438">
        <ele>1651</ele>
        <time>2017-01-21T10:26:44Z</time>
      </trkpt>
      <trkpt lat="45.3844" lon="5.81439">
        <ele>1651.4</ele>
        <time>2017-01-21T10:26:49Z</time>
      </trkpt>
      <trkpt lat="45.38438" lon="5.8144">
        <ele>1654.2</ele>
        <time>2017-01-21T10:26:54Z</time>
      </trkpt>
      <trkpt lat="45.38435" lon="5.81439">
        <ele>1656</ele>
        <time>2017-01-21T10:26:59Z</time>
      </trkpt>
      <trkpt lat="45.38432" lon="5.8144">
        <ele>1653</ele>
        <time>2017-01-21T10:27:04Z</time>
      </trkpt>
      <trkpt lat="45.3843" lon="5.8144">
        <ele>1655.6</ele>
        <time>2017-01-21T10:27:09Z</time>
      </trkpt>
      <trkpt lat="45.38427" lon="5.8144">
        <ele>1657.2</ele>
        <time>2017-01-21T10:27:14Z</time>
      </trkpt>
      <trkpt lat="45.38425" lon="5.8144">
        <ele>1660.2</ele>
        <time>2017-01-21T10:27:19Z</time>
      </trkpt>
      <trkpt lat="45.38423" lon="5.8144">
        <ele>1659.2</ele>
        <time>2017-01-21T10:27:24Z</time>
      </trkpt>
      <trkpt lat="45.38421" lon="5.81439">
        <ele>1659.6</ele>
        <time>2017-01-21T10:27:29Z</time>
      </trkpt>
      <trkpt lat="45.3842" lon="5.81439">
        <ele>1658.8</ele>
        <time>2017-01-21T10:27:34Z</time>
      </trkpt>
      <trkpt lat="45.3842" lon="5.8144">
        <ele>1660.4</ele>
        <time>2017-01-21T10:27:39Z</time>
      </trkpt>
      <trkpt lat="45.38423" lon="5.81444">
        <ele>1661.4</ele>
        <time>2017-01-21T10:27:44Z</time>
      </trkpt>
      <trkpt lat="45.38425" lon="5.81449">
        <ele>1660.4</ele>
        <time>2017-01-21T10:27:49Z</time>
      </trkpt>
      <trkpt lat="45.38426" lon="5.81453">
        <ele>1662</ele>
        <time>2017-01-21T10:27:54Z</time>
      </trkpt>
      <trkpt lat="45.38427" lon="5.81457">
        <ele>1663</ele>
        <time>2017-01-21T10:27:59Z</time>
      </trkpt>
      <trkpt lat="45.38426" lon="5.81461">
        <ele>1661.6</ele>
        <time>2017-01-21T10:28:04Z</time>
      </trkpt>
      <trkpt lat="45.38425" lon="5.81466">
        <ele>1662.2</ele>
        <time>2017-01-21T10:28:09Z</time>
      </trkpt>
      <trkpt lat="45.38424" lon="5.81469">
        <ele>1661.8</ele>
        <time>2017-01-21T10:28:14Z</time>
      </trkpt>
      <trkpt lat="45.38422" lon="5.81472">
        <ele>1663.8</ele>
        <time>2017-01-21T10:28:19Z</time>
      </trkpt>
      <trkpt lat="45.38421" lon="5.81476">
        <ele>1662.8</ele>
        <time>2017-01-21T10:28:24Z</time>
      </trkpt>
      <trkpt lat="45.38419" lon="5.81478">
        <ele>1666.2</ele>
        <time>2017-01-21T10:28:29Z</time>
      </trkpt>
      <trkpt lat="45.38418" lon="5.81481">
        <ele>1666.6</ele>
        <time>2017-01-21T10:28:34Z</time>
      </trkpt>
      <trkpt lat="45.38416" lon="5.81484">
        <ele>1666.6</ele>
        <time>2017-01-21T10:28:39Z</time>
      </trkpt>
      <trkpt lat="45.38414" lon="5.81486">
        <ele>1668.2</ele>
        <time>2017-01-21T10:28:44Z</time>
      </trkpt>
      <trkpt lat="45.38412" lon="5.81488">
        <ele>1668</ele>
        <time>2017-01-21T10:28:49Z</time>
      </trkpt>
      <trkpt lat="45.3841" lon="5.8149">
        <ele>1669</ele>
        <time>2017-01-21T10:28:54Z</time>
      </trkpt>
      <trkpt lat="45.38408" lon="5.81491">
        <ele>1669.8</ele>
        <time>2017-01-21T10:28:59Z</time>
      </trkpt>
      <trkpt lat="45.38406" lon="5.81493">
        <ele>1670.2</ele>
        <time>2017-01-21T10:29:04Z</time>
      </trkpt>
      <trkpt lat="45.38403" lon="5.81495">
        <ele>1671.4</ele>
        <time>2017-01-21T10:29:09Z</time>
      </trkpt>
      <trkpt lat="45.38401" lon="5.81497">
        <ele>1673.2</ele>
        <time>2017-01-21T10:29:14Z</time>
      </trkpt>
      <trkpt lat="45.38399" lon="5.81498">
        <ele>1672.4</ele>
        <time>2017-01-21T10:29:19Z</time>
      </trkpt>
      <trkpt lat="45.38397" lon="5.81498">
        <ele>1673.4</ele>
        <time>2017-01-21T10:29:24Z</time>
      </trkpt>
      <trkpt lat="45.38394" lon="5.81499">
        <ele>1672.2</ele>
        <time>2017-01-21T10:29:29Z</time>
      </trkpt>
      <trkpt lat="45.38392" lon="5.81499">
        <ele>1674</ele>
        <time>2017-01-21T10:29:34Z</time>
      </trkpt>
      <trkpt lat="45.3839" lon="5.81499">
        <ele>1676.2</ele>
        <time>2017-01-21T10:29:39Z</time>
      </trkpt>
      <trkpt lat="45.38388" lon="5.81499">
        <ele>1676.4</ele>
        <time>2017-01-21T10:29:44Z</time>
      </trkpt>
      <trkpt lat="45.38385" lon="5.815">
        <ele>1677.2</ele>
        <time>2017-01-21T10:29:50Z</time>
      </trkpt>
      <trkpt lat="45.38382" lon="5.81501">
        <ele>1678.6</ele>
        <time>2017-01-21T10:29:55Z</time>
      </trkpt>
      <trkpt lat="45.3838" lon="5.81501">
        <ele>1678.4</ele>
        <time>2017-01-21T10:30:01Z</time>
      </trkpt>
      <trkpt lat="45.38377" lon="5.81502">
        <ele>1681</ele>
        <time>2017-01-21T10:30:06Z</time>
      </trkpt>
      <trkpt lat="45.38375" lon="5.81502">
        <ele>1679.6</ele>
        <time>2017-01-21T10:30:12Z</time>
      </trkpt>
      <trkpt lat="45.38373" lon="5.81503">
        <ele>1683.6</ele>
        <time>2017-01-21T10:30:17Z</time>
      </trkpt>
      <trkpt lat="45.38371" lon="5.81504">
        <ele>1683.6</ele>
        <time>2017-01-21T10:30:22Z</time>
      </trkpt>
      <trkpt lat="45.38368" lon="5.81504">
        <ele>1683.8</ele>
        <time>2017-01-21T10:30:27Z</time>
      </trkpt>
      <trkpt lat="45.38366" lon="5.81505">
        <ele>1684.8</ele>
        <time>2017-01-21T10:30:32Z</time>
      </trkpt>
      <trkpt lat="45.38364" lon="5.81506">
        <ele>1682</ele>
        <time>2017-01-21T10:30:37Z</time>
      </trkpt>
      <trkpt lat="45.38364" lon="5.8151">
        <ele>1686.2</ele>
        <time>2017-01-21T10:30:42Z</time>
      </trkpt>
      <trkpt lat="45.38364" lon="5.81513">
        <ele>1686.2</ele>
        <time>2017-01-21T10:30:47Z</time>
      </trkpt>
      <trkpt lat="45.38364" lon="5.81517">
        <ele>1687.8</ele>
        <time>2017-01-21T10:30:52Z</time>
      </trkpt>
      <trkpt lat="45.38363" lon="5.8152">
        <ele>1691</ele>
        <time>2017-01-21T10:30:57Z</time>
      </trkpt>
      <trkpt lat="45.38363" lon="5.81521">
        <ele>1690.8</ele>
        <time>2017-01-21T10:31:02Z</time>
      </trkpt>
      <trkpt lat="45.38363" lon="5.81521">
        <ele>1690.4</ele>
        <time>2017-01-21T10:31:07Z</time>
      </trkpt>
      <trkpt lat="45.38363" lon="5.81521">
        <ele>1690</ele>
        <time>2017-01-21T10:31:12Z</time>
      </trkpt>
      <trkpt lat="45.38363" lon="5.81521">
        <ele>1689.8</ele>
        <time>2017-01-21T10:31:17Z</time>
      </trkpt>
      <trkpt lat="45.38363" lon="5.81521">
        <ele>1689.6</ele>
        <time>2017-01-21T10:31:22Z</time>
      </trkpt>
      <trkpt lat="45.38363" lon="5.81521">
        <ele>1689.6</ele>
        <time>2017-01-21T10:31:27Z</time>
      </trkpt>
      <trkpt lat="45.38363" lon="5.81521">
        <ele>1689.4</ele>
        <time>2017-01-21T10:31:32Z</time>
      </trkpt>
      <trkpt lat="45.38363" lon="5.81521">
        <ele>1689.4</ele>
        <time>2017-01-21T10:31:37Z</time>
      </trkpt>
      <trkpt lat="45.38363" lon="5.81522">
        <ele>1689.4</ele>
        <time>2017-01-21T10:31:42Z</time>
      </trkpt>
      <trkpt lat="45.38363" lon="5.81522">
        <ele>1689.2</ele>
        <time>2017-01-21T10:31:47Z</time>
      </trkpt>
      <trkpt lat="45.38363" lon="5.81522">
        <ele>1689.2</ele>
        <time>2017-01-21T10:31:52Z</time>
      </trkpt>
      <trkpt lat="45.38363" lon="5.81522">
        <ele>1689</ele>
        <time>2017-01-21T10:31:57Z</time>
      </trkpt>
      <trkpt lat="45.38363" lon="5.81522">
        <ele>1689</ele>
        <time>2017-01-21T10:32:02Z</time>
      </trkpt>
      <trkpt lat="45.38363" lon="5.81523">
        <ele>1689.2</ele>
        <time>2017-01-21T10:32:07Z</time>
      </trkpt>
      <trkpt lat="45.38363" lon="5.81523">
        <ele>1689.2</ele>
        <time>2017-01-21T10:32:12Z</time>
      </trkpt>
      <trkpt lat="45.38362" lon="5.81523">
        <ele>1689.2</ele>
        <time>2017-01-21T10:32:17Z</time>
      </trkpt>
      <trkpt lat="45.38362" lon="5.81523">
        <ele>1689.2</ele>
        <time>2017-01-21T10:32:22Z</time>
      </trkpt>
      <trkpt lat="45.38362" lon="5.81524">
        <ele>1689.2</ele>
        <time>2017-01-21T10:32:27Z</time>
      </trkpt>
      <trkpt lat="45.38362" lon="5.81524">
        <ele>1689.2</ele>
        <time>2017-01-21T10:32:32Z</time>
      </trkpt>
      <trkpt lat="45.38362" lon="5.81524">
        <ele>1689.4</ele>
        <time>2017-01-21T10:32:37Z</time>
      </trkpt>
      <trkpt lat="45.38362" lon="5.81525">
        <ele>1689.4</ele>
        <time>2017-01-21T10:32:42Z</time>
      </trkpt>
      <trkpt lat="45.38361" lon="5.81526">
        <ele>1689.2</ele>
        <time>2017-01-21T10:32:47Z</time>
      </trkpt>
      <trkpt lat="45.3836" lon="5.81526">
        <ele>1689</ele>
        <time>2017-01-21T10:32:52Z</time>
      </trkpt>
      <trkpt lat="45.3836" lon="5.81526">
        <ele>1688.8</ele>
        <time>2017-01-21T10:32:57Z</time>
      </trkpt>
      <trkpt lat="45.38359" lon="5.81526">
        <ele>1688.8</ele>
        <time>2017-01-21T10:33:02Z</time>
      </trkpt>
      <trkpt lat="45.38359" lon="5.81526">
        <ele>1688.8</ele>
        <time>2017-01-21T10:33:07Z</time>
      </trkpt>
      <trkpt lat="45.38359" lon="5.81526">
        <ele>1692.2</ele>
        <time>2017-01-21T10:33:12Z</time>
      </trkpt>
      <trkpt lat="45.3836" lon="5.81525">
        <ele>1691.2</ele>
        <time>2017-01-21T10:33:17Z</time>
      </trkpt>
      <trkpt lat="45.3836" lon="5.81525">
        <ele>1690.4</ele>
        <time>2017-01-21T10:33:22Z</time>
      </trkpt>
      <trkpt lat="45.3836" lon="5.81525">
        <ele>1689.8</ele>
        <time>2017-01-21T10:33:27Z</time>
      </trkpt>
      <trkpt lat="45.3836" lon="5.81525">
        <ele>1689.4</ele>
        <time>2017-01-21T10:33:32Z</time>
      </trkpt>
      <trkpt lat="45.38361" lon="5.81525">
        <ele>1689</ele>
        <time>2017-01-21T10:33:37Z</time>
      </trkpt>
      <trkpt lat="45.3836" lon="5.81525">
        <ele>1691.6</ele>
        <time>2017-01-21T10:33:42Z</time>
      </trkpt>
      <trkpt lat="45.38361" lon="5.81525">
        <ele>1690.6</ele>
        <time>2017-01-21T10:33:47Z</time>
      </trkpt>
      <trkpt lat="45.38361" lon="5.81525">
        <ele>1690</ele>
        <time>2017-01-21T10:33:52Z</time>
      </trkpt>
      <trkpt lat="45.3836" lon="5.81526">
        <ele>1689.4</ele>
        <time>2017-01-21T10:33:57Z</time>
      </trkpt>
      <trkpt lat="45.3836" lon="5.81526">
        <ele>1689.2</ele>
        <time>2017-01-21T10:34:02Z</time>
      </trkpt>
      <trkpt lat="45.38361" lon="5.81525">
        <ele>1688.8</ele>
        <time>2017-01-21T10:34:07Z</time>
      </trkpt>
      <trkpt lat="45.38361" lon="5.81525">
        <ele>1688.6</ele>
        <time>2017-01-21T10:34:12Z</time>
      </trkpt>
      <trkpt lat="45.38362" lon="5.81524">
        <ele>1688.4</ele>
        <time>2017-01-21T10:34:17Z</time>
      </trkpt>
      <trkpt lat="45.38363" lon="5.81524">
        <ele>1688</ele>
        <time>2017-01-21T10:34:22Z</time>
      </trkpt>
      <trkpt lat="45.38363" lon="5.81523">
        <ele>1687.8</ele>
        <time>2017-01-21T10:34:27Z</time>
      </trkpt>
      <trkpt lat="45.38363" lon="5.81523">
        <ele>1687.6</ele>
        <time>2017-01-21T10:34:32Z</time>
      </trkpt>
      <trkpt lat="45.38363" lon="5.81523">
        <ele>1687.4</ele>
        <time>2017-01-21T10:34:37Z</time>
      </trkpt>
      <trkpt lat="45.38363" lon="5.81523">
        <ele>1687.2</ele>
        <time>2017-01-21T10:34:42Z</time>
      </trkpt>
      <trkpt lat="45.38363" lon="5.81523">
        <ele>1687.2</ele>
        <time>2017-01-21T10:34:47Z</time>
      </trkpt>
      <trkpt lat="45.38363" lon="5.81523">
        <ele>1687</ele>
        <time>2017-01-21T10:34:52Z</time>
      </trkpt>
      <trkpt lat="45.38363" lon="5.81523">
        <ele>1687</ele>
        <time>2017-01-21T10:34:57Z</time>
      </trkpt>
      <trkpt lat="45.38363" lon="5.81523">
        <ele>1687</ele>
        <time>2017-01-21T10:35:02Z</time>
      </trkpt>
      <trkpt lat="45.38363" lon="5.81522">
        <ele>1687</ele>
        <time>2017-01-21T10:35:07Z</time>
      </trkpt>
      <trkpt lat="45.38363" lon="5.81522">
        <ele>1686.8</ele>
        <time>2017-01-21T10:35:12Z</time>
      </trkpt>
      <trkpt lat="45.38363" lon="5.81522">
        <ele>1686.8</ele>
        <time>2017-01-21T10:35:17Z</time>
      </trkpt>
      <trkpt lat="45.38363" lon="5.81522">
        <ele>1686.8</ele>
        <time>2017-01-21T10:35:22Z</time>
      </trkpt>
      <trkpt lat="45.38363" lon="5.81522">
        <ele>1686.8</ele>
        <time>2017-01-21T10:35:27Z</time>
      </trkpt>
      <trkpt lat="45.38363" lon="5.81522">
        <ele>1686.8</ele>
        <time>2017-01-21T10:35:32Z</time>
      </trkpt>
      <trkpt lat="45.38363" lon="5.81522">
        <ele>1684.6</ele>
        <time>2017-01-21T10:35:37Z</time>
      </trkpt>
      <trkpt lat="45.38363" lon="5.81525">
        <ele>1687</ele>
        <time>2017-01-21T10:35:42Z</time>
      </trkpt>
      <trkpt lat="45.38365" lon="5.81528">
        <ele>1690.8</ele>
        <time>2017-01-21T10:35:47Z</time>
      </trkpt>
      <trkpt lat="45.38366" lon="5.81531">
        <ele>1689.6</ele>
        <time>2017-01-21T10:35:52Z</time>
      </trkpt>
      <trkpt lat="45.38368" lon="5.81533">
        <ele>1688.8</ele>
        <time>2017-01-21T10:35:57Z</time>
      </trkpt>
      <trkpt lat="45.3837" lon="5.81536">
        <ele>1694.4</ele>
        <time>2017-01-21T10:36:02Z</time>
      </trkpt>
      <trkpt lat="45.38373" lon="5.81538">
        <ele>1694.4</ele>
        <time>2017-01-21T10:36:07Z</time>
      </trkpt>
      <trkpt lat="45.38375" lon="5.8154">
        <ele>1691.6</ele>
        <time>2017-01-21T10:36:12Z</time>
      </trkpt>
      <trkpt lat="45.38376" lon="5.81543">
        <ele>1697.6</ele>
        <time>2017-01-21T10:36:17Z</time>
      </trkpt>
      <trkpt lat="45.38378" lon="5.81546">
        <ele>1693</ele>
        <time>2017-01-21T10:36:22Z</time>
      </trkpt>
      <trkpt lat="45.3838" lon="5.81548">
        <ele>1696</ele>
        <time>2017-01-21T10:36:27Z</time>
      </trkpt>
      <trkpt lat="45.38382" lon="5.8155">
        <ele>1698</ele>
        <time>2017-01-21T10:36:32Z</time>
      </trkpt>
      <trkpt lat="45.38384" lon="5.81552">
        <ele>1698</ele>
        <time>2017-01-21T10:36:37Z</time>
      </trkpt>
      <trkpt lat="45.38385" lon="5.81554">
        <ele>1700</ele>
        <time>2017-01-21T10:36:42Z</time>
      </trkpt>
      <trkpt lat="45.38387" lon="5.81556">
        <ele>1700.8</ele>
        <time>2017-01-21T10:36:47Z</time>
      </trkpt>
      <trkpt lat="45.38389" lon="5.81558">
        <ele>1702.2</ele>
        <time>2017-01-21T10:36:52Z</time>
      </trkpt>
      <trkpt lat="45.38389" lon="5.81558">
        <ele>1701.2</ele>
        <time>2017-01-21T10:36:57Z</time>
      </trkpt>
      <trkpt lat="45.38388" lon="5.81559">
        <ele>1701.8</ele>
        <time>2017-01-21T10:37:02Z</time>
      </trkpt>
      <trkpt lat="45.38386" lon="5.8156">
        <ele>1698.8</ele>
        <time>2017-01-21T10:37:07Z</time>
      </trkpt>
      <trkpt lat="45.38386" lon="5.8156">
        <ele>1699.6</ele>
        <time>2017-01-21T10:37:12Z</time>
      </trkpt>
      <trkpt lat="45.38385" lon="5.81561">
        <ele>1697</ele>
        <time>2017-01-21T10:37:17Z</time>
      </trkpt>
      <trkpt lat="45.38384" lon="5.81562">
        <ele>1698.4</ele>
        <time>2017-01-21T10:37:22Z</time>
      </trkpt>
      <trkpt lat="45.38381" lon="5.81563">
        <ele>1699</ele>
        <time>2017-01-21T10:37:27Z</time>
      </trkpt>
      <trkpt lat="45.38378" lon="5.81564">
        <ele>1701.8</ele>
        <time>2017-01-21T10:37:32Z</time>
      </trkpt>
      <trkpt lat="45.38376" lon="5.81563">
        <ele>1704.2</ele>
        <time>2017-01-21T10:37:37Z</time>
      </trkpt>
      <trkpt lat="45.38376" lon="5.81564">
        <ele>1704.2</ele>
        <time>2017-01-21T10:37:42Z</time>
      </trkpt>
      <trkpt lat="45.38377" lon="5.81565">
        <ele>1703.2</ele>
        <time>2017-01-21T10:37:47Z</time>
      </trkpt>
      <trkpt lat="45.38378" lon="5.81567">
        <ele>1706</ele>
        <time>2017-01-21T10:37:52Z</time>
      </trkpt>
      <trkpt lat="45.3838" lon="5.81568">
        <ele>1705.6</ele>
        <time>2017-01-21T10:37:57Z</time>
      </trkpt>
      <trkpt lat="45.3838" lon="5.81569">
        <ele>1705.6</ele>
        <time>2017-01-21T10:38:02Z</time>
      </trkpt>
      <trkpt lat="45.3838" lon="5.81569">
        <ele>1706</ele>
        <time>2017-01-21T10:38:07Z</time>
      </trkpt>
      <trkpt lat="45.3838" lon="5.81569">
        <ele>1706</ele>
        <time>2017-01-21T10:38:12Z</time>
      </trkpt>
      <trkpt lat="45.38381" lon="5.81569">
        <ele>1706</ele>
        <time>2017-01-21T10:38:17Z</time>
      </trkpt>
      <trkpt lat="45.38382" lon="5.8157">
        <ele>1705</ele>
        <time>2017-01-21T10:38:22Z</time>
      </trkpt>
      <trkpt lat="45.38382" lon="5.8157">
        <ele>1708.8</ele>
        <time>2017-01-21T10:38:27Z</time>
      </trkpt>
      <trkpt lat="45.38381" lon="5.81571">
        <ele>1706.6</ele>
        <time>2017-01-21T10:38:32Z</time>
      </trkpt>
      <trkpt lat="45.38381" lon="5.81571">
        <ele>1706.6</ele>
        <time>2017-01-21T10:38:37Z</time>
      </trkpt>
      <trkpt lat="45.38382" lon="5.81571">
        <ele>1707.4</ele>
        <time>2017-01-21T10:38:42Z</time>
      </trkpt>
      <trkpt lat="45.38382" lon="5.81571">
        <ele>1707.2</ele>
        <time>2017-01-21T10:38:47Z</time>
      </trkpt>
      <trkpt lat="45.38382" lon="5.81571">
        <ele>1707.2</ele>
        <time>2017-01-21T10:38:52Z</time>
      </trkpt>
      <trkpt lat="45.38382" lon="5.81571">
        <ele>1707.2</ele>
        <time>2017-01-21T10:38:57Z</time>
      </trkpt>
      <trkpt lat="45.38383" lon="5.81571">
        <ele>1708</ele>
        <time>2017-01-21T10:39:02Z</time>
      </trkpt>
      <trkpt lat="45.38383" lon="5.81571">
        <ele>1707.6</ele>
        <time>2017-01-21T10:39:07Z</time>
      </trkpt>
      <trkpt lat="45.38385" lon="5.81571">
        <ele>1708.2</ele>
        <time>2017-01-21T10:39:12Z</time>
      </trkpt>
      <trkpt lat="45.38385" lon="5.81571">
        <ele>1708</ele>
        <time>2017-01-21T10:39:17Z</time>
      </trkpt>
      <trkpt lat="45.38385" lon="5.81571">
        <ele>1708</ele>
        <time>2017-01-21T10:39:22Z</time>
      </trkpt>
      <trkpt lat="45.38387" lon="5.81572">
        <ele>1706.8</ele>
        <time>2017-01-21T10:39:27Z</time>
      </trkpt>
      <trkpt lat="45.38388" lon="5.81573">
        <ele>1707.2</ele>
        <time>2017-01-21T10:39:32Z</time>
      </trkpt>
      <trkpt lat="45.38389" lon="5.81572">
        <ele>1707.2</ele>
        <time>2017-01-21T10:39:37Z</time>
      </trkpt>
      <trkpt lat="45.38389" lon="5.81573">
        <ele>1711.2</ele>
        <time>2017-01-21T10:39:42Z</time>
      </trkpt>
      <trkpt lat="45.38388" lon="5.81573">
        <ele>1711.2</ele>
        <time>2017-01-21T10:39:47Z</time>
      </trkpt>
      <trkpt lat="45.38388" lon="5.81574">
        <ele>1711.6</ele>
        <time>2017-01-21T10:39:52Z</time>
      </trkpt>
      <trkpt lat="45.38388" lon="5.81575">
        <ele>1712</ele>
        <time>2017-01-21T10:39:57Z</time>
      </trkpt>
      <trkpt lat="45.38387" lon="5.81576">
        <ele>1713.4</ele>
        <time>2017-01-21T10:40:02Z</time>
      </trkpt>
      <trkpt lat="45.38387" lon="5.81577">
        <ele>1713.8</ele>
        <time>2017-01-21T10:40:07Z</time>
      </trkpt>
      <trkpt lat="45.38387" lon="5.81577">
        <ele>1713.8</ele>
        <time>2017-01-21T10:40:12Z</time>
      </trkpt>
      <trkpt lat="45.38385" lon="5.81578">
        <ele>1714</ele>
        <time>2017-01-21T10:40:17Z</time>
      </trkpt>
      <trkpt lat="45.38381" lon="5.81578">
        <ele>1716</ele>
        <time>2017-01-21T10:40:22Z</time>
      </trkpt>
      <trkpt lat="45.3838" lon="5.81579">
        <ele>1714.6</ele>
        <time>2017-01-21T10:40:27Z</time>
      </trkpt>
      <trkpt lat="45.38382" lon="5.81581">
        <ele>1714.8</ele>
        <time>2017-01-21T10:40:32Z</time>
      </trkpt>
      <trkpt lat="45.38384" lon="5.81583">
        <ele>1717.4</ele>
        <time>2017-01-21T10:40:37Z</time>
      </trkpt>
      <trkpt lat="45.38385" lon="5.81586">
        <ele>1716.4</ele>
        <time>2017-01-21T10:40:42Z</time>
      </trkpt>
      <trkpt lat="45.38386" lon="5.81589">
        <ele>1716.6</ele>
        <time>2017-01-21T10:40:47Z</time>
      </trkpt>
      <trkpt lat="45.38387" lon="5.81591">
        <ele>1716.6</ele>
        <time>2017-01-21T10:40:52Z</time>
      </trkpt>
      <trkpt lat="45.38387" lon="5.81592">
        <ele>1715</ele>
        <time>2017-01-21T10:40:57Z</time>
      </trkpt>
      <trkpt lat="45.38387" lon="5.81596">
        <ele>1719.4</ele>
        <time>2017-01-21T10:41:02Z</time>
      </trkpt>
      <trkpt lat="45.38386" lon="5.81599">
        <ele>1719</ele>
        <time>2017-01-21T10:41:07Z</time>
      </trkpt>
      <trkpt lat="45.38384" lon="5.81599">
        <ele>1719.2</ele>
        <time>2017-01-21T10:41:12Z</time>
      </trkpt>
      <trkpt lat="45.38382" lon="5.81597">
        <ele>1719.6</ele>
        <time>2017-01-21T10:41:18Z</time>
      </trkpt>
      <trkpt lat="45.3838" lon="5.81598">
        <ele>1719.2</ele>
        <time>2017-01-21T10:41:23Z</time>
      </trkpt>
      <trkpt lat="45.38381" lon="5.81602">
        <ele>1721.2</ele>
        <time>2017-01-21T10:41:28Z</time>
      </trkpt>
      <trkpt lat="45.38382" lon="5.81606">
        <ele>1721.8</ele>
        <time>2017-01-21T10:41:33Z</time>
      </trkpt>
      <trkpt lat="45.38382" lon="5.8161">
        <ele>1722.2</ele>
        <time>2017-01-21T10:41:38Z</time>
      </trkpt>
      <trkpt lat="45.38381" lon="5.81612">
        <ele>1724.2</ele>
        <time>2017-01-21T10:41:43Z</time>
      </trkpt>
      <trkpt lat="45.3838" lon="5.81614">
        <ele>1724.2</ele>
        <time>2017-01-21T10:41:48Z</time>
      </trkpt>
      <trkpt lat="45.38378" lon="5.81614">
        <ele>1722</ele>
        <time>2017-01-21T10:41:53Z</time>
      </trkpt>
      <trkpt lat="45.38377" lon="5.81614">
        <ele>1720</ele>
        <time>2017-01-21T10:41:58Z</time>
      </trkpt>
      <trkpt lat="45.38376" lon="5.81616">
        <ele>1720.6</ele>
        <time>2017-01-21T10:42:03Z</time>
      </trkpt>
      <trkpt lat="45.38375" lon="5.81619">
        <ele>1724</ele>
        <time>2017-01-21T10:42:08Z</time>
      </trkpt>
      <trkpt lat="45.38374" lon="5.8162">
        <ele>1725</ele>
        <time>2017-01-21T10:42:13Z</time>
      </trkpt>
      <trkpt lat="45.38372" lon="5.81619">
        <ele>1725</ele>
        <time>2017-01-21T10:42:18Z</time>
      </trkpt>
      <trkpt lat="45.3837" lon="5.81617">
        <ele>1725.2</ele>
        <time>2017-01-21T10:42:23Z</time>
      </trkpt>
      <trkpt lat="45.38368" lon="5.81615">
        <ele>1727.6</ele>
        <time>2017-01-21T10:42:28Z</time>
      </trkpt>
      <trkpt lat="45.38368" lon="5.81616">
        <ele>1728.8</ele>
        <time>2017-01-21T10:42:33Z</time>
      </trkpt>
      <trkpt lat="45.38368" lon="5.81618">
        <ele>1727.8</ele>
        <time>2017-01-21T10:42:38Z</time>
      </trkpt>
      <trkpt lat="45.38368" lon="5.8162">
        <ele>1727.6</ele>
        <time>2017-01-21T10:42:43Z</time>
      </trkpt>
      <trkpt lat="45.38366" lon="5.81619">
        <ele>1728</ele>
        <time>2017-01-21T10:42:48Z</time>
      </trkpt>
      <trkpt lat="45.38365" lon="5.81618">
        <ele>1730.6</ele>
        <time>2017-01-21T10:42:53Z</time>
      </trkpt>
      <trkpt lat="45.38365" lon="5.8162">
        <ele>1726.8</ele>
        <time>2017-01-21T10:42:58Z</time>
      </trkpt>
      <trkpt lat="45.38364" lon="5.81623">
        <ele>1730.4</ele>
        <time>2017-01-21T10:43:03Z</time>
      </trkpt>
      <trkpt lat="45.38364" lon="5.81623">
        <ele>1730.6</ele>
        <time>2017-01-21T10:43:08Z</time>
      </trkpt>
      <trkpt lat="45.38364" lon="5.81625">
        <ele>1729.6</ele>
        <time>2017-01-21T10:43:13Z</time>
      </trkpt>
      <trkpt lat="45.38364" lon="5.81627">
        <ele>1728.6</ele>
        <time>2017-01-21T10:43:18Z</time>
      </trkpt>
      <trkpt lat="45.38364" lon="5.81627">
        <ele>1729.6</ele>
        <time>2017-01-21T10:43:23Z</time>
      </trkpt>
      <trkpt lat="45.38364" lon="5.81628">
        <ele>1732.6</ele>
        <time>2017-01-21T10:43:28Z</time>
      </trkpt>
      <trkpt lat="45.38366" lon="5.81631">
        <ele>1732.8</ele>
        <time>2017-01-21T10:43:33Z</time>
      </trkpt>
      <trkpt lat="45.38367" lon="5.81633">
        <ele>1733</ele>
        <time>2017-01-21T10:43:38Z</time>
      </trkpt>
      <trkpt lat="45.38368" lon="5.81635">
        <ele>1733.4</ele>
        <time>2017-01-21T10:43:43Z</time>
      </trkpt>
      <trkpt lat="45.3837" lon="5.81637">
        <ele>1735.6</ele>
        <time>2017-01-21T10:43:48Z</time>
      </trkpt>
      <trkpt lat="45.3837" lon="5.81637">
        <ele>1735</ele>
        <time>2017-01-21T10:43:53Z</time>
      </trkpt>
      <trkpt lat="45.3837" lon="5.81637">
        <ele>1734.4</ele>
        <time>2017-01-21T10:43:58Z</time>
      </trkpt>
      <trkpt lat="45.3837" lon="5.81637">
        <ele>1734.2</ele>
        <time>2017-01-21T10:44:03Z</time>
      </trkpt>
      <trkpt lat="45.3837" lon="5.81637">
        <ele>1733.8</ele>
        <time>2017-01-21T10:44:08Z</time>
      </trkpt>
      <trkpt lat="45.38371" lon="5.81639">
        <ele>1733.4</ele>
        <time>2017-01-21T10:44:13Z</time>
      </trkpt>
      <trkpt lat="45.38371" lon="5.81639">
        <ele>1733.6</ele>
        <time>2017-01-21T10:44:18Z</time>
      </trkpt>
      <trkpt lat="45.38371" lon="5.81639">
        <ele>1733.6</ele>
        <time>2017-01-21T10:44:23Z</time>
      </trkpt>
      <trkpt lat="45.38371" lon="5.81639">
        <ele>1733.6</ele>
        <time>2017-01-21T10:44:28Z</time>
      </trkpt>
      <trkpt lat="45.38371" lon="5.81639">
        <ele>1733.6</ele>
        <time>2017-01-21T10:44:33Z</time>
      </trkpt>
      <trkpt lat="45.38371" lon="5.81639">
        <ele>1733.6</ele>
        <time>2017-01-21T10:44:38Z</time>
      </trkpt>
      <trkpt lat="45.38371" lon="5.81639">
        <ele>1733.8</ele>
        <time>2017-01-21T10:44:43Z</time>
      </trkpt>
      <trkpt lat="45.38371" lon="5.81639">
        <ele>1733.8</ele>
        <time>2017-01-21T10:44:48Z</time>
      </trkpt>
      <trkpt lat="45.38371" lon="5.81639">
        <ele>1734</ele>
        <time>2017-01-21T10:44:53Z</time>
      </trkpt>
      <trkpt lat="45.38371" lon="5.81639">
        <ele>1734</ele>
        <time>2017-01-21T10:44:58Z</time>
      </trkpt>
      <trkpt lat="45.38371" lon="5.8164">
        <ele>1734</ele>
        <time>2017-01-21T10:45:03Z</time>
      </trkpt>
      <trkpt lat="45.38371" lon="5.81642">
        <ele>1735</ele>
        <time>2017-01-21T10:45:08Z</time>
      </trkpt>
      <trkpt lat="45.38371" lon="5.81642">
        <ele>1734.8</ele>
        <time>2017-01-21T10:45:13Z</time>
      </trkpt>
      <trkpt lat="45.38371" lon="5.81642">
        <ele>1734.8</ele>
        <time>2017-01-21T10:45:18Z</time>
      </trkpt>
      <trkpt lat="45.38371" lon="5.81642">
        <ele>1734.8</ele>
        <time>2017-01-21T10:45:23Z</time>
      </trkpt>
      <trkpt lat="45.38371" lon="5.81642">
        <ele>1734.8</ele>
        <time>2017-01-21T10:45:28Z</time>
      </trkpt>
      <trkpt lat="45.38371" lon="5.81642">
        <ele>1734.8</ele>
        <time>2017-01-21T10:45:33Z</time>
      </trkpt>
      <trkpt lat="45.38371" lon="5.81642">
        <ele>1734.8</ele>
        <time>2017-01-21T10:45:38Z</time>
      </trkpt>
      <trkpt lat="45.38371" lon="5.81644">
        <ele>1737</ele>
        <time>2017-01-21T10:45:43Z</time>
      </trkpt>
      <trkpt lat="45.3837" lon="5.81643">
        <ele>1735.4</ele>
        <time>2017-01-21T10:45:48Z</time>
      </trkpt>
      <trkpt lat="45.38368" lon="5.81642">
        <ele>1738.4</ele>
        <time>2017-01-21T10:45:53Z</time>
      </trkpt>
      <trkpt lat="45.38365" lon="5.81641">
        <ele>1739.6</ele>
        <time>2017-01-21T10:45:58Z</time>
      </trkpt>
      <trkpt lat="45.38363" lon="5.8164">
        <ele>1737</ele>
        <time>2017-01-21T10:46:03Z</time>
      </trkpt>
      <trkpt lat="45.38363" lon="5.8164">
        <ele>1737.2</ele>
        <time>2017-01-21T10:46:08Z</time>
      </trkpt>
      <trkpt lat="45.38363" lon="5.8164">
        <ele>1737.4</ele>
        <time>2017-01-21T10:46:13Z</time>
      </trkpt>
      <trkpt lat="45.38363" lon="5.8164">
        <ele>1737.6</ele>
        <time>2017-01-21T10:46:18Z</time>
      </trkpt>
      <trkpt lat="45.38361" lon="5.8164">
        <ele>1736.6</ele>
        <time>2017-01-21T10:46:23Z</time>
      </trkpt>
      <trkpt lat="45.38361" lon="5.8164">
        <ele>1737</ele>
        <time>2017-01-21T10:46:28Z</time>
      </trkpt>
      <trkpt lat="45.38362" lon="5.81641">
        <ele>1737.4</ele>
        <time>2017-01-21T10:46:33Z</time>
      </trkpt>
      <trkpt lat="45.38362" lon="5.81643">
        <ele>1738.4</ele>
        <time>2017-01-21T10:46:38Z</time>
      </trkpt>
      <trkpt lat="45.38363" lon="5.81646">
        <ele>1736.2</ele>
        <time>2017-01-21T10:46:43Z</time>
      </trkpt>
      <trkpt lat="45.38361" lon="5.81647">
        <ele>1739.4</ele>
        <time>2017-01-21T10:46:48Z</time>
      </trkpt>
      <trkpt lat="45.38359" lon="5.81646">
        <ele>1738.8</ele>
        <time>2017-01-21T10:46:53Z</time>
      </trkpt>
      <trkpt lat="45.38359" lon="5.81646">
        <ele>1739.6</ele>
        <time>2017-01-21T10:46:58Z</time>
      </trkpt>
      <trkpt lat="45.38357" lon="5.81644">
        <ele>1739.2</ele>
        <time>2017-01-21T10:47:03Z</time>
      </trkpt>
      <trkpt lat="45.38353" lon="5.81643">
        <ele>1743.2</ele>
        <time>2017-01-21T10:47:08Z</time>
      </trkpt>
      <trkpt lat="45.3835" lon="5.81643">
        <ele>1742.4</ele>
        <time>2017-01-21T10:47:13Z</time>
      </trkpt>
      <trkpt lat="45.38347" lon="5.8164">
        <ele>1746.2</ele>
        <time>2017-01-21T10:47:18Z</time>
      </trkpt>
      <trkpt lat="45.38343" lon="5.81637">
        <ele>1745.6</ele>
        <time>2017-01-21T10:47:24Z</time>
      </trkpt>
      <trkpt lat="45.38343" lon="5.81642">
        <ele>1747.6</ele>
        <time>2017-01-21T10:47:29Z</time>
      </trkpt>
      <trkpt lat="45.38344" lon="5.81647">
        <ele>1745.4</ele>
        <time>2017-01-21T10:47:34Z</time>
      </trkpt>
      <trkpt lat="45.38343" lon="5.81646">
        <ele>1747.2</ele>
        <time>2017-01-21T10:47:39Z</time>
      </trkpt>
      <trkpt lat="45.3834" lon="5.81642">
        <ele>1750.4</ele>
        <time>2017-01-21T10:47:44Z</time>
      </trkpt>
      <trkpt lat="45.38337" lon="5.81639">
        <ele>1750.4</ele>
        <time>2017-01-21T10:47:49Z</time>
      </trkpt>
      <trkpt lat="45.38335" lon="5.81638">
        <ele>1748.2</ele>
        <time>2017-01-21T10:47:54Z</time>
      </trkpt>
      <trkpt lat="45.38333" lon="5.81637">
        <ele>1750.6</ele>
        <time>2017-01-21T10:47:59Z</time>
      </trkpt>
      <trkpt lat="45.3833" lon="5.81637">
        <ele>1749.8</ele>
        <time>2017-01-21T10:48:04Z</time>
      </trkpt>
      <trkpt lat="45.38328" lon="5.81635">
        <ele>1755</ele>
        <time>2017-01-21T10:48:09Z</time>
      </trkpt>
      <trkpt lat="45.38325" lon="5.81631">
        <ele>1753.4</ele>
        <time>2017-01-21T10:48:14Z</time>
      </trkpt>
      <trkpt lat="45.38322" lon="5.81628">
        <ele>1756</ele>
        <time>2017-01-21T10:48:19Z</time>
      </trkpt>
      <trkpt lat="45.3832" lon="5.81625">
        <ele>1755.8</ele>
        <time>2017-01-21T10:48:24Z</time>
      </trkpt>
      <trkpt lat="45.38318" lon="5.81623">
        <ele>1757.4</ele>
        <time>2017-01-21T10:48:29Z</time>
      </trkpt>
      <trkpt lat="45.38318" lon="5.81624">
        <ele>1757</ele>
        <time>2017-01-21T10:48:34Z</time>
      </trkpt>
      <trkpt lat="45.38317" lon="5.81625">
        <ele>1755.6</ele>
        <time>2017-01-21T10:48:39Z</time>
      </trkpt>
      <trkpt lat="45.38317" lon="5.81625">
        <ele>1756.6</ele>
        <time>2017-01-21T10:48:44Z</time>
      </trkpt>
      <trkpt lat="45.38316" lon="5.81625">
        <ele>1758</ele>
        <time>2017-01-21T10:48:49Z</time>
      </trkpt>
      <trkpt lat="45.38314" lon="5.81624">
        <ele>1756.4</ele>
        <time>2017-01-21T10:48:54Z</time>
      </trkpt>
      <trkpt lat="45.38312" lon="5.81622">
        <ele>1759.8</ele>
        <time>2017-01-21T10:48:59Z</time>
      </trkpt>
      <trkpt lat="45.38309" lon="5.81619">
        <ele>1760.4</ele>
        <time>2017-01-21T10:49:04Z</time>
      </trkpt>
      <trkpt lat="45.38306" lon="5.81615">
        <ele>1764.2</ele>
        <time>2017-01-21T10:49:09Z</time>
      </trkpt>
      <trkpt lat="45.38304" lon="5.81611">
        <ele>1763.4</ele>
        <time>2017-01-21T10:49:14Z</time>
      </trkpt>
      <trkpt lat="45.38302" lon="5.81608">
        <ele>1763.4</ele>
        <time>2017-01-21T10:49:19Z</time>
      </trkpt>
      <trkpt lat="45.38301" lon="5.81605">
        <ele>1764.4</ele>
        <time>2017-01-21T10:49:24Z</time>
      </trkpt>
      <trkpt lat="45.383" lon="5.81608">
        <ele>1761.2</ele>
        <time>2017-01-21T10:49:29Z</time>
      </trkpt>
      <trkpt lat="45.383" lon="5.81611">
        <ele>1764.6</ele>
        <time>2017-01-21T10:49:34Z</time>
      </trkpt>
      <trkpt lat="45.383" lon="5.81615">
        <ele>1765.2</ele>
        <time>2017-01-21T10:49:39Z</time>
      </trkpt>
      <trkpt lat="45.383" lon="5.81619">
        <ele>1769</ele>
        <time>2017-01-21T10:49:44Z</time>
      </trkpt>
      <trkpt lat="45.383" lon="5.81621">
        <ele>1768.8</ele>
        <time>2017-01-21T10:49:49Z</time>
      </trkpt>
      <trkpt lat="45.383" lon="5.81621">
        <ele>1768.6</ele>
        <time>2017-01-21T10:49:54Z</time>
      </trkpt>
      <trkpt lat="45.383" lon="5.81621">
        <ele>1768.4</ele>
        <time>2017-01-21T10:49:59Z</time>
      </trkpt>
      <trkpt lat="45.383" lon="5.81621">
        <ele>1768.4</ele>
        <time>2017-01-21T10:50:04Z</time>
      </trkpt>
      <trkpt lat="45.383" lon="5.81621">
        <ele>1768.2</ele>
        <time>2017-01-21T10:50:09Z</time>
      </trkpt>
      <trkpt lat="45.383" lon="5.81621">
        <ele>1768.2</ele>
        <time>2017-01-21T10:50:14Z</time>
      </trkpt>
      <trkpt lat="45.383" lon="5.81621">
        <ele>1768.2</ele>
        <time>2017-01-21T10:50:19Z</time>
      </trkpt>
      <trkpt lat="45.383" lon="5.81621">
        <ele>1768.2</ele>
        <time>2017-01-21T10:50:24Z</time>
      </trkpt>
      <trkpt lat="45.383" lon="5.81621">
        <ele>1768.2</ele>
        <time>2017-01-21T10:50:29Z</time>
      </trkpt>
      <trkpt lat="45.383" lon="5.81621">
        <ele>1768.2</ele>
        <time>2017-01-21T10:50:34Z</time>
      </trkpt>
      <trkpt lat="45.383" lon="5.81621">
        <ele>1768.2</ele>
        <time>2017-01-21T10:50:39Z</time>
      </trkpt>
      <trkpt lat="45.383" lon="5.81621">
        <ele>1768.2</ele>
        <time>2017-01-21T10:50:44Z</time>
      </trkpt>
      <trkpt lat="45.383" lon="5.81621">
        <ele>1768.2</ele>
        <time>2017-01-21T10:50:49Z</time>
      </trkpt>
      <trkpt lat="45.383" lon="5.81623">
        <ele>1767.2</ele>
        <time>2017-01-21T10:50:54Z</time>
      </trkpt>
      <trkpt lat="45.38298" lon="5.81622">
        <ele>1767.4</ele>
        <time>2017-01-21T10:50:59Z</time>
      </trkpt>
      <trkpt lat="45.38297" lon="5.8162">
        <ele>1769.8</ele>
        <time>2017-01-21T10:51:04Z</time>
      </trkpt>
      <trkpt lat="45.38295" lon="5.81619">
        <ele>1772.2</ele>
        <time>2017-01-21T10:51:09Z</time>
      </trkpt>
      <trkpt lat="45.38293" lon="5.81617">
        <ele>1771</ele>
        <time>2017-01-21T10:51:14Z</time>
      </trkpt>
      <trkpt lat="45.38291" lon="5.81614">
        <ele>1773.2</ele>
        <time>2017-01-21T10:51:19Z</time>
      </trkpt>
      <trkpt lat="45.3829" lon="5.81613">
        <ele>1773.2</ele>
        <time>2017-01-21T10:51:24Z</time>
      </trkpt>
      <trkpt lat="45.38288" lon="5.81611">
        <ele>1773.6</ele>
        <time>2017-01-21T10:51:29Z</time>
      </trkpt>
      <trkpt lat="45.38288" lon="5.81611">
        <ele>1774</ele>
        <time>2017-01-21T10:51:34Z</time>
      </trkpt>
      <trkpt lat="45.38287" lon="5.81608">
        <ele>1775</ele>
        <time>2017-01-21T10:51:39Z</time>
      </trkpt>
      <trkpt lat="45.38287" lon="5.81607">
        <ele>1776.2</ele>
        <time>2017-01-21T10:51:44Z</time>
      </trkpt>
      <trkpt lat="45.38286" lon="5.81605">
        <ele>1774.2</ele>
        <time>2017-01-21T10:51:49Z</time>
      </trkpt>
      <trkpt lat="45.38284" lon="5.81602">
        <ele>1775</ele>
        <time>2017-01-21T10:51:54Z</time>
      </trkpt>
      <trkpt lat="45.38283" lon="5.81599">
        <ele>1775.4</ele>
        <time>2017-01-21T10:51:59Z</time>
      </trkpt>
      <trkpt lat="45.38282" lon="5.81598">
        <ele>1776</ele>
        <time>2017-01-21T10:52:04Z</time>
      </trkpt>
      <trkpt lat="45.38282" lon="5.81598">
        <ele>1776.2</ele>
        <time>2017-01-21T10:52:09Z</time>
      </trkpt>
      <trkpt lat="45.38282" lon="5.81598">
        <ele>1776.2</ele>
        <time>2017-01-21T10:52:14Z</time>
      </trkpt>
      <trkpt lat="45.38282" lon="5.81598">
        <ele>1776.2</ele>
        <time>2017-01-21T10:52:19Z</time>
      </trkpt>
      <trkpt lat="45.38282" lon="5.81598">
        <ele>1776.4</ele>
        <time>2017-01-21T10:52:24Z</time>
      </trkpt>
      <trkpt lat="45.38282" lon="5.81598">
        <ele>1776.4</ele>
        <time>2017-01-21T10:52:29Z</time>
      </trkpt>
      <trkpt lat="45.38282" lon="5.81598">
        <ele>1776.4</ele>
        <time>2017-01-21T10:52:34Z</time>
      </trkpt>
      <trkpt lat="45.38281" lon="5.81596">
        <ele>1777.8</ele>
        <time>2017-01-21T10:52:39Z</time>
      </trkpt>
      <trkpt lat="45.38281" lon="5.81596">
        <ele>1777.4</ele>
        <time>2017-01-21T10:52:44Z</time>
      </trkpt>
      <trkpt lat="45.38281" lon="5.81596">
        <ele>1777.2</ele>
        <time>2017-01-21T10:52:49Z</time>
      </trkpt>
      <trkpt lat="45.38281" lon="5.81596">
        <ele>1777</ele>
        <time>2017-01-21T10:52:54Z</time>
      </trkpt>
      <trkpt lat="45.38281" lon="5.81596">
        <ele>1776.8</ele>
        <time>2017-01-21T10:52:59Z</time>
      </trkpt>
      <trkpt lat="45.38281" lon="5.81596">
        <ele>1776.8</ele>
        <time>2017-01-21T10:53:04Z</time>
      </trkpt>
      <trkpt lat="45.38281" lon="5.81596">
        <ele>1776.6</ele>
        <time>2017-01-21T10:53:09Z</time>
      </trkpt>
      <trkpt lat="45.38281" lon="5.81596">
        <ele>1776.6</ele>
        <time>2017-01-21T10:53:14Z</time>
      </trkpt>
      <trkpt lat="45.38281" lon="5.81596">
        <ele>1776.6</ele>
        <time>2017-01-21T10:53:19Z</time>
      </trkpt>
      <trkpt lat="45.38281" lon="5.81596">
        <ele>1775.8</ele>
        <time>2017-01-21T10:53:24Z</time>
      </trkpt>
      <trkpt lat="45.38279" lon="5.81594">
        <ele>1778.2</ele>
        <time>2017-01-21T10:53:29Z</time>
      </trkpt>
      <trkpt lat="45.38278" lon="5.81592">
        <ele>1770</ele>
        <time>2017-01-21T10:53:34Z</time>
      </trkpt>
      <trkpt lat="45.38276" lon="5.81591">
        <ele>1773.8</ele>
        <time>2017-01-21T10:53:39Z</time>
      </trkpt>
      <trkpt lat="45.38274" lon="5.81588">
        <ele>1773.8</ele>
        <time>2017-01-21T10:53:44Z</time>
      </trkpt>
      <trkpt lat="45.38272" lon="5.81585">
        <ele>1775.2</ele>
        <time>2017-01-21T10:53:49Z</time>
      </trkpt>
      <trkpt lat="45.3827" lon="5.81583">
        <ele>1776.2</ele>
        <time>2017-01-21T10:53:54Z</time>
      </trkpt>
      <trkpt lat="45.38268" lon="5.81582">
        <ele>1776.2</ele>
        <time>2017-01-21T10:53:59Z</time>
      </trkpt>
      <trkpt lat="45.38266" lon="5.8158">
        <ele>1779.4</ele>
        <time>2017-01-21T10:54:04Z</time>
      </trkpt>
      <trkpt lat="45.38265" lon="5.81579">
        <ele>1781.2</ele>
        <time>2017-01-21T10:54:09Z</time>
      </trkpt>
      <trkpt lat="45.38263" lon="5.81579">
        <ele>1780.4</ele>
        <time>2017-01-21T10:54:14Z</time>
      </trkpt>
      <trkpt lat="45.38261" lon="5.8158">
        <ele>1781.8</ele>
        <time>2017-01-21T10:54:19Z</time>
      </trkpt>
      <trkpt lat="45.38261" lon="5.81581">
        <ele>1782.2</ele>
        <time>2017-01-21T10:54:24Z</time>
      </trkpt>
      <trkpt lat="45.3826" lon="5.81584">
        <ele>1782</ele>
        <time>2017-01-21T10:54:29Z</time>
      </trkpt>
      <trkpt lat="45.3826" lon="5.81587">
        <ele>1784.4</ele>
        <time>2017-01-21T10:54:34Z</time>
      </trkpt>
      <trkpt lat="45.3826" lon="5.8159">
        <ele>1785.8</ele>
        <time>2017-01-21T10:54:39Z</time>
      </trkpt>
      <trkpt lat="45.38261" lon="5.81593">
        <ele>1785</ele>
        <time>2017-01-21T10:54:44Z</time>
      </trkpt>
      <trkpt lat="45.38261" lon="5.81596">
        <ele>1783</ele>
        <time>2017-01-21T10:54:49Z</time>
      </trkpt>
      <trkpt lat="45.38261" lon="5.81599">
        <ele>1785.8</ele>
        <time>2017-01-21T10:54:54Z</time>
      </trkpt>
      <trkpt lat="45.3826" lon="5.81602">
        <ele>1786.8</ele>
        <time>2017-01-21T10:54:59Z</time>
      </trkpt>
      <trkpt lat="45.3826" lon="5.81605">
        <ele>1787.8</ele>
        <time>2017-01-21T10:55:04Z</time>
      </trkpt>
      <trkpt lat="45.38261" lon="5.81607">
        <ele>1788.8</ele>
        <time>2017-01-21T10:55:09Z</time>
      </trkpt>
      <trkpt lat="45.38261" lon="5.8161">
        <ele>1787.2</ele>
        <time>2017-01-21T10:55:14Z</time>
      </trkpt>
      <trkpt lat="45.38261" lon="5.81613">
        <ele>1792</ele>
        <time>2017-01-21T10:55:19Z</time>
      </trkpt>
      <trkpt lat="45.38262" lon="5.81615">
        <ele>1790.4</ele>
        <time>2017-01-21T10:55:24Z</time>
      </trkpt>
      <trkpt lat="45.38262" lon="5.81618">
        <ele>1794.8</ele>
        <time>2017-01-21T10:55:29Z</time>
      </trkpt>
      <trkpt lat="45.38262" lon="5.81621">
        <ele>1791.8</ele>
        <time>2017-01-21T10:55:34Z</time>
      </trkpt>
      <trkpt lat="45.38263" lon="5.81624">
        <ele>1795.4</ele>
        <time>2017-01-21T10:55:39Z</time>
      </trkpt>
      <trkpt lat="45.38263" lon="5.81627">
        <ele>1795.2</ele>
        <time>2017-01-21T10:55:44Z</time>
      </trkpt>
      <trkpt lat="45.38264" lon="5.8163">
        <ele>1791.8</ele>
        <time>2017-01-21T10:55:49Z</time>
      </trkpt>
      <trkpt lat="45.38264" lon="5.81633">
        <ele>1792.8</ele>
        <time>2017-01-21T10:55:54Z</time>
      </trkpt>
      <trkpt lat="45.38264" lon="5.81635">
        <ele>1792.6</ele>
        <time>2017-01-21T10:55:59Z</time>
      </trkpt>
      <trkpt lat="45.38264" lon="5.81639">
        <ele>1793</ele>
        <time>2017-01-21T10:56:04Z</time>
      </trkpt>
      <trkpt lat="45.38265" lon="5.81642">
        <ele>1794.4</ele>
        <time>2017-01-21T10:56:09Z</time>
      </trkpt>
      <trkpt lat="45.38265" lon="5.81644">
        <ele>1795.4</ele>
        <time>2017-01-21T10:56:14Z</time>
      </trkpt>
      <trkpt lat="45.38264" lon="5.81644">
        <ele>1795.6</ele>
        <time>2017-01-21T10:56:20Z</time>
      </trkpt>
      <trkpt lat="45.38262" lon="5.81643">
        <ele>1796.4</ele>
        <time>2017-01-21T10:56:25Z</time>
      </trkpt>
      <trkpt lat="45.38261" lon="5.81642">
        <ele>1792.6</ele>
        <time>2017-01-21T10:56:30Z</time>
      </trkpt>
      <trkpt lat="45.38259" lon="5.8164">
        <ele>1796.6</ele>
        <time>2017-01-21T10:56:36Z</time>
      </trkpt>
      <trkpt lat="45.38257" lon="5.81638">
        <ele>1792.8</ele>
        <time>2017-01-21T10:56:41Z</time>
      </trkpt>
      <trkpt lat="45.38256" lon="5.81637">
        <ele>1798.4</ele>
        <time>2017-01-21T10:56:46Z</time>
      </trkpt>
      <trkpt lat="45.38256" lon="5.81638">
        <ele>1798.6</ele>
        <time>2017-01-21T10:56:51Z</time>
      </trkpt>
      <trkpt lat="45.38256" lon="5.8164">
        <ele>1800.2</ele>
        <time>2017-01-21T10:56:56Z</time>
      </trkpt>
      <trkpt lat="45.38256" lon="5.81641">
        <ele>1799.2</ele>
        <time>2017-01-21T10:57:01Z</time>
      </trkpt>
      <trkpt lat="45.38256" lon="5.81641">
        <ele>1799.8</ele>
        <time>2017-01-21T10:57:06Z</time>
      </trkpt>
      <trkpt lat="45.38256" lon="5.81645">
        <ele>1799.4</ele>
        <time>2017-01-21T10:57:11Z</time>
      </trkpt>
      <trkpt lat="45.38257" lon="5.81648">
        <ele>1802.6</ele>
        <time>2017-01-21T10:57:16Z</time>
      </trkpt>
      <trkpt lat="45.38258" lon="5.8165">
        <ele>1804.2</ele>
        <time>2017-01-21T10:57:21Z</time>
      </trkpt>
      <trkpt lat="45.38259" lon="5.81653">
        <ele>1808</ele>
        <time>2017-01-21T10:57:26Z</time>
      </trkpt>
      <trkpt lat="45.38259" lon="5.81656">
        <ele>1803.8</ele>
        <time>2017-01-21T10:57:31Z</time>
      </trkpt>
      <trkpt lat="45.38258" lon="5.81657">
        <ele>1803</ele>
        <time>2017-01-21T10:57:36Z</time>
      </trkpt>
      <trkpt lat="45.38256" lon="5.81657">
        <ele>1801.8</ele>
        <time>2017-01-21T10:57:41Z</time>
      </trkpt>
      <trkpt lat="45.38254" lon="5.81656">
        <ele>1803</ele>
        <time>2017-01-21T10:57:46Z</time>
      </trkpt>
      <trkpt lat="45.38252" lon="5.81657">
        <ele>1806.2</ele>
        <time>2017-01-21T10:57:51Z</time>
      </trkpt>
      <trkpt lat="45.38249" lon="5.81657">
        <ele>1806.8</ele>
        <time>2017-01-21T10:57:56Z</time>
      </trkpt>
      <trkpt lat="45.38248" lon="5.8166">
        <ele>1808</ele>
        <time>2017-01-21T10:58:01Z</time>
      </trkpt>
      <trkpt lat="45.38246" lon="5.81664">
        <ele>1806</ele>
        <time>2017-01-21T10:58:06Z</time>
      </trkpt>
      <trkpt lat="45.38247" lon="5.81665">
        <ele>1809.4</ele>
        <time>2017-01-21T10:58:11Z</time>
      </trkpt>
      <trkpt lat="45.38247" lon="5.81665">
        <ele>1809.2</ele>
        <time>2017-01-21T10:58:16Z</time>
      </trkpt>
      <trkpt lat="45.38247" lon="5.81665">
        <ele>1809</ele>
        <time>2017-01-21T10:58:21Z</time>
      </trkpt>
      <trkpt lat="45.38247" lon="5.81665">
        <ele>1808.8</ele>
        <time>2017-01-21T10:58:26Z</time>
      </trkpt>
      <trkpt lat="45.38246" lon="5.81665">
        <ele>1807.8</ele>
        <time>2017-01-21T10:58:31Z</time>
      </trkpt>
      <trkpt lat="45.38246" lon="5.81665">
        <ele>1808</ele>
        <time>2017-01-21T10:58:36Z</time>
      </trkpt>
      <trkpt lat="45.38246" lon="5.81665">
        <ele>1808</ele>
        <time>2017-01-21T10:58:41Z</time>
      </trkpt>
      <trkpt lat="45.38246" lon="5.81665">
        <ele>1808</ele>
        <time>2017-01-21T10:58:46Z</time>
      </trkpt>
      <trkpt lat="45.38246" lon="5.81665">
        <ele>1808</ele>
        <time>2017-01-21T10:58:51Z</time>
      </trkpt>
      <trkpt lat="45.38246" lon="5.81665">
        <ele>1808</ele>
        <time>2017-01-21T10:58:56Z</time>
      </trkpt>
      <trkpt lat="45.38246" lon="5.81665">
        <ele>1808</ele>
        <time>2017-01-21T10:59:01Z</time>
      </trkpt>
      <trkpt lat="45.38246" lon="5.81665">
        <ele>1808.2</ele>
        <time>2017-01-21T10:59:06Z</time>
      </trkpt>
      <trkpt lat="45.38246" lon="5.81665">
        <ele>1808.2</ele>
        <time>2017-01-21T10:59:11Z</time>
      </trkpt>
      <trkpt lat="45.38246" lon="5.81665">
        <ele>1808.2</ele>
        <time>2017-01-21T10:59:16Z</time>
      </trkpt>
      <trkpt lat="45.38246" lon="5.81665">
        <ele>1808.2</ele>
        <time>2017-01-21T10:59:21Z</time>
      </trkpt>
      <trkpt lat="45.38246" lon="5.81665">
        <ele>1808.2</ele>
        <time>2017-01-21T10:59:26Z</time>
      </trkpt>
      <trkpt lat="45.38246" lon="5.81665">
        <ele>1808.2</ele>
        <time>2017-01-21T10:59:31Z</time>
      </trkpt>
      <trkpt lat="45.38246" lon="5.81665">
        <ele>1808.2</ele>
        <time>2017-01-21T10:59:36Z</time>
      </trkpt>
      <trkpt lat="45.38246" lon="5.81665">
        <ele>1808.2</ele>
        <time>2017-01-21T10:59:42Z</time>
      </trkpt>
      <trkpt lat="45.38246" lon="5.81665">
        <ele>1808.2</ele>
        <time>2017-01-21T10:59:47Z</time>
      </trkpt>
      <trkpt lat="45.38246" lon="5.81665">
        <ele>1808.2</ele>
        <time>2017-01-21T10:59:52Z</time>
      </trkpt>
      <trkpt lat="45.38246" lon="5.81665">
        <ele>1808.2</ele>
        <time>2017-01-21T10:59:57Z</time>
      </trkpt>
      <trkpt lat="45.38246" lon="5.81665">
        <ele>1808.2</ele>
        <time>2017-01-21T11:00:02Z</time>
      </trkpt>
      <trkpt lat="45.38246" lon="5.81665">
        <ele>1808.2</ele>
        <time>2017-01-21T11:00:07Z</time>
      </trkpt>
      <trkpt lat="45.38246" lon="5.81665">
        <ele>1808.2</ele>
        <time>2017-01-21T11:00:12Z</time>
      </trkpt>
      <trkpt lat="45.38247" lon="5.81665">
        <ele>1808.2</ele>
        <time>2017-01-21T11:00:17Z</time>
      </trkpt>
      <trkpt lat="45.38247" lon="5.81665">
        <ele>1808.2</ele>
        <time>2017-01-21T11:00:22Z</time>
      </trkpt>
      <trkpt lat="45.38246" lon="5.81665">
        <ele>1808.2</ele>
        <time>2017-01-21T11:00:27Z</time>
      </trkpt>
      <trkpt lat="45.38246" lon="5.81665">
        <ele>1808.2</ele>
        <time>2017-01-21T11:00:32Z</time>
      </trkpt>
      <trkpt lat="45.38246" lon="5.81665">
        <ele>1808.2</ele>
        <time>2017-01-21T11:00:37Z</time>
      </trkpt>
      <trkpt lat="45.38245" lon="5.81665">
        <ele>1808</ele>
        <time>2017-01-21T11:00:42Z</time>
      </trkpt>
      <trkpt lat="45.38245" lon="5.81665">
        <ele>1808</ele>
        <time>2017-01-21T11:00:47Z</time>
      </trkpt>
      <trkpt lat="45.38245" lon="5.81665">
        <ele>1808</ele>
        <time>2017-01-21T11:00:52Z</time>
      </trkpt>
      <trkpt lat="45.38243" lon="5.81665">
        <ele>1806</ele>
        <time>2017-01-21T11:00:57Z</time>
      </trkpt>
      <trkpt lat="45.3824" lon="5.81664">
        <ele>1809.8</ele>
        <time>2017-01-21T11:01:02Z</time>
      </trkpt>
      <trkpt lat="45.38237" lon="5.81662">
        <ele>1807.8</ele>
        <time>2017-01-21T11:01:07Z</time>
      </trkpt>
      <trkpt lat="45.38235" lon="5.81661">
        <ele>1808.6</ele>
        <time>2017-01-21T11:01:12Z</time>
      </trkpt>
      <trkpt lat="45.38235" lon="5.81661">
        <ele>1809</ele>
        <time>2017-01-21T11:01:17Z</time>
      </trkpt>
      <trkpt lat="45.38233" lon="5.8166">
        <ele>1808.2</ele>
        <time>2017-01-21T11:01:22Z</time>
      </trkpt>
      <trkpt lat="45.38233" lon="5.8166">
        <ele>1807.2</ele>
        <time>2017-01-21T11:01:27Z</time>
      </trkpt>
      <trkpt lat="45.38232" lon="5.8166">
        <ele>1807.2</ele>
        <time>2017-01-21T11:01:32Z</time>
      </trkpt>
      <trkpt lat="45.38228" lon="5.81658">
        <ele>1809</ele>
        <time>2017-01-21T11:01:37Z</time>
      </trkpt>
      <trkpt lat="45.38226" lon="5.81657">
        <ele>1807.4</ele>
        <time>2017-01-21T11:01:42Z</time>
      </trkpt>
      <trkpt lat="45.38224" lon="5.81655">
        <ele>1810.6</ele>
        <time>2017-01-21T11:01:47Z</time>
      </trkpt>
      <trkpt lat="45.3822" lon="5.81653">
        <ele>1812.8</ele>
        <time>2017-01-21T11:01:52Z</time>
      </trkpt>
      <trkpt lat="45.38218" lon="5.81651">
        <ele>1815.6</ele>
        <time>2017-01-21T11:01:57Z</time>
      </trkpt>
      <trkpt lat="45.38215" lon="5.81649">
        <ele>1812.6</ele>
        <time>2017-01-21T11:02:02Z</time>
      </trkpt>
      <trkpt lat="45.38214" lon="5.81648">
        <ele>1813.6</ele>
        <time>2017-01-21T11:02:07Z</time>
      </trkpt>
      <trkpt lat="45.38214" lon="5.81648">
        <ele>1813.4</ele>
        <time>2017-01-21T11:02:12Z</time>
      </trkpt>
      <trkpt lat="45.38214" lon="5.81648">
        <ele>1813.2</ele>
        <time>2017-01-21T11:02:17Z</time>
      </trkpt>
      <trkpt lat="45.38214" lon="5.81648">
        <ele>1813.2</ele>
        <time>2017-01-21T11:02:22Z</time>
      </trkpt>
      <trkpt lat="45.38211" lon="5.81647">
        <ele>1813.6</ele>
        <time>2017-01-21T11:02:27Z</time>
      </trkpt>
      <trkpt lat="45.38206" lon="5.81646">
        <ele>1813.2</ele>
        <time>2017-01-21T11:02:32Z</time>
      </trkpt>
      <trkpt lat="45.38202" lon="5.81646">
        <ele>1813.8</ele>
        <time>2017-01-21T11:02:37Z</time>
      </trkpt>
      <trkpt lat="45.38199" lon="5.81646">
        <ele>1812.4</ele>
        <time>2017-01-21T11:02:42Z</time>
      </trkpt>
      <trkpt lat="45.38199" lon="5.81645">
        <ele>1813.2</ele>
        <time>2017-01-21T11:02:48Z</time>
      </trkpt>
      <trkpt lat="45.38199" lon="5.81645">
        <ele>1813.4</ele>
        <time>2017-01-21T11:02:53Z</time>
      </trkpt>
      <trkpt lat="45.38199" lon="5.81645">
        <ele>1813.6</ele>
        <time>2017-01-21T11:02:58Z</time>
      </trkpt>
      <trkpt lat="45.38198" lon="5.81645">
        <ele>1813.6</ele>
        <time>2017-01-21T11:03:03Z</time>
      </trkpt>
      <trkpt lat="45.38198" lon="5.81643">
        <ele>1812.8</ele>
        <time>2017-01-21T11:03:08Z</time>
      </trkpt>
      <trkpt lat="45.382" lon="5.81643">
        <ele>1813.6</ele>
        <time>2017-01-21T11:03:13Z</time>
      </trkpt>
      <trkpt lat="45.38201" lon="5.81642">
        <ele>1815.4</ele>
        <time>2017-01-21T11:03:18Z</time>
      </trkpt>
      <trkpt lat="45.38201" lon="5.81642">
        <ele>1815.8</ele>
        <time>2017-01-21T11:03:23Z</time>
      </trkpt>
      <trkpt lat="45.38201" lon="5.81642">
        <ele>1816.2</ele>
        <time>2017-01-21T11:03:28Z</time>
      </trkpt>
      <trkpt lat="45.38202" lon="5.81642">
        <ele>1816.4</ele>
        <time>2017-01-21T11:03:33Z</time>
      </trkpt>
      <trkpt lat="45.38202" lon="5.81641">
        <ele>1817.2</ele>
        <time>2017-01-21T11:03:38Z</time>
      </trkpt>
      <trkpt lat="45.38201" lon="5.8164">
        <ele>1814.6</ele>
        <time>2017-01-21T11:03:43Z</time>
      </trkpt>
      <trkpt lat="45.382" lon="5.81639">
        <ele>1815.4</ele>
        <time>2017-01-21T11:03:48Z</time>
      </trkpt>
      <trkpt lat="45.38199" lon="5.81639">
        <ele>1814.2</ele>
        <time>2017-01-21T11:03:53Z</time>
      </trkpt>
      <trkpt lat="45.38199" lon="5.81638">
        <ele>1816</ele>
        <time>2017-01-21T11:03:58Z</time>
      </trkpt>
      <trkpt lat="45.38201" lon="5.81638">
        <ele>1813.4</ele>
        <time>2017-01-21T11:04:03Z</time>
      </trkpt>
      <trkpt lat="45.38204" lon="5.81636">
        <ele>1818.4</ele>
        <time>2017-01-21T11:04:08Z</time>
      </trkpt>
      <trkpt lat="45.38206" lon="5.81634">
        <ele>1819.8</ele>
        <time>2017-01-21T11:04:13Z</time>
      </trkpt>
      <trkpt lat="45.38209" lon="5.81633">
        <ele>1818.4</ele>
        <time>2017-01-21T11:04:18Z</time>
      </trkpt>
      <trkpt lat="45.38212" lon="5.81631">
        <ele>1822.2</ele>
        <time>2017-01-21T11:04:23Z</time>
      </trkpt>
      <trkpt lat="45.38212" lon="5.8163">
        <ele>1820.2</ele>
        <time>2017-01-21T11:04:28Z</time>
      </trkpt>
      <trkpt lat="45.38212" lon="5.81629">
        <ele>1821</ele>
        <time>2017-01-21T11:04:33Z</time>
      </trkpt>
      <trkpt lat="45.38212" lon="5.81629">
        <ele>1821.4</ele>
        <time>2017-01-21T11:04:38Z</time>
      </trkpt>
      <trkpt lat="45.38212" lon="5.81629">
        <ele>1821.6</ele>
        <time>2017-01-21T11:04:43Z</time>
      </trkpt>
      <trkpt lat="45.38212" lon="5.81629">
        <ele>1821.8</ele>
        <time>2017-01-21T11:04:48Z</time>
      </trkpt>
      <trkpt lat="45.38212" lon="5.81629">
        <ele>1822</ele>
        <time>2017-01-21T11:04:53Z</time>
      </trkpt>
      <trkpt lat="45.38212" lon="5.81629">
        <ele>1822</ele>
        <time>2017-01-21T11:04:58Z</time>
      </trkpt>
      <trkpt lat="45.38212" lon="5.81629">
        <ele>1822</ele>
        <time>2017-01-21T11:05:03Z</time>
      </trkpt>
      <trkpt lat="45.38212" lon="5.81629">
        <ele>1822.2</ele>
        <time>2017-01-21T11:05:08Z</time>
      </trkpt>
      <trkpt lat="45.38212" lon="5.81629">
        <ele>1822.2</ele>
        <time>2017-01-21T11:05:13Z</time>
      </trkpt>
      <trkpt lat="45.38212" lon="5.81629">
        <ele>1822.2</ele>
        <time>2017-01-21T11:05:18Z</time>
      </trkpt>
      <trkpt lat="45.38212" lon="5.81629">
        <ele>1822.2</ele>
        <time>2017-01-21T11:05:23Z</time>
      </trkpt>
      <trkpt lat="45.38212" lon="5.81629">
        <ele>1822.4</ele>
        <time>2017-01-21T11:05:28Z</time>
      </trkpt>
      <trkpt lat="45.38212" lon="5.81629">
        <ele>1822.4</ele>
        <time>2017-01-21T11:05:33Z</time>
      </trkpt>
      <trkpt lat="45.38212" lon="5.81629">
        <ele>1822.4</ele>
        <time>2017-01-21T11:05:39Z</time>
      </trkpt>
      <trkpt lat="45.38212" lon="5.81629">
        <ele>1822.4</ele>
        <time>2017-01-21T11:05:44Z</time>
      </trkpt>
      <trkpt lat="45.38212" lon="5.81629">
        <ele>1822.4</ele>
        <time>2017-01-21T11:05:49Z</time>
      </trkpt>
      <trkpt lat="45.38212" lon="5.81629">
        <ele>1822.4</ele>
        <time>2017-01-21T11:05:54Z</time>
      </trkpt>
      <trkpt lat="45.38213" lon="5.81629">
        <ele>1822.6</ele>
        <time>2017-01-21T11:05:59Z</time>
      </trkpt>
      <trkpt lat="45.38213" lon="5.81629">
        <ele>1822.6</ele>
        <time>2017-01-21T11:06:04Z</time>
      </trkpt>
      <trkpt lat="45.38213" lon="5.81629">
        <ele>1822.6</ele>
        <time>2017-01-21T11:06:09Z</time>
      </trkpt>
      <trkpt lat="45.38213" lon="5.81629">
        <ele>1822.6</ele>
        <time>2017-01-21T11:06:14Z</time>
      </trkpt>
      <trkpt lat="45.38213" lon="5.81629">
        <ele>1822.6</ele>
        <time>2017-01-21T11:06:19Z</time>
      </trkpt>
      <trkpt lat="45.38213" lon="5.81629">
        <ele>1822.6</ele>
        <time>2017-01-21T11:06:24Z</time>
      </trkpt>
      <trkpt lat="45.38213" lon="5.81629">
        <ele>1822.6</ele>
        <time>2017-01-21T11:06:29Z</time>
      </trkpt>
      <trkpt lat="45.38213" lon="5.81629">
        <ele>1822.6</ele>
        <time>2017-01-21T11:06:34Z</time>
      </trkpt>
      <trkpt lat="45.38213" lon="5.81629">
        <ele>1822.6</ele>
        <time>2017-01-21T11:06:39Z</time>
      </trkpt>
      <trkpt lat="45.38213" lon="5.81629">
        <ele>1822.6</ele>
        <time>2017-01-21T11:06:44Z</time>
      </trkpt>
      <trkpt lat="45.38213" lon="5.81629">
        <ele>1822.6</ele>
        <time>2017-01-21T11:06:49Z</time>
      </trkpt>
      <trkpt lat="45.38213" lon="5.81629">
        <ele>1822.6</ele>
        <time>2017-01-21T11:06:54Z</time>
      </trkpt>
      <trkpt lat="45.38213" lon="5.81629">
        <ele>1822.6</ele>
        <time>2017-01-21T11:06:59Z</time>
      </trkpt>
      <trkpt lat="45.38213" lon="5.81629">
        <ele>1822.6</ele>
        <time>2017-01-21T11:07:04Z</time>
      </trkpt>
      <trkpt lat="45.38213" lon="5.81629">
        <ele>1822.6</ele>
        <time>2017-01-21T11:07:09Z</time>
      </trkpt>
      <trkpt lat="45.38213" lon="5.81629">
        <ele>1822.6</ele>
        <time>2017-01-21T11:07:14Z</time>
      </trkpt>
      <trkpt lat="45.38213" lon="5.81629">
        <ele>1822.6</ele>
        <time>2017-01-21T11:07:19Z</time>
      </trkpt>
      <trkpt lat="45.38213" lon="5.81629">
        <ele>1822.6</ele>
        <time>2017-01-21T11:07:24Z</time>
      </trkpt>
      <trkpt lat="45.38213" lon="5.81629">
        <ele>1822.6</ele>
        <time>2017-01-21T11:07:29Z</time>
      </trkpt>
      <trkpt lat="45.38213" lon="5.81629">
        <ele>1822.6</ele>
        <time>2017-01-21T11:07:34Z</time>
      </trkpt>
      <trkpt lat="45.38213" lon="5.81629">
        <ele>1822.6</ele>
        <time>2017-01-21T11:07:39Z</time>
      </trkpt>
      <trkpt lat="45.38213" lon="5.81629">
        <ele>1822.6</ele>
        <time>2017-01-21T11:07:44Z</time>
      </trkpt>
      <trkpt lat="45.38213" lon="5.81629">
        <ele>1822.6</ele>
        <time>2017-01-21T11:07:49Z</time>
      </trkpt>
      <trkpt lat="45.38213" lon="5.8163">
        <ele>1822.6</ele>
        <time>2017-01-21T11:07:54Z</time>
      </trkpt>
      <trkpt lat="45.38213" lon="5.8163">
        <ele>1822.6</ele>
        <time>2017-01-21T11:07:59Z</time>
      </trkpt>
      <trkpt lat="45.38213" lon="5.8163">
        <ele>1822.6</ele>
        <time>2017-01-21T11:08:04Z</time>
      </trkpt>
      <trkpt lat="45.38213" lon="5.8163">
        <ele>1822.6</ele>
        <time>2017-01-21T11:08:09Z</time>
      </trkpt>
      <trkpt lat="45.38213" lon="5.8163">
        <ele>1822.6</ele>
        <time>2017-01-21T11:08:14Z</time>
      </trkpt>
      <trkpt lat="45.38213" lon="5.8163">
        <ele>1822.6</ele>
        <time>2017-01-21T11:08:19Z</time>
      </trkpt>
      <trkpt lat="45.38213" lon="5.8163">
        <ele>1822.6</ele>
        <time>2017-01-21T11:08:24Z</time>
      </trkpt>
      <trkpt lat="45.38213" lon="5.8163">
        <ele>1822.6</ele>
        <time>2017-01-21T11:08:29Z</time>
      </trkpt>
      <trkpt lat="45.38213" lon="5.8163">
        <ele>1822.6</ele>
        <time>2017-01-21T11:08:34Z</time>
      </trkpt>
      <trkpt lat="45.38213" lon="5.8163">
        <ele>1822.6</ele>
        <time>2017-01-21T11:08:39Z</time>
      </trkpt>
      <trkpt lat="45.38213" lon="5.8163">
        <ele>1822.6</ele>
        <time>2017-01-21T11:08:44Z</time>
      </trkpt>
      <trkpt lat="45.38213" lon="5.8163">
        <ele>1822.6</ele>
        <time>2017-01-21T11:08:49Z</time>
      </trkpt>
      <trkpt lat="45.38213" lon="5.8163">
        <ele>1822.6</ele>
        <time>2017-01-21T11:08:54Z</time>
      </trkpt>
      <trkpt lat="45.38213" lon="5.8163">
        <ele>1822.6</ele>
        <time>2017-01-21T11:08:59Z</time>
      </trkpt>
      <trkpt lat="45.38213" lon="5.8163">
        <ele>1822.6</ele>
        <time>2017-01-21T11:09:04Z</time>
      </trkpt>
      <trkpt lat="45.38213" lon="5.8163">
        <ele>1822.6</ele>
        <time>2017-01-21T11:09:09Z</time>
      </trkpt>
      <trkpt lat="45.38213" lon="5.8163">
        <ele>1822.6</ele>
        <time>2017-01-21T11:09:14Z</time>
      </trkpt>
      <trkpt lat="45.38213" lon="5.8163">
        <ele>1822.6</ele>
        <time>2017-01-21T11:09:19Z</time>
      </trkpt>
      <trkpt lat="45.38213" lon="5.8163">
        <ele>1822.6</ele>
        <time>2017-01-21T11:09:24Z</time>
      </trkpt>
      <trkpt lat="45.38213" lon="5.8163">
        <ele>1822.6</ele>
        <time>2017-01-21T11:09:29Z</time>
      </trkpt>
      <trkpt lat="45.38213" lon="5.8163">
        <ele>1822.6</ele>
        <time>2017-01-21T11:09:34Z</time>
      </trkpt>
      <trkpt lat="45.38213" lon="5.8163">
        <ele>1822.6</ele>
        <time>2017-01-21T11:09:39Z</time>
      </trkpt>
      <trkpt lat="45.38213" lon="5.8163">
        <ele>1822.6</ele>
        <time>2017-01-21T11:09:44Z</time>
      </trkpt>
      <trkpt lat="45.38213" lon="5.8163">
        <ele>1822.6</ele>
        <time>2017-01-21T11:09:49Z</time>
      </trkpt>
      <trkpt lat="45.38213" lon="5.8163">
        <ele>1822.6</ele>
        <time>2017-01-21T11:09:54Z</time>
      </trkpt>
      <trkpt lat="45.38213" lon="5.8163">
        <ele>1822.6</ele>
        <time>2017-01-21T11:09:59Z</time>
      </trkpt>
      <trkpt lat="45.38213" lon="5.8163">
        <ele>1822.6</ele>
        <time>2017-01-21T11:10:04Z</time>
      </trkpt>
      <trkpt lat="45.38213" lon="5.8163">
        <ele>1822.6</ele>
        <time>2017-01-21T11:10:09Z</time>
      </trkpt>
      <trkpt lat="45.38213" lon="5.8163">
        <ele>1822.6</ele>
        <time>2017-01-21T11:10:14Z</time>
      </trkpt>
      <trkpt lat="45.38213" lon="5.8163">
        <ele>1822.6</ele>
        <time>2017-01-21T11:10:19Z</time>
      </trkpt>
      <trkpt lat="45.38213" lon="5.8163">
        <ele>1822.6</ele>
        <time>2017-01-21T11:10:24Z</time>
      </trkpt>
      <trkpt lat="45.38213" lon="5.8163">
        <ele>1822.6</ele>
        <time>2017-01-21T11:10:29Z</time>
      </trkpt>
      <trkpt lat="45.38213" lon="5.8163">
        <ele>1822.6</ele>
        <time>2017-01-21T11:10:34Z</time>
      </trkpt>
      <trkpt lat="45.38213" lon="5.8163">
        <ele>1822.6</ele>
        <time>2017-01-21T11:10:39Z</time>
      </trkpt>
      <trkpt lat="45.38213" lon="5.8163">
        <ele>1822.6</ele>
        <time>2017-01-21T11:10:44Z</time>
      </trkpt>
      <trkpt lat="45.38213" lon="5.8163">
        <ele>1822.6</ele>
        <time>2017-01-21T11:10:49Z</time>
      </trkpt>
      <trkpt lat="45.38213" lon="5.8163">
        <ele>1822.6</ele>
        <time>2017-01-21T11:10:54Z</time>
      </trkpt>
      <trkpt lat="45.38213" lon="5.8163">
        <ele>1822.6</ele>
        <time>2017-01-21T11:10:59Z</time>
      </trkpt>
      <trkpt lat="45.38213" lon="5.8163">
        <ele>1822.6</ele>
        <time>2017-01-21T11:11:04Z</time>
      </trkpt>
      <trkpt lat="45.38213" lon="5.8163">
        <ele>1822.6</ele>
        <time>2017-01-21T11:11:09Z</time>
      </trkpt>
      <trkpt lat="45.38213" lon="5.8163">
        <ele>1822.6</ele>
        <time>2017-01-21T11:11:14Z</time>
      </trkpt>
      <trkpt lat="45.38213" lon="5.8163">
        <ele>1822.6</ele>
        <time>2017-01-21T11:11:19Z</time>
      </trkpt>
      <trkpt lat="45.38213" lon="5.8163">
        <ele>1822.6</ele>
        <time>2017-01-21T11:11:24Z</time>
      </trkpt>
      <trkpt lat="45.38213" lon="5.8163">
        <ele>1822.4</ele>
        <time>2017-01-21T11:11:29Z</time>
      </trkpt>
      <trkpt lat="45.38213" lon="5.8163">
        <ele>1822.4</ele>
        <time>2017-01-21T11:11:34Z</time>
      </trkpt>
      <trkpt lat="45.38213" lon="5.8163">
        <ele>1822.4</ele>
        <time>2017-01-21T11:11:39Z</time>
      </trkpt>
      <trkpt lat="45.38213" lon="5.8163">
        <ele>1822.4</ele>
        <time>2017-01-21T11:11:44Z</time>
      </trkpt>
      <trkpt lat="45.38213" lon="5.8163">
        <ele>1822.4</ele>
        <time>2017-01-21T11:11:49Z</time>
      </trkpt>
      <trkpt lat="45.38213" lon="5.8163">
        <ele>1822.4</ele>
        <time>2017-01-21T11:11:54Z</time>
      </trkpt>
      <trkpt lat="45.38213" lon="5.8163">
        <ele>1822.4</ele>
        <time>2017-01-21T11:11:59Z</time>
      </trkpt>
      <trkpt lat="45.38213" lon="5.8163">
        <ele>1822.4</ele>
        <time>2017-01-21T11:12:04Z</time>
      </trkpt>
      <trkpt lat="45.38213" lon="5.8163">
        <ele>1822.4</ele>
        <time>2017-01-21T11:12:09Z</time>
      </trkpt>
      <trkpt lat="45.38213" lon="5.8163">
        <ele>1822.4</ele>
        <time>2017-01-21T11:12:14Z</time>
      </trkpt>
      <trkpt lat="45.38213" lon="5.8163">
        <ele>1822.4</ele>
        <time>2017-01-21T11:12:19Z</time>
      </trkpt>
      <trkpt lat="45.38213" lon="5.8163">
        <ele>1822.4</ele>
        <time>2017-01-21T11:12:24Z</time>
      </trkpt>
      <trkpt lat="45.38213" lon="5.8163">
        <ele>1822.4</ele>
        <time>2017-01-21T11:12:29Z</time>
      </trkpt>
      <trkpt lat="45.38213" lon="5.81629">
        <ele>1822.4</ele>
        <time>2017-01-21T11:12:34Z</time>
      </trkpt>
      <trkpt lat="45.38213" lon="5.81629">
        <ele>1822.4</ele>
        <time>2017-01-21T11:12:39Z</time>
      </trkpt>
      <trkpt lat="45.38213" lon="5.81629">
        <ele>1822.4</ele>
        <time>2017-01-21T11:12:44Z</time>
      </trkpt>
      <trkpt lat="45.38213" lon="5.81629">
        <ele>1822.2</ele>
        <time>2017-01-21T11:12:49Z</time>
      </trkpt>
      <trkpt lat="45.38213" lon="5.81629">
        <ele>1822.2</ele>
        <time>2017-01-21T11:12:54Z</time>
      </trkpt>
      <trkpt lat="45.38214" lon="5.81629">
        <ele>1822.2</ele>
        <time>2017-01-21T11:12:59Z</time>
      </trkpt>
      <trkpt lat="45.38213" lon="5.8163">
        <ele>1822.2</ele>
        <time>2017-01-21T11:13:04Z</time>
      </trkpt>
      <trkpt lat="45.38213" lon="5.81629">
        <ele>1822.2</ele>
        <time>2017-01-21T11:13:09Z</time>
      </trkpt>
      <trkpt lat="45.38213" lon="5.81629">
        <ele>1822.2</ele>
        <time>2017-01-21T11:13:14Z</time>
      </trkpt>
      <trkpt lat="45.38213" lon="5.81629">
        <ele>1822.2</ele>
        <time>2017-01-21T11:13:19Z</time>
      </trkpt>
      <trkpt lat="45.38213" lon="5.81629">
        <ele>1822.2</ele>
        <time>2017-01-21T11:13:24Z</time>
      </trkpt>
      <trkpt lat="45.38213" lon="5.81629">
        <ele>1822.2</ele>
        <time>2017-01-21T11:13:29Z</time>
      </trkpt>
      <trkpt lat="45.38213" lon="5.81629">
        <ele>1822.2</ele>
        <time>2017-01-21T11:13:34Z</time>
      </trkpt>
      <trkpt lat="45.38213" lon="5.81629">
        <ele>1822.2</ele>
        <time>2017-01-21T11:13:39Z</time>
      </trkpt>
      <trkpt lat="45.38214" lon="5.8163">
        <ele>1819.8</ele>
        <time>2017-01-21T11:13:44Z</time>
      </trkpt>
      <trkpt lat="45.38214" lon="5.8163">
        <ele>1820.6</ele>
        <time>2017-01-21T11:13:49Z</time>
      </trkpt>
      <trkpt lat="45.38214" lon="5.81629">
        <ele>1821</ele>
        <time>2017-01-21T11:13:54Z</time>
      </trkpt>
      <trkpt lat="45.38212" lon="5.81628">
        <ele>1822.4</ele>
        <time>2017-01-21T11:13:59Z</time>
      </trkpt>
      <trkpt lat="45.38208" lon="5.81628">
        <ele>1821.2</ele>
        <time>2017-01-21T11:14:04Z</time>
      </trkpt>
      <trkpt lat="45.38205" lon="5.81629">
        <ele>1822.2</ele>
        <time>2017-01-21T11:14:09Z</time>
      </trkpt>
      <trkpt lat="45.38201" lon="5.81628">
        <ele>1822.6</ele>
        <time>2017-01-21T11:14:14Z</time>
      </trkpt>
      <trkpt lat="45.38197" lon="5.81626">
        <ele>1824.2</ele>
        <time>2017-01-21T11:14:19Z</time>
      </trkpt>
      <trkpt lat="45.38194" lon="5.81624">
        <ele>1823.6</ele>
        <time>2017-01-21T11:14:24Z</time>
      </trkpt>
      <trkpt lat="45.38189" lon="5.81624">
        <ele>1824.6</ele>
        <time>2017-01-21T11:14:30Z</time>
      </trkpt>
      <trkpt lat="45.38185" lon="5.81622">
        <ele>1825</ele>
        <time>2017-01-21T11:14:35Z</time>
      </trkpt>
      <trkpt lat="45.38182" lon="5.8162">
        <ele>1825.2</ele>
        <time>2017-01-21T11:14:40Z</time>
      </trkpt>
      <trkpt lat="45.38179" lon="5.81618">
        <ele>1823.6</ele>
        <time>2017-01-21T11:14:45Z</time>
      </trkpt>
      <trkpt lat="45.38176" lon="5.81616">
        <ele>1826.8</ele>
        <time>2017-01-21T11:14:50Z</time>
      </trkpt>
      <trkpt lat="45.38173" lon="5.81614">
        <ele>1826.8</ele>
        <time>2017-01-21T11:14:55Z</time>
      </trkpt>
      <trkpt lat="45.3817" lon="5.81612">
        <ele>1828.2</ele>
        <time>2017-01-21T11:15:00Z</time>
      </trkpt>
      <trkpt lat="45.38168" lon="5.8161">
        <ele>1829</ele>
        <time>2017-01-21T11:15:05Z</time>
      </trkpt>
      <trkpt lat="45.38166" lon="5.81609">
        <ele>1829.4</ele>
        <time>2017-01-21T11:15:10Z</time>
      </trkpt>
      <trkpt lat="45.38164" lon="5.81608">
        <ele>1829.8</ele>
        <time>2017-01-21T11:15:15Z</time>
      </trkpt>
      <trkpt lat="45.38161" lon="5.81606">
        <ele>1828.6</ele>
        <time>2017-01-21T11:15:20Z</time>
      </trkpt>
      <trkpt lat="45.38158" lon="5.81605">
        <ele>1830.4</ele>
        <time>2017-01-21T11:15:25Z</time>
      </trkpt>
      <trkpt lat="45.38155" lon="5.81604">
        <ele>1831.4</ele>
        <time>2017-01-21T11:15:30Z</time>
      </trkpt>
      <trkpt lat="45.38153" lon="5.81603">
        <ele>1833.2</ele>
        <time>2017-01-21T11:15:35Z</time>
      </trkpt>
      <trkpt lat="45.3815" lon="5.81601">
        <ele>1832.2</ele>
        <time>2017-01-21T11:15:40Z</time>
      </trkpt>
      <trkpt lat="45.38148" lon="5.816">
        <ele>1829.2</ele>
        <time>2017-01-21T11:15:45Z</time>
      </trkpt>
      <trkpt lat="45.38145" lon="5.81598">
        <ele>1831.8</ele>
        <time>2017-01-21T11:15:50Z</time>
      </trkpt>
      <trkpt lat="45.38143" lon="5.81597">
        <ele>1830.8</ele>
        <time>2017-01-21T11:15:55Z</time>
      </trkpt>
      <trkpt lat="45.3814" lon="5.81597">
        <ele>1834.4</ele>
        <time>2017-01-21T11:16:00Z</time>
      </trkpt>
      <trkpt lat="45.38137" lon="5.81596">
        <ele>1831.4</ele>
        <time>2017-01-21T11:16:05Z</time>
      </trkpt>
      <trkpt lat="45.38133" lon="5.81596">
        <ele>1833</ele>
        <time>2017-01-21T11:16:10Z</time>
      </trkpt>
      <trkpt lat="45.38131" lon="5.81595">
        <ele>1833.8</ele>
        <time>2017-01-21T11:16:15Z</time>
      </trkpt>
      <trkpt lat="45.38129" lon="5.81595">
        <ele>1834</ele>
        <time>2017-01-21T11:16:20Z</time>
      </trkpt>
      <trkpt lat="45.38126" lon="5.81594">
        <ele>1835.8</ele>
        <time>2017-01-21T11:16:25Z</time>
      </trkpt>
      <trkpt lat="45.38123" lon="5.81593">
        <ele>1835.4</ele>
        <time>2017-01-21T11:16:30Z</time>
      </trkpt>
      <trkpt lat="45.3812" lon="5.81593">
        <ele>1836.4</ele>
        <time>2017-01-21T11:16:35Z</time>
      </trkpt>
      <trkpt lat="45.38117" lon="5.81591">
        <ele>1838.4</ele>
        <time>2017-01-21T11:16:40Z</time>
      </trkpt>
      <trkpt lat="45.38116" lon="5.8159">
        <ele>1836.6</ele>
        <time>2017-01-21T11:16:45Z</time>
      </trkpt>
      <trkpt lat="45.38116" lon="5.8159">
        <ele>1836.8</ele>
        <time>2017-01-21T11:16:50Z</time>
      </trkpt>
      <trkpt lat="45.38116" lon="5.8159">
        <ele>1836.8</ele>
        <time>2017-01-21T11:16:55Z</time>
      </trkpt>
      <trkpt lat="45.38116" lon="5.8159">
        <ele>1836.8</ele>
        <time>2017-01-21T11:17:00Z</time>
      </trkpt>
      <trkpt lat="45.38115" lon="5.81589">
        <ele>1838.2</ele>
        <time>2017-01-21T11:17:05Z</time>
      </trkpt>
      <trkpt lat="45.38114" lon="5.81588">
        <ele>1836</ele>
        <time>2017-01-21T11:17:10Z</time>
      </trkpt>
      <trkpt lat="45.38114" lon="5.81588">
        <ele>1836.4</ele>
        <time>2017-01-21T11:17:15Z</time>
      </trkpt>
      <trkpt lat="45.38112" lon="5.81587">
        <ele>1835.8</ele>
        <time>2017-01-21T11:17:20Z</time>
      </trkpt>
      <trkpt lat="45.38109" lon="5.81586">
        <ele>1840.8</ele>
        <time>2017-01-21T11:17:25Z</time>
      </trkpt>
      <trkpt lat="45.38106" lon="5.81585">
        <ele>1837.4</ele>
        <time>2017-01-21T11:17:30Z</time>
      </trkpt>
      <trkpt lat="45.38103" lon="5.81583">
        <ele>1839.8</ele>
        <time>2017-01-21T11:17:35Z</time>
      </trkpt>
      <trkpt lat="45.38102" lon="5.81583">
        <ele>1840.2</ele>
        <time>2017-01-21T11:17:40Z</time>
      </trkpt>
      <trkpt lat="45.38101" lon="5.81582">
        <ele>1841.2</ele>
        <time>2017-01-21T11:17:45Z</time>
      </trkpt>
      <trkpt lat="45.38099" lon="5.81581">
        <ele>1843.8</ele>
        <time>2017-01-21T11:17:50Z</time>
      </trkpt>
      <trkpt lat="45.38096" lon="5.81578">
        <ele>1842</ele>
        <time>2017-01-21T11:17:55Z</time>
      </trkpt>
      <trkpt lat="45.38094" lon="5.81575">
        <ele>1841.2</ele>
        <time>2017-01-21T11:18:00Z</time>
      </trkpt>
      <trkpt lat="45.38091" lon="5.81574">
        <ele>1842</ele>
        <time>2017-01-21T11:18:05Z</time>
      </trkpt>
      <trkpt lat="45.38089" lon="5.81574">
        <ele>1847.2</ele>
        <time>2017-01-21T11:18:10Z</time>
      </trkpt>
      <trkpt lat="45.38086" lon="5.81574">
        <ele>1843.6</ele>
        <time>2017-01-21T11:18:15Z</time>
      </trkpt>
      <trkpt lat="45.38084" lon="5.81574">
        <ele>1847.2</ele>
        <time>2017-01-21T11:18:20Z</time>
      </trkpt>
      <trkpt lat="45.38082" lon="5.81574">
        <ele>1847</ele>
        <time>2017-01-21T11:18:25Z</time>
      </trkpt>
      <trkpt lat="45.38081" lon="5.81574">
        <ele>1846.8</ele>
        <time>2017-01-21T11:18:30Z</time>
      </trkpt>
      <trkpt lat="45.38079" lon="5.81574">
        <ele>1845.8</ele>
        <time>2017-01-21T11:18:35Z</time>
      </trkpt>
      <trkpt lat="45.38079" lon="5.81573">
        <ele>1848.6</ele>
        <time>2017-01-21T11:18:40Z</time>
      </trkpt>
      <trkpt lat="45.38077" lon="5.81572">
        <ele>1850.8</ele>
        <time>2017-01-21T11:18:45Z</time>
      </trkpt>
      <trkpt lat="45.38076" lon="5.81571">
        <ele>1852.6</ele>
        <time>2017-01-21T11:18:50Z</time>
      </trkpt>
      <trkpt lat="45.38077" lon="5.81569">
        <ele>1851.4</ele>
        <time>2017-01-21T11:18:55Z</time>
      </trkpt>
      <trkpt lat="45.38079" lon="5.81568">
        <ele>1852.2</ele>
        <time>2017-01-21T11:19:00Z</time>
      </trkpt>
      <trkpt lat="45.3808" lon="5.81566">
        <ele>1847.8</ele>
        <time>2017-01-21T11:19:05Z</time>
      </trkpt>
      <trkpt lat="45.38081" lon="5.81565">
        <ele>1850.8</ele>
        <time>2017-01-21T11:19:10Z</time>
      </trkpt>
      <trkpt lat="45.3808" lon="5.81564">
        <ele>1852</ele>
        <time>2017-01-21T11:19:15Z</time>
      </trkpt>
      <trkpt lat="45.38079" lon="5.81562">
        <ele>1847</ele>
        <time>2017-01-21T11:19:20Z</time>
      </trkpt>
      <trkpt lat="45.38078" lon="5.81562">
        <ele>1848.2</ele>
        <time>2017-01-21T11:19:25Z</time>
      </trkpt>
      <trkpt lat="45.38078" lon="5.81562">
        <ele>1849</ele>
        <time>2017-01-21T11:19:30Z</time>
      </trkpt>
      <trkpt lat="45.38078" lon="5.81563">
        <ele>1849.6</ele>
        <time>2017-01-21T11:19:35Z</time>
      </trkpt>
      <trkpt lat="45.38078" lon="5.81563">
        <ele>1850</ele>
        <time>2017-01-21T11:19:40Z</time>
      </trkpt>
      <trkpt lat="45.38078" lon="5.81563">
        <ele>1850.2</ele>
        <time>2017-01-21T11:19:45Z</time>
      </trkpt>
      <trkpt lat="45.38078" lon="5.81563">
        <ele>1850.2</ele>
        <time>2017-01-21T11:19:50Z</time>
      </trkpt>
      <trkpt lat="45.38078" lon="5.81563">
        <ele>1850.4</ele>
        <time>2017-01-21T11:19:55Z</time>
      </trkpt>
      <trkpt lat="45.38078" lon="5.81563">
        <ele>1850.4</ele>
        <time>2017-01-21T11:20:00Z</time>
      </trkpt>
      <trkpt lat="45.38077" lon="5.81563">
        <ele>1850.4</ele>
        <time>2017-01-21T11:20:05Z</time>
      </trkpt>
      <trkpt lat="45.38077" lon="5.81563">
        <ele>1850.6</ele>
        <time>2017-01-21T11:20:10Z</time>
      </trkpt>
      <trkpt lat="45.38077" lon="5.81562">
        <ele>1850.6</ele>
        <time>2017-01-21T11:20:15Z</time>
      </trkpt>
      <trkpt lat="45.38077" lon="5.81562">
        <ele>1850.8</ele>
        <time>2017-01-21T11:20:20Z</time>
      </trkpt>
      <trkpt lat="45.38077" lon="5.81562">
        <ele>1850.8</ele>
        <time>2017-01-21T11:20:25Z</time>
      </trkpt>
      <trkpt lat="45.38077" lon="5.81562">
        <ele>1850.8</ele>
        <time>2017-01-21T11:20:30Z</time>
      </trkpt>
      <trkpt lat="45.38077" lon="5.81562">
        <ele>1850.8</ele>
        <time>2017-01-21T11:20:35Z</time>
      </trkpt>
      <trkpt lat="45.38077" lon="5.81562">
        <ele>1850.8</ele>
        <time>2017-01-21T11:20:40Z</time>
      </trkpt>
      <trkpt lat="45.38077" lon="5.81562">
        <ele>1850.8</ele>
        <time>2017-01-21T11:20:45Z</time>
      </trkpt>
      <trkpt lat="45.38077" lon="5.81562">
        <ele>1850.8</ele>
        <time>2017-01-21T11:20:50Z</time>
      </trkpt>
      <trkpt lat="45.38077" lon="5.81562">
        <ele>1850.8</ele>
        <time>2017-01-21T11:20:55Z</time>
      </trkpt>
      <trkpt lat="45.38077" lon="5.81562">
        <ele>1850.8</ele>
        <time>2017-01-21T11:21:00Z</time>
      </trkpt>
      <trkpt lat="45.38075" lon="5.81561">
        <ele>1853.6</ele>
        <time>2017-01-21T11:21:05Z</time>
      </trkpt>
      <trkpt lat="45.38074" lon="5.8156">
        <ele>1851.4</ele>
        <time>2017-01-21T11:21:11Z</time>
      </trkpt>
      <trkpt lat="45.38071" lon="5.81558">
        <ele>1852.6</ele>
        <time>2017-01-21T11:21:16Z</time>
      </trkpt>
      <trkpt lat="45.38071" lon="5.81558">
        <ele>1852.2</ele>
        <time>2017-01-21T11:21:21Z</time>
      </trkpt>
      <trkpt lat="45.38068" lon="5.81556">
        <ele>1853</ele>
        <time>2017-01-21T11:21:27Z</time>
      </trkpt>
      <trkpt lat="45.38065" lon="5.81555">
        <ele>1852.4</ele>
        <time>2017-01-21T11:21:32Z</time>
      </trkpt>
      <trkpt lat="45.38062" lon="5.81554">
        <ele>1851.8</ele>
        <time>2017-01-21T11:21:37Z</time>
      </trkpt>
      <trkpt lat="45.38059" lon="5.81553">
        <ele>1853</ele>
        <time>2017-01-21T11:21:42Z</time>
      </trkpt>
      <trkpt lat="45.38056" lon="5.81551">
        <ele>1853</ele>
        <time>2017-01-21T11:21:47Z</time>
      </trkpt>
      <trkpt lat="45.38054" lon="5.8155">
        <ele>1854</ele>
        <time>2017-01-21T11:21:52Z</time>
      </trkpt>
      <trkpt lat="45.38052" lon="5.81549">
        <ele>1855.2</ele>
        <time>2017-01-21T11:21:57Z</time>
      </trkpt>
      <trkpt lat="45.38049" lon="5.81549">
        <ele>1854.2</ele>
        <time>2017-01-21T11:22:02Z</time>
      </trkpt>
      <trkpt lat="45.38046" lon="5.81548">
        <ele>1855</ele>
        <time>2017-01-21T11:22:07Z</time>
      </trkpt>
      <trkpt lat="45.38043" lon="5.81546">
        <ele>1855.8</ele>
        <time>2017-01-21T11:22:12Z</time>
      </trkpt>
      <trkpt lat="45.38041" lon="5.81545">
        <ele>1857.8</ele>
        <time>2017-01-21T11:22:17Z</time>
      </trkpt>
      <trkpt lat="45.38041" lon="5.81545">
        <ele>1856.2</ele>
        <time>2017-01-21T11:22:22Z</time>
      </trkpt>
      <trkpt lat="45.38039" lon="5.81546">
        <ele>1857.8</ele>
        <time>2017-01-21T11:22:27Z</time>
      </trkpt>
      <trkpt lat="45.38037" lon="5.81545">
        <ele>1856.4</ele>
        <time>2017-01-21T11:22:32Z</time>
      </trkpt>
      <trkpt lat="45.38035" lon="5.81543">
        <ele>1859.6</ele>
        <time>2017-01-21T11:22:37Z</time>
      </trkpt>
      <trkpt lat="45.38035" lon="5.81543">
        <ele>1859.8</ele>
        <time>2017-01-21T11:22:42Z</time>
      </trkpt>
      <trkpt lat="45.38032" lon="5.81542">
        <ele>1858.2</ele>
        <time>2017-01-21T11:22:47Z</time>
      </trkpt>
      <trkpt lat="45.38028" lon="5.8154">
        <ele>1859.6</ele>
        <time>2017-01-21T11:22:52Z</time>
      </trkpt>
      <trkpt lat="45.38026" lon="5.81539">
        <ele>1862.2</ele>
        <time>2017-01-21T11:22:57Z</time>
      </trkpt>
      <trkpt lat="45.38022" lon="5.81537">
        <ele>1859.8</ele>
        <time>2017-01-21T11:23:02Z</time>
      </trkpt>
      <trkpt lat="45.38018" lon="5.81536">
        <ele>1861</ele>
        <time>2017-01-21T11:23:07Z</time>
      </trkpt>
      <trkpt lat="45.38015" lon="5.81534">
        <ele>1861.4</ele>
        <time>2017-01-21T11:23:12Z</time>
      </trkpt>
      <trkpt lat="45.38014" lon="5.81533">
        <ele>1860.8</ele>
        <time>2017-01-21T11:23:17Z</time>
      </trkpt>
      <trkpt lat="45.38013" lon="5.81532">
        <ele>1862.6</ele>
        <time>2017-01-21T11:23:22Z</time>
      </trkpt>
      <trkpt lat="45.3801" lon="5.81531">
        <ele>1862.4</ele>
        <time>2017-01-21T11:23:27Z</time>
      </trkpt>
      <trkpt lat="45.38009" lon="5.8153">
        <ele>1863.4</ele>
        <time>2017-01-21T11:23:32Z</time>
      </trkpt>
      <trkpt lat="45.38009" lon="5.8153">
        <ele>1863.2</ele>
        <time>2017-01-21T11:23:37Z</time>
      </trkpt>
      <trkpt lat="45.38009" lon="5.8153">
        <ele>1863</ele>
        <time>2017-01-21T11:23:42Z</time>
      </trkpt>
      <trkpt lat="45.38007" lon="5.81528">
        <ele>1863</ele>
        <time>2017-01-21T11:23:47Z</time>
      </trkpt>
      <trkpt lat="45.38003" lon="5.81526">
        <ele>1860.4</ele>
        <time>2017-01-21T11:23:52Z</time>
      </trkpt>
      <trkpt lat="45.38001" lon="5.81526">
        <ele>1866.4</ele>
        <time>2017-01-21T11:23:57Z</time>
      </trkpt>
      <trkpt lat="45.37997" lon="5.81524">
        <ele>1866.2</ele>
        <time>2017-01-21T11:24:02Z</time>
      </trkpt>
      <trkpt lat="45.37991" lon="5.81521">
        <ele>1863.6</ele>
        <time>2017-01-21T11:24:08Z</time>
      </trkpt>
      <trkpt lat="45.37988" lon="5.81516">
        <ele>1862</ele>
        <time>2017-01-21T11:24:14Z</time>
      </trkpt>
      <trkpt lat="45.37988" lon="5.81514">
        <ele>1860.6</ele>
        <time>2017-01-21T11:24:19Z</time>
      </trkpt>
      <trkpt lat="45.37988" lon="5.81514">
        <ele>1860.8</ele>
        <time>2017-01-21T11:24:24Z</time>
      </trkpt>
      <trkpt lat="45.37988" lon="5.81514">
        <ele>1860.8</ele>
        <time>2017-01-21T11:24:29Z</time>
      </trkpt>
      <trkpt lat="45.37988" lon="5.81514">
        <ele>1861</ele>
        <time>2017-01-21T11:24:34Z</time>
      </trkpt>
      <trkpt lat="45.37988" lon="5.81514">
        <ele>1861</ele>
        <time>2017-01-21T11:24:39Z</time>
      </trkpt>
      <trkpt lat="45.37988" lon="5.81514">
        <ele>1861</ele>
        <time>2017-01-21T11:24:44Z</time>
      </trkpt>
      <trkpt lat="45.37988" lon="5.81514">
        <ele>1861.2</ele>
        <time>2017-01-21T11:24:49Z</time>
      </trkpt>
      <trkpt lat="45.37987" lon="5.81513">
        <ele>1861.2</ele>
        <time>2017-01-21T11:24:54Z</time>
      </trkpt>
      <trkpt lat="45.37987" lon="5.81513">
        <ele>1861.2</ele>
        <time>2017-01-21T11:24:59Z</time>
      </trkpt>
      <trkpt lat="45.37983" lon="5.81508">
        <ele>1860.6</ele>
        <time>2017-01-21T11:25:04Z</time>
      </trkpt>
      <trkpt lat="45.37982" lon="5.81507">
        <ele>1860.8</ele>
        <time>2017-01-21T11:25:09Z</time>
      </trkpt>
      <trkpt lat="45.37981" lon="5.81507">
        <ele>1860.6</ele>
        <time>2017-01-21T11:25:14Z</time>
      </trkpt>
      <trkpt lat="45.3798" lon="5.81506">
        <ele>1861.8</ele>
        <time>2017-01-21T11:25:19Z</time>
      </trkpt>
      <trkpt lat="45.37979" lon="5.81506">
        <ele>1861.2</ele>
        <time>2017-01-21T11:25:24Z</time>
      </trkpt>
      <trkpt lat="45.37976" lon="5.81507">
        <ele>1861.8</ele>
        <time>2017-01-21T11:25:29Z</time>
      </trkpt>
      <trkpt lat="45.37974" lon="5.8151">
        <ele>1861.8</ele>
        <time>2017-01-21T11:25:34Z</time>
      </trkpt>
      <trkpt lat="45.37974" lon="5.81513">
        <ele>1860</ele>
        <time>2017-01-21T11:25:39Z</time>
      </trkpt>
      <trkpt lat="45.37973" lon="5.81515">
        <ele>1858.4</ele>
        <time>2017-01-21T11:25:44Z</time>
      </trkpt>
      <trkpt lat="45.37972" lon="5.81515">
        <ele>1860</ele>
        <time>2017-01-21T11:25:49Z</time>
      </trkpt>
      <trkpt lat="45.37969" lon="5.81515">
        <ele>1863.4</ele>
        <time>2017-01-21T11:25:54Z</time>
      </trkpt>
      <trkpt lat="45.37966" lon="5.81516">
        <ele>1864.2</ele>
        <time>2017-01-21T11:25:59Z</time>
      </trkpt>
      <trkpt lat="45.37963" lon="5.81516">
        <ele>1865.2</ele>
        <time>2017-01-21T11:26:04Z</time>
      </trkpt>
      <trkpt lat="45.3796" lon="5.81514">
        <ele>1862.2</ele>
        <time>2017-01-21T11:26:09Z</time>
      </trkpt>
      <trkpt lat="45.37959" lon="5.81514">
        <ele>1864.2</ele>
        <time>2017-01-21T11:26:14Z</time>
      </trkpt>
      <trkpt lat="45.37959" lon="5.81514">
        <ele>1864</ele>
        <time>2017-01-21T11:26:19Z</time>
      </trkpt>
      <trkpt lat="45.37959" lon="5.81514">
        <ele>1864</ele>
        <time>2017-01-21T11:26:24Z</time>
      </trkpt>
      <trkpt lat="45.37959" lon="5.81514">
        <ele>1864</ele>
        <time>2017-01-21T11:26:29Z</time>
      </trkpt>
      <trkpt lat="45.37959" lon="5.81514">
        <ele>1864</ele>
        <time>2017-01-21T11:26:34Z</time>
      </trkpt>
      <trkpt lat="45.37959" lon="5.81514">
        <ele>1864</ele>
        <time>2017-01-21T11:26:39Z</time>
      </trkpt>
      <trkpt lat="45.37959" lon="5.81514">
        <ele>1864</ele>
        <time>2017-01-21T11:26:44Z</time>
      </trkpt>
      <trkpt lat="45.37959" lon="5.81514">
        <ele>1864</ele>
        <time>2017-01-21T11:26:49Z</time>
      </trkpt>
      <trkpt lat="45.37959" lon="5.81514">
        <ele>1864</ele>
        <time>2017-01-21T11:26:54Z</time>
      </trkpt>
      <trkpt lat="45.37959" lon="5.81514">
        <ele>1863.8</ele>
        <time>2017-01-21T11:26:59Z</time>
      </trkpt>
      <trkpt lat="45.37959" lon="5.81514">
        <ele>1863.8</ele>
        <time>2017-01-21T11:27:04Z</time>
      </trkpt>
      <trkpt lat="45.37959" lon="5.81514">
        <ele>1863.8</ele>
        <time>2017-01-21T11:27:09Z</time>
      </trkpt>
      <trkpt lat="45.37959" lon="5.81514">
        <ele>1863.8</ele>
        <time>2017-01-21T11:27:14Z</time>
      </trkpt>
      <trkpt lat="45.37959" lon="5.81514">
        <ele>1863.8</ele>
        <time>2017-01-21T11:27:19Z</time>
      </trkpt>
      <trkpt lat="45.37959" lon="5.81513">
        <ele>1863.8</ele>
        <time>2017-01-21T11:27:24Z</time>
      </trkpt>
      <trkpt lat="45.37959" lon="5.81513">
        <ele>1861.4</ele>
        <time>2017-01-21T11:27:29Z</time>
      </trkpt>
      <trkpt lat="45.37955" lon="5.81512">
        <ele>1866.2</ele>
        <time>2017-01-21T11:27:34Z</time>
      </trkpt>
      <trkpt lat="45.37952" lon="5.81511">
        <ele>1867</ele>
        <time>2017-01-21T11:27:40Z</time>
      </trkpt>
      <trkpt lat="45.37949" lon="5.81509">
        <ele>1864.4</ele>
        <time>2017-01-21T11:27:45Z</time>
      </trkpt>
      <trkpt lat="45.37945" lon="5.81506">
        <ele>1865.4</ele>
        <time>2017-01-21T11:27:50Z</time>
      </trkpt>
      <trkpt lat="45.37942" lon="5.81504">
        <ele>1865.8</ele>
        <time>2017-01-21T11:27:55Z</time>
      </trkpt>
      <trkpt lat="45.37939" lon="5.81503">
        <ele>1867.4</ele>
        <time>2017-01-21T11:28:00Z</time>
      </trkpt>
      <trkpt lat="45.37937" lon="5.81502">
        <ele>1866.2</ele>
        <time>2017-01-21T11:28:05Z</time>
      </trkpt>
      <trkpt lat="45.37935" lon="5.815">
        <ele>1868.6</ele>
        <time>2017-01-21T11:28:10Z</time>
      </trkpt>
      <trkpt lat="45.37933" lon="5.81498">
        <ele>1867.2</ele>
        <time>2017-01-21T11:28:15Z</time>
      </trkpt>
      <trkpt lat="45.37932" lon="5.81496">
        <ele>1869</ele>
        <time>2017-01-21T11:28:20Z</time>
      </trkpt>
      <trkpt lat="45.37928" lon="5.81494">
        <ele>1866.8</ele>
        <time>2017-01-21T11:28:25Z</time>
      </trkpt>
      <trkpt lat="45.37925" lon="5.81492">
        <ele>1870.6</ele>
        <time>2017-01-21T11:28:30Z</time>
      </trkpt>
      <trkpt lat="45.37922" lon="5.81491">
        <ele>1868</ele>
        <time>2017-01-21T11:28:35Z</time>
      </trkpt>
      <trkpt lat="45.37919" lon="5.81489">
        <ele>1869.8</ele>
        <time>2017-01-21T11:28:40Z</time>
      </trkpt>
      <trkpt lat="45.37916" lon="5.81484">
        <ele>1868.8</ele>
        <time>2017-01-21T11:28:45Z</time>
      </trkpt>
      <trkpt lat="45.37913" lon="5.81481">
        <ele>1869.2</ele>
        <time>2017-01-21T11:28:50Z</time>
      </trkpt>
      <trkpt lat="45.37906" lon="5.81478">
        <ele>1867.4</ele>
        <time>2017-01-21T11:28:55Z</time>
      </trkpt>
      <trkpt lat="45.37902" lon="5.81477">
        <ele>1867.6</ele>
        <time>2017-01-21T11:29:00Z</time>
      </trkpt>
      <trkpt lat="45.37902" lon="5.81477">
        <ele>1867.8</ele>
        <time>2017-01-21T11:29:05Z</time>
      </trkpt>
      <trkpt lat="45.37901" lon="5.81477">
        <ele>1867.4</ele>
        <time>2017-01-21T11:29:10Z</time>
      </trkpt>
      <trkpt lat="45.37897" lon="5.81477">
        <ele>1870</ele>
        <time>2017-01-21T11:29:15Z</time>
      </trkpt>
      <trkpt lat="45.37892" lon="5.81476">
        <ele>1868.2</ele>
        <time>2017-01-21T11:29:20Z</time>
      </trkpt>
      <trkpt lat="45.37886" lon="5.81474">
        <ele>1867</ele>
        <time>2017-01-21T11:29:25Z</time>
      </trkpt>
      <trkpt lat="45.37883" lon="5.81471">
        <ele>1865.8</ele>
        <time>2017-01-21T11:29:30Z</time>
      </trkpt>
      <trkpt lat="45.37881" lon="5.8147">
        <ele>1868.4</ele>
        <time>2017-01-21T11:29:35Z</time>
      </trkpt>
      <trkpt lat="45.37878" lon="5.8147">
        <ele>1869.6</ele>
        <time>2017-01-21T11:29:40Z</time>
      </trkpt>
      <trkpt lat="45.37875" lon="5.8147">
        <ele>1870.4</ele>
        <time>2017-01-21T11:29:45Z</time>
      </trkpt>
      <trkpt lat="45.37872" lon="5.81469">
        <ele>1871.6</ele>
        <time>2017-01-21T11:29:50Z</time>
      </trkpt>
      <trkpt lat="45.37869" lon="5.81468">
        <ele>1869.2</ele>
        <time>2017-01-21T11:29:55Z</time>
      </trkpt>
      <trkpt lat="45.37866" lon="5.81467">
        <ele>1869.4</ele>
        <time>2017-01-21T11:30:00Z</time>
      </trkpt>
      <trkpt lat="45.3786" lon="5.81467">
        <ele>1865.8</ele>
        <time>2017-01-21T11:30:05Z</time>
      </trkpt>
      <trkpt lat="45.37856" lon="5.81469">
        <ele>1869.8</ele>
        <time>2017-01-21T11:30:10Z</time>
      </trkpt>
      <trkpt lat="45.37852" lon="5.81472">
        <ele>1871</ele>
        <time>2017-01-21T11:30:15Z</time>
      </trkpt>
      <trkpt lat="45.37846" lon="5.81474">
        <ele>1870</ele>
        <time>2017-01-21T11:30:20Z</time>
      </trkpt>
      <trkpt lat="45.3784" lon="5.81476">
        <ele>1869.8</ele>
        <time>2017-01-21T11:30:25Z</time>
      </trkpt>
      <trkpt lat="45.37836" lon="5.81478">
        <ele>1868</ele>
        <time>2017-01-21T11:30:30Z</time>
      </trkpt>
      <trkpt lat="45.37831" lon="5.8148">
        <ele>1869.4</ele>
        <time>2017-01-21T11:30:35Z</time>
      </trkpt>
      <trkpt lat="45.37827" lon="5.81481">
        <ele>1870</ele>
        <time>2017-01-21T11:30:40Z</time>
      </trkpt>
      <trkpt lat="45.37824" lon="5.81482">
        <ele>1869.8</ele>
        <time>2017-01-21T11:30:45Z</time>
      </trkpt>
      <trkpt lat="45.3782" lon="5.81482">
        <ele>1872.8</ele>
        <time>2017-01-21T11:30:50Z</time>
      </trkpt>
      <trkpt lat="45.37817" lon="5.81482">
        <ele>1871.6</ele>
        <time>2017-01-21T11:30:55Z</time>
      </trkpt>
      <trkpt lat="45.37814" lon="5.81481">
        <ele>1871.2</ele>
        <time>2017-01-21T11:31:00Z</time>
      </trkpt>
      <trkpt lat="45.37811" lon="5.81481">
        <ele>1874.2</ele>
        <time>2017-01-21T11:31:05Z</time>
      </trkpt>
      <trkpt lat="45.37808" lon="5.81481">
        <ele>1874.6</ele>
        <time>2017-01-21T11:31:10Z</time>
      </trkpt>
      <trkpt lat="45.37805" lon="5.81481">
        <ele>1875.6</ele>
        <time>2017-01-21T11:31:15Z</time>
      </trkpt>
      <trkpt lat="45.37801" lon="5.81481">
        <ele>1877.2</ele>
        <time>2017-01-21T11:31:20Z</time>
      </trkpt>
      <trkpt lat="45.37798" lon="5.81481">
        <ele>1877</ele>
        <time>2017-01-21T11:31:25Z</time>
      </trkpt>
      <trkpt lat="45.37795" lon="5.8148">
        <ele>1878.6</ele>
        <time>2017-01-21T11:31:30Z</time>
      </trkpt>
      <trkpt lat="45.37793" lon="5.8148">
        <ele>1878</ele>
        <time>2017-01-21T11:31:35Z</time>
      </trkpt>
      <trkpt lat="45.37792" lon="5.8148">
        <ele>1878.4</ele>
        <time>2017-01-21T11:31:40Z</time>
      </trkpt>
      <trkpt lat="45.37792" lon="5.8148">
        <ele>1878.6</ele>
        <time>2017-01-21T11:31:45Z</time>
      </trkpt>
      <trkpt lat="45.37792" lon="5.8148">
        <ele>1878.8</ele>
        <time>2017-01-21T11:31:50Z</time>
      </trkpt>
      <trkpt lat="45.37791" lon="5.8148">
        <ele>1880.8</ele>
        <time>2017-01-21T11:31:55Z</time>
      </trkpt>
      <trkpt lat="45.3779" lon="5.8148">
        <ele>1882.2</ele>
        <time>2017-01-21T11:32:00Z</time>
      </trkpt>
      <trkpt lat="45.37787" lon="5.81479">
        <ele>1879.6</ele>
        <time>2017-01-21T11:32:05Z</time>
      </trkpt>
      <trkpt lat="45.37785" lon="5.81479">
        <ele>1882.2</ele>
        <time>2017-01-21T11:32:10Z</time>
      </trkpt>
      <trkpt lat="45.37783" lon="5.81479">
        <ele>1883.2</ele>
        <time>2017-01-21T11:32:15Z</time>
      </trkpt>
      <trkpt lat="45.37781" lon="5.81478">
        <ele>1880.8</ele>
        <time>2017-01-21T11:32:20Z</time>
      </trkpt>
      <trkpt lat="45.37779" lon="5.81478">
        <ele>1881.4</ele>
        <time>2017-01-21T11:32:25Z</time>
      </trkpt>
      <trkpt lat="45.37777" lon="5.81477">
        <ele>1882.8</ele>
        <time>2017-01-21T11:32:30Z</time>
      </trkpt>
      <trkpt lat="45.37775" lon="5.81477">
        <ele>1887</ele>
        <time>2017-01-21T11:32:35Z</time>
      </trkpt>
      <trkpt lat="45.37773" lon="5.81477">
        <ele>1889</ele>
        <time>2017-01-21T11:32:40Z</time>
      </trkpt>
      <trkpt lat="45.37771" lon="5.81476">
        <ele>1886.8</ele>
        <time>2017-01-21T11:32:45Z</time>
      </trkpt>
      <trkpt lat="45.37769" lon="5.81476">
        <ele>1888.4</ele>
        <time>2017-01-21T11:32:50Z</time>
      </trkpt>
      <trkpt lat="45.37768" lon="5.81476">
        <ele>1888</ele>
        <time>2017-01-21T11:32:55Z</time>
      </trkpt>
      <trkpt lat="45.37766" lon="5.81476">
        <ele>1887</ele>
        <time>2017-01-21T11:33:00Z</time>
      </trkpt>
      <trkpt lat="45.37764" lon="5.81477">
        <ele>1887.6</ele>
        <time>2017-01-21T11:33:05Z</time>
      </trkpt>
      <trkpt lat="45.37762" lon="5.81477">
        <ele>1887.4</ele>
        <time>2017-01-21T11:33:10Z</time>
      </trkpt>
      <trkpt lat="45.3776" lon="5.81478">
        <ele>1888</ele>
        <time>2017-01-21T11:33:15Z</time>
      </trkpt>
      <trkpt lat="45.37759" lon="5.81477">
        <ele>1888.6</ele>
        <time>2017-01-21T11:33:20Z</time>
      </trkpt>
      <trkpt lat="45.37757" lon="5.81476">
        <ele>1888.8</ele>
        <time>2017-01-21T11:33:25Z</time>
      </trkpt>
      <trkpt lat="45.37755" lon="5.81476">
        <ele>1891.2</ele>
        <time>2017-01-21T11:33:30Z</time>
      </trkpt>
      <trkpt lat="45.37753" lon="5.81476">
        <ele>1891.4</ele>
        <time>2017-01-21T11:33:35Z</time>
      </trkpt>
      <trkpt lat="45.37752" lon="5.81475">
        <ele>1891.2</ele>
        <time>2017-01-21T11:33:40Z</time>
      </trkpt>
      <trkpt lat="45.3775" lon="5.81475">
        <ele>1890.2</ele>
        <time>2017-01-21T11:33:45Z</time>
      </trkpt>
      <trkpt lat="45.37748" lon="5.81475">
        <ele>1889</ele>
        <time>2017-01-21T11:33:50Z</time>
      </trkpt>
      <trkpt lat="45.37747" lon="5.81474">
        <ele>1893.4</ele>
        <time>2017-01-21T11:33:55Z</time>
      </trkpt>
      <trkpt lat="45.37745" lon="5.81473">
        <ele>1895.6</ele>
        <time>2017-01-21T11:34:00Z</time>
      </trkpt>
      <trkpt lat="45.37744" lon="5.81472">
        <ele>1894</ele>
        <time>2017-01-21T11:34:05Z</time>
      </trkpt>
      <trkpt lat="45.37742" lon="5.81472">
        <ele>1894.8</ele>
        <time>2017-01-21T11:34:10Z</time>
      </trkpt>
      <trkpt lat="45.3774" lon="5.81472">
        <ele>1892</ele>
        <time>2017-01-21T11:34:15Z</time>
      </trkpt>
      <trkpt lat="45.37739" lon="5.81472">
        <ele>1892.4</ele>
        <time>2017-01-21T11:34:20Z</time>
      </trkpt>
      <trkpt lat="45.37737" lon="5.81471">
        <ele>1892.2</ele>
        <time>2017-01-21T11:34:25Z</time>
      </trkpt>
      <trkpt lat="45.37735" lon="5.81471">
        <ele>1891.6</ele>
        <time>2017-01-21T11:34:30Z</time>
      </trkpt>
      <trkpt lat="45.37733" lon="5.81472">
        <ele>1893.4</ele>
        <time>2017-01-21T11:34:35Z</time>
      </trkpt>
      <trkpt lat="45.37731" lon="5.81472">
        <ele>1895.2</ele>
        <time>2017-01-21T11:34:40Z</time>
      </trkpt>
      <trkpt lat="45.37729" lon="5.81472">
        <ele>1897.6</ele>
        <time>2017-01-21T11:34:45Z</time>
      </trkpt>
      <trkpt lat="45.37728" lon="5.81471">
        <ele>1897.4</ele>
        <time>2017-01-21T11:34:50Z</time>
      </trkpt>
      <trkpt lat="45.37726" lon="5.8147">
        <ele>1898</ele>
        <time>2017-01-21T11:34:55Z</time>
      </trkpt>
      <trkpt lat="45.37725" lon="5.8147">
        <ele>1896.6</ele>
        <time>2017-01-21T11:35:00Z</time>
      </trkpt>
      <trkpt lat="45.37724" lon="5.81469">
        <ele>1894.6</ele>
        <time>2017-01-21T11:35:05Z</time>
      </trkpt>
      <trkpt lat="45.37721" lon="5.81469">
        <ele>1900.2</ele>
        <time>2017-01-21T11:35:10Z</time>
      </trkpt>
      <trkpt lat="45.37719" lon="5.81469">
        <ele>1901.4</ele>
        <time>2017-01-21T11:35:15Z</time>
      </trkpt>
      <trkpt lat="45.37717" lon="5.81469">
        <ele>1900.6</ele>
        <time>2017-01-21T11:35:20Z</time>
      </trkpt>
      <trkpt lat="45.37715" lon="5.81468">
        <ele>1901.6</ele>
        <time>2017-01-21T11:35:25Z</time>
      </trkpt>
      <trkpt lat="45.37712" lon="5.81468">
        <ele>1901.8</ele>
        <time>2017-01-21T11:35:30Z</time>
      </trkpt>
      <trkpt lat="45.3771" lon="5.81467">
        <ele>1902.6</ele>
        <time>2017-01-21T11:35:35Z</time>
      </trkpt>
      <trkpt lat="45.37707" lon="5.81466">
        <ele>1899.4</ele>
        <time>2017-01-21T11:35:40Z</time>
      </trkpt>
      <trkpt lat="45.37706" lon="5.81465">
        <ele>1900.2</ele>
        <time>2017-01-21T11:35:45Z</time>
      </trkpt>
      <trkpt lat="45.37705" lon="5.81464">
        <ele>1901.6</ele>
        <time>2017-01-21T11:35:50Z</time>
      </trkpt>
      <trkpt lat="45.37704" lon="5.81462">
        <ele>1903.6</ele>
        <time>2017-01-21T11:35:55Z</time>
      </trkpt>
      <trkpt lat="45.37703" lon="5.8146">
        <ele>1902</ele>
        <time>2017-01-21T11:36:00Z</time>
      </trkpt>
      <trkpt lat="45.37699" lon="5.81456">
        <ele>1903.2</ele>
        <time>2017-01-21T11:36:05Z</time>
      </trkpt>
      <trkpt lat="45.37698" lon="5.81453">
        <ele>1903.4</ele>
        <time>2017-01-21T11:36:10Z</time>
      </trkpt>
      <trkpt lat="45.37697" lon="5.81451">
        <ele>1905.2</ele>
        <time>2017-01-21T11:36:15Z</time>
      </trkpt>
      <trkpt lat="45.37695" lon="5.81449">
        <ele>1909.8</ele>
        <time>2017-01-21T11:36:20Z</time>
      </trkpt>
      <trkpt lat="45.37693" lon="5.81447">
        <ele>1904.2</ele>
        <time>2017-01-21T11:36:25Z</time>
      </trkpt>
      <trkpt lat="45.37691" lon="5.81444">
        <ele>1905.4</ele>
        <time>2017-01-21T11:36:30Z</time>
      </trkpt>
      <trkpt lat="45.37689" lon="5.81443">
        <ele>1907.4</ele>
        <time>2017-01-21T11:36:35Z</time>
      </trkpt>
      <trkpt lat="45.37688" lon="5.81441">
        <ele>1906.2</ele>
        <time>2017-01-21T11:36:40Z</time>
      </trkpt>
      <trkpt lat="45.37687" lon="5.8144">
        <ele>1905.4</ele>
        <time>2017-01-21T11:36:45Z</time>
      </trkpt>
      <trkpt lat="45.37684" lon="5.81439">
        <ele>1905.6</ele>
        <time>2017-01-21T11:36:50Z</time>
      </trkpt>
      <trkpt lat="45.37681" lon="5.81437">
        <ele>1903.4</ele>
        <time>2017-01-21T11:36:55Z</time>
      </trkpt>
      <trkpt lat="45.37678" lon="5.81435">
        <ele>1904</ele>
        <time>2017-01-21T11:37:00Z</time>
      </trkpt>
      <trkpt lat="45.37675" lon="5.81433">
        <ele>1904.8</ele>
        <time>2017-01-21T11:37:05Z</time>
      </trkpt>
      <trkpt lat="45.37673" lon="5.81431">
        <ele>1903.6</ele>
        <time>2017-01-21T11:37:10Z</time>
      </trkpt>
      <trkpt lat="45.37669" lon="5.81429">
        <ele>1905</ele>
        <time>2017-01-21T11:37:15Z</time>
      </trkpt>
      <trkpt lat="45.37666" lon="5.81428">
        <ele>1905</ele>
        <time>2017-01-21T11:37:20Z</time>
      </trkpt>
      <trkpt lat="45.37666" lon="5.81428">
        <ele>1904.8</ele>
        <time>2017-01-21T11:37:25Z</time>
      </trkpt>
      <trkpt lat="45.37664" lon="5.81427">
        <ele>1907.4</ele>
        <time>2017-01-21T11:37:30Z</time>
      </trkpt>
      <trkpt lat="45.37662" lon="5.81425">
        <ele>1904.8</ele>
        <time>2017-01-21T11:37:35Z</time>
      </trkpt>
      <trkpt lat="45.37659" lon="5.81423">
        <ele>1905.6</ele>
        <time>2017-01-21T11:37:40Z</time>
      </trkpt>
      <trkpt lat="45.37657" lon="5.81422">
        <ele>1904.6</ele>
        <time>2017-01-21T11:37:45Z</time>
      </trkpt>
      <trkpt lat="45.37657" lon="5.81422">
        <ele>1905</ele>
        <time>2017-01-21T11:37:50Z</time>
      </trkpt>
      <trkpt lat="45.37657" lon="5.81423">
        <ele>1905.4</ele>
        <time>2017-01-21T11:37:55Z</time>
      </trkpt>
      <trkpt lat="45.37655" lon="5.81422">
        <ele>1900.6</ele>
        <time>2017-01-21T11:38:00Z</time>
      </trkpt>
      <trkpt lat="45.37653" lon="5.81421">
        <ele>1902.2</ele>
        <time>2017-01-21T11:38:05Z</time>
      </trkpt>
      <trkpt lat="45.3765" lon="5.8142">
        <ele>1908</ele>
        <time>2017-01-21T11:38:10Z</time>
      </trkpt>
      <trkpt lat="45.37648" lon="5.81419">
        <ele>1906.6</ele>
        <time>2017-01-21T11:38:15Z</time>
      </trkpt>
      <trkpt lat="45.37645" lon="5.81417">
        <ele>1908.2</ele>
        <time>2017-01-21T11:38:20Z</time>
      </trkpt>
      <trkpt lat="45.37645" lon="5.81416">
        <ele>1911</ele>
        <time>2017-01-21T11:38:25Z</time>
      </trkpt>
      <trkpt lat="45.37646" lon="5.81416">
        <ele>1911.8</ele>
        <time>2017-01-21T11:38:30Z</time>
      </trkpt>
      <trkpt lat="45.37646" lon="5.81416">
        <ele>1911.2</ele>
        <time>2017-01-21T11:38:35Z</time>
      </trkpt>
      <trkpt lat="45.37646" lon="5.81416">
        <ele>1910.6</ele>
        <time>2017-01-21T11:38:40Z</time>
      </trkpt>
      <trkpt lat="45.37647" lon="5.81416">
        <ele>1910.4</ele>
        <time>2017-01-21T11:38:45Z</time>
      </trkpt>
      <trkpt lat="45.37649" lon="5.81416">
        <ele>1910.6</ele>
        <time>2017-01-21T11:38:50Z</time>
      </trkpt>
      <trkpt lat="45.37651" lon="5.81415">
        <ele>1911</ele>
        <time>2017-01-21T11:38:55Z</time>
      </trkpt>
      <trkpt lat="45.37654" lon="5.81414">
        <ele>1913.2</ele>
        <time>2017-01-21T11:39:00Z</time>
      </trkpt>
      <trkpt lat="45.37657" lon="5.81413">
        <ele>1912</ele>
        <time>2017-01-21T11:39:05Z</time>
      </trkpt>
      <trkpt lat="45.37658" lon="5.81413">
        <ele>1910.8</ele>
        <time>2017-01-21T11:39:10Z</time>
      </trkpt>
      <trkpt lat="45.3766" lon="5.81412">
        <ele>1911.4</ele>
        <time>2017-01-21T11:39:15Z</time>
      </trkpt>
      <trkpt lat="45.37661" lon="5.81412">
        <ele>1911.8</ele>
        <time>2017-01-21T11:39:20Z</time>
      </trkpt>
      <trkpt lat="45.37664" lon="5.81412">
        <ele>1911.6</ele>
        <time>2017-01-21T11:39:25Z</time>
      </trkpt>
      <trkpt lat="45.37666" lon="5.81411">
        <ele>1912.6</ele>
        <time>2017-01-21T11:39:30Z</time>
      </trkpt>
      <trkpt lat="45.37666" lon="5.81411">
        <ele>1912.6</ele>
        <time>2017-01-21T11:39:35Z</time>
      </trkpt>
      <trkpt lat="45.37665" lon="5.81408">
        <ele>1912.2</ele>
        <time>2017-01-21T11:39:40Z</time>
      </trkpt>
      <trkpt lat="45.37664" lon="5.81408">
        <ele>1913.2</ele>
        <time>2017-01-21T11:39:46Z</time>
      </trkpt>
      <trkpt lat="45.37664" lon="5.81408">
        <ele>1913.4</ele>
        <time>2017-01-21T11:39:51Z</time>
      </trkpt>
      <trkpt lat="45.37662" lon="5.81406">
        <ele>1911.4</ele>
        <time>2017-01-21T11:39:56Z</time>
      </trkpt>
      <trkpt lat="45.3766" lon="5.81404">
        <ele>1915</ele>
        <time>2017-01-21T11:40:02Z</time>
      </trkpt>
      <trkpt lat="45.37658" lon="5.81404">
        <ele>1913</ele>
        <time>2017-01-21T11:40:07Z</time>
      </trkpt>
      <trkpt lat="45.37657" lon="5.81403">
        <ele>1915.4</ele>
        <time>2017-01-21T11:40:12Z</time>
      </trkpt>
      <trkpt lat="45.37657" lon="5.81402">
        <ele>1916.6</ele>
        <time>2017-01-21T11:40:17Z</time>
      </trkpt>
      <trkpt lat="45.37658" lon="5.81401">
        <ele>1916.4</ele>
        <time>2017-01-21T11:40:22Z</time>
      </trkpt>
      <trkpt lat="45.37659" lon="5.814">
        <ele>1917.4</ele>
        <time>2017-01-21T11:40:27Z</time>
      </trkpt>
      <trkpt lat="45.3766" lon="5.81398">
        <ele>1918</ele>
        <time>2017-01-21T11:40:32Z</time>
      </trkpt>
      <trkpt lat="45.37662" lon="5.81397">
        <ele>1920.2</ele>
        <time>2017-01-21T11:40:37Z</time>
      </trkpt>
      <trkpt lat="45.37663" lon="5.81397">
        <ele>1920.4</ele>
        <time>2017-01-21T11:40:42Z</time>
      </trkpt>
      <trkpt lat="45.37662" lon="5.81396">
        <ele>1922.2</ele>
        <time>2017-01-21T11:40:47Z</time>
      </trkpt>
      <trkpt lat="45.37659" lon="5.81395">
        <ele>1921.8</ele>
        <time>2017-01-21T11:40:52Z</time>
      </trkpt>
      <trkpt lat="45.37659" lon="5.81395">
        <ele>1922.4</ele>
        <time>2017-01-21T11:40:57Z</time>
      </trkpt>
      <trkpt lat="45.37656" lon="5.81394">
        <ele>1921.4</ele>
        <time>2017-01-21T11:41:02Z</time>
      </trkpt>
      <trkpt lat="45.37655" lon="5.81393">
        <ele>1921.4</ele>
        <time>2017-01-21T11:41:07Z</time>
      </trkpt>
      <trkpt lat="45.37652" lon="5.81394">
        <ele>1921</ele>
        <time>2017-01-21T11:41:12Z</time>
      </trkpt>
      <trkpt lat="45.3765" lon="5.81393">
        <ele>1923.8</ele>
        <time>2017-01-21T11:41:17Z</time>
      </trkpt>
      <trkpt lat="45.37646" lon="5.81392">
        <ele>1924.8</ele>
        <time>2017-01-21T11:41:22Z</time>
      </trkpt>
      <trkpt lat="45.37645" lon="5.81391">
        <ele>1924.8</ele>
        <time>2017-01-21T11:41:27Z</time>
      </trkpt>
      <trkpt lat="45.37644" lon="5.8139">
        <ele>1925</ele>
        <time>2017-01-21T11:41:32Z</time>
      </trkpt>
      <trkpt lat="45.37643" lon="5.81389">
        <ele>1926.6</ele>
        <time>2017-01-21T11:41:37Z</time>
      </trkpt>
      <trkpt lat="45.37643" lon="5.81389">
        <ele>1926.4</ele>
        <time>2017-01-21T11:41:42Z</time>
      </trkpt>
      <trkpt lat="45.37643" lon="5.81389">
        <ele>1926.2</ele>
        <time>2017-01-21T11:41:47Z</time>
      </trkpt>
      <trkpt lat="45.37642" lon="5.81388">
        <ele>1927.2</ele>
        <time>2017-01-21T11:41:52Z</time>
      </trkpt>
      <trkpt lat="45.3764" lon="5.81387">
        <ele>1925.4</ele>
        <time>2017-01-21T11:41:57Z</time>
      </trkpt>
      <trkpt lat="45.37638" lon="5.81386">
        <ele>1927</ele>
        <time>2017-01-21T11:42:02Z</time>
      </trkpt>
      <trkpt lat="45.37636" lon="5.81385">
        <ele>1930.2</ele>
        <time>2017-01-21T11:42:07Z</time>
      </trkpt>
      <trkpt lat="45.37634" lon="5.81384">
        <ele>1929.6</ele>
        <time>2017-01-21T11:42:12Z</time>
      </trkpt>
      <trkpt lat="45.37631" lon="5.81384">
        <ele>1927.2</ele>
        <time>2017-01-21T11:42:17Z</time>
      </trkpt>
      <trkpt lat="45.37629" lon="5.81383">
        <ele>1928.6</ele>
        <time>2017-01-21T11:42:22Z</time>
      </trkpt>
      <trkpt lat="45.37627" lon="5.81383">
        <ele>1928.8</ele>
        <time>2017-01-21T11:42:27Z</time>
      </trkpt>
      <trkpt lat="45.37625" lon="5.81382">
        <ele>1929</ele>
        <time>2017-01-21T11:42:32Z</time>
      </trkpt>
      <trkpt lat="45.37624" lon="5.81381">
        <ele>1931.8</ele>
        <time>2017-01-21T11:42:37Z</time>
      </trkpt>
      <trkpt lat="45.37624" lon="5.81381">
        <ele>1931.8</ele>
        <time>2017-01-21T11:42:42Z</time>
      </trkpt>
      <trkpt lat="45.37624" lon="5.81381">
        <ele>1932.2</ele>
        <time>2017-01-21T11:42:47Z</time>
      </trkpt>
      <trkpt lat="45.37624" lon="5.81381">
        <ele>1932.4</ele>
        <time>2017-01-21T11:42:52Z</time>
      </trkpt>
      <trkpt lat="45.37624" lon="5.81381">
        <ele>1932.6</ele>
        <time>2017-01-21T11:42:57Z</time>
      </trkpt>
      <trkpt lat="45.37624" lon="5.81381">
        <ele>1932.6</ele>
        <time>2017-01-21T11:43:02Z</time>
      </trkpt>
      <trkpt lat="45.37624" lon="5.81381">
        <ele>1932.6</ele>
        <time>2017-01-21T11:43:07Z</time>
      </trkpt>
      <trkpt lat="45.37624" lon="5.81381">
        <ele>1932.8</ele>
        <time>2017-01-21T11:43:12Z</time>
      </trkpt>
      <trkpt lat="45.37624" lon="5.81381">
        <ele>1932.8</ele>
        <time>2017-01-21T11:43:17Z</time>
      </trkpt>
      <trkpt lat="45.37624" lon="5.81381">
        <ele>1932.8</ele>
        <time>2017-01-21T11:43:22Z</time>
      </trkpt>
      <trkpt lat="45.37622" lon="5.81381">
        <ele>1932.8</ele>
        <time>2017-01-21T11:43:27Z</time>
      </trkpt>
      <trkpt lat="45.37619" lon="5.8138">
        <ele>1933.6</ele>
        <time>2017-01-21T11:43:32Z</time>
      </trkpt>
      <trkpt lat="45.37617" lon="5.81378">
        <ele>1936.4</ele>
        <time>2017-01-21T11:43:37Z</time>
      </trkpt>
      <trkpt lat="45.37616" lon="5.81377">
        <ele>1931.8</ele>
        <time>2017-01-21T11:43:42Z</time>
      </trkpt>
      <trkpt lat="45.37613" lon="5.81375">
        <ele>1935</ele>
        <time>2017-01-21T11:43:47Z</time>
      </trkpt>
      <trkpt lat="45.3761" lon="5.81374">
        <ele>1936</ele>
        <time>2017-01-21T11:43:52Z</time>
      </trkpt>
      <trkpt lat="45.37607" lon="5.81373">
        <ele>1936.2</ele>
        <time>2017-01-21T11:43:57Z</time>
      </trkpt>
      <trkpt lat="45.37605" lon="5.81372">
        <ele>1934</ele>
        <time>2017-01-21T11:44:02Z</time>
      </trkpt>
      <trkpt lat="45.37602" lon="5.81372">
        <ele>1937</ele>
        <time>2017-01-21T11:44:07Z</time>
      </trkpt>
      <trkpt lat="45.376" lon="5.81371">
        <ele>1937.4</ele>
        <time>2017-01-21T11:44:12Z</time>
      </trkpt>
      <trkpt lat="45.37598" lon="5.8137">
        <ele>1941.8</ele>
        <time>2017-01-21T11:44:17Z</time>
      </trkpt>
      <trkpt lat="45.37596" lon="5.81369">
        <ele>1939.6</ele>
        <time>2017-01-21T11:44:22Z</time>
      </trkpt>
      <trkpt lat="45.37594" lon="5.81368">
        <ele>1941.2</ele>
        <time>2017-01-21T11:44:27Z</time>
      </trkpt>
      <trkpt lat="45.37592" lon="5.81367">
        <ele>1940.6</ele>
        <time>2017-01-21T11:44:32Z</time>
      </trkpt>
      <trkpt lat="45.37591" lon="5.81366">
        <ele>1939.4</ele>
        <time>2017-01-21T11:44:37Z</time>
      </trkpt>
      <trkpt lat="45.3759" lon="5.81365">
        <ele>1941.2</ele>
        <time>2017-01-21T11:44:42Z</time>
      </trkpt>
      <trkpt lat="45.37589" lon="5.81364">
        <ele>1941.2</ele>
        <time>2017-01-21T11:44:47Z</time>
      </trkpt>
      <trkpt lat="45.37588" lon="5.81362">
        <ele>1941.2</ele>
        <time>2017-01-21T11:44:52Z</time>
      </trkpt>
      <trkpt lat="45.37586" lon="5.81361">
        <ele>1938.6</ele>
        <time>2017-01-21T11:44:57Z</time>
      </trkpt>
      <trkpt lat="45.37585" lon="5.8136">
        <ele>1940.8</ele>
        <time>2017-01-21T11:45:02Z</time>
      </trkpt>
      <trkpt lat="45.37583" lon="5.81359">
        <ele>1940.4</ele>
        <time>2017-01-21T11:45:07Z</time>
      </trkpt>
      <trkpt lat="45.37581" lon="5.81358">
        <ele>1943.6</ele>
        <time>2017-01-21T11:45:12Z</time>
      </trkpt>
      <trkpt lat="45.37579" lon="5.81357">
        <ele>1943.6</ele>
        <time>2017-01-21T11:45:17Z</time>
      </trkpt>
      <trkpt lat="45.37577" lon="5.81356">
        <ele>1940.4</ele>
        <time>2017-01-21T11:45:22Z</time>
      </trkpt>
      <trkpt lat="45.37575" lon="5.81355">
        <ele>1940.4</ele>
        <time>2017-01-21T11:45:27Z</time>
      </trkpt>
      <trkpt lat="45.37573" lon="5.81355">
        <ele>1941.2</ele>
        <time>2017-01-21T11:45:32Z</time>
      </trkpt>
      <trkpt lat="45.37572" lon="5.81354">
        <ele>1944.2</ele>
        <time>2017-01-21T11:45:37Z</time>
      </trkpt>
      <trkpt lat="45.37573" lon="5.81351">
        <ele>1945.6</ele>
        <time>2017-01-21T11:45:42Z</time>
      </trkpt>
      <trkpt lat="45.37575" lon="5.81349">
        <ele>1945.8</ele>
        <time>2017-01-21T11:45:47Z</time>
      </trkpt>
      <trkpt lat="45.37575" lon="5.81349">
        <ele>1946.6</ele>
        <time>2017-01-21T11:45:52Z</time>
      </trkpt>
      <trkpt lat="45.37575" lon="5.81348">
        <ele>1947</ele>
        <time>2017-01-21T11:45:57Z</time>
      </trkpt>
      <trkpt lat="45.37575" lon="5.81347">
        <ele>1946.8</ele>
        <time>2017-01-21T11:46:02Z</time>
      </trkpt>
      <trkpt lat="45.37576" lon="5.81344">
        <ele>1947.2</ele>
        <time>2017-01-21T11:46:07Z</time>
      </trkpt>
      <trkpt lat="45.37574" lon="5.81342">
        <ele>1947.2</ele>
        <time>2017-01-21T11:46:12Z</time>
      </trkpt>
      <trkpt lat="45.37572" lon="5.8134">
        <ele>1946.2</ele>
        <time>2017-01-21T11:46:17Z</time>
      </trkpt>
      <trkpt lat="45.3757" lon="5.8134">
        <ele>1946.8</ele>
        <time>2017-01-21T11:46:22Z</time>
      </trkpt>
      <trkpt lat="45.37568" lon="5.81341">
        <ele>1947.8</ele>
        <time>2017-01-21T11:46:27Z</time>
      </trkpt>
      <trkpt lat="45.37566" lon="5.81341">
        <ele>1951</ele>
        <time>2017-01-21T11:46:32Z</time>
      </trkpt>
      <trkpt lat="45.37563" lon="5.81341">
        <ele>1947.8</ele>
        <time>2017-01-21T11:46:37Z</time>
      </trkpt>
      <trkpt lat="45.3756" lon="5.81341">
        <ele>1949.6</ele>
        <time>2017-01-21T11:46:42Z</time>
      </trkpt>
      <trkpt lat="45.37558" lon="5.81341">
        <ele>1950.6</ele>
        <time>2017-01-21T11:46:47Z</time>
      </trkpt>
      <trkpt lat="45.37555" lon="5.8134">
        <ele>1948.8</ele>
        <time>2017-01-21T11:46:52Z</time>
      </trkpt>
      <trkpt lat="45.37553" lon="5.81338">
        <ele>1952.4</ele>
        <time>2017-01-21T11:46:57Z</time>
      </trkpt>
      <trkpt lat="45.3755" lon="5.81335">
        <ele>1950.2</ele>
        <time>2017-01-21T11:47:02Z</time>
      </trkpt>
      <trkpt lat="45.37549" lon="5.81334">
        <ele>1952.4</ele>
        <time>2017-01-21T11:47:07Z</time>
      </trkpt>
      <trkpt lat="45.37548" lon="5.81333">
        <ele>1950.6</ele>
        <time>2017-01-21T11:47:12Z</time>
      </trkpt>
      <trkpt lat="45.37546" lon="5.81331">
        <ele>1951.2</ele>
        <time>2017-01-21T11:47:17Z</time>
      </trkpt>
      <trkpt lat="45.37542" lon="5.81329">
        <ele>1951.2</ele>
        <time>2017-01-21T11:47:22Z</time>
      </trkpt>
      <trkpt lat="45.37538" lon="5.81328">
        <ele>1952.8</ele>
        <time>2017-01-21T11:47:27Z</time>
      </trkpt>
      <trkpt lat="45.37537" lon="5.81328">
        <ele>1948.2</ele>
        <time>2017-01-21T11:47:32Z</time>
      </trkpt>
      <trkpt lat="45.37537" lon="5.81328">
        <ele>1949.2</ele>
        <time>2017-01-21T11:47:37Z</time>
      </trkpt>
      <trkpt lat="45.37533" lon="5.81327">
        <ele>1951</ele>
        <time>2017-01-21T11:47:42Z</time>
      </trkpt>
      <trkpt lat="45.37529" lon="5.81326">
        <ele>1949</ele>
        <time>2017-01-21T11:47:47Z</time>
      </trkpt>
      <trkpt lat="45.37526" lon="5.81324">
        <ele>1951.6</ele>
        <time>2017-01-21T11:47:52Z</time>
      </trkpt>
      <trkpt lat="45.37522" lon="5.81323">
        <ele>1949</ele>
        <time>2017-01-21T11:47:57Z</time>
      </trkpt>
      <trkpt lat="45.37518" lon="5.81323">
        <ele>1952.2</ele>
        <time>2017-01-21T11:48:02Z</time>
      </trkpt>
      <trkpt lat="45.37516" lon="5.81323">
        <ele>1952.4</ele>
        <time>2017-01-21T11:48:07Z</time>
      </trkpt>
      <trkpt lat="45.37513" lon="5.81323">
        <ele>1953.2</ele>
        <time>2017-01-21T11:48:12Z</time>
      </trkpt>
      <trkpt lat="45.37509" lon="5.81322">
        <ele>1953.6</ele>
        <time>2017-01-21T11:48:17Z</time>
      </trkpt>
      <trkpt lat="45.37506" lon="5.81321">
        <ele>1957.4</ele>
        <time>2017-01-21T11:48:22Z</time>
      </trkpt>
      <trkpt lat="45.37502" lon="5.81321">
        <ele>1952.2</ele>
        <time>2017-01-21T11:48:27Z</time>
      </trkpt>
      <trkpt lat="45.37499" lon="5.8132">
        <ele>1955</ele>
        <time>2017-01-21T11:48:32Z</time>
      </trkpt>
      <trkpt lat="45.37495" lon="5.81319">
        <ele>1954.8</ele>
        <time>2017-01-21T11:48:37Z</time>
      </trkpt>
      <trkpt lat="45.37494" lon="5.81319">
        <ele>1955</ele>
        <time>2017-01-21T11:48:42Z</time>
      </trkpt>
      <trkpt lat="45.37493" lon="5.81319">
        <ele>1955</ele>
        <time>2017-01-21T11:48:47Z</time>
      </trkpt>
      <trkpt lat="45.37493" lon="5.81319">
        <ele>1955.2</ele>
        <time>2017-01-21T11:48:52Z</time>
      </trkpt>
      <trkpt lat="45.37493" lon="5.81319">
        <ele>1955.4</ele>
        <time>2017-01-21T11:48:57Z</time>
      </trkpt>
      <trkpt lat="45.37493" lon="5.81319">
        <ele>1955.8</ele>
        <time>2017-01-21T11:49:02Z</time>
      </trkpt>
      <trkpt lat="45.37493" lon="5.81319">
        <ele>1956</ele>
        <time>2017-01-21T11:49:07Z</time>
      </trkpt>
      <trkpt lat="45.37493" lon="5.81319">
        <ele>1956</ele>
        <time>2017-01-21T11:49:12Z</time>
      </trkpt>
      <trkpt lat="45.37493" lon="5.81319">
        <ele>1956</ele>
        <time>2017-01-21T11:49:17Z</time>
      </trkpt>
      <trkpt lat="45.37493" lon="5.81319">
        <ele>1956.2</ele>
        <time>2017-01-21T11:49:22Z</time>
      </trkpt>
      <trkpt lat="45.37493" lon="5.81319">
        <ele>1956.2</ele>
        <time>2017-01-21T11:49:27Z</time>
      </trkpt>
      <trkpt lat="45.37493" lon="5.81319">
        <ele>1956.2</ele>
        <time>2017-01-21T11:49:32Z</time>
      </trkpt>
      <trkpt lat="45.37493" lon="5.81319">
        <ele>1956.2</ele>
        <time>2017-01-21T11:49:37Z</time>
      </trkpt>
      <trkpt lat="45.37493" lon="5.81319">
        <ele>1956.2</ele>
        <time>2017-01-21T11:49:42Z</time>
      </trkpt>
      <trkpt lat="45.37493" lon="5.81319">
        <ele>1956.2</ele>
        <time>2017-01-21T11:49:47Z</time>
      </trkpt>
      <trkpt lat="45.37493" lon="5.81319">
        <ele>1956.2</ele>
        <time>2017-01-21T11:49:52Z</time>
      </trkpt>
      <trkpt lat="45.37493" lon="5.81319">
        <ele>1956.2</ele>
        <time>2017-01-21T11:49:57Z</time>
      </trkpt>
      <trkpt lat="45.37493" lon="5.81319">
        <ele>1956.2</ele>
        <time>2017-01-21T11:50:02Z</time>
      </trkpt>
      <trkpt lat="45.37493" lon="5.81319">
        <ele>1956.2</ele>
        <time>2017-01-21T11:50:07Z</time>
      </trkpt>
      <trkpt lat="45.37493" lon="5.81319">
        <ele>1956.2</ele>
        <time>2017-01-21T11:50:12Z</time>
      </trkpt>
      <trkpt lat="45.37493" lon="5.81319">
        <ele>1956.2</ele>
        <time>2017-01-21T11:50:17Z</time>
      </trkpt>
      <trkpt lat="45.37492" lon="5.8132">
        <ele>1956.6</ele>
        <time>2017-01-21T11:50:22Z</time>
      </trkpt>
      <trkpt lat="45.37489" lon="5.8132">
        <ele>1956.4</ele>
        <time>2017-01-21T11:50:27Z</time>
      </trkpt>
      <trkpt lat="45.37486" lon="5.8132">
        <ele>1956.2</ele>
        <time>2017-01-21T11:50:32Z</time>
      </trkpt>
      <trkpt lat="45.37483" lon="5.8132">
        <ele>1959</ele>
        <time>2017-01-21T11:50:37Z</time>
      </trkpt>
      <trkpt lat="45.3748" lon="5.8132">
        <ele>1955.8</ele>
        <time>2017-01-21T11:50:42Z</time>
      </trkpt>
      <trkpt lat="45.37476" lon="5.81319">
        <ele>1961.4</ele>
        <time>2017-01-21T11:50:47Z</time>
      </trkpt>
      <trkpt lat="45.37472" lon="5.81319">
        <ele>1960.2</ele>
        <time>2017-01-21T11:50:52Z</time>
      </trkpt>
      <trkpt lat="45.37468" lon="5.81319">
        <ele>1960.6</ele>
        <time>2017-01-21T11:50:57Z</time>
      </trkpt>
      <trkpt lat="45.37464" lon="5.81318">
        <ele>1962.6</ele>
        <time>2017-01-21T11:51:02Z</time>
      </trkpt>
      <trkpt lat="45.3746" lon="5.81318">
        <ele>1961.2</ele>
        <time>2017-01-21T11:51:07Z</time>
      </trkpt>
      <trkpt lat="45.37456" lon="5.81319">
        <ele>1963.2</ele>
        <time>2017-01-21T11:51:12Z</time>
      </trkpt>
      <trkpt lat="45.37452" lon="5.81319">
        <ele>1961.6</ele>
        <time>2017-01-21T11:51:17Z</time>
      </trkpt>
      <trkpt lat="45.37449" lon="5.81319">
        <ele>1962</ele>
        <time>2017-01-21T11:51:22Z</time>
      </trkpt>
      <trkpt lat="45.37445" lon="5.8132">
        <ele>1966.2</ele>
        <time>2017-01-21T11:51:27Z</time>
      </trkpt>
      <trkpt lat="45.37441" lon="5.8132">
        <ele>1965.6</ele>
        <time>2017-01-21T11:51:32Z</time>
      </trkpt>
      <trkpt lat="45.37436" lon="5.8132">
        <ele>1963.2</ele>
        <time>2017-01-21T11:51:37Z</time>
      </trkpt>
      <trkpt lat="45.37432" lon="5.81321">
        <ele>1965.2</ele>
        <time>2017-01-21T11:51:42Z</time>
      </trkpt>
      <trkpt lat="45.37428" lon="5.81322">
        <ele>1965.2</ele>
        <time>2017-01-21T11:51:47Z</time>
      </trkpt>
      <trkpt lat="45.37423" lon="5.81322">
        <ele>1964</ele>
        <time>2017-01-21T11:51:52Z</time>
      </trkpt>
      <trkpt lat="45.37419" lon="5.81323">
        <ele>1966.4</ele>
        <time>2017-01-21T11:51:57Z</time>
      </trkpt>
      <trkpt lat="45.37415" lon="5.81324">
        <ele>1966.8</ele>
        <time>2017-01-21T11:52:02Z</time>
      </trkpt>
      <trkpt lat="45.37411" lon="5.81326">
        <ele>1968.2</ele>
        <time>2017-01-21T11:52:07Z</time>
      </trkpt>
      <trkpt lat="45.37407" lon="5.81326">
        <ele>1965</ele>
        <time>2017-01-21T11:52:12Z</time>
      </trkpt>
      <trkpt lat="45.37402" lon="5.81326">
        <ele>1968</ele>
        <time>2017-01-21T11:52:17Z</time>
      </trkpt>
      <trkpt lat="45.37397" lon="5.81327">
        <ele>1966.2</ele>
        <time>2017-01-21T11:52:22Z</time>
      </trkpt>
      <trkpt lat="45.37393" lon="5.81328">
        <ele>1968.4</ele>
        <time>2017-01-21T11:52:27Z</time>
      </trkpt>
      <trkpt lat="45.37389" lon="5.81328">
        <ele>1968.6</ele>
        <time>2017-01-21T11:52:32Z</time>
      </trkpt>
      <trkpt lat="45.37385" lon="5.81328">
        <ele>1969.4</ele>
        <time>2017-01-21T11:52:37Z</time>
      </trkpt>
      <trkpt lat="45.3738" lon="5.81329">
        <ele>1968.8</ele>
        <time>2017-01-21T11:52:42Z</time>
      </trkpt>
      <trkpt lat="45.37376" lon="5.81329">
        <ele>1967.6</ele>
        <time>2017-01-21T11:52:47Z</time>
      </trkpt>
      <trkpt lat="45.37371" lon="5.8133">
        <ele>1967.4</ele>
        <time>2017-01-21T11:52:53Z</time>
      </trkpt>
      <trkpt lat="45.37366" lon="5.8133">
        <ele>1968.4</ele>
        <time>2017-01-21T11:52:58Z</time>
      </trkpt>
      <trkpt lat="45.37362" lon="5.81331">
        <ele>1968.4</ele>
        <time>2017-01-21T11:53:03Z</time>
      </trkpt>
      <trkpt lat="45.37357" lon="5.81332">
        <ele>1967.2</ele>
        <time>2017-01-21T11:53:08Z</time>
      </trkpt>
      <trkpt lat="45.37352" lon="5.81333">
        <ele>1970.6</ele>
        <time>2017-01-21T11:53:13Z</time>
      </trkpt>
      <trkpt lat="45.37348" lon="5.81335">
        <ele>1971</ele>
        <time>2017-01-21T11:53:18Z</time>
      </trkpt>
      <trkpt lat="45.37343" lon="5.81337">
        <ele>1969.2</ele>
        <time>2017-01-21T11:53:23Z</time>
      </trkpt>
      <trkpt lat="45.37338" lon="5.81337">
        <ele>1973.4</ele>
        <time>2017-01-21T11:53:28Z</time>
      </trkpt>
      <trkpt lat="45.37333" lon="5.81338">
        <ele>1970.8</ele>
        <time>2017-01-21T11:53:33Z</time>
      </trkpt>
      <trkpt lat="45.37328" lon="5.8134">
        <ele>1969</ele>
        <time>2017-01-21T11:53:38Z</time>
      </trkpt>
      <trkpt lat="45.37323" lon="5.81341">
        <ele>1971.2</ele>
        <time>2017-01-21T11:53:43Z</time>
      </trkpt>
      <trkpt lat="45.37322" lon="5.8134">
        <ele>1969</ele>
        <time>2017-01-21T11:53:48Z</time>
      </trkpt>
      <trkpt lat="45.37318" lon="5.8134">
        <ele>1968.4</ele>
        <time>2017-01-21T11:53:53Z</time>
      </trkpt>
      <trkpt lat="45.37313" lon="5.8134">
        <ele>1968.4</ele>
        <time>2017-01-21T11:53:58Z</time>
      </trkpt>
      <trkpt lat="45.37309" lon="5.8134">
        <ele>1969</ele>
        <time>2017-01-21T11:54:03Z</time>
      </trkpt>
      <trkpt lat="45.3731" lon="5.8134">
        <ele>1969.2</ele>
        <time>2017-01-21T11:54:08Z</time>
      </trkpt>
      <trkpt lat="45.37309" lon="5.8134">
        <ele>1969.4</ele>
        <time>2017-01-21T11:54:13Z</time>
      </trkpt>
      <trkpt lat="45.37307" lon="5.81339">
        <ele>1969.8</ele>
        <time>2017-01-21T11:54:18Z</time>
      </trkpt>
      <trkpt lat="45.37305" lon="5.81339">
        <ele>1970.6</ele>
        <time>2017-01-21T11:54:23Z</time>
      </trkpt>
      <trkpt lat="45.37302" lon="5.81339">
        <ele>1971.8</ele>
        <time>2017-01-21T11:54:28Z</time>
      </trkpt>
      <trkpt lat="45.373" lon="5.81339">
        <ele>1970.4</ele>
        <time>2017-01-21T11:54:33Z</time>
      </trkpt>
      <trkpt lat="45.37297" lon="5.81339">
        <ele>1972.2</ele>
        <time>2017-01-21T11:54:38Z</time>
      </trkpt>
      <trkpt lat="45.37293" lon="5.8134">
        <ele>1973.6</ele>
        <time>2017-01-21T11:54:43Z</time>
      </trkpt>
      <trkpt lat="45.37291" lon="5.8134">
        <ele>1974.6</ele>
        <time>2017-01-21T11:54:48Z</time>
      </trkpt>
      <trkpt lat="45.37289" lon="5.8134">
        <ele>1975.2</ele>
        <time>2017-01-21T11:54:53Z</time>
      </trkpt>
      <trkpt lat="45.37286" lon="5.8134">
        <ele>1975.6</ele>
        <time>2017-01-21T11:54:58Z</time>
      </trkpt>
      <trkpt lat="45.37283" lon="5.8134">
        <ele>1974.6</ele>
        <time>2017-01-21T11:55:03Z</time>
      </trkpt>
      <trkpt lat="45.3728" lon="5.8134">
        <ele>1976</ele>
        <time>2017-01-21T11:55:08Z</time>
      </trkpt>
      <trkpt lat="45.37278" lon="5.8134">
        <ele>1975.8</ele>
        <time>2017-01-21T11:55:13Z</time>
      </trkpt>
      <trkpt lat="45.37275" lon="5.81339">
        <ele>1975.8</ele>
        <time>2017-01-21T11:55:18Z</time>
      </trkpt>
      <trkpt lat="45.37273" lon="5.81339">
        <ele>1976.8</ele>
        <time>2017-01-21T11:55:23Z</time>
      </trkpt>
      <trkpt lat="45.3727" lon="5.8134">
        <ele>1977.8</ele>
        <time>2017-01-21T11:55:28Z</time>
      </trkpt>
      <trkpt lat="45.37268" lon="5.81339">
        <ele>1974.8</ele>
        <time>2017-01-21T11:55:33Z</time>
      </trkpt>
      <trkpt lat="45.37265" lon="5.81339">
        <ele>1976</ele>
        <time>2017-01-21T11:55:38Z</time>
      </trkpt>
      <trkpt lat="45.37263" lon="5.81339">
        <ele>1978.2</ele>
        <time>2017-01-21T11:55:43Z</time>
      </trkpt>
      <trkpt lat="45.3726" lon="5.81339">
        <ele>1976.4</ele>
        <time>2017-01-21T11:55:48Z</time>
      </trkpt>
      <trkpt lat="45.37258" lon="5.81339">
        <ele>1978.8</ele>
        <time>2017-01-21T11:55:53Z</time>
      </trkpt>
      <trkpt lat="45.37256" lon="5.81338">
        <ele>1979.8</ele>
        <time>2017-01-21T11:55:58Z</time>
      </trkpt>
      <trkpt lat="45.37254" lon="5.81338">
        <ele>1982.8</ele>
        <time>2017-01-21T11:56:03Z</time>
      </trkpt>
      <trkpt lat="45.37251" lon="5.81338">
        <ele>1980</ele>
        <time>2017-01-21T11:56:09Z</time>
      </trkpt>
      <trkpt lat="45.37248" lon="5.81338">
        <ele>1981.6</ele>
        <time>2017-01-21T11:56:14Z</time>
      </trkpt>
      <trkpt lat="45.37246" lon="5.81338">
        <ele>1979.2</ele>
        <time>2017-01-21T11:56:19Z</time>
      </trkpt>
      <trkpt lat="45.37243" lon="5.81337">
        <ele>1981.6</ele>
        <time>2017-01-21T11:56:24Z</time>
      </trkpt>
      <trkpt lat="45.37241" lon="5.81337">
        <ele>1978.4</ele>
        <time>2017-01-21T11:56:29Z</time>
      </trkpt>
      <trkpt lat="45.37239" lon="5.81336">
        <ele>1982.2</ele>
        <time>2017-01-21T11:56:34Z</time>
      </trkpt>
      <trkpt lat="45.37237" lon="5.81336">
        <ele>1983.2</ele>
        <time>2017-01-21T11:56:39Z</time>
      </trkpt>
      <trkpt lat="45.37236" lon="5.81336">
        <ele>1985</ele>
        <time>2017-01-21T11:56:44Z</time>
      </trkpt>
      <trkpt lat="45.37234" lon="5.81335">
        <ele>1983.2</ele>
        <time>2017-01-21T11:56:49Z</time>
      </trkpt>
      <trkpt lat="45.37232" lon="5.81335">
        <ele>1983</ele>
        <time>2017-01-21T11:56:54Z</time>
      </trkpt>
      <trkpt lat="45.3723" lon="5.81334">
        <ele>1983.4</ele>
        <time>2017-01-21T11:56:59Z</time>
      </trkpt>
      <trkpt lat="45.37229" lon="5.81333">
        <ele>1983</ele>
        <time>2017-01-21T11:57:04Z</time>
      </trkpt>
      <trkpt lat="45.37227" lon="5.81332">
        <ele>1986</ele>
        <time>2017-01-21T11:57:09Z</time>
      </trkpt>
      <trkpt lat="45.37225" lon="5.81332">
        <ele>1981.4</ele>
        <time>2017-01-21T11:57:14Z</time>
      </trkpt>
      <trkpt lat="45.37224" lon="5.81331">
        <ele>1984</ele>
        <time>2017-01-21T11:57:19Z</time>
      </trkpt>
      <trkpt lat="45.37225" lon="5.8133">
        <ele>1984.6</ele>
        <time>2017-01-21T11:57:24Z</time>
      </trkpt>
      <trkpt lat="45.37227" lon="5.81329">
        <ele>1988.8</ele>
        <time>2017-01-21T11:57:29Z</time>
      </trkpt>
      <trkpt lat="45.37229" lon="5.81327">
        <ele>1986.8</ele>
        <time>2017-01-21T11:57:34Z</time>
      </trkpt>
      <trkpt lat="45.37231" lon="5.81326">
        <ele>1986.6</ele>
        <time>2017-01-21T11:57:39Z</time>
      </trkpt>
      <trkpt lat="45.37231" lon="5.81324">
        <ele>1991.2</ele>
        <time>2017-01-21T11:57:44Z</time>
      </trkpt>
      <trkpt lat="45.37229" lon="5.81324">
        <ele>1987.8</ele>
        <time>2017-01-21T11:57:49Z</time>
      </trkpt>
      <trkpt lat="45.37227" lon="5.81323">
        <ele>1987.2</ele>
        <time>2017-01-21T11:57:54Z</time>
      </trkpt>
      <trkpt lat="45.37225" lon="5.81323">
        <ele>1986.2</ele>
        <time>2017-01-21T11:57:59Z</time>
      </trkpt>
      <trkpt lat="45.37224" lon="5.81322">
        <ele>1987.6</ele>
        <time>2017-01-21T11:58:04Z</time>
      </trkpt>
      <trkpt lat="45.37222" lon="5.81321">
        <ele>1988.2</ele>
        <time>2017-01-21T11:58:09Z</time>
      </trkpt>
      <trkpt lat="45.3722" lon="5.81321">
        <ele>1992.4</ele>
        <time>2017-01-21T11:58:14Z</time>
      </trkpt>
      <trkpt lat="45.37218" lon="5.8132">
        <ele>1990</ele>
        <time>2017-01-21T11:58:19Z</time>
      </trkpt>
      <trkpt lat="45.37216" lon="5.81319">
        <ele>1988</ele>
        <time>2017-01-21T11:58:24Z</time>
      </trkpt>
      <trkpt lat="45.37214" lon="5.81319">
        <ele>1990.6</ele>
        <time>2017-01-21T11:58:29Z</time>
      </trkpt>
      <trkpt lat="45.37212" lon="5.81318">
        <ele>1991.6</ele>
        <time>2017-01-21T11:58:34Z</time>
      </trkpt>
      <trkpt lat="45.3721" lon="5.81317">
        <ele>1991</ele>
        <time>2017-01-21T11:58:39Z</time>
      </trkpt>
      <trkpt lat="45.37208" lon="5.81316">
        <ele>1990.8</ele>
        <time>2017-01-21T11:58:44Z</time>
      </trkpt>
      <trkpt lat="45.37206" lon="5.81315">
        <ele>1995</ele>
        <time>2017-01-21T11:58:49Z</time>
      </trkpt>
      <trkpt lat="45.37204" lon="5.81314">
        <ele>1992.6</ele>
        <time>2017-01-21T11:58:54Z</time>
      </trkpt>
      <trkpt lat="45.37202" lon="5.81314">
        <ele>1991.8</ele>
        <time>2017-01-21T11:58:59Z</time>
      </trkpt>
      <trkpt lat="45.372" lon="5.81313">
        <ele>1995.2</ele>
        <time>2017-01-21T11:59:04Z</time>
      </trkpt>
      <trkpt lat="45.37198" lon="5.81312">
        <ele>1993.4</ele>
        <time>2017-01-21T11:59:09Z</time>
      </trkpt>
      <trkpt lat="45.37196" lon="5.81311">
        <ele>1994.4</ele>
        <time>2017-01-21T11:59:14Z</time>
      </trkpt>
      <trkpt lat="45.37195" lon="5.8131">
        <ele>1998.2</ele>
        <time>2017-01-21T11:59:19Z</time>
      </trkpt>
      <trkpt lat="45.37193" lon="5.81308">
        <ele>1999</ele>
        <time>2017-01-21T11:59:24Z</time>
      </trkpt>
      <trkpt lat="45.37192" lon="5.81308">
        <ele>1998.2</ele>
        <time>2017-01-21T11:59:29Z</time>
      </trkpt>
      <trkpt lat="45.3719" lon="5.81306">
        <ele>2000.2</ele>
        <time>2017-01-21T11:59:34Z</time>
      </trkpt>
      <trkpt lat="45.37188" lon="5.81305">
        <ele>2000.4</ele>
        <time>2017-01-21T11:59:39Z</time>
      </trkpt>
      <trkpt lat="45.37186" lon="5.81304">
        <ele>2002.4</ele>
        <time>2017-01-21T11:59:44Z</time>
      </trkpt>
      <trkpt lat="45.37184" lon="5.81303">
        <ele>1997.2</ele>
        <time>2017-01-21T11:59:49Z</time>
      </trkpt>
      <trkpt lat="45.37182" lon="5.81302">
        <ele>1996.2</ele>
        <time>2017-01-21T11:59:54Z</time>
      </trkpt>
      <trkpt lat="45.3718" lon="5.81301">
        <ele>1996.4</ele>
        <time>2017-01-21T11:59:59Z</time>
      </trkpt>
      <trkpt lat="45.37179" lon="5.813">
        <ele>1996</ele>
        <time>2017-01-21T12:00:04Z</time>
      </trkpt>
      <trkpt lat="45.37177" lon="5.81298">
        <ele>1997.2</ele>
        <time>2017-01-21T12:00:09Z</time>
      </trkpt>
      <trkpt lat="45.37174" lon="5.81297">
        <ele>1999.8</ele>
        <time>2017-01-21T12:00:14Z</time>
      </trkpt>
      <trkpt lat="45.37172" lon="5.81296">
        <ele>2001.4</ele>
        <time>2017-01-21T12:00:19Z</time>
      </trkpt>
      <trkpt lat="45.3717" lon="5.81295">
        <ele>2001.2</ele>
        <time>2017-01-21T12:00:24Z</time>
      </trkpt>
      <trkpt lat="45.37168" lon="5.81294">
        <ele>2004</ele>
        <time>2017-01-21T12:00:29Z</time>
      </trkpt>
      <trkpt lat="45.37166" lon="5.81293">
        <ele>2008</ele>
        <time>2017-01-21T12:00:34Z</time>
      </trkpt>
      <trkpt lat="45.37165" lon="5.81292">
        <ele>2005.2</ele>
        <time>2017-01-21T12:00:39Z</time>
      </trkpt>
      <trkpt lat="45.37163" lon="5.81291">
        <ele>2003</ele>
        <time>2017-01-21T12:00:44Z</time>
      </trkpt>
      <trkpt lat="45.37162" lon="5.8129">
        <ele>2003.2</ele>
        <time>2017-01-21T12:00:50Z</time>
      </trkpt>
      <trkpt lat="45.3716" lon="5.81288">
        <ele>2003.6</ele>
        <time>2017-01-21T12:00:55Z</time>
      </trkpt>
      <trkpt lat="45.37159" lon="5.81287">
        <ele>2001.6</ele>
        <time>2017-01-21T12:01:00Z</time>
      </trkpt>
      <trkpt lat="45.37158" lon="5.81286">
        <ele>2004.6</ele>
        <time>2017-01-21T12:01:05Z</time>
      </trkpt>
      <trkpt lat="45.37156" lon="5.81285">
        <ele>2005.2</ele>
        <time>2017-01-21T12:01:10Z</time>
      </trkpt>
      <trkpt lat="45.37155" lon="5.81284">
        <ele>2006.6</ele>
        <time>2017-01-21T12:01:15Z</time>
      </trkpt>
      <trkpt lat="45.37153" lon="5.81283">
        <ele>2007.8</ele>
        <time>2017-01-21T12:01:20Z</time>
      </trkpt>
      <trkpt lat="45.37152" lon="5.81282">
        <ele>2009.2</ele>
        <time>2017-01-21T12:01:25Z</time>
      </trkpt>
      <trkpt lat="45.37153" lon="5.81281">
        <ele>2005</ele>
        <time>2017-01-21T12:01:30Z</time>
      </trkpt>
      <trkpt lat="45.37155" lon="5.81279">
        <ele>2006</ele>
        <time>2017-01-21T12:01:35Z</time>
      </trkpt>
      <trkpt lat="45.37155" lon="5.81279">
        <ele>2006.8</ele>
        <time>2017-01-21T12:01:40Z</time>
      </trkpt>
      <trkpt lat="45.37156" lon="5.81277">
        <ele>2004.8</ele>
        <time>2017-01-21T12:01:45Z</time>
      </trkpt>
      <trkpt lat="45.37157" lon="5.81274">
        <ele>2006.4</ele>
        <time>2017-01-21T12:01:50Z</time>
      </trkpt>
      <trkpt lat="45.37158" lon="5.81272">
        <ele>2005.6</ele>
        <time>2017-01-21T12:01:55Z</time>
      </trkpt>
      <trkpt lat="45.37159" lon="5.8127">
        <ele>2006.4</ele>
        <time>2017-01-21T12:02:00Z</time>
      </trkpt>
      <trkpt lat="45.3716" lon="5.81268">
        <ele>2009.6</ele>
        <time>2017-01-21T12:02:05Z</time>
      </trkpt>
      <trkpt lat="45.37159" lon="5.81266">
        <ele>2008.8</ele>
        <time>2017-01-21T12:02:10Z</time>
      </trkpt>
      <trkpt lat="45.37157" lon="5.81264">
        <ele>2013</ele>
        <time>2017-01-21T12:02:15Z</time>
      </trkpt>
      <trkpt lat="45.37155" lon="5.81264">
        <ele>2011.6</ele>
        <time>2017-01-21T12:02:20Z</time>
      </trkpt>
      <trkpt lat="45.37153" lon="5.81263">
        <ele>2013</ele>
        <time>2017-01-21T12:02:25Z</time>
      </trkpt>
      <trkpt lat="45.37151" lon="5.81261">
        <ele>2014</ele>
        <time>2017-01-21T12:02:30Z</time>
      </trkpt>
      <trkpt lat="45.3715" lon="5.8126">
        <ele>2013</ele>
        <time>2017-01-21T12:02:35Z</time>
      </trkpt>
      <trkpt lat="45.37148" lon="5.81259">
        <ele>2018.2</ele>
        <time>2017-01-21T12:02:40Z</time>
      </trkpt>
      <trkpt lat="45.37146" lon="5.81258">
        <ele>2015</ele>
        <time>2017-01-21T12:02:45Z</time>
      </trkpt>
      <trkpt lat="45.37145" lon="5.81257">
        <ele>2016.4</ele>
        <time>2017-01-21T12:02:50Z</time>
      </trkpt>
      <trkpt lat="45.37143" lon="5.81256">
        <ele>2016.4</ele>
        <time>2017-01-21T12:02:55Z</time>
      </trkpt>
      <trkpt lat="45.37141" lon="5.81255">
        <ele>2017</ele>
        <time>2017-01-21T12:03:00Z</time>
      </trkpt>
      <trkpt lat="45.37139" lon="5.81254">
        <ele>2017.4</ele>
        <time>2017-01-21T12:03:05Z</time>
      </trkpt>
      <trkpt lat="45.37137" lon="5.81254">
        <ele>2017.6</ele>
        <time>2017-01-21T12:03:10Z</time>
      </trkpt>
      <trkpt lat="45.37135" lon="5.81252">
        <ele>2019.6</ele>
        <time>2017-01-21T12:03:15Z</time>
      </trkpt>
      <trkpt lat="45.37134" lon="5.81249">
        <ele>2021.2</ele>
        <time>2017-01-21T12:03:20Z</time>
      </trkpt>
      <trkpt lat="45.37133" lon="5.81246">
        <ele>2022.6</ele>
        <time>2017-01-21T12:03:25Z</time>
      </trkpt>
      <trkpt lat="45.37131" lon="5.81237">
        <ele>2018.4</ele>
        <time>2017-01-21T12:03:30Z</time>
      </trkpt>
      <trkpt lat="45.3713" lon="5.81232">
        <ele>2017.4</ele>
        <time>2017-01-21T12:03:35Z</time>
      </trkpt>
      <trkpt lat="45.37129" lon="5.81227">
        <ele>2020</ele>
        <time>2017-01-21T12:03:40Z</time>
      </trkpt>
      <trkpt lat="45.37129" lon="5.81223">
        <ele>2021</ele>
        <time>2017-01-21T12:03:45Z</time>
      </trkpt>
      <trkpt lat="45.37127" lon="5.81219">
        <ele>2021.8</ele>
        <time>2017-01-21T12:03:50Z</time>
      </trkpt>
      <trkpt lat="45.37125" lon="5.81214">
        <ele>2022</ele>
        <time>2017-01-21T12:03:55Z</time>
      </trkpt>
      <trkpt lat="45.37122" lon="5.81212">
        <ele>2018.8</ele>
        <time>2017-01-21T12:04:00Z</time>
      </trkpt>
      <trkpt lat="45.3712" lon="5.81209">
        <ele>2021.8</ele>
        <time>2017-01-21T12:04:05Z</time>
      </trkpt>
      <trkpt lat="45.37117" lon="5.81207">
        <ele>2020</ele>
        <time>2017-01-21T12:04:10Z</time>
      </trkpt>
      <trkpt lat="45.37114" lon="5.81206">
        <ele>2023</ele>
        <time>2017-01-21T12:04:15Z</time>
      </trkpt>
      <trkpt lat="45.37112" lon="5.81205">
        <ele>2023.4</ele>
        <time>2017-01-21T12:04:20Z</time>
      </trkpt>
      <trkpt lat="45.37108" lon="5.81205">
        <ele>2024.4</ele>
        <time>2017-01-21T12:04:25Z</time>
      </trkpt>
      <trkpt lat="45.37105" lon="5.81204">
        <ele>2024.6</ele>
        <time>2017-01-21T12:04:30Z</time>
      </trkpt>
      <trkpt lat="45.37103" lon="5.81204">
        <ele>2024.2</ele>
        <time>2017-01-21T12:04:35Z</time>
      </trkpt>
      <trkpt lat="45.37103" lon="5.81204">
        <ele>2024.6</ele>
        <time>2017-01-21T12:04:40Z</time>
      </trkpt>
      <trkpt lat="45.37103" lon="5.81204">
        <ele>2024.8</ele>
        <time>2017-01-21T12:04:45Z</time>
      </trkpt>
      <trkpt lat="45.37099" lon="5.81204">
        <ele>2023.4</ele>
        <time>2017-01-21T12:04:50Z</time>
      </trkpt>
      <trkpt lat="45.37095" lon="5.81204">
        <ele>2024.2</ele>
        <time>2017-01-21T12:04:55Z</time>
      </trkpt>
      <trkpt lat="45.37091" lon="5.81204">
        <ele>2024.8</ele>
        <time>2017-01-21T12:05:00Z</time>
      </trkpt>
      <trkpt lat="45.37087" lon="5.81206">
        <ele>2027.4</ele>
        <time>2017-01-21T12:05:05Z</time>
      </trkpt>
      <trkpt lat="45.37083" lon="5.81207">
        <ele>2026.4</ele>
        <time>2017-01-21T12:05:10Z</time>
      </trkpt>
      <trkpt lat="45.3708" lon="5.81208">
        <ele>2027.6</ele>
        <time>2017-01-21T12:05:15Z</time>
      </trkpt>
      <trkpt lat="45.37076" lon="5.81207">
        <ele>2031.4</ele>
        <time>2017-01-21T12:05:20Z</time>
      </trkpt>
      <trkpt lat="45.37075" lon="5.81205">
        <ele>2028.8</ele>
        <time>2017-01-21T12:05:25Z</time>
      </trkpt>
      <trkpt lat="45.37075" lon="5.81205">
        <ele>2028.8</ele>
        <time>2017-01-21T12:05:30Z</time>
      </trkpt>
      <trkpt lat="45.37075" lon="5.81205">
        <ele>2028.6</ele>
        <time>2017-01-21T12:05:35Z</time>
      </trkpt>
      <trkpt lat="45.37075" lon="5.81205">
        <ele>2028.6</ele>
        <time>2017-01-21T12:05:40Z</time>
      </trkpt>
      <trkpt lat="45.37075" lon="5.81205">
        <ele>2028.6</ele>
        <time>2017-01-21T12:05:45Z</time>
      </trkpt>
      <trkpt lat="45.37075" lon="5.81205">
        <ele>2028.6</ele>
        <time>2017-01-21T12:05:50Z</time>
      </trkpt>
      <trkpt lat="45.37075" lon="5.81205">
        <ele>2028.6</ele>
        <time>2017-01-21T12:05:55Z</time>
      </trkpt>
      <trkpt lat="45.37075" lon="5.81205">
        <ele>2028.8</ele>
        <time>2017-01-21T12:06:00Z</time>
      </trkpt>
      <trkpt lat="45.37075" lon="5.81205">
        <ele>2028.8</ele>
        <time>2017-01-21T12:06:05Z</time>
      </trkpt>
      <trkpt lat="45.37075" lon="5.81205">
        <ele>2028.8</ele>
        <time>2017-01-21T12:06:10Z</time>
      </trkpt>
      <trkpt lat="45.37075" lon="5.81205">
        <ele>2029</ele>
        <time>2017-01-21T12:06:15Z</time>
      </trkpt>
      <trkpt lat="45.37075" lon="5.81205">
        <ele>2029</ele>
        <time>2017-01-21T12:06:20Z</time>
      </trkpt>
      <trkpt lat="45.37075" lon="5.81205">
        <ele>2029</ele>
        <time>2017-01-21T12:06:25Z</time>
      </trkpt>
      <trkpt lat="45.37075" lon="5.81205">
        <ele>2029</ele>
        <time>2017-01-21T12:06:30Z</time>
      </trkpt>
      <trkpt lat="45.37075" lon="5.81205">
        <ele>2029</ele>
        <time>2017-01-21T12:06:35Z</time>
      </trkpt>
      <trkpt lat="45.37075" lon="5.81205">
        <ele>2029</ele>
        <time>2017-01-21T12:06:40Z</time>
      </trkpt>
      <trkpt lat="45.37074" lon="5.81206">
        <ele>2028.4</ele>
        <time>2017-01-21T12:06:45Z</time>
      </trkpt>
      <trkpt lat="45.37074" lon="5.81206">
        <ele>2030</ele>
        <time>2017-01-21T12:06:50Z</time>
      </trkpt>
      <trkpt lat="45.37071" lon="5.81207">
        <ele>2031.6</ele>
        <time>2017-01-21T12:06:55Z</time>
      </trkpt>
      <trkpt lat="45.37068" lon="5.81208">
        <ele>2029.2</ele>
        <time>2017-01-21T12:07:00Z</time>
      </trkpt>
      <trkpt lat="45.37065" lon="5.81207">
        <ele>2030.2</ele>
        <time>2017-01-21T12:07:05Z</time>
      </trkpt>
      <trkpt lat="45.37062" lon="5.81207">
        <ele>2031</ele>
        <time>2017-01-21T12:07:10Z</time>
      </trkpt>
      <trkpt lat="45.3706" lon="5.81208">
        <ele>2030.6</ele>
        <time>2017-01-21T12:07:15Z</time>
      </trkpt>
      <trkpt lat="45.37058" lon="5.81209">
        <ele>2030.4</ele>
        <time>2017-01-21T12:07:20Z</time>
      </trkpt>
      <trkpt lat="45.37056" lon="5.81208">
        <ele>2030.4</ele>
        <time>2017-01-21T12:07:25Z</time>
      </trkpt>
      <trkpt lat="45.37055" lon="5.81209">
        <ele>2030.4</ele>
        <time>2017-01-21T12:07:30Z</time>
      </trkpt>
      <trkpt lat="45.37053" lon="5.81208">
        <ele>2030.6</ele>
        <time>2017-01-21T12:07:35Z</time>
      </trkpt>
      <trkpt lat="45.37052" lon="5.81206">
        <ele>2030.8</ele>
        <time>2017-01-21T12:07:40Z</time>
      </trkpt>
      <trkpt lat="45.3705" lon="5.81205">
        <ele>2034</ele>
        <time>2017-01-21T12:07:45Z</time>
      </trkpt>
      <trkpt lat="45.37047" lon="5.81206">
        <ele>2033.4</ele>
        <time>2017-01-21T12:07:51Z</time>
      </trkpt>
      <trkpt lat="45.37044" lon="5.81206">
        <ele>2035.4</ele>
        <time>2017-01-21T12:07:56Z</time>
      </trkpt>
      <trkpt lat="45.37042" lon="5.81204">
        <ele>2031</ele>
        <time>2017-01-21T12:08:01Z</time>
      </trkpt>
      <trkpt lat="45.37042" lon="5.81203">
        <ele>2032.4</ele>
        <time>2017-01-21T12:08:06Z</time>
      </trkpt>
      <trkpt lat="45.37042" lon="5.81203">
        <ele>2032.6</ele>
        <time>2017-01-21T12:08:11Z</time>
      </trkpt>
      <trkpt lat="45.37042" lon="5.81203">
        <ele>2032.6</ele>
        <time>2017-01-21T12:08:16Z</time>
      </trkpt>
      <trkpt lat="45.37042" lon="5.81203">
        <ele>2032.6</ele>
        <time>2017-01-21T12:08:21Z</time>
      </trkpt>
      <trkpt lat="45.37042" lon="5.81203">
        <ele>2032.6</ele>
        <time>2017-01-21T12:08:26Z</time>
      </trkpt>
      <trkpt lat="45.37042" lon="5.81204">
        <ele>2032.6</ele>
        <time>2017-01-21T12:08:31Z</time>
      </trkpt>
      <trkpt lat="45.37042" lon="5.81203">
        <ele>2032</ele>
        <time>2017-01-21T12:08:36Z</time>
      </trkpt>
      <trkpt lat="45.37042" lon="5.81203">
        <ele>2032</ele>
        <time>2017-01-21T12:08:41Z</time>
      </trkpt>
      <trkpt lat="45.37042" lon="5.81203">
        <ele>2032</ele>
        <time>2017-01-21T12:08:46Z</time>
      </trkpt>
      <trkpt lat="45.37042" lon="5.81203">
        <ele>2032</ele>
        <time>2017-01-21T12:08:51Z</time>
      </trkpt>
      <trkpt lat="45.37042" lon="5.81203">
        <ele>2032</ele>
        <time>2017-01-21T12:08:56Z</time>
      </trkpt>
      <trkpt lat="45.37042" lon="5.81203">
        <ele>2032</ele>
        <time>2017-01-21T12:09:01Z</time>
      </trkpt>
      <trkpt lat="45.37042" lon="5.81203">
        <ele>2032</ele>
        <time>2017-01-21T12:09:06Z</time>
      </trkpt>
      <trkpt lat="45.37042" lon="5.81203">
        <ele>2032</ele>
        <time>2017-01-21T12:09:11Z</time>
      </trkpt>
      <trkpt lat="45.37042" lon="5.81203">
        <ele>2032</ele>
        <time>2017-01-21T12:09:16Z</time>
      </trkpt>
      <trkpt lat="45.37042" lon="5.81202">
        <ele>2032</ele>
        <time>2017-01-21T12:09:21Z</time>
      </trkpt>
      <trkpt lat="45.37042" lon="5.81202">
        <ele>2032</ele>
        <time>2017-01-21T12:09:26Z</time>
      </trkpt>
      <trkpt lat="45.37042" lon="5.81202">
        <ele>2032</ele>
        <time>2017-01-21T12:09:31Z</time>
      </trkpt>
      <trkpt lat="45.37042" lon="5.81202">
        <ele>2032</ele>
        <time>2017-01-21T12:09:36Z</time>
      </trkpt>
      <trkpt lat="45.37042" lon="5.81202">
        <ele>2032</ele>
        <time>2017-01-21T12:09:41Z</time>
      </trkpt>
      <trkpt lat="45.37042" lon="5.81202">
        <ele>2032</ele>
        <time>2017-01-21T12:09:46Z</time>
      </trkpt>
      <trkpt lat="45.37042" lon="5.81202">
        <ele>2032</ele>
        <time>2017-01-21T12:09:51Z</time>
      </trkpt>
      <trkpt lat="45.37042" lon="5.81202">
        <ele>2032</ele>
        <time>2017-01-21T12:09:56Z</time>
      </trkpt>
      <trkpt lat="45.37042" lon="5.81202">
        <ele>2032</ele>
        <time>2017-01-21T12:10:01Z</time>
      </trkpt>
      <trkpt lat="45.37042" lon="5.81202">
        <ele>2032</ele>
        <time>2017-01-21T12:10:06Z</time>
      </trkpt>
      <trkpt lat="45.37042" lon="5.81202">
        <ele>2032</ele>
        <time>2017-01-21T12:10:11Z</time>
      </trkpt>
      <trkpt lat="45.37042" lon="5.81202">
        <ele>2032</ele>
        <time>2017-01-21T12:10:16Z</time>
      </trkpt>
      <trkpt lat="45.37042" lon="5.81202">
        <ele>2031.8</ele>
        <time>2017-01-21T12:10:21Z</time>
      </trkpt>
      <trkpt lat="45.37042" lon="5.81202">
        <ele>2031.8</ele>
        <time>2017-01-21T12:10:26Z</time>
      </trkpt>
      <trkpt lat="45.37042" lon="5.81202">
        <ele>2031.8</ele>
        <time>2017-01-21T12:10:31Z</time>
      </trkpt>
      <trkpt lat="45.37042" lon="5.81202">
        <ele>2031.8</ele>
        <time>2017-01-21T12:10:36Z</time>
      </trkpt>
      <trkpt lat="45.37042" lon="5.81202">
        <ele>2031.6</ele>
        <time>2017-01-21T12:10:41Z</time>
      </trkpt>
      <trkpt lat="45.37042" lon="5.81202">
        <ele>2031.6</ele>
        <time>2017-01-21T12:10:46Z</time>
      </trkpt>
      <trkpt lat="45.37042" lon="5.81202">
        <ele>2031.6</ele>
        <time>2017-01-21T12:10:51Z</time>
      </trkpt>
      <trkpt lat="45.37042" lon="5.81202">
        <ele>2031.6</ele>
        <time>2017-01-21T12:10:56Z</time>
      </trkpt>
      <trkpt lat="45.37042" lon="5.81202">
        <ele>2031.6</ele>
        <time>2017-01-21T12:11:01Z</time>
      </trkpt>
      <trkpt lat="45.37042" lon="5.81202">
        <ele>2031.6</ele>
        <time>2017-01-21T12:11:06Z</time>
      </trkpt>
      <trkpt lat="45.37042" lon="5.81202">
        <ele>2031.6</ele>
        <time>2017-01-21T12:11:11Z</time>
      </trkpt>
      <trkpt lat="45.37042" lon="5.81202">
        <ele>2031.6</ele>
        <time>2017-01-21T12:11:16Z</time>
      </trkpt>
      <trkpt lat="45.37042" lon="5.81202">
        <ele>2031.6</ele>
        <time>2017-01-21T12:11:21Z</time>
      </trkpt>
      <trkpt lat="45.37042" lon="5.81202">
        <ele>2031.6</ele>
        <time>2017-01-21T12:11:26Z</time>
      </trkpt>
      <trkpt lat="45.37042" lon="5.81202">
        <ele>2031.6</ele>
        <time>2017-01-21T12:11:31Z</time>
      </trkpt>
      <trkpt lat="45.37042" lon="5.81202">
        <ele>2031.6</ele>
        <time>2017-01-21T12:11:36Z</time>
      </trkpt>
      <trkpt lat="45.37042" lon="5.81202">
        <ele>2031.6</ele>
        <time>2017-01-21T12:11:41Z</time>
      </trkpt>
      <trkpt lat="45.37042" lon="5.81202">
        <ele>2031.6</ele>
        <time>2017-01-21T12:11:46Z</time>
      </trkpt>
      <trkpt lat="45.37042" lon="5.81202">
        <ele>2031.6</ele>
        <time>2017-01-21T12:11:51Z</time>
      </trkpt>
      <trkpt lat="45.37042" lon="5.81202">
        <ele>2031.6</ele>
        <time>2017-01-21T12:11:56Z</time>
      </trkpt>
      <trkpt lat="45.37042" lon="5.81202">
        <ele>2031.6</ele>
        <time>2017-01-21T12:12:01Z</time>
      </trkpt>
      <trkpt lat="45.37042" lon="5.81202">
        <ele>2031.6</ele>
        <time>2017-01-21T12:12:06Z</time>
      </trkpt>
      <trkpt lat="45.37042" lon="5.81202">
        <ele>2031.6</ele>
        <time>2017-01-21T12:12:11Z</time>
      </trkpt>
      <trkpt lat="45.37042" lon="5.81202">
        <ele>2031.6</ele>
        <time>2017-01-21T12:12:16Z</time>
      </trkpt>
      <trkpt lat="45.37042" lon="5.81202">
        <ele>2031.6</ele>
        <time>2017-01-21T12:12:21Z</time>
      </trkpt>
      <trkpt lat="45.37042" lon="5.81202">
        <ele>2031.6</ele>
        <time>2017-01-21T12:12:26Z</time>
      </trkpt>
      <trkpt lat="45.37042" lon="5.81202">
        <ele>2031.6</ele>
        <time>2017-01-21T12:12:31Z</time>
      </trkpt>
      <trkpt lat="45.37042" lon="5.81202">
        <ele>2031.6</ele>
        <time>2017-01-21T12:12:36Z</time>
      </trkpt>
      <trkpt lat="45.37042" lon="5.81202">
        <ele>2031.6</ele>
        <time>2017-01-21T12:12:41Z</time>
      </trkpt>
      <trkpt lat="45.37042" lon="5.81202">
        <ele>2031.4</ele>
        <time>2017-01-21T12:12:46Z</time>
      </trkpt>
      <trkpt lat="45.37042" lon="5.81202">
        <ele>2031.4</ele>
        <time>2017-01-21T12:12:51Z</time>
      </trkpt>
      <trkpt lat="45.37042" lon="5.81202">
        <ele>2031.4</ele>
        <time>2017-01-21T12:12:56Z</time>
      </trkpt>
      <trkpt lat="45.37042" lon="5.81202">
        <ele>2031.4</ele>
        <time>2017-01-21T12:13:01Z</time>
      </trkpt>
      <trkpt lat="45.37042" lon="5.81202">
        <ele>2031.2</ele>
        <time>2017-01-21T12:13:06Z</time>
      </trkpt>
      <trkpt lat="45.37042" lon="5.81202">
        <ele>2031.2</ele>
        <time>2017-01-21T12:13:11Z</time>
      </trkpt>
      <trkpt lat="45.37042" lon="5.81202">
        <ele>2031.2</ele>
        <time>2017-01-21T12:13:16Z</time>
      </trkpt>
      <trkpt lat="45.37042" lon="5.81202">
        <ele>2031.2</ele>
        <time>2017-01-21T12:13:21Z</time>
      </trkpt>
      <trkpt lat="45.37042" lon="5.81202">
        <ele>2031</ele>
        <time>2017-01-21T12:13:26Z</time>
      </trkpt>
      <trkpt lat="45.37042" lon="5.81202">
        <ele>2031</ele>
        <time>2017-01-21T12:13:31Z</time>
      </trkpt>
      <trkpt lat="45.37042" lon="5.81202">
        <ele>2031</ele>
        <time>2017-01-21T12:13:36Z</time>
      </trkpt>
      <trkpt lat="45.37042" lon="5.81202">
        <ele>2031</ele>
        <time>2017-01-21T12:13:41Z</time>
      </trkpt>
      <trkpt lat="45.37042" lon="5.81202">
        <ele>2031</ele>
        <time>2017-01-21T12:13:46Z</time>
      </trkpt>
      <trkpt lat="45.37042" lon="5.81202">
        <ele>2031</ele>
        <time>2017-01-21T12:13:51Z</time>
      </trkpt>
      <trkpt lat="45.37042" lon="5.81202">
        <ele>2031</ele>
        <time>2017-01-21T12:13:56Z</time>
      </trkpt>
      <trkpt lat="45.37042" lon="5.81202">
        <ele>2031</ele>
        <time>2017-01-21T12:14:01Z</time>
      </trkpt>
      <trkpt lat="45.37042" lon="5.81202">
        <ele>2031</ele>
        <time>2017-01-21T12:14:06Z</time>
      </trkpt>
      <trkpt lat="45.37042" lon="5.81202">
        <ele>2031</ele>
        <time>2017-01-21T12:14:11Z</time>
      </trkpt>
      <trkpt lat="45.37042" lon="5.81202">
        <ele>2031</ele>
        <time>2017-01-21T12:14:16Z</time>
      </trkpt>
      <trkpt lat="45.37042" lon="5.81201">
        <ele>2031</ele>
        <time>2017-01-21T12:14:21Z</time>
      </trkpt>
      <trkpt lat="45.37042" lon="5.81201">
        <ele>2031</ele>
        <time>2017-01-21T12:14:26Z</time>
      </trkpt>
      <trkpt lat="45.37042" lon="5.81201">
        <ele>2031</ele>
        <time>2017-01-21T12:14:31Z</time>
      </trkpt>
      <trkpt lat="45.37042" lon="5.81201">
        <ele>2031</ele>
        <time>2017-01-21T12:14:36Z</time>
      </trkpt>
      <trkpt lat="45.37042" lon="5.81201">
        <ele>2031</ele>
        <time>2017-01-21T12:14:41Z</time>
      </trkpt>
      <trkpt lat="45.37042" lon="5.81201">
        <ele>2031</ele>
        <time>2017-01-21T12:14:46Z</time>
      </trkpt>
      <trkpt lat="45.37042" lon="5.81201">
        <ele>2031</ele>
        <time>2017-01-21T12:14:51Z</time>
      </trkpt>
      <trkpt lat="45.37042" lon="5.81201">
        <ele>2031</ele>
        <time>2017-01-21T12:14:56Z</time>
      </trkpt>
      <trkpt lat="45.37042" lon="5.81201">
        <ele>2031</ele>
        <time>2017-01-21T12:15:01Z</time>
      </trkpt>
      <trkpt lat="45.37042" lon="5.81201">
        <ele>2030.8</ele>
        <time>2017-01-21T12:15:06Z</time>
      </trkpt>
      <trkpt lat="45.37042" lon="5.81201">
        <ele>2030.8</ele>
        <time>2017-01-21T12:15:11Z</time>
      </trkpt>
      <trkpt lat="45.37042" lon="5.81201">
        <ele>2030.8</ele>
        <time>2017-01-21T12:15:16Z</time>
      </trkpt>
      <trkpt lat="45.37042" lon="5.81201">
        <ele>2030.8</ele>
        <time>2017-01-21T12:15:21Z</time>
      </trkpt>
      <trkpt lat="45.37042" lon="5.81201">
        <ele>2030.8</ele>
        <time>2017-01-21T12:15:26Z</time>
      </trkpt>
      <trkpt lat="45.37042" lon="5.81201">
        <ele>2030.8</ele>
        <time>2017-01-21T12:15:32Z</time>
      </trkpt>
      <trkpt lat="45.37042" lon="5.81201">
        <ele>2030.8</ele>
        <time>2017-01-21T12:15:37Z</time>
      </trkpt>
      <trkpt lat="45.37042" lon="5.81201">
        <ele>2030.8</ele>
        <time>2017-01-21T12:15:42Z</time>
      </trkpt>
      <trkpt lat="45.37042" lon="5.81201">
        <ele>2030.8</ele>
        <time>2017-01-21T12:15:47Z</time>
      </trkpt>
      <trkpt lat="45.37042" lon="5.81201">
        <ele>2030.8</ele>
        <time>2017-01-21T12:15:52Z</time>
      </trkpt>
      <trkpt lat="45.37042" lon="5.81201">
        <ele>2030.8</ele>
        <time>2017-01-21T12:15:57Z</time>
      </trkpt>
      <trkpt lat="45.37042" lon="5.81201">
        <ele>2030.8</ele>
        <time>2017-01-21T12:16:02Z</time>
      </trkpt>
      <trkpt lat="45.37042" lon="5.81201">
        <ele>2030.8</ele>
        <time>2017-01-21T12:16:07Z</time>
      </trkpt>
      <trkpt lat="45.37042" lon="5.81201">
        <ele>2030.8</ele>
        <time>2017-01-21T12:16:12Z</time>
      </trkpt>
      <trkpt lat="45.37042" lon="5.81201">
        <ele>2030.8</ele>
        <time>2017-01-21T12:16:17Z</time>
      </trkpt>
      <trkpt lat="45.37042" lon="5.81201">
        <ele>2030.8</ele>
        <time>2017-01-21T12:16:22Z</time>
      </trkpt>
      <trkpt lat="45.37042" lon="5.81201">
        <ele>2030.8</ele>
        <time>2017-01-21T12:16:27Z</time>
      </trkpt>
      <trkpt lat="45.37042" lon="5.81201">
        <ele>2030.8</ele>
        <time>2017-01-21T12:16:32Z</time>
      </trkpt>
      <trkpt lat="45.37042" lon="5.81201">
        <ele>2030.8</ele>
        <time>2017-01-21T12:16:37Z</time>
      </trkpt>
      <trkpt lat="45.37042" lon="5.81201">
        <ele>2030.8</ele>
        <time>2017-01-21T12:16:42Z</time>
      </trkpt>
      <trkpt lat="45.37042" lon="5.81201">
        <ele>2030.8</ele>
        <time>2017-01-21T12:16:47Z</time>
      </trkpt>
      <trkpt lat="45.37042" lon="5.81201">
        <ele>2030.8</ele>
        <time>2017-01-21T12:16:52Z</time>
      </trkpt>
      <trkpt lat="45.37042" lon="5.81201">
        <ele>2030.8</ele>
        <time>2017-01-21T12:16:57Z</time>
      </trkpt>
      <trkpt lat="45.37042" lon="5.81201">
        <ele>2030.6</ele>
        <time>2017-01-21T12:17:02Z</time>
      </trkpt>
      <trkpt lat="45.37042" lon="5.81201">
        <ele>2030.6</ele>
        <time>2017-01-21T12:17:07Z</time>
      </trkpt>
      <trkpt lat="45.37042" lon="5.81201">
        <ele>2030.6</ele>
        <time>2017-01-21T12:17:12Z</time>
      </trkpt>
      <trkpt lat="45.37042" lon="5.81201">
        <ele>2030.4</ele>
        <time>2017-01-21T12:17:17Z</time>
      </trkpt>
      <trkpt lat="45.37042" lon="5.81201">
        <ele>2030.4</ele>
        <time>2017-01-21T12:17:22Z</time>
      </trkpt>
      <trkpt lat="45.37042" lon="5.81201">
        <ele>2030.4</ele>
        <time>2017-01-21T12:17:27Z</time>
      </trkpt>
      <trkpt lat="45.37042" lon="5.81201">
        <ele>2030.2</ele>
        <time>2017-01-21T12:17:32Z</time>
      </trkpt>
      <trkpt lat="45.37042" lon="5.81201">
        <ele>2030.2</ele>
        <time>2017-01-21T12:17:37Z</time>
      </trkpt>
      <trkpt lat="45.37042" lon="5.81201">
        <ele>2030.2</ele>
        <time>2017-01-21T12:17:42Z</time>
      </trkpt>
      <trkpt lat="45.37042" lon="5.81201">
        <ele>2030.2</ele>
        <time>2017-01-21T12:17:47Z</time>
      </trkpt>
      <trkpt lat="45.37042" lon="5.81201">
        <ele>2030.2</ele>
        <time>2017-01-21T12:17:52Z</time>
      </trkpt>
      <trkpt lat="45.37042" lon="5.81201">
        <ele>2030.2</ele>
        <time>2017-01-21T12:17:57Z</time>
      </trkpt>
      <trkpt lat="45.37042" lon="5.81201">
        <ele>2030.2</ele>
        <time>2017-01-21T12:18:02Z</time>
      </trkpt>
      <trkpt lat="45.37042" lon="5.81201">
        <ele>2030.2</ele>
        <time>2017-01-21T12:18:07Z</time>
      </trkpt>
      <trkpt lat="45.37042" lon="5.81201">
        <ele>2030.2</ele>
        <time>2017-01-21T12:18:12Z</time>
      </trkpt>
      <trkpt lat="45.37042" lon="5.81201">
        <ele>2030.2</ele>
        <time>2017-01-21T12:18:18Z</time>
      </trkpt>
      <trkpt lat="45.37042" lon="5.81201">
        <ele>2030.2</ele>
        <time>2017-01-21T12:18:23Z</time>
      </trkpt>
      <trkpt lat="45.37042" lon="5.81201">
        <ele>2030.2</ele>
        <time>2017-01-21T12:18:28Z</time>
      </trkpt>
      <trkpt lat="45.37041" lon="5.81201">
        <ele>2030.2</ele>
        <time>2017-01-21T12:18:33Z</time>
      </trkpt>
      <trkpt lat="45.37041" lon="5.81201">
        <ele>2030</ele>
        <time>2017-01-21T12:18:38Z</time>
      </trkpt>
      <trkpt lat="45.37041" lon="5.81201">
        <ele>2030</ele>
        <time>2017-01-21T12:18:43Z</time>
      </trkpt>
      <trkpt lat="45.37041" lon="5.81201">
        <ele>2030</ele>
        <time>2017-01-21T12:18:48Z</time>
      </trkpt>
      <trkpt lat="45.37041" lon="5.81201">
        <ele>2030</ele>
        <time>2017-01-21T12:18:53Z</time>
      </trkpt>
      <trkpt lat="45.37041" lon="5.81201">
        <ele>2030</ele>
        <time>2017-01-21T12:18:58Z</time>
      </trkpt>
      <trkpt lat="45.37041" lon="5.81201">
        <ele>2030</ele>
        <time>2017-01-21T12:19:03Z</time>
      </trkpt>
      <trkpt lat="45.37041" lon="5.81201">
        <ele>2030</ele>
        <time>2017-01-21T12:19:08Z</time>
      </trkpt>
      <trkpt lat="45.37041" lon="5.81201">
        <ele>2030</ele>
        <time>2017-01-21T12:19:13Z</time>
      </trkpt>
      <trkpt lat="45.37041" lon="5.81201">
        <ele>2030</ele>
        <time>2017-01-21T12:19:18Z</time>
      </trkpt>
      <trkpt lat="45.37041" lon="5.81201">
        <ele>2030</ele>
        <time>2017-01-21T12:19:23Z</time>
      </trkpt>
      <trkpt lat="45.37041" lon="5.81201">
        <ele>2030</ele>
        <time>2017-01-21T12:19:28Z</time>
      </trkpt>
      <trkpt lat="45.37041" lon="5.81201">
        <ele>2030</ele>
        <time>2017-01-21T12:19:33Z</time>
      </trkpt>
      <trkpt lat="45.37041" lon="5.81201">
        <ele>2030</ele>
        <time>2017-01-21T12:19:38Z</time>
      </trkpt>
      <trkpt lat="45.37041" lon="5.81201">
        <ele>2029.8</ele>
        <time>2017-01-21T12:19:43Z</time>
      </trkpt>
      <trkpt lat="45.37041" lon="5.81201">
        <ele>2029.8</ele>
        <time>2017-01-21T12:19:48Z</time>
      </trkpt>
      <trkpt lat="45.37041" lon="5.81201">
        <ele>2029.8</ele>
        <time>2017-01-21T12:19:53Z</time>
      </trkpt>
      <trkpt lat="45.37041" lon="5.81201">
        <ele>2029.8</ele>
        <time>2017-01-21T12:19:58Z</time>
      </trkpt>
      <trkpt lat="45.37041" lon="5.81201">
        <ele>2029.8</ele>
        <time>2017-01-21T12:20:03Z</time>
      </trkpt>
      <trkpt lat="45.37041" lon="5.81201">
        <ele>2029.6</ele>
        <time>2017-01-21T12:20:08Z</time>
      </trkpt>
      <trkpt lat="45.37041" lon="5.81201">
        <ele>2029.6</ele>
        <time>2017-01-21T12:20:13Z</time>
      </trkpt>
      <trkpt lat="45.37041" lon="5.81201">
        <ele>2029.6</ele>
        <time>2017-01-21T12:20:18Z</time>
      </trkpt>
      <trkpt lat="45.37041" lon="5.81201">
        <ele>2029.6</ele>
        <time>2017-01-21T12:20:23Z</time>
      </trkpt>
      <trkpt lat="45.37041" lon="5.81201">
        <ele>2029.6</ele>
        <time>2017-01-21T12:20:28Z</time>
      </trkpt>
      <trkpt lat="45.37041" lon="5.81201">
        <ele>2029.6</ele>
        <time>2017-01-21T12:20:33Z</time>
      </trkpt>
      <trkpt lat="45.37041" lon="5.81201">
        <ele>2029.4</ele>
        <time>2017-01-21T12:20:38Z</time>
      </trkpt>
      <trkpt lat="45.37041" lon="5.81201">
        <ele>2029.4</ele>
        <time>2017-01-21T12:20:43Z</time>
      </trkpt>
      <trkpt lat="45.37041" lon="5.81201">
        <ele>2029.4</ele>
        <time>2017-01-21T12:20:48Z</time>
      </trkpt>
      <trkpt lat="45.37041" lon="5.81201">
        <ele>2029.4</ele>
        <time>2017-01-21T12:20:53Z</time>
      </trkpt>
      <trkpt lat="45.37041" lon="5.81201">
        <ele>2029.4</ele>
        <time>2017-01-21T12:20:58Z</time>
      </trkpt>
      <trkpt lat="45.37041" lon="5.81201">
        <ele>2029.4</ele>
        <time>2017-01-21T12:21:03Z</time>
      </trkpt>
      <trkpt lat="45.37041" lon="5.81201">
        <ele>2029.4</ele>
        <time>2017-01-21T12:21:08Z</time>
      </trkpt>
      <trkpt lat="45.37041" lon="5.81201">
        <ele>2029.4</ele>
        <time>2017-01-21T12:21:13Z</time>
      </trkpt>
      <trkpt lat="45.37041" lon="5.81201">
        <ele>2029.4</ele>
        <time>2017-01-21T12:21:18Z</time>
      </trkpt>
      <trkpt lat="45.37041" lon="5.81201">
        <ele>2029.4</ele>
        <time>2017-01-21T12:21:23Z</time>
      </trkpt>
      <trkpt lat="45.37041" lon="5.81201">
        <ele>2029.2</ele>
        <time>2017-01-21T12:21:28Z</time>
      </trkpt>
      <trkpt lat="45.37041" lon="5.81201">
        <ele>2029.2</ele>
        <time>2017-01-21T12:21:33Z</time>
      </trkpt>
      <trkpt lat="45.37041" lon="5.81201">
        <ele>2029.2</ele>
        <time>2017-01-21T12:21:38Z</time>
      </trkpt>
      <trkpt lat="45.37041" lon="5.81201">
        <ele>2029.2</ele>
        <time>2017-01-21T12:21:43Z</time>
      </trkpt>
      <trkpt lat="45.37041" lon="5.81201">
        <ele>2029</ele>
        <time>2017-01-21T12:21:48Z</time>
      </trkpt>
      <trkpt lat="45.37041" lon="5.81201">
        <ele>2029</ele>
        <time>2017-01-21T12:21:53Z</time>
      </trkpt>
      <trkpt lat="45.37041" lon="5.81201">
        <ele>2029</ele>
        <time>2017-01-21T12:21:58Z</time>
      </trkpt>
      <trkpt lat="45.37041" lon="5.81201">
        <ele>2029</ele>
        <time>2017-01-21T12:22:03Z</time>
      </trkpt>
      <trkpt lat="45.37041" lon="5.81201">
        <ele>2029</ele>
        <time>2017-01-21T12:22:08Z</time>
      </trkpt>
      <trkpt lat="45.37041" lon="5.81201">
        <ele>2029</ele>
        <time>2017-01-21T12:22:13Z</time>
      </trkpt>
      <trkpt lat="45.37041" lon="5.81201">
        <ele>2029</ele>
        <time>2017-01-21T12:22:18Z</time>
      </trkpt>
      <trkpt lat="45.37041" lon="5.81201">
        <ele>2029</ele>
        <time>2017-01-21T12:22:23Z</time>
      </trkpt>
      <trkpt lat="45.37041" lon="5.81202">
        <ele>2029</ele>
        <time>2017-01-21T12:22:28Z</time>
      </trkpt>
      <trkpt lat="45.37041" lon="5.81202">
        <ele>2029</ele>
        <time>2017-01-21T12:22:33Z</time>
      </trkpt>
      <trkpt lat="45.37041" lon="5.81202">
        <ele>2028.8</ele>
        <time>2017-01-21T12:22:38Z</time>
      </trkpt>
      <trkpt lat="45.37041" lon="5.81202">
        <ele>2028.8</ele>
        <time>2017-01-21T12:22:43Z</time>
      </trkpt>
      <trkpt lat="45.37041" lon="5.81202">
        <ele>2028.8</ele>
        <time>2017-01-21T12:22:48Z</time>
      </trkpt>
      <trkpt lat="45.37041" lon="5.81202">
        <ele>2028.8</ele>
        <time>2017-01-21T12:22:53Z</time>
      </trkpt>
      <trkpt lat="45.37041" lon="5.81202">
        <ele>2028.8</ele>
        <time>2017-01-21T12:22:58Z</time>
      </trkpt>
      <trkpt lat="45.37041" lon="5.81202">
        <ele>2028.8</ele>
        <time>2017-01-21T12:23:03Z</time>
      </trkpt>
      <trkpt lat="45.37041" lon="5.81202">
        <ele>2028.8</ele>
        <time>2017-01-21T12:23:08Z</time>
      </trkpt>
      <trkpt lat="45.37041" lon="5.81202">
        <ele>2028.8</ele>
        <time>2017-01-21T12:23:13Z</time>
      </trkpt>
      <trkpt lat="45.37041" lon="5.81202">
        <ele>2028.8</ele>
        <time>2017-01-21T12:23:18Z</time>
      </trkpt>
      <trkpt lat="45.37041" lon="5.81202">
        <ele>2028.8</ele>
        <time>2017-01-21T12:23:23Z</time>
      </trkpt>
      <trkpt lat="45.37041" lon="5.81202">
        <ele>2028.8</ele>
        <time>2017-01-21T12:23:28Z</time>
      </trkpt>
      <trkpt lat="45.37041" lon="5.81202">
        <ele>2028.8</ele>
        <time>2017-01-21T12:23:33Z</time>
      </trkpt>
      <trkpt lat="45.37041" lon="5.81202">
        <ele>2028.8</ele>
        <time>2017-01-21T12:23:38Z</time>
      </trkpt>
      <trkpt lat="45.37041" lon="5.81202">
        <ele>2028.8</ele>
        <time>2017-01-21T12:23:43Z</time>
      </trkpt>
      <trkpt lat="45.37041" lon="5.81202">
        <ele>2028.6</ele>
        <time>2017-01-21T12:23:48Z</time>
      </trkpt>
      <trkpt lat="45.37041" lon="5.81202">
        <ele>2028.6</ele>
        <time>2017-01-21T12:23:53Z</time>
      </trkpt>
      <trkpt lat="45.37041" lon="5.81202">
        <ele>2028.6</ele>
        <time>2017-01-21T12:23:58Z</time>
      </trkpt>
      <trkpt lat="45.37041" lon="5.81202">
        <ele>2028.6</ele>
        <time>2017-01-21T12:24:03Z</time>
      </trkpt>
      <trkpt lat="45.37041" lon="5.81202">
        <ele>2028.6</ele>
        <time>2017-01-21T12:24:08Z</time>
      </trkpt>
      <trkpt lat="45.37041" lon="5.81202">
        <ele>2028.6</ele>
        <time>2017-01-21T12:24:13Z</time>
      </trkpt>
      <trkpt lat="45.37041" lon="5.81202">
        <ele>2028.6</ele>
        <time>2017-01-21T12:24:18Z</time>
      </trkpt>
      <trkpt lat="45.37041" lon="5.81202">
        <ele>2028.6</ele>
        <time>2017-01-21T12:24:23Z</time>
      </trkpt>
      <trkpt lat="45.37041" lon="5.81202">
        <ele>2028.6</ele>
        <time>2017-01-21T12:24:28Z</time>
      </trkpt>
      <trkpt lat="45.37041" lon="5.81202">
        <ele>2028.6</ele>
        <time>2017-01-21T12:24:33Z</time>
      </trkpt>
      <trkpt lat="45.37041" lon="5.81202">
        <ele>2028.6</ele>
        <time>2017-01-21T12:24:38Z</time>
      </trkpt>
      <trkpt lat="45.37041" lon="5.81202">
        <ele>2028.6</ele>
        <time>2017-01-21T12:24:43Z</time>
      </trkpt>
      <trkpt lat="45.37041" lon="5.81202">
        <ele>2028.6</ele>
        <time>2017-01-21T12:24:48Z</time>
      </trkpt>
      <trkpt lat="45.37041" lon="5.81202">
        <ele>2028.6</ele>
        <time>2017-01-21T12:24:53Z</time>
      </trkpt>
      <trkpt lat="45.37041" lon="5.81202">
        <ele>2028.6</ele>
        <time>2017-01-21T12:24:58Z</time>
      </trkpt>
      <trkpt lat="45.37041" lon="5.81202">
        <ele>2028.6</ele>
        <time>2017-01-21T12:25:03Z</time>
      </trkpt>
      <trkpt lat="45.37041" lon="5.81202">
        <ele>2028.6</ele>
        <time>2017-01-21T12:25:08Z</time>
      </trkpt>
      <trkpt lat="45.37041" lon="5.81202">
        <ele>2028.6</ele>
        <time>2017-01-21T12:25:13Z</time>
      </trkpt>
      <trkpt lat="45.37041" lon="5.81202">
        <ele>2028.6</ele>
        <time>2017-01-21T12:25:18Z</time>
      </trkpt>
      <trkpt lat="45.37041" lon="5.81202">
        <ele>2028.6</ele>
        <time>2017-01-21T12:25:23Z</time>
      </trkpt>
      <trkpt lat="45.37041" lon="5.81202">
        <ele>2028.6</ele>
        <time>2017-01-21T12:25:28Z</time>
      </trkpt>
      <trkpt lat="45.37041" lon="5.81202">
        <ele>2028.6</ele>
        <time>2017-01-21T12:25:33Z</time>
      </trkpt>
      <trkpt lat="45.37041" lon="5.81202">
        <ele>2028.6</ele>
        <time>2017-01-21T12:25:38Z</time>
      </trkpt>
      <trkpt lat="45.37041" lon="5.81202">
        <ele>2028.6</ele>
        <time>2017-01-21T12:25:43Z</time>
      </trkpt>
      <trkpt lat="45.37041" lon="5.81202">
        <ele>2028.6</ele>
        <time>2017-01-21T12:25:48Z</time>
      </trkpt>
      <trkpt lat="45.37041" lon="5.81202">
        <ele>2028.6</ele>
        <time>2017-01-21T12:25:53Z</time>
      </trkpt>
      <trkpt lat="45.37041" lon="5.81202">
        <ele>2028.6</ele>
        <time>2017-01-21T12:25:58Z</time>
      </trkpt>
      <trkpt lat="45.37041" lon="5.81202">
        <ele>2028.6</ele>
        <time>2017-01-21T12:26:03Z</time>
      </trkpt>
      <trkpt lat="45.37041" lon="5.81202">
        <ele>2028.6</ele>
        <time>2017-01-21T12:26:08Z</time>
      </trkpt>
      <trkpt lat="45.37041" lon="5.81202">
        <ele>2028.4</ele>
        <time>2017-01-21T12:26:13Z</time>
      </trkpt>
      <trkpt lat="45.37041" lon="5.81202">
        <ele>2028.4</ele>
        <time>2017-01-21T12:26:18Z</time>
      </trkpt>
      <trkpt lat="45.37041" lon="5.81202">
        <ele>2028.4</ele>
        <time>2017-01-21T12:26:24Z</time>
      </trkpt>
      <trkpt lat="45.37041" lon="5.81202">
        <ele>2028.4</ele>
        <time>2017-01-21T12:26:29Z</time>
      </trkpt>
      <trkpt lat="45.37041" lon="5.81202">
        <ele>2028.4</ele>
        <time>2017-01-21T12:26:34Z</time>
      </trkpt>
      <trkpt lat="45.37041" lon="5.81202">
        <ele>2028.2</ele>
        <time>2017-01-21T12:26:39Z</time>
      </trkpt>
      <trkpt lat="45.37041" lon="5.81202">
        <ele>2028.2</ele>
        <time>2017-01-21T12:26:44Z</time>
      </trkpt>
      <trkpt lat="45.37041" lon="5.81202">
        <ele>2028.2</ele>
        <time>2017-01-21T12:26:49Z</time>
      </trkpt>
      <trkpt lat="45.37041" lon="5.81202">
        <ele>2028.2</ele>
        <time>2017-01-21T12:26:54Z</time>
      </trkpt>
      <trkpt lat="45.37041" lon="5.81202">
        <ele>2028.2</ele>
        <time>2017-01-21T12:26:59Z</time>
      </trkpt>
      <trkpt lat="45.37041" lon="5.81202">
        <ele>2028.2</ele>
        <time>2017-01-21T12:27:04Z</time>
      </trkpt>
      <trkpt lat="45.37041" lon="5.81202">
        <ele>2028.2</ele>
        <time>2017-01-21T12:27:09Z</time>
      </trkpt>
      <trkpt lat="45.37041" lon="5.81202">
        <ele>2028.2</ele>
        <time>2017-01-21T12:27:14Z</time>
      </trkpt>
      <trkpt lat="45.37041" lon="5.81202">
        <ele>2028.2</ele>
        <time>2017-01-21T12:27:19Z</time>
      </trkpt>
      <trkpt lat="45.37041" lon="5.81202">
        <ele>2028.2</ele>
        <time>2017-01-21T12:27:24Z</time>
      </trkpt>
      <trkpt lat="45.37041" lon="5.81202">
        <ele>2028.2</ele>
        <time>2017-01-21T12:27:29Z</time>
      </trkpt>
      <trkpt lat="45.37041" lon="5.81202">
        <ele>2028.2</ele>
        <time>2017-01-21T12:27:34Z</time>
      </trkpt>
      <trkpt lat="45.37041" lon="5.81202">
        <ele>2028.2</ele>
        <time>2017-01-21T12:27:39Z</time>
      </trkpt>
      <trkpt lat="45.37041" lon="5.81202">
        <ele>2028</ele>
        <time>2017-01-21T12:27:44Z</time>
      </trkpt>
      <trkpt lat="45.37041" lon="5.81202">
        <ele>2028</ele>
        <time>2017-01-21T12:27:49Z</time>
      </trkpt>
      <trkpt lat="45.37041" lon="5.81202">
        <ele>2028</ele>
        <time>2017-01-21T12:27:54Z</time>
      </trkpt>
      <trkpt lat="45.37041" lon="5.81202">
        <ele>2028</ele>
        <time>2017-01-21T12:27:59Z</time>
      </trkpt>
      <trkpt lat="45.37041" lon="5.81202">
        <ele>2028</ele>
        <time>2017-01-21T12:28:04Z</time>
      </trkpt>
      <trkpt lat="45.37041" lon="5.81202">
        <ele>2028</ele>
        <time>2017-01-21T12:28:09Z</time>
      </trkpt>
      <trkpt lat="45.37041" lon="5.81202">
        <ele>2028</ele>
        <time>2017-01-21T12:28:14Z</time>
      </trkpt>
      <trkpt lat="45.37041" lon="5.81202">
        <ele>2028</ele>
        <time>2017-01-21T12:28:20Z</time>
      </trkpt>
      <trkpt lat="45.37041" lon="5.81202">
        <ele>2028</ele>
        <time>2017-01-21T12:28:26Z</time>
      </trkpt>
      <trkpt lat="45.37041" lon="5.81202">
        <ele>2028</ele>
        <time>2017-01-21T12:28:31Z</time>
      </trkpt>
      <trkpt lat="45.37041" lon="5.81202">
        <ele>2028</ele>
        <time>2017-01-21T12:28:36Z</time>
      </trkpt>
      <trkpt lat="45.37041" lon="5.81202">
        <ele>2028</ele>
        <time>2017-01-21T12:28:41Z</time>
      </trkpt>
      <trkpt lat="45.37041" lon="5.81202">
        <ele>2028</ele>
        <time>2017-01-21T12:28:46Z</time>
      </trkpt>
      <trkpt lat="45.37041" lon="5.81202">
        <ele>2028</ele>
        <time>2017-01-21T12:28:51Z</time>
      </trkpt>
      <trkpt lat="45.37041" lon="5.81202">
        <ele>2028</ele>
        <time>2017-01-21T12:28:56Z</time>
      </trkpt>
      <trkpt lat="45.37041" lon="5.81202">
        <ele>2028</ele>
        <time>2017-01-21T12:29:01Z</time>
      </trkpt>
      <trkpt lat="45.37041" lon="5.81202">
        <ele>2028</ele>
        <time>2017-01-21T12:29:06Z</time>
      </trkpt>
      <trkpt lat="45.37041" lon="5.81202">
        <ele>2028</ele>
        <time>2017-01-21T12:29:11Z</time>
      </trkpt>
      <trkpt lat="45.37041" lon="5.81202">
        <ele>2028</ele>
        <time>2017-01-21T12:29:16Z</time>
      </trkpt>
      <trkpt lat="45.37041" lon="5.81202">
        <ele>2028</ele>
        <time>2017-01-21T12:29:21Z</time>
      </trkpt>
      <trkpt lat="45.37041" lon="5.81202">
        <ele>2028</ele>
        <time>2017-01-21T12:29:26Z</time>
      </trkpt>
      <trkpt lat="45.37041" lon="5.81202">
        <ele>2028</ele>
        <time>2017-01-21T12:29:31Z</time>
      </trkpt>
      <trkpt lat="45.37041" lon="5.81202">
        <ele>2028.2</ele>
        <time>2017-01-21T12:29:37Z</time>
      </trkpt>
      <trkpt lat="45.37041" lon="5.81202">
        <ele>2028.2</ele>
        <time>2017-01-21T12:29:42Z</time>
      </trkpt>
      <trkpt lat="45.37041" lon="5.81202">
        <ele>2028.2</ele>
        <time>2017-01-21T12:29:47Z</time>
      </trkpt>
      <trkpt lat="45.37041" lon="5.81202">
        <ele>2028.2</ele>
        <time>2017-01-21T12:29:52Z</time>
      </trkpt>
      <trkpt lat="45.37041" lon="5.81202">
        <ele>2028.2</ele>
        <time>2017-01-21T12:29:57Z</time>
      </trkpt>
      <trkpt lat="45.37041" lon="5.81202">
        <ele>2028.2</ele>
        <time>2017-01-21T12:30:02Z</time>
      </trkpt>
      <trkpt lat="45.37041" lon="5.81202">
        <ele>2028.2</ele>
        <time>2017-01-21T12:30:07Z</time>
      </trkpt>
      <trkpt lat="45.37041" lon="5.81202">
        <ele>2028.2</ele>
        <time>2017-01-21T12:30:12Z</time>
      </trkpt>
      <trkpt lat="45.37041" lon="5.81202">
        <ele>2028.2</ele>
        <time>2017-01-21T12:30:17Z</time>
      </trkpt>
      <trkpt lat="45.37041" lon="5.81202">
        <ele>2028.2</ele>
        <time>2017-01-21T12:30:22Z</time>
      </trkpt>
      <trkpt lat="45.37041" lon="5.81202">
        <ele>2028.2</ele>
        <time>2017-01-21T12:30:27Z</time>
      </trkpt>
      <trkpt lat="45.37041" lon="5.81202">
        <ele>2028.2</ele>
        <time>2017-01-21T12:30:32Z</time>
      </trkpt>
      <trkpt lat="45.37041" lon="5.81202">
        <ele>2028.2</ele>
        <time>2017-01-21T12:30:37Z</time>
      </trkpt>
      <trkpt lat="45.37041" lon="5.81202">
        <ele>2028.2</ele>
        <time>2017-01-21T12:30:42Z</time>
      </trkpt>
      <trkpt lat="45.37041" lon="5.81202">
        <ele>2028.2</ele>
        <time>2017-01-21T12:30:47Z</time>
      </trkpt>
      <trkpt lat="45.37041" lon="5.81202">
        <ele>2028.2</ele>
        <time>2017-01-21T12:30:52Z</time>
      </trkpt>
      <trkpt lat="45.37041" lon="5.81202">
        <ele>2028.2</ele>
        <time>2017-01-21T12:30:57Z</time>
      </trkpt>
      <trkpt lat="45.37041" lon="5.81202">
        <ele>2028.2</ele>
        <time>2017-01-21T12:31:02Z</time>
      </trkpt>
      <trkpt lat="45.37041" lon="5.81202">
        <ele>2028.2</ele>
        <time>2017-01-21T12:31:07Z</time>
      </trkpt>
      <trkpt lat="45.37041" lon="5.81202">
        <ele>2028</ele>
        <time>2017-01-21T12:31:12Z</time>
      </trkpt>
      <trkpt lat="45.37041" lon="5.81202">
        <ele>2028</ele>
        <time>2017-01-21T12:31:17Z</time>
      </trkpt>
      <trkpt lat="45.37041" lon="5.81202">
        <ele>2028</ele>
        <time>2017-01-21T12:31:22Z</time>
      </trkpt>
      <trkpt lat="45.37041" lon="5.81202">
        <ele>2028</ele>
        <time>2017-01-21T12:31:27Z</time>
      </trkpt>
      <trkpt lat="45.37041" lon="5.81202">
        <ele>2028</ele>
        <time>2017-01-21T12:31:32Z</time>
      </trkpt>
      <trkpt lat="45.37041" lon="5.81202">
        <ele>2028</ele>
        <time>2017-01-21T12:31:37Z</time>
      </trkpt>
      <trkpt lat="45.37041" lon="5.81202">
        <ele>2028</ele>
        <time>2017-01-21T12:31:42Z</time>
      </trkpt>
      <trkpt lat="45.37041" lon="5.81202">
        <ele>2028</ele>
        <time>2017-01-21T12:31:47Z</time>
      </trkpt>
      <trkpt lat="45.37041" lon="5.81202">
        <ele>2028</ele>
        <time>2017-01-21T12:31:52Z</time>
      </trkpt>
      <trkpt lat="45.37041" lon="5.81202">
        <ele>2028</ele>
        <time>2017-01-21T12:31:57Z</time>
      </trkpt>
      <trkpt lat="45.37041" lon="5.81202">
        <ele>2028</ele>
        <time>2017-01-21T12:32:02Z</time>
      </trkpt>
      <trkpt lat="45.37041" lon="5.81202">
        <ele>2028</ele>
        <time>2017-01-21T12:32:07Z</time>
      </trkpt>
      <trkpt lat="45.37041" lon="5.81202">
        <ele>2028</ele>
        <time>2017-01-21T12:32:12Z</time>
      </trkpt>
      <trkpt lat="45.37041" lon="5.81202">
        <ele>2028</ele>
        <time>2017-01-21T12:32:17Z</time>
      </trkpt>
      <trkpt lat="45.37041" lon="5.81202">
        <ele>2028</ele>
        <time>2017-01-21T12:32:22Z</time>
      </trkpt>
      <trkpt lat="45.37041" lon="5.81202">
        <ele>2028</ele>
        <time>2017-01-21T12:32:27Z</time>
      </trkpt>
      <trkpt lat="45.37041" lon="5.81202">
        <ele>2028</ele>
        <time>2017-01-21T12:32:32Z</time>
      </trkpt>
      <trkpt lat="45.37041" lon="5.81202">
        <ele>2028</ele>
        <time>2017-01-21T12:32:37Z</time>
      </trkpt>
      <trkpt lat="45.3704" lon="5.81201">
        <ele>2027.2</ele>
        <time>2017-01-21T12:32:43Z</time>
      </trkpt>
      <trkpt lat="45.37041" lon="5.81202">
        <ele>2027.4</ele>
        <time>2017-01-21T12:32:49Z</time>
      </trkpt>
      <trkpt lat="45.37041" lon="5.81203">
        <ele>2027.6</ele>
        <time>2017-01-21T12:32:54Z</time>
      </trkpt>
      <trkpt lat="45.37041" lon="5.81203">
        <ele>2027.6</ele>
        <time>2017-01-21T12:32:59Z</time>
      </trkpt>
      <trkpt lat="45.37041" lon="5.81203">
        <ele>2027.6</ele>
        <time>2017-01-21T12:33:04Z</time>
      </trkpt>
      <trkpt lat="45.37041" lon="5.81203">
        <ele>2027.6</ele>
        <time>2017-01-21T12:33:09Z</time>
      </trkpt>
      <trkpt lat="45.37041" lon="5.81203">
        <ele>2027.8</ele>
        <time>2017-01-21T12:33:14Z</time>
      </trkpt>
      <trkpt lat="45.37041" lon="5.81203">
        <ele>2027.8</ele>
        <time>2017-01-21T12:33:19Z</time>
      </trkpt>
      <trkpt lat="45.37041" lon="5.81203">
        <ele>2027.8</ele>
        <time>2017-01-21T12:33:24Z</time>
      </trkpt>
      <trkpt lat="45.37041" lon="5.81203">
        <ele>2027.8</ele>
        <time>2017-01-21T12:33:29Z</time>
      </trkpt>
      <trkpt lat="45.37041" lon="5.81203">
        <ele>2028</ele>
        <time>2017-01-21T12:33:34Z</time>
      </trkpt>
      <trkpt lat="45.37041" lon="5.81203">
        <ele>2028</ele>
        <time>2017-01-21T12:33:39Z</time>
      </trkpt>
      <trkpt lat="45.37042" lon="5.81204">
        <ele>2028</ele>
        <time>2017-01-21T12:33:44Z</time>
      </trkpt>
      <trkpt lat="45.37043" lon="5.81205">
        <ele>2026.6</ele>
        <time>2017-01-21T12:33:49Z</time>
      </trkpt>
      <trkpt lat="45.37044" lon="5.81204">
        <ele>2022.6</ele>
        <time>2017-01-21T12:33:54Z</time>
      </trkpt>
      <trkpt lat="45.37047" lon="5.81207">
        <ele>2022.6</ele>
        <time>2017-01-21T12:33:59Z</time>
      </trkpt>
      <trkpt lat="45.37048" lon="5.81207">
        <ele>2023</ele>
        <time>2017-01-21T12:34:04Z</time>
      </trkpt>
      <trkpt lat="45.37052" lon="5.81207">
        <ele>2024.8</ele>
        <time>2017-01-21T12:34:09Z</time>
      </trkpt>
      <trkpt lat="45.37054" lon="5.81208">
        <ele>2026</ele>
        <time>2017-01-21T12:34:14Z</time>
      </trkpt>
      <trkpt lat="45.37055" lon="5.81209">
        <ele>2026.4</ele>
        <time>2017-01-21T12:34:19Z</time>
      </trkpt>
      <trkpt lat="45.37055" lon="5.81209">
        <ele>2026.6</ele>
        <time>2017-01-21T12:34:24Z</time>
      </trkpt>
      <trkpt lat="45.37055" lon="5.81209">
        <ele>2026.6</ele>
        <time>2017-01-21T12:34:29Z</time>
      </trkpt>
      <trkpt lat="45.37055" lon="5.81209">
        <ele>2026.8</ele>
        <time>2017-01-21T12:34:34Z</time>
      </trkpt>
      <trkpt lat="45.37055" lon="5.81209">
        <ele>2026.8</ele>
        <time>2017-01-21T12:34:39Z</time>
      </trkpt>
      <trkpt lat="45.37055" lon="5.81209">
        <ele>2026.8</ele>
        <time>2017-01-21T12:34:44Z</time>
      </trkpt>
      <trkpt lat="45.37055" lon="5.81209">
        <ele>2026.8</ele>
        <time>2017-01-21T12:34:49Z</time>
      </trkpt>
      <trkpt lat="45.37056" lon="5.81209">
        <ele>2026.8</ele>
        <time>2017-01-21T12:34:54Z</time>
      </trkpt>
      <trkpt lat="45.37055" lon="5.81209">
        <ele>2026.8</ele>
        <time>2017-01-21T12:34:59Z</time>
      </trkpt>
      <trkpt lat="45.37057" lon="5.81207">
        <ele>2028.6</ele>
        <time>2017-01-21T12:35:04Z</time>
      </trkpt>
      <trkpt lat="45.37059" lon="5.81207">
        <ele>2030</ele>
        <time>2017-01-21T12:35:09Z</time>
      </trkpt>
      <trkpt lat="45.37062" lon="5.81207">
        <ele>2030.8</ele>
        <time>2017-01-21T12:35:14Z</time>
      </trkpt>
      <trkpt lat="45.37068" lon="5.81206">
        <ele>2026.4</ele>
        <time>2017-01-21T12:35:19Z</time>
      </trkpt>
      <trkpt lat="45.37072" lon="5.81206">
        <ele>2028.8</ele>
        <time>2017-01-21T12:35:24Z</time>
      </trkpt>
      <trkpt lat="45.37075" lon="5.81204">
        <ele>2026.6</ele>
        <time>2017-01-21T12:35:29Z</time>
      </trkpt>
      <trkpt lat="45.37075" lon="5.81204">
        <ele>2025.6</ele>
        <time>2017-01-21T12:35:34Z</time>
      </trkpt>
      <trkpt lat="45.37075" lon="5.81204">
        <ele>2025.4</ele>
        <time>2017-01-21T12:35:39Z</time>
      </trkpt>
      <trkpt lat="45.37075" lon="5.81204">
        <ele>2025.4</ele>
        <time>2017-01-21T12:35:44Z</time>
      </trkpt>
      <trkpt lat="45.37075" lon="5.81204">
        <ele>2025.4</ele>
        <time>2017-01-21T12:35:49Z</time>
      </trkpt>
      <trkpt lat="45.37075" lon="5.81204">
        <ele>2025.4</ele>
        <time>2017-01-21T12:35:54Z</time>
      </trkpt>
      <trkpt lat="45.37075" lon="5.81204">
        <ele>2025.2</ele>
        <time>2017-01-21T12:35:59Z</time>
      </trkpt>
      <trkpt lat="45.37075" lon="5.81204">
        <ele>2025.2</ele>
        <time>2017-01-21T12:36:04Z</time>
      </trkpt>
      <trkpt lat="45.37075" lon="5.81204">
        <ele>2025.2</ele>
        <time>2017-01-21T12:36:09Z</time>
      </trkpt>
      <trkpt lat="45.37075" lon="5.81204">
        <ele>2025.2</ele>
        <time>2017-01-21T12:36:14Z</time>
      </trkpt>
      <trkpt lat="45.37075" lon="5.81204">
        <ele>2025.2</ele>
        <time>2017-01-21T12:36:19Z</time>
      </trkpt>
      <trkpt lat="45.37075" lon="5.81204">
        <ele>2025.2</ele>
        <time>2017-01-21T12:36:24Z</time>
      </trkpt>
      <trkpt lat="45.37075" lon="5.81204">
        <ele>2025.2</ele>
        <time>2017-01-21T12:36:29Z</time>
      </trkpt>
      <trkpt lat="45.37075" lon="5.81204">
        <ele>2025.2</ele>
        <time>2017-01-21T12:36:34Z</time>
      </trkpt>
      <trkpt lat="45.37075" lon="5.81204">
        <ele>2025.2</ele>
        <time>2017-01-21T12:36:39Z</time>
      </trkpt>
      <trkpt lat="45.37075" lon="5.81204">
        <ele>2025</ele>
        <time>2017-01-21T12:36:44Z</time>
      </trkpt>
      <trkpt lat="45.37075" lon="5.81204">
        <ele>2025</ele>
        <time>2017-01-21T12:36:49Z</time>
      </trkpt>
      <trkpt lat="45.37075" lon="5.81204">
        <ele>2025</ele>
        <time>2017-01-21T12:36:54Z</time>
      </trkpt>
      <trkpt lat="45.37075" lon="5.81204">
        <ele>2025</ele>
        <time>2017-01-21T12:36:59Z</time>
      </trkpt>
      <trkpt lat="45.37075" lon="5.81204">
        <ele>2025</ele>
        <time>2017-01-21T12:37:04Z</time>
      </trkpt>
      <trkpt lat="45.37075" lon="5.81204">
        <ele>2025</ele>
        <time>2017-01-21T12:37:09Z</time>
      </trkpt>
      <trkpt lat="45.37075" lon="5.81204">
        <ele>2025</ele>
        <time>2017-01-21T12:37:14Z</time>
      </trkpt>
      <trkpt lat="45.37075" lon="5.81204">
        <ele>2025</ele>
        <time>2017-01-21T12:37:19Z</time>
      </trkpt>
      <trkpt lat="45.37075" lon="5.81204">
        <ele>2025</ele>
        <time>2017-01-21T12:37:24Z</time>
      </trkpt>
      <trkpt lat="45.37075" lon="5.81204">
        <ele>2025</ele>
        <time>2017-01-21T12:37:29Z</time>
      </trkpt>
      <trkpt lat="45.37075" lon="5.81204">
        <ele>2025</ele>
        <time>2017-01-21T12:37:34Z</time>
      </trkpt>
      <trkpt lat="45.37075" lon="5.81204">
        <ele>2025</ele>
        <time>2017-01-21T12:37:39Z</time>
      </trkpt>
      <trkpt lat="45.37075" lon="5.81204">
        <ele>2025</ele>
        <time>2017-01-21T12:37:44Z</time>
      </trkpt>
      <trkpt lat="45.37075" lon="5.81204">
        <ele>2025</ele>
        <time>2017-01-21T12:37:49Z</time>
      </trkpt>
      <trkpt lat="45.37075" lon="5.81204">
        <ele>2025</ele>
        <time>2017-01-21T12:37:54Z</time>
      </trkpt>
      <trkpt lat="45.37075" lon="5.81204">
        <ele>2025</ele>
        <time>2017-01-21T12:37:59Z</time>
      </trkpt>
      <trkpt lat="45.37075" lon="5.81204">
        <ele>2025</ele>
        <time>2017-01-21T12:38:04Z</time>
      </trkpt>
      <trkpt lat="45.37075" lon="5.81204">
        <ele>2025</ele>
        <time>2017-01-21T12:38:09Z</time>
      </trkpt>
      <trkpt lat="45.37075" lon="5.81204">
        <ele>2025</ele>
        <time>2017-01-21T12:38:14Z</time>
      </trkpt>
      <trkpt lat="45.37075" lon="5.81204">
        <ele>2025</ele>
        <time>2017-01-21T12:38:19Z</time>
      </trkpt>
      <trkpt lat="45.37075" lon="5.81204">
        <ele>2025</ele>
        <time>2017-01-21T12:38:24Z</time>
      </trkpt>
      <trkpt lat="45.37075" lon="5.81204">
        <ele>2025</ele>
        <time>2017-01-21T12:38:29Z</time>
      </trkpt>
      <trkpt lat="45.37076" lon="5.81205">
        <ele>2024</ele>
        <time>2017-01-21T12:38:34Z</time>
      </trkpt>
      <trkpt lat="45.37076" lon="5.81205">
        <ele>2024.2</ele>
        <time>2017-01-21T12:38:39Z</time>
      </trkpt>
      <trkpt lat="45.37076" lon="5.81205">
        <ele>2024.2</ele>
        <time>2017-01-21T12:38:44Z</time>
      </trkpt>
      <trkpt lat="45.37076" lon="5.81205">
        <ele>2024.2</ele>
        <time>2017-01-21T12:38:49Z</time>
      </trkpt>
      <trkpt lat="45.37075" lon="5.81205">
        <ele>2024.2</ele>
        <time>2017-01-21T12:38:54Z</time>
      </trkpt>
      <trkpt lat="45.37075" lon="5.81205">
        <ele>2024.2</ele>
        <time>2017-01-21T12:38:59Z</time>
      </trkpt>
      <trkpt lat="45.37075" lon="5.81205">
        <ele>2024.2</ele>
        <time>2017-01-21T12:39:04Z</time>
      </trkpt>
      <trkpt lat="45.37075" lon="5.81204">
        <ele>2024.2</ele>
        <time>2017-01-21T12:39:09Z</time>
      </trkpt>
      <trkpt lat="45.37075" lon="5.81204">
        <ele>2024.2</ele>
        <time>2017-01-21T12:39:14Z</time>
      </trkpt>
      <trkpt lat="45.37075" lon="5.81205">
        <ele>2024.2</ele>
        <time>2017-01-21T12:39:19Z</time>
      </trkpt>
      <trkpt lat="45.37075" lon="5.81205">
        <ele>2024.2</ele>
        <time>2017-01-21T12:39:24Z</time>
      </trkpt>
      <trkpt lat="45.37074" lon="5.81205">
        <ele>2022.4</ele>
        <time>2017-01-21T12:39:29Z</time>
      </trkpt>
      <trkpt lat="45.37074" lon="5.81205">
        <ele>2022.8</ele>
        <time>2017-01-21T12:39:34Z</time>
      </trkpt>
      <trkpt lat="45.37074" lon="5.81205">
        <ele>2023</ele>
        <time>2017-01-21T12:39:39Z</time>
      </trkpt>
      <trkpt lat="45.37074" lon="5.81206">
        <ele>2022.8</ele>
        <time>2017-01-21T12:39:44Z</time>
      </trkpt>
      <trkpt lat="45.37074" lon="5.81205">
        <ele>2023.2</ele>
        <time>2017-01-21T12:39:50Z</time>
      </trkpt>
      <trkpt lat="45.37074" lon="5.81205">
        <ele>2023.8</ele>
        <time>2017-01-21T12:39:55Z</time>
      </trkpt>
      <trkpt lat="45.37075" lon="5.81204">
        <ele>2024.2</ele>
        <time>2017-01-21T12:40:00Z</time>
      </trkpt>
      <trkpt lat="45.37075" lon="5.81205">
        <ele>2024.6</ele>
        <time>2017-01-21T12:40:05Z</time>
      </trkpt>
      <trkpt lat="45.37075" lon="5.81204">
        <ele>2022.4</ele>
        <time>2017-01-21T12:40:10Z</time>
      </trkpt>
      <trkpt lat="45.37074" lon="5.81204">
        <ele>2022.6</ele>
        <time>2017-01-21T12:40:15Z</time>
      </trkpt>
      <trkpt lat="45.37074" lon="5.81204">
        <ele>2023.8</ele>
        <time>2017-01-21T12:40:20Z</time>
      </trkpt>
      <trkpt lat="45.37074" lon="5.81204">
        <ele>2022</ele>
        <time>2017-01-21T12:40:25Z</time>
      </trkpt>
      <trkpt lat="45.37074" lon="5.81205">
        <ele>2024</ele>
        <time>2017-01-21T12:40:30Z</time>
      </trkpt>
      <trkpt lat="45.37074" lon="5.81205">
        <ele>2024.2</ele>
        <time>2017-01-21T12:40:35Z</time>
      </trkpt>
      <trkpt lat="45.37074" lon="5.81205">
        <ele>2024.6</ele>
        <time>2017-01-21T12:40:40Z</time>
      </trkpt>
      <trkpt lat="45.37074" lon="5.81205">
        <ele>2025</ele>
        <time>2017-01-21T12:40:45Z</time>
      </trkpt>
      <trkpt lat="45.37073" lon="5.81205">
        <ele>2025</ele>
        <time>2017-01-21T12:40:50Z</time>
      </trkpt>
      <trkpt lat="45.37073" lon="5.81205">
        <ele>2025.2</ele>
        <time>2017-01-21T12:40:55Z</time>
      </trkpt>
      <trkpt lat="45.37073" lon="5.81205">
        <ele>2025.4</ele>
        <time>2017-01-21T12:41:00Z</time>
      </trkpt>
      <trkpt lat="45.37073" lon="5.81205">
        <ele>2027</ele>
        <time>2017-01-21T12:41:05Z</time>
      </trkpt>
      <trkpt lat="45.37073" lon="5.81206">
        <ele>2025.2</ele>
        <time>2017-01-21T12:41:10Z</time>
      </trkpt>
      <trkpt lat="45.37073" lon="5.81206">
        <ele>2025.4</ele>
        <time>2017-01-21T12:41:15Z</time>
      </trkpt>
      <trkpt lat="45.37073" lon="5.81206">
        <ele>2025.6</ele>
        <time>2017-01-21T12:41:20Z</time>
      </trkpt>
      <trkpt lat="45.37074" lon="5.81205">
        <ele>2028.2</ele>
        <time>2017-01-21T12:41:25Z</time>
      </trkpt>
      <trkpt lat="45.37074" lon="5.81205">
        <ele>2027.6</ele>
        <time>2017-01-21T12:41:30Z</time>
      </trkpt>
      <trkpt lat="45.37075" lon="5.81204">
        <ele>2027.4</ele>
        <time>2017-01-21T12:41:35Z</time>
      </trkpt>
      <trkpt lat="45.37075" lon="5.81204">
        <ele>2027.2</ele>
        <time>2017-01-21T12:41:40Z</time>
      </trkpt>
      <trkpt lat="45.37075" lon="5.81204">
        <ele>2027</ele>
        <time>2017-01-21T12:41:45Z</time>
      </trkpt>
      <trkpt lat="45.37075" lon="5.81204">
        <ele>2026.8</ele>
        <time>2017-01-21T12:41:50Z</time>
      </trkpt>
      <trkpt lat="45.37075" lon="5.81204">
        <ele>2026.6</ele>
        <time>2017-01-21T12:41:55Z</time>
      </trkpt>
      <trkpt lat="45.37075" lon="5.81204">
        <ele>2025.4</ele>
        <time>2017-01-21T12:42:00Z</time>
      </trkpt>
      <trkpt lat="45.37075" lon="5.81204">
        <ele>2025.6</ele>
        <time>2017-01-21T12:42:05Z</time>
      </trkpt>
      <trkpt lat="45.37076" lon="5.81204">
        <ele>2025.6</ele>
        <time>2017-01-21T12:42:10Z</time>
      </trkpt>
      <trkpt lat="45.37076" lon="5.81204">
        <ele>2025.8</ele>
        <time>2017-01-21T12:42:15Z</time>
      </trkpt>
      <trkpt lat="45.37076" lon="5.81204">
        <ele>2025.6</ele>
        <time>2017-01-21T12:42:20Z</time>
      </trkpt>
      <trkpt lat="45.37076" lon="5.81204">
        <ele>2025.6</ele>
        <time>2017-01-21T12:42:25Z</time>
      </trkpt>
      <trkpt lat="45.37076" lon="5.81204">
        <ele>2025.6</ele>
        <time>2017-01-21T12:42:30Z</time>
      </trkpt>
      <trkpt lat="45.37076" lon="5.81204">
        <ele>2025.6</ele>
        <time>2017-01-21T12:42:35Z</time>
      </trkpt>
      <trkpt lat="45.37076" lon="5.81204">
        <ele>2025.6</ele>
        <time>2017-01-21T12:42:40Z</time>
      </trkpt>
      <trkpt lat="45.37076" lon="5.81204">
        <ele>2025.6</ele>
        <time>2017-01-21T12:42:45Z</time>
      </trkpt>
      <trkpt lat="45.37077" lon="5.81204">
        <ele>2026</ele>
        <time>2017-01-21T12:42:50Z</time>
      </trkpt>
      <trkpt lat="45.37082" lon="5.81206">
        <ele>2025.2</ele>
        <time>2017-01-21T12:42:55Z</time>
      </trkpt>
      <trkpt lat="45.37092" lon="5.81203">
        <ele>2023.2</ele>
        <time>2017-01-21T12:43:00Z</time>
      </trkpt>
      <trkpt lat="45.37111" lon="5.81203">
        <ele>2024.8</ele>
        <time>2017-01-21T12:43:05Z</time>
      </trkpt>
      <trkpt lat="45.37132" lon="5.81213">
        <ele>2023.2</ele>
        <time>2017-01-21T12:43:10Z</time>
      </trkpt>
      <trkpt lat="45.37137" lon="5.8123">
        <ele>2021.2</ele>
        <time>2017-01-21T12:43:15Z</time>
      </trkpt>
      <trkpt lat="45.37153" lon="5.81232">
        <ele>2019.6</ele>
        <time>2017-01-21T12:43:20Z</time>
      </trkpt>
      <trkpt lat="45.37168" lon="5.81237">
        <ele>2017</ele>
        <time>2017-01-21T12:43:25Z</time>
      </trkpt>
      <trkpt lat="45.37184" lon="5.81235">
        <ele>2012</ele>
        <time>2017-01-21T12:43:30Z</time>
      </trkpt>
      <trkpt lat="45.37193" lon="5.81226">
        <ele>2009.2</ele>
        <time>2017-01-21T12:43:35Z</time>
      </trkpt>
      <trkpt lat="45.37193" lon="5.81226">
        <ele>2009.6</ele>
        <time>2017-01-21T12:43:40Z</time>
      </trkpt>
      <trkpt lat="45.37194" lon="5.81225">
        <ele>2008.6</ele>
        <time>2017-01-21T12:43:45Z</time>
      </trkpt>
      <trkpt lat="45.37204" lon="5.81227">
        <ele>2007.4</ele>
        <time>2017-01-21T12:43:50Z</time>
      </trkpt>
      <trkpt lat="45.37216" lon="5.81248">
        <ele>2002.2</ele>
        <time>2017-01-21T12:43:55Z</time>
      </trkpt>
      <trkpt lat="45.37224" lon="5.81256">
        <ele>2000</ele>
        <time>2017-01-21T12:44:00Z</time>
      </trkpt>
      <trkpt lat="45.37231" lon="5.81279">
        <ele>1993.6</ele>
        <time>2017-01-21T12:44:05Z</time>
      </trkpt>
      <trkpt lat="45.37244" lon="5.81281">
        <ele>1992.4</ele>
        <time>2017-01-21T12:44:10Z</time>
      </trkpt>
      <trkpt lat="45.37257" lon="5.81281">
        <ele>1987.2</ele>
        <time>2017-01-21T12:44:15Z</time>
      </trkpt>
      <trkpt lat="45.37261" lon="5.81286">
        <ele>1984.6</ele>
        <time>2017-01-21T12:44:20Z</time>
      </trkpt>
      <trkpt lat="45.37261" lon="5.81286">
        <ele>1985.2</ele>
        <time>2017-01-21T12:44:25Z</time>
      </trkpt>
      <trkpt lat="45.37261" lon="5.81287">
        <ele>1987</ele>
        <time>2017-01-21T12:44:30Z</time>
      </trkpt>
      <trkpt lat="45.3726" lon="5.81292">
        <ele>1985.8</ele>
        <time>2017-01-21T12:44:35Z</time>
      </trkpt>
      <trkpt lat="45.3726" lon="5.813">
        <ele>1988.8</ele>
        <time>2017-01-21T12:44:40Z</time>
      </trkpt>
      <trkpt lat="45.3726" lon="5.81312">
        <ele>1985.2</ele>
        <time>2017-01-21T12:44:45Z</time>
      </trkpt>
      <trkpt lat="45.37259" lon="5.81318">
        <ele>1984</ele>
        <time>2017-01-21T12:44:50Z</time>
      </trkpt>
      <trkpt lat="45.37258" lon="5.81328">
        <ele>1981</ele>
        <time>2017-01-21T12:44:55Z</time>
      </trkpt>
      <trkpt lat="45.37263" lon="5.81332">
        <ele>1979.6</ele>
        <time>2017-01-21T12:45:00Z</time>
      </trkpt>
      <trkpt lat="45.37264" lon="5.81338">
        <ele>1978</ele>
        <time>2017-01-21T12:45:05Z</time>
      </trkpt>
      <trkpt lat="45.37264" lon="5.81338">
        <ele>1978</ele>
        <time>2017-01-21T12:45:10Z</time>
      </trkpt>
      <trkpt lat="45.37277" lon="5.81339">
        <ele>1980.6</ele>
        <time>2017-01-21T12:45:15Z</time>
      </trkpt>
      <trkpt lat="45.37309" lon="5.81338">
        <ele>1973</ele>
        <time>2017-01-21T12:45:20Z</time>
      </trkpt>
      <trkpt lat="45.37339" lon="5.81337">
        <ele>1972.2</ele>
        <time>2017-01-21T12:45:25Z</time>
      </trkpt>
      <trkpt lat="45.3735" lon="5.81333">
        <ele>1969.6</ele>
        <time>2017-01-21T12:45:30Z</time>
      </trkpt>
      <trkpt lat="45.37361" lon="5.81328">
        <ele>1972.2</ele>
        <time>2017-01-21T12:45:35Z</time>
      </trkpt>
      <trkpt lat="45.37373" lon="5.81326">
        <ele>1970.8</ele>
        <time>2017-01-21T12:45:40Z</time>
      </trkpt>
      <trkpt lat="45.37387" lon="5.81324">
        <ele>1968.4</ele>
        <time>2017-01-21T12:45:45Z</time>
      </trkpt>
      <trkpt lat="45.37404" lon="5.81322">
        <ele>1966.2</ele>
        <time>2017-01-21T12:45:50Z</time>
      </trkpt>
      <trkpt lat="45.37422" lon="5.81319">
        <ele>1966.4</ele>
        <time>2017-01-21T12:45:55Z</time>
      </trkpt>
      <trkpt lat="45.37439" lon="5.81316">
        <ele>1962.4</ele>
        <time>2017-01-21T12:46:00Z</time>
      </trkpt>
      <trkpt lat="45.37454" lon="5.81315">
        <ele>1962.6</ele>
        <time>2017-01-21T12:46:05Z</time>
      </trkpt>
      <trkpt lat="45.37472" lon="5.81315">
        <ele>1961.2</ele>
        <time>2017-01-21T12:46:10Z</time>
      </trkpt>
      <trkpt lat="45.37493" lon="5.81317">
        <ele>1961</ele>
        <time>2017-01-21T12:46:15Z</time>
      </trkpt>
      <trkpt lat="45.37513" lon="5.81321">
        <ele>1956.2</ele>
        <time>2017-01-21T12:46:20Z</time>
      </trkpt>
      <trkpt lat="45.37538" lon="5.81326">
        <ele>1953.2</ele>
        <time>2017-01-21T12:46:25Z</time>
      </trkpt>
      <trkpt lat="45.3755" lon="5.81331">
        <ele>1952.4</ele>
        <time>2017-01-21T12:46:30Z</time>
      </trkpt>
      <trkpt lat="45.3755" lon="5.81331">
        <ele>1952.4</ele>
        <time>2017-01-21T12:46:35Z</time>
      </trkpt>
      <trkpt lat="45.3755" lon="5.81331">
        <ele>1952.4</ele>
        <time>2017-01-21T12:46:40Z</time>
      </trkpt>
      <trkpt lat="45.3755" lon="5.81331">
        <ele>1952.4</ele>
        <time>2017-01-21T12:46:45Z</time>
      </trkpt>
      <trkpt lat="45.3755" lon="5.81331">
        <ele>1952.4</ele>
        <time>2017-01-21T12:46:50Z</time>
      </trkpt>
      <trkpt lat="45.37549" lon="5.81331">
        <ele>1952.4</ele>
        <time>2017-01-21T12:46:55Z</time>
      </trkpt>
      <trkpt lat="45.37549" lon="5.81331">
        <ele>1952.2</ele>
        <time>2017-01-21T12:47:00Z</time>
      </trkpt>
      <trkpt lat="45.37549" lon="5.81331">
        <ele>1952.2</ele>
        <time>2017-01-21T12:47:05Z</time>
      </trkpt>
      <trkpt lat="45.37549" lon="5.81331">
        <ele>1952.2</ele>
        <time>2017-01-21T12:47:10Z</time>
      </trkpt>
      <trkpt lat="45.37549" lon="5.81331">
        <ele>1952.2</ele>
        <time>2017-01-21T12:47:15Z</time>
      </trkpt>
      <trkpt lat="45.37549" lon="5.81331">
        <ele>1952</ele>
        <time>2017-01-21T12:47:20Z</time>
      </trkpt>
      <trkpt lat="45.37549" lon="5.81331">
        <ele>1952</ele>
        <time>2017-01-21T12:47:25Z</time>
      </trkpt>
      <trkpt lat="45.37553" lon="5.81336">
        <ele>1950.4</ele>
        <time>2017-01-21T12:47:31Z</time>
      </trkpt>
      <trkpt lat="45.37555" lon="5.81339">
        <ele>1952.4</ele>
        <time>2017-01-21T12:47:36Z</time>
      </trkpt>
      <trkpt lat="45.37558" lon="5.81339">
        <ele>1949.2</ele>
        <time>2017-01-21T12:47:41Z</time>
      </trkpt>
      <trkpt lat="45.37565" lon="5.81342">
        <ele>1952.4</ele>
        <time>2017-01-21T12:47:46Z</time>
      </trkpt>
      <trkpt lat="45.37577" lon="5.81343">
        <ele>1947.4</ele>
        <time>2017-01-21T12:47:51Z</time>
      </trkpt>
      <trkpt lat="45.37591" lon="5.81347">
        <ele>1944.2</ele>
        <time>2017-01-21T12:47:56Z</time>
      </trkpt>
      <trkpt lat="45.37588" lon="5.81361">
        <ele>1940.2</ele>
        <time>2017-01-21T12:48:01Z</time>
      </trkpt>
      <trkpt lat="45.37592" lon="5.81363">
        <ele>1942.6</ele>
        <time>2017-01-21T12:48:06Z</time>
      </trkpt>
      <trkpt lat="45.37593" lon="5.81365">
        <ele>1942</ele>
        <time>2017-01-21T12:48:11Z</time>
      </trkpt>
      <trkpt lat="45.37593" lon="5.81364">
        <ele>1941.8</ele>
        <time>2017-01-21T12:48:16Z</time>
      </trkpt>
      <trkpt lat="45.37595" lon="5.81366">
        <ele>1941.2</ele>
        <time>2017-01-21T12:48:21Z</time>
      </trkpt>
      <trkpt lat="45.37596" lon="5.81365">
        <ele>1939.2</ele>
        <time>2017-01-21T12:48:26Z</time>
      </trkpt>
      <trkpt lat="45.37601" lon="5.81367">
        <ele>1941</ele>
        <time>2017-01-21T12:48:31Z</time>
      </trkpt>
      <trkpt lat="45.37606" lon="5.81369">
        <ele>1937</ele>
        <time>2017-01-21T12:48:36Z</time>
      </trkpt>
      <trkpt lat="45.37607" lon="5.81371">
        <ele>1938.4</ele>
        <time>2017-01-21T12:48:42Z</time>
      </trkpt>
      <trkpt lat="45.37614" lon="5.81375">
        <ele>1934.8</ele>
        <time>2017-01-21T12:48:47Z</time>
      </trkpt>
      <trkpt lat="45.37617" lon="5.81379">
        <ele>1932</ele>
        <time>2017-01-21T12:48:52Z</time>
      </trkpt>
      <trkpt lat="45.37617" lon="5.8138">
        <ele>1932.2</ele>
        <time>2017-01-21T12:48:57Z</time>
      </trkpt>
      <trkpt lat="45.37621" lon="5.81382">
        <ele>1930.2</ele>
        <time>2017-01-21T12:49:02Z</time>
      </trkpt>
      <trkpt lat="45.37628" lon="5.81386">
        <ele>1927.4</ele>
        <time>2017-01-21T12:49:07Z</time>
      </trkpt>
      <trkpt lat="45.37633" lon="5.81393">
        <ele>1923.4</ele>
        <time>2017-01-21T12:49:12Z</time>
      </trkpt>
      <trkpt lat="45.37633" lon="5.81396">
        <ele>1925.4</ele>
        <time>2017-01-21T12:49:17Z</time>
      </trkpt>
      <trkpt lat="45.37633" lon="5.81396">
        <ele>1926.2</ele>
        <time>2017-01-21T12:49:22Z</time>
      </trkpt>
      <trkpt lat="45.37633" lon="5.81396">
        <ele>1926.8</ele>
        <time>2017-01-21T12:49:27Z</time>
      </trkpt>
      <trkpt lat="45.37633" lon="5.81396">
        <ele>1927</ele>
        <time>2017-01-21T12:49:32Z</time>
      </trkpt>
      <trkpt lat="45.37633" lon="5.81396">
        <ele>1927.4</ele>
        <time>2017-01-21T12:49:37Z</time>
      </trkpt>
      <trkpt lat="45.37633" lon="5.81396">
        <ele>1927.4</ele>
        <time>2017-01-21T12:49:42Z</time>
      </trkpt>
      <trkpt lat="45.37633" lon="5.81396">
        <ele>1927.4</ele>
        <time>2017-01-21T12:49:47Z</time>
      </trkpt>
      <trkpt lat="45.37634" lon="5.81396">
        <ele>1927.4</ele>
        <time>2017-01-21T12:49:52Z</time>
      </trkpt>
      <trkpt lat="45.37635" lon="5.81397">
        <ele>1926.8</ele>
        <time>2017-01-21T12:49:57Z</time>
      </trkpt>
      <trkpt lat="45.37638" lon="5.814">
        <ele>1925.8</ele>
        <time>2017-01-21T12:50:02Z</time>
      </trkpt>
      <trkpt lat="45.37644" lon="5.81403">
        <ele>1924.6</ele>
        <time>2017-01-21T12:50:07Z</time>
      </trkpt>
      <trkpt lat="45.3765" lon="5.81408">
        <ele>1919.6</ele>
        <time>2017-01-21T12:50:12Z</time>
      </trkpt>
      <trkpt lat="45.37647" lon="5.8141">
        <ele>1919.8</ele>
        <time>2017-01-21T12:50:17Z</time>
      </trkpt>
      <trkpt lat="45.37647" lon="5.8141">
        <ele>1919.6</ele>
        <time>2017-01-21T12:50:22Z</time>
      </trkpt>
      <trkpt lat="45.37646" lon="5.81412">
        <ele>1919.6</ele>
        <time>2017-01-21T12:50:27Z</time>
      </trkpt>
      <trkpt lat="45.37647" lon="5.81414">
        <ele>1919.6</ele>
        <time>2017-01-21T12:50:32Z</time>
      </trkpt>
      <trkpt lat="45.37648" lon="5.81414">
        <ele>1918.8</ele>
        <time>2017-01-21T12:50:37Z</time>
      </trkpt>
      <trkpt lat="45.37647" lon="5.81414">
        <ele>1918</ele>
        <time>2017-01-21T12:50:42Z</time>
      </trkpt>
      <trkpt lat="45.37648" lon="5.81415">
        <ele>1917.2</ele>
        <time>2017-01-21T12:50:47Z</time>
      </trkpt>
      <trkpt lat="45.37654" lon="5.81419">
        <ele>1912.2</ele>
        <time>2017-01-21T12:50:52Z</time>
      </trkpt>
      <trkpt lat="45.37658" lon="5.81421">
        <ele>1911</ele>
        <time>2017-01-21T12:50:57Z</time>
      </trkpt>
      <trkpt lat="45.37663" lon="5.81425">
        <ele>1911.8</ele>
        <time>2017-01-21T12:51:02Z</time>
      </trkpt>
      <trkpt lat="45.37666" lon="5.81429">
        <ele>1910.4</ele>
        <time>2017-01-21T12:51:07Z</time>
      </trkpt>
      <trkpt lat="45.37667" lon="5.81428">
        <ele>1909.6</ele>
        <time>2017-01-21T12:51:12Z</time>
      </trkpt>
      <trkpt lat="45.37667" lon="5.81428">
        <ele>1908.6</ele>
        <time>2017-01-21T12:51:17Z</time>
      </trkpt>
      <trkpt lat="45.37672" lon="5.81432">
        <ele>1905.6</ele>
        <time>2017-01-21T12:51:22Z</time>
      </trkpt>
      <trkpt lat="45.37689" lon="5.81445">
        <ele>1905.6</ele>
        <time>2017-01-21T12:51:27Z</time>
      </trkpt>
      <trkpt lat="45.37703" lon="5.8146">
        <ele>1903.4</ele>
        <time>2017-01-21T12:51:33Z</time>
      </trkpt>
      <trkpt lat="45.37704" lon="5.81462">
        <ele>1901.6</ele>
        <time>2017-01-21T12:51:39Z</time>
      </trkpt>
      <trkpt lat="45.37711" lon="5.81469">
        <ele>1898.2</ele>
        <time>2017-01-21T12:51:44Z</time>
      </trkpt>
      <trkpt lat="45.37713" lon="5.8147">
        <ele>1898.4</ele>
        <time>2017-01-21T12:51:49Z</time>
      </trkpt>
      <trkpt lat="45.37717" lon="5.81474">
        <ele>1898</ele>
        <time>2017-01-21T12:51:54Z</time>
      </trkpt>
      <trkpt lat="45.37726" lon="5.81476">
        <ele>1896.4</ele>
        <time>2017-01-21T12:51:59Z</time>
      </trkpt>
      <trkpt lat="45.37736" lon="5.81477">
        <ele>1891.4</ele>
        <time>2017-01-21T12:52:04Z</time>
      </trkpt>
      <trkpt lat="45.37748" lon="5.81477">
        <ele>1890.6</ele>
        <time>2017-01-21T12:52:09Z</time>
      </trkpt>
      <trkpt lat="45.37749" lon="5.81476">
        <ele>1890.6</ele>
        <time>2017-01-21T12:52:14Z</time>
      </trkpt>
      <trkpt lat="45.37749" lon="5.81476">
        <ele>1890.4</ele>
        <time>2017-01-21T12:52:19Z</time>
      </trkpt>
      <trkpt lat="45.37749" lon="5.81475">
        <ele>1890</ele>
        <time>2017-01-21T12:52:24Z</time>
      </trkpt>
      <trkpt lat="45.37744" lon="5.81489">
        <ele>1887.4</ele>
        <time>2017-01-21T12:52:29Z</time>
      </trkpt>
      <trkpt lat="45.37753" lon="5.81502">
        <ele>1883.2</ele>
        <time>2017-01-21T12:52:34Z</time>
      </trkpt>
      <trkpt lat="45.37766" lon="5.81498">
        <ele>1882.4</ele>
        <time>2017-01-21T12:52:39Z</time>
      </trkpt>
      <trkpt lat="45.3777" lon="5.81495">
        <ele>1880.2</ele>
        <time>2017-01-21T12:52:44Z</time>
      </trkpt>
      <trkpt lat="45.37774" lon="5.81493">
        <ele>1877.2</ele>
        <time>2017-01-21T12:52:49Z</time>
      </trkpt>
      <trkpt lat="45.37777" lon="5.81491">
        <ele>1880.2</ele>
        <time>2017-01-21T12:52:54Z</time>
      </trkpt>
      <trkpt lat="45.3778" lon="5.8149">
        <ele>1877.6</ele>
        <time>2017-01-21T12:52:59Z</time>
      </trkpt>
      <trkpt lat="45.37783" lon="5.81488">
        <ele>1877.4</ele>
        <time>2017-01-21T12:53:04Z</time>
      </trkpt>
      <trkpt lat="45.3779" lon="5.81485">
        <ele>1871.8</ele>
        <time>2017-01-21T12:53:09Z</time>
      </trkpt>
      <trkpt lat="45.37793" lon="5.81484">
        <ele>1878.8</ele>
        <time>2017-01-21T12:53:14Z</time>
      </trkpt>
      <trkpt lat="45.37799" lon="5.81482">
        <ele>1877.6</ele>
        <time>2017-01-21T12:53:19Z</time>
      </trkpt>
      <trkpt lat="45.37803" lon="5.81481">
        <ele>1873.6</ele>
        <time>2017-01-21T12:53:24Z</time>
      </trkpt>
      <trkpt lat="45.37805" lon="5.81481">
        <ele>1876.4</ele>
        <time>2017-01-21T12:53:29Z</time>
      </trkpt>
      <trkpt lat="45.37807" lon="5.81481">
        <ele>1874</ele>
        <time>2017-01-21T12:53:34Z</time>
      </trkpt>
      <trkpt lat="45.37815" lon="5.8148">
        <ele>1872.4</ele>
        <time>2017-01-21T12:53:39Z</time>
      </trkpt>
      <trkpt lat="45.3783" lon="5.81477">
        <ele>1867.4</ele>
        <time>2017-01-21T12:53:44Z</time>
      </trkpt>
      <trkpt lat="45.3785" lon="5.81473">
        <ele>1869.4</ele>
        <time>2017-01-21T12:53:49Z</time>
      </trkpt>
      <trkpt lat="45.37856" lon="5.81471">
        <ele>1866.6</ele>
        <time>2017-01-21T12:53:54Z</time>
      </trkpt>
      <trkpt lat="45.37861" lon="5.81467">
        <ele>1866.6</ele>
        <time>2017-01-21T12:53:59Z</time>
      </trkpt>
      <trkpt lat="45.37868" lon="5.81466">
        <ele>1869.4</ele>
        <time>2017-01-21T12:54:04Z</time>
      </trkpt>
      <trkpt lat="45.3787" lon="5.81467">
        <ele>1872</ele>
        <time>2017-01-21T12:54:09Z</time>
      </trkpt>
      <trkpt lat="45.37871" lon="5.81467">
        <ele>1873</ele>
        <time>2017-01-21T12:54:14Z</time>
      </trkpt>
      <trkpt lat="45.37873" lon="5.81469">
        <ele>1870</ele>
        <time>2017-01-21T12:54:19Z</time>
      </trkpt>
      <trkpt lat="45.37872" lon="5.81469">
        <ele>1870.2</ele>
        <time>2017-01-21T12:54:24Z</time>
      </trkpt>
      <trkpt lat="45.37872" lon="5.81469">
        <ele>1870.4</ele>
        <time>2017-01-21T12:54:29Z</time>
      </trkpt>
      <trkpt lat="45.37872" lon="5.81468">
        <ele>1870.6</ele>
        <time>2017-01-21T12:54:34Z</time>
      </trkpt>
      <trkpt lat="45.37871" lon="5.81469">
        <ele>1870.8</ele>
        <time>2017-01-21T12:54:39Z</time>
      </trkpt>
      <trkpt lat="45.37871" lon="5.81469">
        <ele>1871</ele>
        <time>2017-01-21T12:54:44Z</time>
      </trkpt>
      <trkpt lat="45.37871" lon="5.81468">
        <ele>1871.2</ele>
        <time>2017-01-21T12:54:49Z</time>
      </trkpt>
      <trkpt lat="45.3787" lon="5.81468">
        <ele>1871.4</ele>
        <time>2017-01-21T12:54:54Z</time>
      </trkpt>
      <trkpt lat="45.3787" lon="5.81468">
        <ele>1871.4</ele>
        <time>2017-01-21T12:54:59Z</time>
      </trkpt>
      <trkpt lat="45.37874" lon="5.81469">
        <ele>1871.4</ele>
        <time>2017-01-21T12:55:04Z</time>
      </trkpt>
      <trkpt lat="45.37879" lon="5.81469">
        <ele>1870.2</ele>
        <time>2017-01-21T12:55:09Z</time>
      </trkpt>
      <trkpt lat="45.37894" lon="5.81475">
        <ele>1871.4</ele>
        <time>2017-01-21T12:55:14Z</time>
      </trkpt>
      <trkpt lat="45.37901" lon="5.81475">
        <ele>1868.8</ele>
        <time>2017-01-21T12:55:19Z</time>
      </trkpt>
      <trkpt lat="45.37907" lon="5.81477">
        <ele>1872.2</ele>
        <time>2017-01-21T12:55:24Z</time>
      </trkpt>
      <trkpt lat="45.37911" lon="5.81478">
        <ele>1871</ele>
        <time>2017-01-21T12:55:29Z</time>
      </trkpt>
      <trkpt lat="45.37913" lon="5.81479">
        <ele>1871.4</ele>
        <time>2017-01-21T12:55:34Z</time>
      </trkpt>
      <trkpt lat="45.37915" lon="5.8148">
        <ele>1872.2</ele>
        <time>2017-01-21T12:55:39Z</time>
      </trkpt>
      <trkpt lat="45.37915" lon="5.81481">
        <ele>1871.4</ele>
        <time>2017-01-21T12:55:44Z</time>
      </trkpt>
      <trkpt lat="45.37919" lon="5.81487">
        <ele>1870.6</ele>
        <time>2017-01-21T12:55:49Z</time>
      </trkpt>
      <trkpt lat="45.37921" lon="5.81489">
        <ele>1872.8</ele>
        <time>2017-01-21T12:55:54Z</time>
      </trkpt>
      <trkpt lat="45.37931" lon="5.81495">
        <ele>1868.8</ele>
        <time>2017-01-21T12:55:59Z</time>
      </trkpt>
      <trkpt lat="45.37944" lon="5.81505">
        <ele>1865.8</ele>
        <time>2017-01-21T12:56:04Z</time>
      </trkpt>
      <trkpt lat="45.37953" lon="5.8151">
        <ele>1864</ele>
        <time>2017-01-21T12:56:09Z</time>
      </trkpt>
      <trkpt lat="45.37962" lon="5.81514">
        <ele>1863.6</ele>
        <time>2017-01-21T12:56:14Z</time>
      </trkpt>
      <trkpt lat="45.37971" lon="5.81514">
        <ele>1863.8</ele>
        <time>2017-01-21T12:56:19Z</time>
      </trkpt>
      <trkpt lat="45.37974" lon="5.81514">
        <ele>1863.6</ele>
        <time>2017-01-21T12:56:24Z</time>
      </trkpt>
      <trkpt lat="45.3798" lon="5.815">
        <ele>1864.2</ele>
        <time>2017-01-21T12:56:29Z</time>
      </trkpt>
      <trkpt lat="45.37984" lon="5.81501">
        <ele>1862.8</ele>
        <time>2017-01-21T12:56:34Z</time>
      </trkpt>
      <trkpt lat="45.38" lon="5.81504">
        <ele>1858.2</ele>
        <time>2017-01-21T12:56:39Z</time>
      </trkpt>
      <trkpt lat="45.38026" lon="5.81514">
        <ele>1855.8</ele>
        <time>2017-01-21T12:56:44Z</time>
      </trkpt>
      <trkpt lat="45.38051" lon="5.81529">
        <ele>1853</ele>
        <time>2017-01-21T12:56:49Z</time>
      </trkpt>
      <trkpt lat="45.38089" lon="5.81542">
        <ele>1846.6</ele>
        <time>2017-01-21T12:56:54Z</time>
      </trkpt>
      <trkpt lat="45.38113" lon="5.81551">
        <ele>1845.4</ele>
        <time>2017-01-21T12:56:59Z</time>
      </trkpt>
      <trkpt lat="45.38121" lon="5.81554">
        <ele>1846</ele>
        <time>2017-01-21T12:57:04Z</time>
      </trkpt>
      <trkpt lat="45.38128" lon="5.81557">
        <ele>1842.2</ele>
        <time>2017-01-21T12:57:10Z</time>
      </trkpt>
      <trkpt lat="45.38128" lon="5.81557">
        <ele>1842.4</ele>
        <time>2017-01-21T12:57:15Z</time>
      </trkpt>
      <trkpt lat="45.38128" lon="5.81557">
        <ele>1842.4</ele>
        <time>2017-01-21T12:57:21Z</time>
      </trkpt>
      <trkpt lat="45.38127" lon="5.81557">
        <ele>1842.4</ele>
        <time>2017-01-21T12:57:26Z</time>
      </trkpt>
      <trkpt lat="45.38127" lon="5.81557">
        <ele>1842.2</ele>
        <time>2017-01-21T12:57:31Z</time>
      </trkpt>
      <trkpt lat="45.38127" lon="5.81558">
        <ele>1842</ele>
        <time>2017-01-21T12:57:36Z</time>
      </trkpt>
      <trkpt lat="45.3813" lon="5.8156">
        <ele>1838.8</ele>
        <time>2017-01-21T12:57:41Z</time>
      </trkpt>
      <trkpt lat="45.38134" lon="5.81562">
        <ele>1841</ele>
        <time>2017-01-21T12:57:46Z</time>
      </trkpt>
      <trkpt lat="45.38136" lon="5.81563">
        <ele>1837.8</ele>
        <time>2017-01-21T12:57:51Z</time>
      </trkpt>
      <trkpt lat="45.38136" lon="5.81563">
        <ele>1838.4</ele>
        <time>2017-01-21T12:57:56Z</time>
      </trkpt>
      <trkpt lat="45.38136" lon="5.81563">
        <ele>1838.8</ele>
        <time>2017-01-21T12:58:01Z</time>
      </trkpt>
      <trkpt lat="45.38135" lon="5.81563">
        <ele>1839</ele>
        <time>2017-01-21T12:58:06Z</time>
      </trkpt>
      <trkpt lat="45.38135" lon="5.81563">
        <ele>1839</ele>
        <time>2017-01-21T12:58:11Z</time>
      </trkpt>
      <trkpt lat="45.38135" lon="5.81563">
        <ele>1839.2</ele>
        <time>2017-01-21T12:58:16Z</time>
      </trkpt>
      <trkpt lat="45.38135" lon="5.81563">
        <ele>1839.2</ele>
        <time>2017-01-21T12:58:21Z</time>
      </trkpt>
      <trkpt lat="45.38135" lon="5.81563">
        <ele>1839.2</ele>
        <time>2017-01-21T12:58:26Z</time>
      </trkpt>
      <trkpt lat="45.38135" lon="5.81563">
        <ele>1839.2</ele>
        <time>2017-01-21T12:58:31Z</time>
      </trkpt>
      <trkpt lat="45.38135" lon="5.81563">
        <ele>1839.4</ele>
        <time>2017-01-21T12:58:36Z</time>
      </trkpt>
      <trkpt lat="45.38135" lon="5.81563">
        <ele>1839.4</ele>
        <time>2017-01-21T12:58:41Z</time>
      </trkpt>
      <trkpt lat="45.38135" lon="5.81563">
        <ele>1839.4</ele>
        <time>2017-01-21T12:58:47Z</time>
      </trkpt>
      <trkpt lat="45.38135" lon="5.81563">
        <ele>1839.4</ele>
        <time>2017-01-21T12:58:52Z</time>
      </trkpt>
      <trkpt lat="45.38135" lon="5.81563">
        <ele>1839.6</ele>
        <time>2017-01-21T12:58:57Z</time>
      </trkpt>
      <trkpt lat="45.38136" lon="5.81563">
        <ele>1839.6</ele>
        <time>2017-01-21T12:59:02Z</time>
      </trkpt>
      <trkpt lat="45.38136" lon="5.81563">
        <ele>1839.8</ele>
        <time>2017-01-21T12:59:07Z</time>
      </trkpt>
      <trkpt lat="45.38136" lon="5.81563">
        <ele>1839.8</ele>
        <time>2017-01-21T12:59:12Z</time>
      </trkpt>
      <trkpt lat="45.38136" lon="5.81563">
        <ele>1839.8</ele>
        <time>2017-01-21T12:59:17Z</time>
      </trkpt>
      <trkpt lat="45.38136" lon="5.81563">
        <ele>1839.8</ele>
        <time>2017-01-21T12:59:22Z</time>
      </trkpt>
      <trkpt lat="45.38136" lon="5.81564">
        <ele>1839.6</ele>
        <time>2017-01-21T12:59:27Z</time>
      </trkpt>
      <trkpt lat="45.38136" lon="5.81564">
        <ele>1839.6</ele>
        <time>2017-01-21T12:59:32Z</time>
      </trkpt>
      <trkpt lat="45.38136" lon="5.81564">
        <ele>1839.6</ele>
        <time>2017-01-21T12:59:37Z</time>
      </trkpt>
      <trkpt lat="45.38136" lon="5.81564">
        <ele>1839.6</ele>
        <time>2017-01-21T12:59:42Z</time>
      </trkpt>
      <trkpt lat="45.38136" lon="5.81565">
        <ele>1839.4</ele>
        <time>2017-01-21T12:59:47Z</time>
      </trkpt>
      <trkpt lat="45.38136" lon="5.81565">
        <ele>1839.6</ele>
        <time>2017-01-21T12:59:52Z</time>
      </trkpt>
      <trkpt lat="45.38137" lon="5.81565">
        <ele>1839.6</ele>
        <time>2017-01-21T12:59:57Z</time>
      </trkpt>
      <trkpt lat="45.38138" lon="5.81565">
        <ele>1839.6</ele>
        <time>2017-01-21T13:00:02Z</time>
      </trkpt>
      <trkpt lat="45.38139" lon="5.81566">
        <ele>1839</ele>
        <time>2017-01-21T13:00:07Z</time>
      </trkpt>
      <trkpt lat="45.38139" lon="5.81566">
        <ele>1838.6</ele>
        <time>2017-01-21T13:00:12Z</time>
      </trkpt>
      <trkpt lat="45.38139" lon="5.81566">
        <ele>1838.4</ele>
        <time>2017-01-21T13:00:17Z</time>
      </trkpt>
      <trkpt lat="45.38139" lon="5.81566">
        <ele>1838.2</ele>
        <time>2017-01-21T13:00:22Z</time>
      </trkpt>
      <trkpt lat="45.38138" lon="5.81566">
        <ele>1838.2</ele>
        <time>2017-01-21T13:00:27Z</time>
      </trkpt>
      <trkpt lat="45.38138" lon="5.81566">
        <ele>1838.2</ele>
        <time>2017-01-21T13:00:32Z</time>
      </trkpt>
      <trkpt lat="45.38141" lon="5.81561">
        <ele>1835.2</ele>
        <time>2017-01-21T13:00:37Z</time>
      </trkpt>
      <trkpt lat="45.38153" lon="5.81565">
        <ele>1834.4</ele>
        <time>2017-01-21T13:00:42Z</time>
      </trkpt>
      <trkpt lat="45.38165" lon="5.81563">
        <ele>1828</ele>
        <time>2017-01-21T13:00:47Z</time>
      </trkpt>
      <trkpt lat="45.38178" lon="5.81565">
        <ele>1823.6</ele>
        <time>2017-01-21T13:00:52Z</time>
      </trkpt>
      <trkpt lat="45.38186" lon="5.81574">
        <ele>1820.4</ele>
        <time>2017-01-21T13:00:57Z</time>
      </trkpt>
      <trkpt lat="45.38186" lon="5.81574">
        <ele>1820.6</ele>
        <time>2017-01-21T13:01:02Z</time>
      </trkpt>
      <trkpt lat="45.38191" lon="5.81575">
        <ele>1819</ele>
        <time>2017-01-21T13:01:07Z</time>
      </trkpt>
      <trkpt lat="45.38205" lon="5.81579">
        <ele>1811.6</ele>
        <time>2017-01-21T13:01:12Z</time>
      </trkpt>
      <trkpt lat="45.38217" lon="5.81584">
        <ele>1808.4</ele>
        <time>2017-01-21T13:01:17Z</time>
      </trkpt>
      <trkpt lat="45.3823" lon="5.81582">
        <ele>1806.2</ele>
        <time>2017-01-21T13:01:22Z</time>
      </trkpt>
      <trkpt lat="45.38231" lon="5.81585">
        <ele>1805.8</ele>
        <time>2017-01-21T13:01:27Z</time>
      </trkpt>
      <trkpt lat="45.38231" lon="5.81586">
        <ele>1806.4</ele>
        <time>2017-01-21T13:01:32Z</time>
      </trkpt>
      <trkpt lat="45.38231" lon="5.81586">
        <ele>1806.6</ele>
        <time>2017-01-21T13:01:37Z</time>
      </trkpt>
      <trkpt lat="45.38231" lon="5.81586">
        <ele>1806.8</ele>
        <time>2017-01-21T13:01:42Z</time>
      </trkpt>
      <trkpt lat="45.38232" lon="5.81586">
        <ele>1808.8</ele>
        <time>2017-01-21T13:01:47Z</time>
      </trkpt>
      <trkpt lat="45.38242" lon="5.81592">
        <ele>1805.6</ele>
        <time>2017-01-21T13:01:52Z</time>
      </trkpt>
      <trkpt lat="45.38251" lon="5.81582">
        <ele>1797.6</ele>
        <time>2017-01-21T13:01:57Z</time>
      </trkpt>
      <trkpt lat="45.38263" lon="5.8159">
        <ele>1794</ele>
        <time>2017-01-21T13:02:02Z</time>
      </trkpt>
      <trkpt lat="45.38266" lon="5.81584">
        <ele>1791.8</ele>
        <time>2017-01-21T13:02:07Z</time>
      </trkpt>
      <trkpt lat="45.38266" lon="5.81584">
        <ele>1791.2</ele>
        <time>2017-01-21T13:02:12Z</time>
      </trkpt>
      <trkpt lat="45.3827" lon="5.81586">
        <ele>1789.6</ele>
        <time>2017-01-21T13:02:17Z</time>
      </trkpt>
      <trkpt lat="45.38278" lon="5.81592">
        <ele>1789</ele>
        <time>2017-01-21T13:02:22Z</time>
      </trkpt>
      <trkpt lat="45.3828" lon="5.81594">
        <ele>1784</ele>
        <time>2017-01-21T13:02:27Z</time>
      </trkpt>
      <trkpt lat="45.38282" lon="5.81594">
        <ele>1783.2</ele>
        <time>2017-01-21T13:02:32Z</time>
      </trkpt>
      <trkpt lat="45.38282" lon="5.81594">
        <ele>1783.2</ele>
        <time>2017-01-21T13:02:37Z</time>
      </trkpt>
      <trkpt lat="45.38282" lon="5.81594">
        <ele>1783</ele>
        <time>2017-01-21T13:02:42Z</time>
      </trkpt>
      <trkpt lat="45.38282" lon="5.81594">
        <ele>1783</ele>
        <time>2017-01-21T13:02:47Z</time>
      </trkpt>
      <trkpt lat="45.38282" lon="5.81594">
        <ele>1782.8</ele>
        <time>2017-01-21T13:02:52Z</time>
      </trkpt>
      <trkpt lat="45.38282" lon="5.81594">
        <ele>1782.8</ele>
        <time>2017-01-21T13:02:57Z</time>
      </trkpt>
      <trkpt lat="45.38282" lon="5.81594">
        <ele>1782.8</ele>
        <time>2017-01-21T13:03:02Z</time>
      </trkpt>
      <trkpt lat="45.38282" lon="5.81594">
        <ele>1782.8</ele>
        <time>2017-01-21T13:03:07Z</time>
      </trkpt>
      <trkpt lat="45.38282" lon="5.81594">
        <ele>1782.6</ele>
        <time>2017-01-21T13:03:13Z</time>
      </trkpt>
      <trkpt lat="45.38282" lon="5.81594">
        <ele>1782.6</ele>
        <time>2017-01-21T13:03:18Z</time>
      </trkpt>
      <trkpt lat="45.38283" lon="5.81595">
        <ele>1781.4</ele>
        <time>2017-01-21T13:03:23Z</time>
      </trkpt>
      <trkpt lat="45.38291" lon="5.81597">
        <ele>1778</ele>
        <time>2017-01-21T13:03:28Z</time>
      </trkpt>
      <trkpt lat="45.38294" lon="5.81602">
        <ele>1777</ele>
        <time>2017-01-21T13:03:33Z</time>
      </trkpt>
      <trkpt lat="45.383" lon="5.8161">
        <ele>1774</ele>
        <time>2017-01-21T13:03:38Z</time>
      </trkpt>
      <trkpt lat="45.38305" lon="5.8161">
        <ele>1772</ele>
        <time>2017-01-21T13:03:43Z</time>
      </trkpt>
      <trkpt lat="45.3831" lon="5.81606">
        <ele>1770.2</ele>
        <time>2017-01-21T13:03:48Z</time>
      </trkpt>
      <trkpt lat="45.3831" lon="5.81606">
        <ele>1770.6</ele>
        <time>2017-01-21T13:03:53Z</time>
      </trkpt>
      <trkpt lat="45.3831" lon="5.81606">
        <ele>1770.8</ele>
        <time>2017-01-21T13:03:58Z</time>
      </trkpt>
      <trkpt lat="45.38311" lon="5.81607">
        <ele>1771</ele>
        <time>2017-01-21T13:04:03Z</time>
      </trkpt>
      <trkpt lat="45.38314" lon="5.81602">
        <ele>1770.8</ele>
        <time>2017-01-21T13:04:08Z</time>
      </trkpt>
      <trkpt lat="45.38314" lon="5.816">
        <ele>1769.2</ele>
        <time>2017-01-21T13:04:13Z</time>
      </trkpt>
      <trkpt lat="45.38313" lon="5.81597">
        <ele>1770.2</ele>
        <time>2017-01-21T13:04:18Z</time>
      </trkpt>
      <trkpt lat="45.38314" lon="5.81593">
        <ele>1769.8</ele>
        <time>2017-01-21T13:04:23Z</time>
      </trkpt>
      <trkpt lat="45.38317" lon="5.81592">
        <ele>1769.2</ele>
        <time>2017-01-21T13:04:28Z</time>
      </trkpt>
      <trkpt lat="45.38318" lon="5.81593">
        <ele>1765.6</ele>
        <time>2017-01-21T13:04:33Z</time>
      </trkpt>
      <trkpt lat="45.38319" lon="5.81595">
        <ele>1765.2</ele>
        <time>2017-01-21T13:04:38Z</time>
      </trkpt>
      <trkpt lat="45.38322" lon="5.81598">
        <ele>1765.4</ele>
        <time>2017-01-21T13:04:43Z</time>
      </trkpt>
      <trkpt lat="45.38334" lon="5.81615">
        <ele>1757.8</ele>
        <time>2017-01-21T13:04:48Z</time>
      </trkpt>
      <trkpt lat="45.38336" lon="5.81617">
        <ele>1757.2</ele>
        <time>2017-01-21T13:04:53Z</time>
      </trkpt>
      <trkpt lat="45.38343" lon="5.81623">
        <ele>1752.4</ele>
        <time>2017-01-21T13:04:58Z</time>
      </trkpt>
      <trkpt lat="45.38343" lon="5.81623">
        <ele>1751.2</ele>
        <time>2017-01-21T13:05:03Z</time>
      </trkpt>
      <trkpt lat="45.38344" lon="5.81625">
        <ele>1750.4</ele>
        <time>2017-01-21T13:05:08Z</time>
      </trkpt>
      <trkpt lat="45.38344" lon="5.81625">
        <ele>1749.6</ele>
        <time>2017-01-21T13:05:13Z</time>
      </trkpt>
      <trkpt lat="45.38345" lon="5.81625">
        <ele>1749.4</ele>
        <time>2017-01-21T13:05:18Z</time>
      </trkpt>
      <trkpt lat="45.38354" lon="5.81627">
        <ele>1747</ele>
        <time>2017-01-21T13:05:23Z</time>
      </trkpt>
      <trkpt lat="45.38356" lon="5.8162">
        <ele>1745.2</ele>
        <time>2017-01-21T13:05:28Z</time>
      </trkpt>
      <trkpt lat="45.3836" lon="5.81619">
        <ele>1741.6</ele>
        <time>2017-01-21T13:05:33Z</time>
      </trkpt>
      <trkpt lat="45.38364" lon="5.8162">
        <ele>1738.4</ele>
        <time>2017-01-21T13:05:38Z</time>
      </trkpt>
      <trkpt lat="45.38367" lon="5.81619">
        <ele>1736.6</ele>
        <time>2017-01-21T13:05:43Z</time>
      </trkpt>
      <trkpt lat="45.38367" lon="5.81619">
        <ele>1736.4</ele>
        <time>2017-01-21T13:05:49Z</time>
      </trkpt>
      <trkpt lat="45.3837" lon="5.81618">
        <ele>1736</ele>
        <time>2017-01-21T13:05:54Z</time>
      </trkpt>
      <trkpt lat="45.38373" lon="5.81613">
        <ele>1731.6</ele>
        <time>2017-01-21T13:05:59Z</time>
      </trkpt>
      <trkpt lat="45.38378" lon="5.81617">
        <ele>1730.2</ele>
        <time>2017-01-21T13:06:04Z</time>
      </trkpt>
      <trkpt lat="45.38379" lon="5.81615">
        <ele>1729.2</ele>
        <time>2017-01-21T13:06:09Z</time>
      </trkpt>
      <trkpt lat="45.38381" lon="5.81613">
        <ele>1726.6</ele>
        <time>2017-01-21T13:06:14Z</time>
      </trkpt>
      <trkpt lat="45.38385" lon="5.81608">
        <ele>1726</ele>
        <time>2017-01-21T13:06:19Z</time>
      </trkpt>
      <trkpt lat="45.38383" lon="5.81603">
        <ele>1724.2</ele>
        <time>2017-01-21T13:06:24Z</time>
      </trkpt>
      <trkpt lat="45.3838" lon="5.81599">
        <ele>1720.6</ele>
        <time>2017-01-21T13:06:29Z</time>
      </trkpt>
      <trkpt lat="45.38377" lon="5.81597">
        <ele>1723</ele>
        <time>2017-01-21T13:06:34Z</time>
      </trkpt>
      <trkpt lat="45.38375" lon="5.81596">
        <ele>1721.2</ele>
        <time>2017-01-21T13:06:39Z</time>
      </trkpt>
      <trkpt lat="45.38372" lon="5.81594">
        <ele>1724</ele>
        <time>2017-01-21T13:06:44Z</time>
      </trkpt>
      <trkpt lat="45.38371" lon="5.81594">
        <ele>1723.4</ele>
        <time>2017-01-21T13:06:49Z</time>
      </trkpt>
      <trkpt lat="45.38371" lon="5.81594">
        <ele>1722.8</ele>
        <time>2017-01-21T13:06:54Z</time>
      </trkpt>
      <trkpt lat="45.38371" lon="5.81594">
        <ele>1722.4</ele>
        <time>2017-01-21T13:06:59Z</time>
      </trkpt>
      <trkpt lat="45.38369" lon="5.81593">
        <ele>1722.4</ele>
        <time>2017-01-21T13:07:04Z</time>
      </trkpt>
      <trkpt lat="45.38367" lon="5.81585">
        <ele>1720.2</ele>
        <time>2017-01-21T13:07:09Z</time>
      </trkpt>
      <trkpt lat="45.38369" lon="5.81583">
        <ele>1719.2</ele>
        <time>2017-01-21T13:07:14Z</time>
      </trkpt>
      <trkpt lat="45.38371" lon="5.81582">
        <ele>1719.4</ele>
        <time>2017-01-21T13:07:19Z</time>
      </trkpt>
      <trkpt lat="45.38371" lon="5.81578">
        <ele>1718</ele>
        <time>2017-01-21T13:07:24Z</time>
      </trkpt>
      <trkpt lat="45.38369" lon="5.81576">
        <ele>1715.4</ele>
        <time>2017-01-21T13:07:29Z</time>
      </trkpt>
      <trkpt lat="45.38369" lon="5.81576">
        <ele>1715.8</ele>
        <time>2017-01-21T13:07:34Z</time>
      </trkpt>
      <trkpt lat="45.3837" lon="5.81576">
        <ele>1716</ele>
        <time>2017-01-21T13:07:39Z</time>
      </trkpt>
      <trkpt lat="45.38369" lon="5.81575">
        <ele>1717.2</ele>
        <time>2017-01-21T13:07:44Z</time>
      </trkpt>
      <trkpt lat="45.38373" lon="5.81568">
        <ele>1712.2</ele>
        <time>2017-01-21T13:07:49Z</time>
      </trkpt>
      <trkpt lat="45.38373" lon="5.81568">
        <ele>1713</ele>
        <time>2017-01-21T13:07:54Z</time>
      </trkpt>
      <trkpt lat="45.38374" lon="5.81566">
        <ele>1713.4</ele>
        <time>2017-01-21T13:07:59Z</time>
      </trkpt>
      <trkpt lat="45.38375" lon="5.81563">
        <ele>1711.2</ele>
        <time>2017-01-21T13:08:04Z</time>
      </trkpt>
      <trkpt lat="45.38377" lon="5.81561">
        <ele>1711.2</ele>
        <time>2017-01-21T13:08:09Z</time>
      </trkpt>
      <trkpt lat="45.38379" lon="5.8156">
        <ele>1707.2</ele>
        <time>2017-01-21T13:08:14Z</time>
      </trkpt>
      <trkpt lat="45.38384" lon="5.81555">
        <ele>1704.4</ele>
        <time>2017-01-21T13:08:19Z</time>
      </trkpt>
      <trkpt lat="45.38388" lon="5.8155">
        <ele>1701.8</ele>
        <time>2017-01-21T13:08:24Z</time>
      </trkpt>
      <trkpt lat="45.38383" lon="5.81543">
        <ele>1700.2</ele>
        <time>2017-01-21T13:08:29Z</time>
      </trkpt>
      <trkpt lat="45.38382" lon="5.81545">
        <ele>1700.6</ele>
        <time>2017-01-21T13:08:34Z</time>
      </trkpt>
      <trkpt lat="45.38382" lon="5.81545">
        <ele>1700.8</ele>
        <time>2017-01-21T13:08:39Z</time>
      </trkpt>
      <trkpt lat="45.38381" lon="5.81545">
        <ele>1700.8</ele>
        <time>2017-01-21T13:08:44Z</time>
      </trkpt>
      <trkpt lat="45.38373" lon="5.81533">
        <ele>1700.2</ele>
        <time>2017-01-21T13:08:49Z</time>
      </trkpt>
      <trkpt lat="45.38379" lon="5.81519">
        <ele>1694</ele>
        <time>2017-01-21T13:08:54Z</time>
      </trkpt>
      <trkpt lat="45.38394" lon="5.81491">
        <ele>1686</ele>
        <time>2017-01-21T13:08:59Z</time>
      </trkpt>
      <trkpt lat="45.38406" lon="5.81467">
        <ele>1678.8</ele>
        <time>2017-01-21T13:09:04Z</time>
      </trkpt>
      <trkpt lat="45.38416" lon="5.81459">
        <ele>1679.8</ele>
        <time>2017-01-21T13:09:09Z</time>
      </trkpt>
      <trkpt lat="45.3843" lon="5.81451">
        <ele>1672.6</ele>
        <time>2017-01-21T13:09:14Z</time>
      </trkpt>
      <trkpt lat="45.38433" lon="5.8143">
        <ele>1664.2</ele>
        <time>2017-01-21T13:09:19Z</time>
      </trkpt>
      <trkpt lat="45.38448" lon="5.81409">
        <ele>1659.2</ele>
        <time>2017-01-21T13:09:24Z</time>
      </trkpt>
      <trkpt lat="45.38457" lon="5.81408">
        <ele>1657.8</ele>
        <time>2017-01-21T13:09:29Z</time>
      </trkpt>
      <trkpt lat="45.38457" lon="5.81409">
        <ele>1656.8</ele>
        <time>2017-01-21T13:09:34Z</time>
      </trkpt>
      <trkpt lat="45.38457" lon="5.81409">
        <ele>1656.2</ele>
        <time>2017-01-21T13:09:39Z</time>
      </trkpt>
      <trkpt lat="45.38457" lon="5.81409">
        <ele>1655.6</ele>
        <time>2017-01-21T13:09:44Z</time>
      </trkpt>
      <trkpt lat="45.38456" lon="5.8141">
        <ele>1655.2</ele>
        <time>2017-01-21T13:09:49Z</time>
      </trkpt>
      <trkpt lat="45.38456" lon="5.8141">
        <ele>1656.2</ele>
        <time>2017-01-21T13:09:54Z</time>
      </trkpt>
      <trkpt lat="45.38456" lon="5.8141">
        <ele>1655.2</ele>
        <time>2017-01-21T13:09:59Z</time>
      </trkpt>
      <trkpt lat="45.38456" lon="5.8141">
        <ele>1654.6</ele>
        <time>2017-01-21T13:10:04Z</time>
      </trkpt>
      <trkpt lat="45.38456" lon="5.8141">
        <ele>1654</ele>
        <time>2017-01-21T13:10:09Z</time>
      </trkpt>
      <trkpt lat="45.38455" lon="5.81411">
        <ele>1653.6</ele>
        <time>2017-01-21T13:10:14Z</time>
      </trkpt>
      <trkpt lat="45.38455" lon="5.81411">
        <ele>1653.4</ele>
        <time>2017-01-21T13:10:19Z</time>
      </trkpt>
      <trkpt lat="45.38455" lon="5.81411">
        <ele>1653.2</ele>
        <time>2017-01-21T13:10:24Z</time>
      </trkpt>
      <trkpt lat="45.38455" lon="5.81411">
        <ele>1653</ele>
        <time>2017-01-21T13:10:29Z</time>
      </trkpt>
      <trkpt lat="45.38455" lon="5.81411">
        <ele>1653</ele>
        <time>2017-01-21T13:10:34Z</time>
      </trkpt>
      <trkpt lat="45.38455" lon="5.81411">
        <ele>1652.8</ele>
        <time>2017-01-21T13:10:39Z</time>
      </trkpt>
      <trkpt lat="45.38455" lon="5.81411">
        <ele>1652.8</ele>
        <time>2017-01-21T13:10:44Z</time>
      </trkpt>
      <trkpt lat="45.38455" lon="5.8141">
        <ele>1652.8</ele>
        <time>2017-01-21T13:10:49Z</time>
      </trkpt>
      <trkpt lat="45.38455" lon="5.81409">
        <ele>1652.6</ele>
        <time>2017-01-21T13:10:54Z</time>
      </trkpt>
      <trkpt lat="45.38455" lon="5.81406">
        <ele>1652.2</ele>
        <time>2017-01-21T13:10:59Z</time>
      </trkpt>
      <trkpt lat="45.38455" lon="5.81406">
        <ele>1651.6</ele>
        <time>2017-01-21T13:11:05Z</time>
      </trkpt>
      <trkpt lat="45.38455" lon="5.81406">
        <ele>1651.4</ele>
        <time>2017-01-21T13:11:10Z</time>
      </trkpt>
      <trkpt lat="45.38455" lon="5.81406">
        <ele>1651.6</ele>
        <time>2017-01-21T13:11:16Z</time>
      </trkpt>
      <trkpt lat="45.38455" lon="5.81406">
        <ele>1651.6</ele>
        <time>2017-01-21T13:11:21Z</time>
      </trkpt>
      <trkpt lat="45.38455" lon="5.81406">
        <ele>1651.6</ele>
        <time>2017-01-21T13:11:26Z</time>
      </trkpt>
      <trkpt lat="45.38455" lon="5.81406">
        <ele>1651.6</ele>
        <time>2017-01-21T13:11:31Z</time>
      </trkpt>
      <trkpt lat="45.38455" lon="5.81406">
        <ele>1651.6</ele>
        <time>2017-01-21T13:11:36Z</time>
      </trkpt>
      <trkpt lat="45.38455" lon="5.81406">
        <ele>1651.6</ele>
        <time>2017-01-21T13:11:41Z</time>
      </trkpt>
      <trkpt lat="45.38455" lon="5.81406">
        <ele>1651.6</ele>
        <time>2017-01-21T13:11:46Z</time>
      </trkpt>
      <trkpt lat="45.38455" lon="5.81406">
        <ele>1651.6</ele>
        <time>2017-01-21T13:11:51Z</time>
      </trkpt>
      <trkpt lat="45.38455" lon="5.81406">
        <ele>1651.6</ele>
        <time>2017-01-21T13:11:56Z</time>
      </trkpt>
      <trkpt lat="45.38455" lon="5.81406">
        <ele>1651.6</ele>
        <time>2017-01-21T13:12:01Z</time>
      </trkpt>
      <trkpt lat="45.38455" lon="5.81406">
        <ele>1651.6</ele>
        <time>2017-01-21T13:12:06Z</time>
      </trkpt>
      <trkpt lat="45.38455" lon="5.81406">
        <ele>1651.6</ele>
        <time>2017-01-21T13:12:11Z</time>
      </trkpt>
      <trkpt lat="45.38455" lon="5.81406">
        <ele>1651.6</ele>
        <time>2017-01-21T13:12:16Z</time>
      </trkpt>
      <trkpt lat="45.38455" lon="5.81406">
        <ele>1651.6</ele>
        <time>2017-01-21T13:12:21Z</time>
      </trkpt>
      <trkpt lat="45.38455" lon="5.81406">
        <ele>1651.6</ele>
        <time>2017-01-21T13:12:26Z</time>
      </trkpt>
      <trkpt lat="45.38455" lon="5.81406">
        <ele>1651.6</ele>
        <time>2017-01-21T13:12:31Z</time>
      </trkpt>
      <trkpt lat="45.38455" lon="5.81406">
        <ele>1651.6</ele>
        <time>2017-01-21T13:12:36Z</time>
      </trkpt>
      <trkpt lat="45.38454" lon="5.81406">
        <ele>1651.8</ele>
        <time>2017-01-21T13:12:41Z</time>
      </trkpt>
      <trkpt lat="45.38454" lon="5.81406">
        <ele>1651.8</ele>
        <time>2017-01-21T13:12:46Z</time>
      </trkpt>
      <trkpt lat="45.38454" lon="5.81406">
        <ele>1652</ele>
        <time>2017-01-21T13:12:51Z</time>
      </trkpt>
      <trkpt lat="45.38454" lon="5.81406">
        <ele>1652</ele>
        <time>2017-01-21T13:12:56Z</time>
      </trkpt>
      <trkpt lat="45.38454" lon="5.81406">
        <ele>1652</ele>
        <time>2017-01-21T13:13:01Z</time>
      </trkpt>
      <trkpt lat="45.38454" lon="5.81406">
        <ele>1652</ele>
        <time>2017-01-21T13:13:06Z</time>
      </trkpt>
      <trkpt lat="45.38454" lon="5.81406">
        <ele>1652</ele>
        <time>2017-01-21T13:13:11Z</time>
      </trkpt>
      <trkpt lat="45.38454" lon="5.81406">
        <ele>1652</ele>
        <time>2017-01-21T13:13:16Z</time>
      </trkpt>
      <trkpt lat="45.38454" lon="5.81406">
        <ele>1652</ele>
        <time>2017-01-21T13:13:21Z</time>
      </trkpt>
      <trkpt lat="45.38454" lon="5.81406">
        <ele>1652</ele>
        <time>2017-01-21T13:13:26Z</time>
      </trkpt>
      <trkpt lat="45.38454" lon="5.81406">
        <ele>1652</ele>
        <time>2017-01-21T13:13:31Z</time>
      </trkpt>
      <trkpt lat="45.38454" lon="5.81406">
        <ele>1652</ele>
        <time>2017-01-21T13:13:36Z</time>
      </trkpt>
      <trkpt lat="45.38454" lon="5.81406">
        <ele>1652</ele>
        <time>2017-01-21T13:13:41Z</time>
      </trkpt>
      <trkpt lat="45.38454" lon="5.81406">
        <ele>1652</ele>
        <time>2017-01-21T13:13:46Z</time>
      </trkpt>
      <trkpt lat="45.38454" lon="5.81406">
        <ele>1652</ele>
        <time>2017-01-21T13:13:51Z</time>
      </trkpt>
      <trkpt lat="45.38454" lon="5.81406">
        <ele>1652</ele>
        <time>2017-01-21T13:13:56Z</time>
      </trkpt>
      <trkpt lat="45.38454" lon="5.81406">
        <ele>1652</ele>
        <time>2017-01-21T13:14:01Z</time>
      </trkpt>
      <trkpt lat="45.38454" lon="5.81406">
        <ele>1652</ele>
        <time>2017-01-21T13:14:06Z</time>
      </trkpt>
      <trkpt lat="45.38454" lon="5.81406">
        <ele>1652</ele>
        <time>2017-01-21T13:14:11Z</time>
      </trkpt>
      <trkpt lat="45.38454" lon="5.81406">
        <ele>1652</ele>
        <time>2017-01-21T13:14:16Z</time>
      </trkpt>
      <trkpt lat="45.38454" lon="5.81406">
        <ele>1652</ele>
        <time>2017-01-21T13:14:21Z</time>
      </trkpt>
      <trkpt lat="45.38454" lon="5.81406">
        <ele>1652</ele>
        <time>2017-01-21T13:14:26Z</time>
      </trkpt>
      <trkpt lat="45.38454" lon="5.81406">
        <ele>1652</ele>
        <time>2017-01-21T13:14:31Z</time>
      </trkpt>
      <trkpt lat="45.38454" lon="5.81406">
        <ele>1652</ele>
        <time>2017-01-21T13:14:36Z</time>
      </trkpt>
      <trkpt lat="45.38454" lon="5.81406">
        <ele>1652.2</ele>
        <time>2017-01-21T13:14:41Z</time>
      </trkpt>
      <trkpt lat="45.38454" lon="5.81406">
        <ele>1652.2</ele>
        <time>2017-01-21T13:14:46Z</time>
      </trkpt>
      <trkpt lat="45.38454" lon="5.81406">
        <ele>1652.2</ele>
        <time>2017-01-21T13:14:51Z</time>
      </trkpt>
      <trkpt lat="45.38454" lon="5.81406">
        <ele>1652.2</ele>
        <time>2017-01-21T13:14:56Z</time>
      </trkpt>
      <trkpt lat="45.38454" lon="5.81406">
        <ele>1652.2</ele>
        <time>2017-01-21T13:15:01Z</time>
      </trkpt>
      <trkpt lat="45.38454" lon="5.81406">
        <ele>1652.2</ele>
        <time>2017-01-21T13:15:06Z</time>
      </trkpt>
      <trkpt lat="45.38454" lon="5.81406">
        <ele>1652.2</ele>
        <time>2017-01-21T13:15:11Z</time>
      </trkpt>
      <trkpt lat="45.38454" lon="5.81406">
        <ele>1652.2</ele>
        <time>2017-01-21T13:15:16Z</time>
      </trkpt>
      <trkpt lat="45.38454" lon="5.81406">
        <ele>1652.2</ele>
        <time>2017-01-21T13:15:21Z</time>
      </trkpt>
      <trkpt lat="45.38454" lon="5.81406">
        <ele>1652.2</ele>
        <time>2017-01-21T13:15:26Z</time>
      </trkpt>
      <trkpt lat="45.38454" lon="5.81406">
        <ele>1652</ele>
        <time>2017-01-21T13:15:31Z</time>
      </trkpt>
      <trkpt lat="45.38454" lon="5.81406">
        <ele>1652</ele>
        <time>2017-01-21T13:15:36Z</time>
      </trkpt>
      <trkpt lat="45.38454" lon="5.81406">
        <ele>1652</ele>
        <time>2017-01-21T13:15:41Z</time>
      </trkpt>
      <trkpt lat="45.38454" lon="5.81406">
        <ele>1652</ele>
        <time>2017-01-21T13:15:46Z</time>
      </trkpt>
      <trkpt lat="45.38454" lon="5.81406">
        <ele>1652</ele>
        <time>2017-01-21T13:15:51Z</time>
      </trkpt>
      <trkpt lat="45.38454" lon="5.81406">
        <ele>1652</ele>
        <time>2017-01-21T13:15:56Z</time>
      </trkpt>
      <trkpt lat="45.38454" lon="5.81406">
        <ele>1652</ele>
        <time>2017-01-21T13:16:01Z</time>
      </trkpt>
      <trkpt lat="45.38454" lon="5.81406">
        <ele>1652</ele>
        <time>2017-01-21T13:16:06Z</time>
      </trkpt>
      <trkpt lat="45.38454" lon="5.81406">
        <ele>1652</ele>
        <time>2017-01-21T13:16:11Z</time>
      </trkpt>
      <trkpt lat="45.38454" lon="5.81406">
        <ele>1651.8</ele>
        <time>2017-01-21T13:16:16Z</time>
      </trkpt>
      <trkpt lat="45.38454" lon="5.81406">
        <ele>1651.8</ele>
        <time>2017-01-21T13:16:21Z</time>
      </trkpt>
      <trkpt lat="45.38454" lon="5.81406">
        <ele>1651.8</ele>
        <time>2017-01-21T13:16:26Z</time>
      </trkpt>
      <trkpt lat="45.38454" lon="5.81406">
        <ele>1651.8</ele>
        <time>2017-01-21T13:16:31Z</time>
      </trkpt>
      <trkpt lat="45.38454" lon="5.81406">
        <ele>1651.8</ele>
        <time>2017-01-21T13:16:36Z</time>
      </trkpt>
      <trkpt lat="45.38454" lon="5.81406">
        <ele>1651.8</ele>
        <time>2017-01-21T13:16:41Z</time>
      </trkpt>
      <trkpt lat="45.38454" lon="5.81406">
        <ele>1651.8</ele>
        <time>2017-01-21T13:16:46Z</time>
      </trkpt>
      <trkpt lat="45.38454" lon="5.81406">
        <ele>1651.8</ele>
        <time>2017-01-21T13:16:51Z</time>
      </trkpt>
      <trkpt lat="45.38454" lon="5.81406">
        <ele>1651.8</ele>
        <time>2017-01-21T13:16:56Z</time>
      </trkpt>
      <trkpt lat="45.38454" lon="5.81406">
        <ele>1651.8</ele>
        <time>2017-01-21T13:17:01Z</time>
      </trkpt>
      <trkpt lat="45.38454" lon="5.81406">
        <ele>1651.8</ele>
        <time>2017-01-21T13:17:06Z</time>
      </trkpt>
      <trkpt lat="45.38454" lon="5.81406">
        <ele>1651.8</ele>
        <time>2017-01-21T13:17:11Z</time>
      </trkpt>
      <trkpt lat="45.38454" lon="5.81406">
        <ele>1651.8</ele>
        <time>2017-01-21T13:17:16Z</time>
      </trkpt>
      <trkpt lat="45.38454" lon="5.81406">
        <ele>1651.8</ele>
        <time>2017-01-21T13:17:21Z</time>
      </trkpt>
      <trkpt lat="45.38453" lon="5.81407">
        <ele>1651.6</ele>
        <time>2017-01-21T13:17:26Z</time>
      </trkpt>
      <trkpt lat="45.38453" lon="5.81407">
        <ele>1651.4</ele>
        <time>2017-01-21T13:17:31Z</time>
      </trkpt>
      <trkpt lat="45.38454" lon="5.81409">
        <ele>1651</ele>
        <time>2017-01-21T13:17:36Z</time>
      </trkpt>
      <trkpt lat="45.38454" lon="5.8141">
        <ele>1650.6</ele>
        <time>2017-01-21T13:17:41Z</time>
      </trkpt>
      <trkpt lat="45.38452" lon="5.81411">
        <ele>1650.6</ele>
        <time>2017-01-21T13:17:46Z</time>
      </trkpt>
      <trkpt lat="45.38452" lon="5.81411">
        <ele>1650</ele>
        <time>2017-01-21T13:17:51Z</time>
      </trkpt>
      <trkpt lat="45.38452" lon="5.81411">
        <ele>1649.6</ele>
        <time>2017-01-21T13:17:56Z</time>
      </trkpt>
      <trkpt lat="45.38452" lon="5.81412">
        <ele>1649.4</ele>
        <time>2017-01-21T13:18:01Z</time>
      </trkpt>
      <trkpt lat="45.38452" lon="5.81412">
        <ele>1649</ele>
        <time>2017-01-21T13:18:06Z</time>
      </trkpt>
      <trkpt lat="45.38452" lon="5.81412">
        <ele>1648.8</ele>
        <time>2017-01-21T13:18:11Z</time>
      </trkpt>
      <trkpt lat="45.38452" lon="5.81412">
        <ele>1648.6</ele>
        <time>2017-01-21T13:18:16Z</time>
      </trkpt>
      <trkpt lat="45.38452" lon="5.81412">
        <ele>1648.4</ele>
        <time>2017-01-21T13:18:21Z</time>
      </trkpt>
      <trkpt lat="45.38452" lon="5.81412">
        <ele>1648.4</ele>
        <time>2017-01-21T13:18:26Z</time>
      </trkpt>
      <trkpt lat="45.38452" lon="5.81412">
        <ele>1648.4</ele>
        <time>2017-01-21T13:18:31Z</time>
      </trkpt>
      <trkpt lat="45.38452" lon="5.81412">
        <ele>1648.2</ele>
        <time>2017-01-21T13:18:36Z</time>
      </trkpt>
      <trkpt lat="45.38452" lon="5.81412">
        <ele>1648.2</ele>
        <time>2017-01-21T13:18:41Z</time>
      </trkpt>
      <trkpt lat="45.38452" lon="5.81412">
        <ele>1648.2</ele>
        <time>2017-01-21T13:18:46Z</time>
      </trkpt>
      <trkpt lat="45.38452" lon="5.81412">
        <ele>1648.2</ele>
        <time>2017-01-21T13:18:51Z</time>
      </trkpt>
      <trkpt lat="45.38452" lon="5.81413">
        <ele>1648</ele>
        <time>2017-01-21T13:18:56Z</time>
      </trkpt>
      <trkpt lat="45.38451" lon="5.81413">
        <ele>1648</ele>
        <time>2017-01-21T13:19:01Z</time>
      </trkpt>
      <trkpt lat="45.38451" lon="5.81413">
        <ele>1647.8</ele>
        <time>2017-01-21T13:19:06Z</time>
      </trkpt>
      <trkpt lat="45.38451" lon="5.81413">
        <ele>1647.6</ele>
        <time>2017-01-21T13:19:11Z</time>
      </trkpt>
      <trkpt lat="45.38451" lon="5.81413">
        <ele>1647.6</ele>
        <time>2017-01-21T13:19:16Z</time>
      </trkpt>
      <trkpt lat="45.38451" lon="5.81413">
        <ele>1647.4</ele>
        <time>2017-01-21T13:19:21Z</time>
      </trkpt>
      <trkpt lat="45.38451" lon="5.81413">
        <ele>1647.4</ele>
        <time>2017-01-21T13:19:26Z</time>
      </trkpt>
      <trkpt lat="45.38451" lon="5.81413">
        <ele>1647.4</ele>
        <time>2017-01-21T13:19:31Z</time>
      </trkpt>
      <trkpt lat="45.38451" lon="5.81414">
        <ele>1647.4</ele>
        <time>2017-01-21T13:19:36Z</time>
      </trkpt>
      <trkpt lat="45.38451" lon="5.81414">
        <ele>1647.4</ele>
        <time>2017-01-21T13:19:41Z</time>
      </trkpt>
      <trkpt lat="45.38451" lon="5.81415">
        <ele>1647.6</ele>
        <time>2017-01-21T13:19:46Z</time>
      </trkpt>
      <trkpt lat="45.38451" lon="5.81415">
        <ele>1647.6</ele>
        <time>2017-01-21T13:19:51Z</time>
      </trkpt>
      <trkpt lat="45.38451" lon="5.81415">
        <ele>1647.8</ele>
        <time>2017-01-21T13:19:56Z</time>
      </trkpt>
      <trkpt lat="45.38451" lon="5.81415">
        <ele>1647.8</ele>
        <time>2017-01-21T13:20:01Z</time>
      </trkpt>
      <trkpt lat="45.38451" lon="5.81415">
        <ele>1647.8</ele>
        <time>2017-01-21T13:20:06Z</time>
      </trkpt>
      <trkpt lat="45.38451" lon="5.81415">
        <ele>1647.8</ele>
        <time>2017-01-21T13:20:11Z</time>
      </trkpt>
      <trkpt lat="45.3845" lon="5.81415">
        <ele>1647.6</ele>
        <time>2017-01-21T13:20:16Z</time>
      </trkpt>
      <trkpt lat="45.38449" lon="5.81414">
        <ele>1648</ele>
        <time>2017-01-21T13:20:21Z</time>
      </trkpt>
      <trkpt lat="45.38449" lon="5.81414">
        <ele>1648.2</ele>
        <time>2017-01-21T13:20:26Z</time>
      </trkpt>
      <trkpt lat="45.38449" lon="5.81414">
        <ele>1648.4</ele>
        <time>2017-01-21T13:20:31Z</time>
      </trkpt>
      <trkpt lat="45.38449" lon="5.81414">
        <ele>1648.4</ele>
        <time>2017-01-21T13:20:36Z</time>
      </trkpt>
      <trkpt lat="45.38449" lon="5.81414">
        <ele>1648.4</ele>
        <time>2017-01-21T13:20:41Z</time>
      </trkpt>
      <trkpt lat="45.38449" lon="5.81414">
        <ele>1648.4</ele>
        <time>2017-01-21T13:20:46Z</time>
      </trkpt>
      <trkpt lat="45.3845" lon="5.81414">
        <ele>1648.2</ele>
        <time>2017-01-21T13:20:51Z</time>
      </trkpt>
      <trkpt lat="45.3845" lon="5.81414">
        <ele>1648</ele>
        <time>2017-01-21T13:20:56Z</time>
      </trkpt>
      <trkpt lat="45.38452" lon="5.81414">
        <ele>1648.4</ele>
        <time>2017-01-21T13:21:01Z</time>
      </trkpt>
      <trkpt lat="45.38452" lon="5.81414">
        <ele>1647.8</ele>
        <time>2017-01-21T13:21:06Z</time>
      </trkpt>
      <trkpt lat="45.38452" lon="5.81414">
        <ele>1647.2</ele>
        <time>2017-01-21T13:21:11Z</time>
      </trkpt>
      <trkpt lat="45.38452" lon="5.81414">
        <ele>1646.8</ele>
        <time>2017-01-21T13:21:16Z</time>
      </trkpt>
      <trkpt lat="45.38452" lon="5.81414">
        <ele>1646.4</ele>
        <time>2017-01-21T13:21:21Z</time>
      </trkpt>
      <trkpt lat="45.38452" lon="5.81414">
        <ele>1646</ele>
        <time>2017-01-21T13:21:26Z</time>
      </trkpt>
      <trkpt lat="45.38452" lon="5.81414">
        <ele>1645.6</ele>
        <time>2017-01-21T13:21:31Z</time>
      </trkpt>
      <trkpt lat="45.38452" lon="5.81414">
        <ele>1645.4</ele>
        <time>2017-01-21T13:21:36Z</time>
      </trkpt>
      <trkpt lat="45.38452" lon="5.81414">
        <ele>1645.2</ele>
        <time>2017-01-21T13:21:41Z</time>
      </trkpt>
      <trkpt lat="45.38451" lon="5.81411">
        <ele>1645.4</ele>
        <time>2017-01-21T13:21:46Z</time>
      </trkpt>
      <trkpt lat="45.38451" lon="5.81411">
        <ele>1645.2</ele>
        <time>2017-01-21T13:21:52Z</time>
      </trkpt>
      <trkpt lat="45.38451" lon="5.8141">
        <ele>1645.2</ele>
        <time>2017-01-21T13:21:57Z</time>
      </trkpt>
      <trkpt lat="45.38451" lon="5.81409">
        <ele>1645.6</ele>
        <time>2017-01-21T13:22:02Z</time>
      </trkpt>
      <trkpt lat="45.38451" lon="5.81407">
        <ele>1644.4</ele>
        <time>2017-01-21T13:22:07Z</time>
      </trkpt>
      <trkpt lat="45.38451" lon="5.81404">
        <ele>1645.2</ele>
        <time>2017-01-21T13:22:12Z</time>
      </trkpt>
      <trkpt lat="45.38451" lon="5.81402">
        <ele>1645.4</ele>
        <time>2017-01-21T13:22:17Z</time>
      </trkpt>
      <trkpt lat="45.38451" lon="5.81401">
        <ele>1646.4</ele>
        <time>2017-01-21T13:22:22Z</time>
      </trkpt>
      <trkpt lat="45.38451" lon="5.81399">
        <ele>1645</ele>
        <time>2017-01-21T13:22:27Z</time>
      </trkpt>
      <trkpt lat="45.38451" lon="5.81399">
        <ele>1646</ele>
        <time>2017-01-21T13:22:32Z</time>
      </trkpt>
      <trkpt lat="45.38451" lon="5.81398">
        <ele>1645.4</ele>
        <time>2017-01-21T13:22:37Z</time>
      </trkpt>
      <trkpt lat="45.38452" lon="5.81394">
        <ele>1646.6</ele>
        <time>2017-01-21T13:22:42Z</time>
      </trkpt>
      <trkpt lat="45.38452" lon="5.81391">
        <ele>1648</ele>
        <time>2017-01-21T13:22:47Z</time>
      </trkpt>
      <trkpt lat="45.38452" lon="5.8139">
        <ele>1648.2</ele>
        <time>2017-01-21T13:22:52Z</time>
      </trkpt>
      <trkpt lat="45.38452" lon="5.8139">
        <ele>1648.2</ele>
        <time>2017-01-21T13:22:57Z</time>
      </trkpt>
      <trkpt lat="45.38452" lon="5.81389">
        <ele>1651</ele>
        <time>2017-01-21T13:23:02Z</time>
      </trkpt>
      <trkpt lat="45.38452" lon="5.81389">
        <ele>1650.2</ele>
        <time>2017-01-21T13:23:07Z</time>
      </trkpt>
      <trkpt lat="45.38452" lon="5.81389">
        <ele>1649.6</ele>
        <time>2017-01-21T13:23:12Z</time>
      </trkpt>
      <trkpt lat="45.38452" lon="5.81388">
        <ele>1651.2</ele>
        <time>2017-01-21T13:23:17Z</time>
      </trkpt>
      <trkpt lat="45.38452" lon="5.81384">
        <ele>1649.8</ele>
        <time>2017-01-21T13:23:22Z</time>
      </trkpt>
      <trkpt lat="45.38452" lon="5.8138">
        <ele>1651.6</ele>
        <time>2017-01-21T13:23:27Z</time>
      </trkpt>
      <trkpt lat="45.38452" lon="5.81376">
        <ele>1652.8</ele>
        <time>2017-01-21T13:23:32Z</time>
      </trkpt>
      <trkpt lat="45.38451" lon="5.81371">
        <ele>1651.6</ele>
        <time>2017-01-21T13:23:37Z</time>
      </trkpt>
      <trkpt lat="45.38451" lon="5.81367">
        <ele>1653.8</ele>
        <time>2017-01-21T13:23:42Z</time>
      </trkpt>
      <trkpt lat="45.38451" lon="5.81363">
        <ele>1653.2</ele>
        <time>2017-01-21T13:23:47Z</time>
      </trkpt>
      <trkpt lat="45.3845" lon="5.81358">
        <ele>1656.2</ele>
        <time>2017-01-21T13:23:52Z</time>
      </trkpt>
      <trkpt lat="45.38449" lon="5.81354">
        <ele>1653.6</ele>
        <time>2017-01-21T13:23:57Z</time>
      </trkpt>
      <trkpt lat="45.38448" lon="5.81351">
        <ele>1655.8</ele>
        <time>2017-01-21T13:24:02Z</time>
      </trkpt>
      <trkpt lat="45.38447" lon="5.81347">
        <ele>1655.6</ele>
        <time>2017-01-21T13:24:07Z</time>
      </trkpt>
      <trkpt lat="45.38446" lon="5.81344">
        <ele>1658</ele>
        <time>2017-01-21T13:24:12Z</time>
      </trkpt>
      <trkpt lat="45.38446" lon="5.8134">
        <ele>1656.8</ele>
        <time>2017-01-21T13:24:17Z</time>
      </trkpt>
      <trkpt lat="45.38445" lon="5.81336">
        <ele>1656.4</ele>
        <time>2017-01-21T13:24:22Z</time>
      </trkpt>
      <trkpt lat="45.38444" lon="5.81333">
        <ele>1657.8</ele>
        <time>2017-01-21T13:24:27Z</time>
      </trkpt>
      <trkpt lat="45.38444" lon="5.81331">
        <ele>1656.8</ele>
        <time>2017-01-21T13:24:32Z</time>
      </trkpt>
      <trkpt lat="45.38443" lon="5.81328">
        <ele>1658.2</ele>
        <time>2017-01-21T13:24:37Z</time>
      </trkpt>
      <trkpt lat="45.38442" lon="5.81325">
        <ele>1656.4</ele>
        <time>2017-01-21T13:24:42Z</time>
      </trkpt>
      <trkpt lat="45.38442" lon="5.81322">
        <ele>1656.2</ele>
        <time>2017-01-21T13:24:47Z</time>
      </trkpt>
      <trkpt lat="45.38441" lon="5.81319">
        <ele>1657.2</ele>
        <time>2017-01-21T13:24:52Z</time>
      </trkpt>
      <trkpt lat="45.38441" lon="5.81319">
        <ele>1660</ele>
        <time>2017-01-21T13:24:57Z</time>
      </trkpt>
      <trkpt lat="45.38441" lon="5.81319">
        <ele>1660.6</ele>
        <time>2017-01-21T13:25:02Z</time>
      </trkpt>
      <trkpt lat="45.38441" lon="5.81319">
        <ele>1660.8</ele>
        <time>2017-01-21T13:25:07Z</time>
      </trkpt>
      <trkpt lat="45.38441" lon="5.81319">
        <ele>1661</ele>
        <time>2017-01-21T13:25:12Z</time>
      </trkpt>
      <trkpt lat="45.38441" lon="5.81319">
        <ele>1661.2</ele>
        <time>2017-01-21T13:25:17Z</time>
      </trkpt>
      <trkpt lat="45.38441" lon="5.81319">
        <ele>1661.4</ele>
        <time>2017-01-21T13:25:22Z</time>
      </trkpt>
      <trkpt lat="45.38441" lon="5.81319">
        <ele>1661.4</ele>
        <time>2017-01-21T13:25:27Z</time>
      </trkpt>
      <trkpt lat="45.38441" lon="5.81319">
        <ele>1661.6</ele>
        <time>2017-01-21T13:25:32Z</time>
      </trkpt>
      <trkpt lat="45.38441" lon="5.81319">
        <ele>1661.6</ele>
        <time>2017-01-21T13:25:37Z</time>
      </trkpt>
      <trkpt lat="45.38441" lon="5.81319">
        <ele>1661.6</ele>
        <time>2017-01-21T13:25:42Z</time>
      </trkpt>
      <trkpt lat="45.38441" lon="5.81319">
        <ele>1661.6</ele>
        <time>2017-01-21T13:25:47Z</time>
      </trkpt>
      <trkpt lat="45.38441" lon="5.81319">
        <ele>1661.6</ele>
        <time>2017-01-21T13:25:52Z</time>
      </trkpt>
      <trkpt lat="45.38441" lon="5.81319">
        <ele>1661.6</ele>
        <time>2017-01-21T13:25:57Z</time>
      </trkpt>
      <trkpt lat="45.38441" lon="5.81319">
        <ele>1661.6</ele>
        <time>2017-01-21T13:26:02Z</time>
      </trkpt>
      <trkpt lat="45.38441" lon="5.81319">
        <ele>1661.6</ele>
        <time>2017-01-21T13:26:07Z</time>
      </trkpt>
      <trkpt lat="45.38441" lon="5.81319">
        <ele>1661.6</ele>
        <time>2017-01-21T13:26:12Z</time>
      </trkpt>
      <trkpt lat="45.38441" lon="5.81319">
        <ele>1661.6</ele>
        <time>2017-01-21T13:26:17Z</time>
      </trkpt>
      <trkpt lat="45.38441" lon="5.81319">
        <ele>1661.6</ele>
        <time>2017-01-21T13:26:22Z</time>
      </trkpt>
      <trkpt lat="45.38441" lon="5.81319">
        <ele>1661.6</ele>
        <time>2017-01-21T13:26:27Z</time>
      </trkpt>
      <trkpt lat="45.38441" lon="5.81319">
        <ele>1661.6</ele>
        <time>2017-01-21T13:26:32Z</time>
      </trkpt>
      <trkpt lat="45.38441" lon="5.81319">
        <ele>1661.6</ele>
        <time>2017-01-21T13:26:37Z</time>
      </trkpt>
      <trkpt lat="45.38441" lon="5.81319">
        <ele>1661.6</ele>
        <time>2017-01-21T13:26:42Z</time>
      </trkpt>
      <trkpt lat="45.38441" lon="5.81319">
        <ele>1661.6</ele>
        <time>2017-01-21T13:26:47Z</time>
      </trkpt>
      <trkpt lat="45.38441" lon="5.81319">
        <ele>1661.6</ele>
        <time>2017-01-21T13:26:52Z</time>
      </trkpt>
      <trkpt lat="45.38441" lon="5.81319">
        <ele>1661.6</ele>
        <time>2017-01-21T13:26:57Z</time>
      </trkpt>
      <trkpt lat="45.38441" lon="5.81319">
        <ele>1661.6</ele>
        <time>2017-01-21T13:27:02Z</time>
      </trkpt>
      <trkpt lat="45.38441" lon="5.81319">
        <ele>1661.6</ele>
        <time>2017-01-21T13:27:07Z</time>
      </trkpt>
      <trkpt lat="45.38441" lon="5.81319">
        <ele>1661.6</ele>
        <time>2017-01-21T13:27:12Z</time>
      </trkpt>
      <trkpt lat="45.38441" lon="5.81319">
        <ele>1661.6</ele>
        <time>2017-01-21T13:27:17Z</time>
      </trkpt>
      <trkpt lat="45.38441" lon="5.81319">
        <ele>1661.6</ele>
        <time>2017-01-21T13:27:22Z</time>
      </trkpt>
      <trkpt lat="45.38441" lon="5.81319">
        <ele>1661.6</ele>
        <time>2017-01-21T13:27:27Z</time>
      </trkpt>
      <trkpt lat="45.38441" lon="5.81319">
        <ele>1661.6</ele>
        <time>2017-01-21T13:27:32Z</time>
      </trkpt>
      <trkpt lat="45.38441" lon="5.81318">
        <ele>1661.6</ele>
        <time>2017-01-21T13:27:37Z</time>
      </trkpt>
      <trkpt lat="45.38441" lon="5.81314">
        <ele>1661.2</ele>
        <time>2017-01-21T13:27:42Z</time>
      </trkpt>
      <trkpt lat="45.38439" lon="5.81309">
        <ele>1663</ele>
        <time>2017-01-21T13:27:47Z</time>
      </trkpt>
      <trkpt lat="45.38438" lon="5.81304">
        <ele>1663.6</ele>
        <time>2017-01-21T13:27:52Z</time>
      </trkpt>
      <trkpt lat="45.38438" lon="5.813">
        <ele>1661.4</ele>
        <time>2017-01-21T13:27:57Z</time>
      </trkpt>
      <trkpt lat="45.38437" lon="5.81296">
        <ele>1665</ele>
        <time>2017-01-21T13:28:02Z</time>
      </trkpt>
      <trkpt lat="45.38436" lon="5.81292">
        <ele>1663.8</ele>
        <time>2017-01-21T13:28:07Z</time>
      </trkpt>
      <trkpt lat="45.38436" lon="5.81288">
        <ele>1665.8</ele>
        <time>2017-01-21T13:28:12Z</time>
      </trkpt>
      <trkpt lat="45.38435" lon="5.81284">
        <ele>1664.2</ele>
        <time>2017-01-21T13:28:17Z</time>
      </trkpt>
      <trkpt lat="45.38434" lon="5.8128">
        <ele>1666.6</ele>
        <time>2017-01-21T13:28:23Z</time>
      </trkpt>
      <trkpt lat="45.38433" lon="5.81276">
        <ele>1669</ele>
        <time>2017-01-21T13:28:28Z</time>
      </trkpt>
      <trkpt lat="45.38432" lon="5.81273">
        <ele>1670.6</ele>
        <time>2017-01-21T13:28:33Z</time>
      </trkpt>
      <trkpt lat="45.38431" lon="5.8127">
        <ele>1670.6</ele>
        <time>2017-01-21T13:28:38Z</time>
      </trkpt>
      <trkpt lat="45.3843" lon="5.81266">
        <ele>1672</ele>
        <time>2017-01-21T13:28:43Z</time>
      </trkpt>
      <trkpt lat="45.38429" lon="5.81263">
        <ele>1671.8</ele>
        <time>2017-01-21T13:28:48Z</time>
      </trkpt>
      <trkpt lat="45.38428" lon="5.8126">
        <ele>1670.8</ele>
        <time>2017-01-21T13:28:53Z</time>
      </trkpt>
      <trkpt lat="45.38427" lon="5.81258">
        <ele>1672.6</ele>
        <time>2017-01-21T13:28:58Z</time>
      </trkpt>
      <trkpt lat="45.38425" lon="5.81255">
        <ele>1671.4</ele>
        <time>2017-01-21T13:29:03Z</time>
      </trkpt>
      <trkpt lat="45.38424" lon="5.81252">
        <ele>1674.2</ele>
        <time>2017-01-21T13:29:08Z</time>
      </trkpt>
      <trkpt lat="45.38424" lon="5.8125">
        <ele>1672.6</ele>
        <time>2017-01-21T13:29:13Z</time>
      </trkpt>
      <trkpt lat="45.38423" lon="5.81247">
        <ele>1674.8</ele>
        <time>2017-01-21T13:29:18Z</time>
      </trkpt>
      <trkpt lat="45.38421" lon="5.81245">
        <ele>1678</ele>
        <time>2017-01-21T13:29:23Z</time>
      </trkpt>
      <trkpt lat="45.3842" lon="5.81242">
        <ele>1677.8</ele>
        <time>2017-01-21T13:29:28Z</time>
      </trkpt>
      <trkpt lat="45.38419" lon="5.81239">
        <ele>1681</ele>
        <time>2017-01-21T13:29:33Z</time>
      </trkpt>
      <trkpt lat="45.38417" lon="5.81236">
        <ele>1681</ele>
        <time>2017-01-21T13:29:38Z</time>
      </trkpt>
      <trkpt lat="45.38415" lon="5.81233">
        <ele>1679.6</ele>
        <time>2017-01-21T13:29:43Z</time>
      </trkpt>
      <trkpt lat="45.38413" lon="5.8123">
        <ele>1678.8</ele>
        <time>2017-01-21T13:29:48Z</time>
      </trkpt>
      <trkpt lat="45.38413" lon="5.81228">
        <ele>1681.8</ele>
        <time>2017-01-21T13:29:53Z</time>
      </trkpt>
      <trkpt lat="45.38416" lon="5.81228">
        <ele>1681.4</ele>
        <time>2017-01-21T13:29:58Z</time>
      </trkpt>
      <trkpt lat="45.38418" lon="5.81229">
        <ele>1680.6</ele>
        <time>2017-01-21T13:30:03Z</time>
      </trkpt>
      <trkpt lat="45.38421" lon="5.8123">
        <ele>1681.6</ele>
        <time>2017-01-21T13:30:08Z</time>
      </trkpt>
      <trkpt lat="45.38423" lon="5.8123">
        <ele>1683</ele>
        <time>2017-01-21T13:30:13Z</time>
      </trkpt>
      <trkpt lat="45.38426" lon="5.8123">
        <ele>1682</ele>
        <time>2017-01-21T13:30:18Z</time>
      </trkpt>
      <trkpt lat="45.38428" lon="5.81231">
        <ele>1683.6</ele>
        <time>2017-01-21T13:30:23Z</time>
      </trkpt>
      <trkpt lat="45.38431" lon="5.8123">
        <ele>1683.2</ele>
        <time>2017-01-21T13:30:28Z</time>
      </trkpt>
      <trkpt lat="45.38433" lon="5.8123">
        <ele>1682.6</ele>
        <time>2017-01-21T13:30:33Z</time>
      </trkpt>
      <trkpt lat="45.38436" lon="5.8123">
        <ele>1685</ele>
        <time>2017-01-21T13:30:38Z</time>
      </trkpt>
      <trkpt lat="45.3844" lon="5.81231">
        <ele>1685.2</ele>
        <time>2017-01-21T13:30:43Z</time>
      </trkpt>
      <trkpt lat="45.38443" lon="5.8123">
        <ele>1686.4</ele>
        <time>2017-01-21T13:30:48Z</time>
      </trkpt>
      <trkpt lat="45.38446" lon="5.8123">
        <ele>1687.6</ele>
        <time>2017-01-21T13:30:53Z</time>
      </trkpt>
      <trkpt lat="45.38449" lon="5.8123">
        <ele>1687.2</ele>
        <time>2017-01-21T13:30:58Z</time>
      </trkpt>
      <trkpt lat="45.38452" lon="5.8123">
        <ele>1687.2</ele>
        <time>2017-01-21T13:31:03Z</time>
      </trkpt>
      <trkpt lat="45.38455" lon="5.8123">
        <ele>1690.4</ele>
        <time>2017-01-21T13:31:08Z</time>
      </trkpt>
      <trkpt lat="45.38458" lon="5.8123">
        <ele>1689.6</ele>
        <time>2017-01-21T13:31:13Z</time>
      </trkpt>
      <trkpt lat="45.38461" lon="5.8123">
        <ele>1688</ele>
        <time>2017-01-21T13:31:18Z</time>
      </trkpt>
      <trkpt lat="45.38464" lon="5.81231">
        <ele>1687.8</ele>
        <time>2017-01-21T13:31:23Z</time>
      </trkpt>
      <trkpt lat="45.38466" lon="5.81232">
        <ele>1689.8</ele>
        <time>2017-01-21T13:31:28Z</time>
      </trkpt>
      <trkpt lat="45.38468" lon="5.81232">
        <ele>1692.8</ele>
        <time>2017-01-21T13:31:33Z</time>
      </trkpt>
      <trkpt lat="45.3847" lon="5.81231">
        <ele>1692.6</ele>
        <time>2017-01-21T13:31:38Z</time>
      </trkpt>
      <trkpt lat="45.38472" lon="5.81229">
        <ele>1694.4</ele>
        <time>2017-01-21T13:31:43Z</time>
      </trkpt>
      <trkpt lat="45.38474" lon="5.81227">
        <ele>1693.8</ele>
        <time>2017-01-21T13:31:48Z</time>
      </trkpt>
      <trkpt lat="45.38475" lon="5.81225">
        <ele>1695</ele>
        <time>2017-01-21T13:31:53Z</time>
      </trkpt>
      <trkpt lat="45.38478" lon="5.81223">
        <ele>1696.4</ele>
        <time>2017-01-21T13:31:58Z</time>
      </trkpt>
      <trkpt lat="45.3848" lon="5.81221">
        <ele>1696.6</ele>
        <time>2017-01-21T13:32:03Z</time>
      </trkpt>
      <trkpt lat="45.38482" lon="5.8122">
        <ele>1696.4</ele>
        <time>2017-01-21T13:32:08Z</time>
      </trkpt>
      <trkpt lat="45.38484" lon="5.81218">
        <ele>1695.2</ele>
        <time>2017-01-21T13:32:13Z</time>
      </trkpt>
      <trkpt lat="45.38486" lon="5.81217">
        <ele>1697</ele>
        <time>2017-01-21T13:32:18Z</time>
      </trkpt>
      <trkpt lat="45.38491" lon="5.81217">
        <ele>1698.4</ele>
        <time>2017-01-21T13:32:24Z</time>
      </trkpt>
      <trkpt lat="45.38495" lon="5.81217">
        <ele>1700.4</ele>
        <time>2017-01-21T13:32:29Z</time>
      </trkpt>
      <trkpt lat="45.38498" lon="5.81218">
        <ele>1699.4</ele>
        <time>2017-01-21T13:32:34Z</time>
      </trkpt>
      <trkpt lat="45.38501" lon="5.81218">
        <ele>1699.6</ele>
        <time>2017-01-21T13:32:39Z</time>
      </trkpt>
      <trkpt lat="45.38505" lon="5.81219">
        <ele>1700.4</ele>
        <time>2017-01-21T13:32:44Z</time>
      </trkpt>
      <trkpt lat="45.38511" lon="5.8122">
        <ele>1700.4</ele>
        <time>2017-01-21T13:32:49Z</time>
      </trkpt>
      <trkpt lat="45.38515" lon="5.81217">
        <ele>1698</ele>
        <time>2017-01-21T13:32:54Z</time>
      </trkpt>
      <trkpt lat="45.38517" lon="5.81214">
        <ele>1701.4</ele>
        <time>2017-01-21T13:32:59Z</time>
      </trkpt>
      <trkpt lat="45.38519" lon="5.81211">
        <ele>1702.2</ele>
        <time>2017-01-21T13:33:04Z</time>
      </trkpt>
      <trkpt lat="45.38521" lon="5.81209">
        <ele>1704.6</ele>
        <time>2017-01-21T13:33:09Z</time>
      </trkpt>
      <trkpt lat="45.38523" lon="5.81206">
        <ele>1702.8</ele>
        <time>2017-01-21T13:33:14Z</time>
      </trkpt>
      <trkpt lat="45.38527" lon="5.81203">
        <ele>1703.4</ele>
        <time>2017-01-21T13:33:19Z</time>
      </trkpt>
      <trkpt lat="45.3853" lon="5.81202">
        <ele>1704.6</ele>
        <time>2017-01-21T13:33:24Z</time>
      </trkpt>
      <trkpt lat="45.38533" lon="5.81201">
        <ele>1705.8</ele>
        <time>2017-01-21T13:33:29Z</time>
      </trkpt>
      <trkpt lat="45.38536" lon="5.81199">
        <ele>1704</ele>
        <time>2017-01-21T13:33:34Z</time>
      </trkpt>
      <trkpt lat="45.38538" lon="5.81196">
        <ele>1704.8</ele>
        <time>2017-01-21T13:33:39Z</time>
      </trkpt>
      <trkpt lat="45.3854" lon="5.81194">
        <ele>1707.4</ele>
        <time>2017-01-21T13:33:44Z</time>
      </trkpt>
      <trkpt lat="45.38543" lon="5.81192">
        <ele>1708.6</ele>
        <time>2017-01-21T13:33:49Z</time>
      </trkpt>
      <trkpt lat="45.38547" lon="5.8119">
        <ele>1708.4</ele>
        <time>2017-01-21T13:33:54Z</time>
      </trkpt>
      <trkpt lat="45.38549" lon="5.81189">
        <ele>1706.8</ele>
        <time>2017-01-21T13:33:59Z</time>
      </trkpt>
      <trkpt lat="45.38552" lon="5.81186">
        <ele>1710.6</ele>
        <time>2017-01-21T13:34:04Z</time>
      </trkpt>
      <trkpt lat="45.38554" lon="5.81184">
        <ele>1711.2</ele>
        <time>2017-01-21T13:34:09Z</time>
      </trkpt>
      <trkpt lat="45.38557" lon="5.81181">
        <ele>1709.2</ele>
        <time>2017-01-21T13:34:14Z</time>
      </trkpt>
      <trkpt lat="45.38558" lon="5.8118">
        <ele>1710.4</ele>
        <time>2017-01-21T13:34:19Z</time>
      </trkpt>
      <trkpt lat="45.38561" lon="5.81178">
        <ele>1713.2</ele>
        <time>2017-01-21T13:34:25Z</time>
      </trkpt>
      <trkpt lat="45.38563" lon="5.81176">
        <ele>1717</ele>
        <time>2017-01-21T13:34:30Z</time>
      </trkpt>
      <trkpt lat="45.38565" lon="5.81172">
        <ele>1712.4</ele>
        <time>2017-01-21T13:34:35Z</time>
      </trkpt>
      <trkpt lat="45.38565" lon="5.81168">
        <ele>1717.4</ele>
        <time>2017-01-21T13:34:40Z</time>
      </trkpt>
      <trkpt lat="45.38566" lon="5.81164">
        <ele>1714.6</ele>
        <time>2017-01-21T13:34:45Z</time>
      </trkpt>
      <trkpt lat="45.38567" lon="5.81161">
        <ele>1712.4</ele>
        <time>2017-01-21T13:34:50Z</time>
      </trkpt>
      <trkpt lat="45.38568" lon="5.81158">
        <ele>1715.6</ele>
        <time>2017-01-21T13:34:55Z</time>
      </trkpt>
      <trkpt lat="45.38569" lon="5.81155">
        <ele>1720.4</ele>
        <time>2017-01-21T13:35:00Z</time>
      </trkpt>
      <trkpt lat="45.3857" lon="5.81152">
        <ele>1720.2</ele>
        <time>2017-01-21T13:35:05Z</time>
      </trkpt>
      <trkpt lat="45.38572" lon="5.81149">
        <ele>1719.4</ele>
        <time>2017-01-21T13:35:10Z</time>
      </trkpt>
      <trkpt lat="45.38573" lon="5.81146">
        <ele>1720</ele>
        <time>2017-01-21T13:35:15Z</time>
      </trkpt>
      <trkpt lat="45.38575" lon="5.81143">
        <ele>1719.4</ele>
        <time>2017-01-21T13:35:20Z</time>
      </trkpt>
      <trkpt lat="45.38577" lon="5.81141">
        <ele>1720.6</ele>
        <time>2017-01-21T13:35:25Z</time>
      </trkpt>
      <trkpt lat="45.38578" lon="5.81139">
        <ele>1720.2</ele>
        <time>2017-01-21T13:35:30Z</time>
      </trkpt>
      <trkpt lat="45.3858" lon="5.81137">
        <ele>1719.6</ele>
        <time>2017-01-21T13:35:35Z</time>
      </trkpt>
      <trkpt lat="45.38582" lon="5.81135">
        <ele>1721.2</ele>
        <time>2017-01-21T13:35:40Z</time>
      </trkpt>
      <trkpt lat="45.38584" lon="5.81134">
        <ele>1721.8</ele>
        <time>2017-01-21T13:35:45Z</time>
      </trkpt>
      <trkpt lat="45.38585" lon="5.81132">
        <ele>1720.6</ele>
        <time>2017-01-21T13:35:50Z</time>
      </trkpt>
      <trkpt lat="45.38586" lon="5.8113">
        <ele>1721.4</ele>
        <time>2017-01-21T13:35:55Z</time>
      </trkpt>
      <trkpt lat="45.38588" lon="5.81127">
        <ele>1724.2</ele>
        <time>2017-01-21T13:36:00Z</time>
      </trkpt>
      <trkpt lat="45.3859" lon="5.81125">
        <ele>1723.2</ele>
        <time>2017-01-21T13:36:05Z</time>
      </trkpt>
      <trkpt lat="45.38592" lon="5.81124">
        <ele>1723.8</ele>
        <time>2017-01-21T13:36:10Z</time>
      </trkpt>
      <trkpt lat="45.38594" lon="5.81123">
        <ele>1725.8</ele>
        <time>2017-01-21T13:36:15Z</time>
      </trkpt>
      <trkpt lat="45.38596" lon="5.81121">
        <ele>1727.6</ele>
        <time>2017-01-21T13:36:20Z</time>
      </trkpt>
      <trkpt lat="45.38598" lon="5.81119">
        <ele>1725.2</ele>
        <time>2017-01-21T13:36:25Z</time>
      </trkpt>
      <trkpt lat="45.38601" lon="5.81116">
        <ele>1728.2</ele>
        <time>2017-01-21T13:36:31Z</time>
      </trkpt>
      <trkpt lat="45.38601" lon="5.81112">
        <ele>1726.4</ele>
        <time>2017-01-21T13:36:36Z</time>
      </trkpt>
      <trkpt lat="45.38601" lon="5.81111">
        <ele>1727.4</ele>
        <time>2017-01-21T13:36:41Z</time>
      </trkpt>
      <trkpt lat="45.38601" lon="5.81111">
        <ele>1728.2</ele>
        <time>2017-01-21T13:36:46Z</time>
      </trkpt>
      <trkpt lat="45.38601" lon="5.81111">
        <ele>1728.6</ele>
        <time>2017-01-21T13:36:51Z</time>
      </trkpt>
      <trkpt lat="45.38601" lon="5.8111">
        <ele>1729</ele>
        <time>2017-01-21T13:36:56Z</time>
      </trkpt>
      <trkpt lat="45.38602" lon="5.81106">
        <ele>1732.8</ele>
        <time>2017-01-21T13:37:01Z</time>
      </trkpt>
      <trkpt lat="45.38603" lon="5.81103">
        <ele>1731</ele>
        <time>2017-01-21T13:37:06Z</time>
      </trkpt>
      <trkpt lat="45.38605" lon="5.81099">
        <ele>1729.8</ele>
        <time>2017-01-21T13:37:11Z</time>
      </trkpt>
      <trkpt lat="45.38607" lon="5.81096">
        <ele>1731</ele>
        <time>2017-01-21T13:37:16Z</time>
      </trkpt>
      <trkpt lat="45.3861" lon="5.81094">
        <ele>1732</ele>
        <time>2017-01-21T13:37:21Z</time>
      </trkpt>
      <trkpt lat="45.38612" lon="5.81092">
        <ele>1733.4</ele>
        <time>2017-01-21T13:37:26Z</time>
      </trkpt>
      <trkpt lat="45.38615" lon="5.81091">
        <ele>1733.4</ele>
        <time>2017-01-21T13:37:31Z</time>
      </trkpt>
      <trkpt lat="45.38617" lon="5.81089">
        <ele>1733.2</ele>
        <time>2017-01-21T13:37:36Z</time>
      </trkpt>
      <trkpt lat="45.3862" lon="5.81088">
        <ele>1736.4</ele>
        <time>2017-01-21T13:37:41Z</time>
      </trkpt>
      <trkpt lat="45.38622" lon="5.81087">
        <ele>1735</ele>
        <time>2017-01-21T13:37:46Z</time>
      </trkpt>
      <trkpt lat="45.38625" lon="5.81085">
        <ele>1739.2</ele>
        <time>2017-01-21T13:37:51Z</time>
      </trkpt>
      <trkpt lat="45.38627" lon="5.81084">
        <ele>1737.8</ele>
        <time>2017-01-21T13:37:56Z</time>
      </trkpt>
      <trkpt lat="45.3863" lon="5.81082">
        <ele>1735.8</ele>
        <time>2017-01-21T13:38:01Z</time>
      </trkpt>
      <trkpt lat="45.38632" lon="5.81081">
        <ele>1737.8</ele>
        <time>2017-01-21T13:38:06Z</time>
      </trkpt>
      <trkpt lat="45.38634" lon="5.8108">
        <ele>1739.4</ele>
        <time>2017-01-21T13:38:11Z</time>
      </trkpt>
      <trkpt lat="45.38636" lon="5.81079">
        <ele>1738.6</ele>
        <time>2017-01-21T13:38:16Z</time>
      </trkpt>
      <trkpt lat="45.38638" lon="5.81078">
        <ele>1742.2</ele>
        <time>2017-01-21T13:38:21Z</time>
      </trkpt>
      <trkpt lat="45.38637" lon="5.81075">
        <ele>1743.2</ele>
        <time>2017-01-21T13:38:26Z</time>
      </trkpt>
      <trkpt lat="45.38635" lon="5.81072">
        <ele>1741.2</ele>
        <time>2017-01-21T13:38:31Z</time>
      </trkpt>
      <trkpt lat="45.38633" lon="5.81069">
        <ele>1743.8</ele>
        <time>2017-01-21T13:38:36Z</time>
      </trkpt>
      <trkpt lat="45.38631" lon="5.81067">
        <ele>1742.8</ele>
        <time>2017-01-21T13:38:41Z</time>
      </trkpt>
      <trkpt lat="45.3863" lon="5.81065">
        <ele>1744.8</ele>
        <time>2017-01-21T13:38:46Z</time>
      </trkpt>
      <trkpt lat="45.3863" lon="5.81064">
        <ele>1744.8</ele>
        <time>2017-01-21T13:38:51Z</time>
      </trkpt>
      <trkpt lat="45.3863" lon="5.81063">
        <ele>1744.6</ele>
        <time>2017-01-21T13:38:56Z</time>
      </trkpt>
      <trkpt lat="45.3863" lon="5.81063">
        <ele>1744.6</ele>
        <time>2017-01-21T13:39:01Z</time>
      </trkpt>
      <trkpt lat="45.3863" lon="5.81063">
        <ele>1744.6</ele>
        <time>2017-01-21T13:39:06Z</time>
      </trkpt>
      <trkpt lat="45.3863" lon="5.81063">
        <ele>1744.8</ele>
        <time>2017-01-21T13:39:11Z</time>
      </trkpt>
      <trkpt lat="45.3863" lon="5.81063">
        <ele>1744.8</ele>
        <time>2017-01-21T13:39:16Z</time>
      </trkpt>
      <trkpt lat="45.3863" lon="5.81062">
        <ele>1744.8</ele>
        <time>2017-01-21T13:39:21Z</time>
      </trkpt>
      <trkpt lat="45.38632" lon="5.8106">
        <ele>1742.2</ele>
        <time>2017-01-21T13:39:26Z</time>
      </trkpt>
      <trkpt lat="45.38633" lon="5.81058">
        <ele>1744.2</ele>
        <time>2017-01-21T13:39:31Z</time>
      </trkpt>
      <trkpt lat="45.38633" lon="5.81058">
        <ele>1744.2</ele>
        <time>2017-01-21T13:39:36Z</time>
      </trkpt>
      <trkpt lat="45.38633" lon="5.81058">
        <ele>1744.4</ele>
        <time>2017-01-21T13:39:41Z</time>
      </trkpt>
      <trkpt lat="45.38633" lon="5.81058">
        <ele>1744.4</ele>
        <time>2017-01-21T13:39:46Z</time>
      </trkpt>
      <trkpt lat="45.38634" lon="5.81057">
        <ele>1744.4</ele>
        <time>2017-01-21T13:39:51Z</time>
      </trkpt>
      <trkpt lat="45.38634" lon="5.81057">
        <ele>1744.4</ele>
        <time>2017-01-21T13:39:57Z</time>
      </trkpt>
      <trkpt lat="45.38634" lon="5.81057">
        <ele>1744.4</ele>
        <time>2017-01-21T13:40:02Z</time>
      </trkpt>
      <trkpt lat="45.38634" lon="5.81057">
        <ele>1744.4</ele>
        <time>2017-01-21T13:40:07Z</time>
      </trkpt>
      <trkpt lat="45.38634" lon="5.81057">
        <ele>1744.4</ele>
        <time>2017-01-21T13:40:12Z</time>
      </trkpt>
      <trkpt lat="45.38634" lon="5.81057">
        <ele>1744.4</ele>
        <time>2017-01-21T13:40:17Z</time>
      </trkpt>
      <trkpt lat="45.38634" lon="5.81057">
        <ele>1744.4</ele>
        <time>2017-01-21T13:40:22Z</time>
      </trkpt>
      <trkpt lat="45.38634" lon="5.81057">
        <ele>1744.4</ele>
        <time>2017-01-21T13:40:27Z</time>
      </trkpt>
      <trkpt lat="45.38634" lon="5.81057">
        <ele>1744.4</ele>
        <time>2017-01-21T13:40:32Z</time>
      </trkpt>
      <trkpt lat="45.38634" lon="5.81056">
        <ele>1744.2</ele>
        <time>2017-01-21T13:40:37Z</time>
      </trkpt>
      <trkpt lat="45.38634" lon="5.81056">
        <ele>1744.2</ele>
        <time>2017-01-21T13:40:42Z</time>
      </trkpt>
      <trkpt lat="45.38634" lon="5.81056">
        <ele>1744.2</ele>
        <time>2017-01-21T13:40:47Z</time>
      </trkpt>
      <trkpt lat="45.38634" lon="5.81056">
        <ele>1744.2</ele>
        <time>2017-01-21T13:40:52Z</time>
      </trkpt>
      <trkpt lat="45.38634" lon="5.81056">
        <ele>1744.2</ele>
        <time>2017-01-21T13:40:57Z</time>
      </trkpt>
      <trkpt lat="45.38634" lon="5.81056">
        <ele>1747.2</ele>
        <time>2017-01-21T13:41:02Z</time>
      </trkpt>
      <trkpt lat="45.38634" lon="5.81056">
        <ele>1746.2</ele>
        <time>2017-01-21T13:41:07Z</time>
      </trkpt>
      <trkpt lat="45.38634" lon="5.81055">
        <ele>1745.6</ele>
        <time>2017-01-21T13:41:12Z</time>
      </trkpt>
      <trkpt lat="45.38637" lon="5.81051">
        <ele>1743.4</ele>
        <time>2017-01-21T13:41:17Z</time>
      </trkpt>
      <trkpt lat="45.38637" lon="5.81051">
        <ele>1743.6</ele>
        <time>2017-01-21T13:41:22Z</time>
      </trkpt>
      <trkpt lat="45.3864" lon="5.81043">
        <ele>1741</ele>
        <time>2017-01-21T13:41:27Z</time>
      </trkpt>
      <trkpt lat="45.38649" lon="5.81028">
        <ele>1740.2</ele>
        <time>2017-01-21T13:41:32Z</time>
      </trkpt>
      <trkpt lat="45.38663" lon="5.81004">
        <ele>1732.2</ele>
        <time>2017-01-21T13:41:37Z</time>
      </trkpt>
      <trkpt lat="45.38676" lon="5.80978">
        <ele>1730</ele>
        <time>2017-01-21T13:41:42Z</time>
      </trkpt>
      <trkpt lat="45.38693" lon="5.80955">
        <ele>1722.2</ele>
        <time>2017-01-21T13:41:47Z</time>
      </trkpt>
      <trkpt lat="45.38704" lon="5.80922">
        <ele>1719.2</ele>
        <time>2017-01-21T13:41:52Z</time>
      </trkpt>
      <trkpt lat="45.38711" lon="5.80894">
        <ele>1714.4</ele>
        <time>2017-01-21T13:41:57Z</time>
      </trkpt>
      <trkpt lat="45.38715" lon="5.80878">
        <ele>1711.6</ele>
        <time>2017-01-21T13:42:02Z</time>
      </trkpt>
      <trkpt lat="45.38716" lon="5.80874">
        <ele>1711.8</ele>
        <time>2017-01-21T13:42:07Z</time>
      </trkpt>
      <trkpt lat="45.38716" lon="5.80874">
        <ele>1711.8</ele>
        <time>2017-01-21T13:42:12Z</time>
      </trkpt>
      <trkpt lat="45.38716" lon="5.80874">
        <ele>1711</ele>
        <time>2017-01-21T13:42:17Z</time>
      </trkpt>
      <trkpt lat="45.38716" lon="5.80874">
        <ele>1710.2</ele>
        <time>2017-01-21T13:42:22Z</time>
      </trkpt>
      <trkpt lat="45.38716" lon="5.80874">
        <ele>1709.2</ele>
        <time>2017-01-21T13:42:27Z</time>
      </trkpt>
      <trkpt lat="45.38716" lon="5.80875">
        <ele>1708.8</ele>
        <time>2017-01-21T13:42:32Z</time>
      </trkpt>
      <trkpt lat="45.38716" lon="5.80875">
        <ele>1708.2</ele>
        <time>2017-01-21T13:42:37Z</time>
      </trkpt>
      <trkpt lat="45.38715" lon="5.80875">
        <ele>1708</ele>
        <time>2017-01-21T13:42:42Z</time>
      </trkpt>
      <trkpt lat="45.38716" lon="5.80875">
        <ele>1707.8</ele>
        <time>2017-01-21T13:42:47Z</time>
      </trkpt>
      <trkpt lat="45.38716" lon="5.80875">
        <ele>1707.6</ele>
        <time>2017-01-21T13:42:52Z</time>
      </trkpt>
      <trkpt lat="45.38716" lon="5.80875">
        <ele>1707.4</ele>
        <time>2017-01-21T13:42:57Z</time>
      </trkpt>
      <trkpt lat="45.38716" lon="5.80875">
        <ele>1707.4</ele>
        <time>2017-01-21T13:43:02Z</time>
      </trkpt>
      <trkpt lat="45.38716" lon="5.80875">
        <ele>1707.2</ele>
        <time>2017-01-21T13:43:07Z</time>
      </trkpt>
      <trkpt lat="45.38716" lon="5.80875">
        <ele>1707.2</ele>
        <time>2017-01-21T13:43:12Z</time>
      </trkpt>
      <trkpt lat="45.38716" lon="5.80875">
        <ele>1707.2</ele>
        <time>2017-01-21T13:43:17Z</time>
      </trkpt>
      <trkpt lat="45.38716" lon="5.80875">
        <ele>1707</ele>
        <time>2017-01-21T13:43:22Z</time>
      </trkpt>
      <trkpt lat="45.38716" lon="5.80875">
        <ele>1708.4</ele>
        <time>2017-01-21T13:43:27Z</time>
      </trkpt>
      <trkpt lat="45.38715" lon="5.80866">
        <ele>1710</ele>
        <time>2017-01-21T13:43:32Z</time>
      </trkpt>
      <trkpt lat="45.38714" lon="5.80859">
        <ele>1707.2</ele>
        <time>2017-01-21T13:43:37Z</time>
      </trkpt>
      <trkpt lat="45.38714" lon="5.80853">
        <ele>1708.4</ele>
        <time>2017-01-21T13:43:42Z</time>
      </trkpt>
      <trkpt lat="45.38714" lon="5.80847">
        <ele>1707.4</ele>
        <time>2017-01-21T13:43:47Z</time>
      </trkpt>
      <trkpt lat="45.38714" lon="5.80842">
        <ele>1710.4</ele>
        <time>2017-01-21T13:43:52Z</time>
      </trkpt>
      <trkpt lat="45.38713" lon="5.80838">
        <ele>1711.2</ele>
        <time>2017-01-21T13:43:57Z</time>
      </trkpt>
      <trkpt lat="45.38713" lon="5.80833">
        <ele>1710.8</ele>
        <time>2017-01-21T13:44:02Z</time>
      </trkpt>
      <trkpt lat="45.38713" lon="5.80829">
        <ele>1711</ele>
        <time>2017-01-21T13:44:07Z</time>
      </trkpt>
      <trkpt lat="45.38712" lon="5.80825">
        <ele>1711.2</ele>
        <time>2017-01-21T13:44:12Z</time>
      </trkpt>
      <trkpt lat="45.38712" lon="5.8082">
        <ele>1712.2</ele>
        <time>2017-01-21T13:44:17Z</time>
      </trkpt>
      <trkpt lat="45.38711" lon="5.80817">
        <ele>1711.8</ele>
        <time>2017-01-21T13:44:22Z</time>
      </trkpt>
      <trkpt lat="45.3871" lon="5.80814">
        <ele>1710.4</ele>
        <time>2017-01-21T13:44:27Z</time>
      </trkpt>
      <trkpt lat="45.3871" lon="5.80811">
        <ele>1712.2</ele>
        <time>2017-01-21T13:44:32Z</time>
      </trkpt>
      <trkpt lat="45.3871" lon="5.80811">
        <ele>1712.2</ele>
        <time>2017-01-21T13:44:37Z</time>
      </trkpt>
      <trkpt lat="45.3871" lon="5.80806">
        <ele>1714.6</ele>
        <time>2017-01-21T13:44:42Z</time>
      </trkpt>
      <trkpt lat="45.38709" lon="5.80801">
        <ele>1714</ele>
        <time>2017-01-21T13:44:47Z</time>
      </trkpt>
      <trkpt lat="45.38709" lon="5.80796">
        <ele>1712.4</ele>
        <time>2017-01-21T13:44:52Z</time>
      </trkpt>
      <trkpt lat="45.38708" lon="5.80792">
        <ele>1716.6</ele>
        <time>2017-01-21T13:44:57Z</time>
      </trkpt>
      <trkpt lat="45.38708" lon="5.80787">
        <ele>1714.8</ele>
        <time>2017-01-21T13:45:02Z</time>
      </trkpt>
      <trkpt lat="45.38708" lon="5.80782">
        <ele>1713.8</ele>
        <time>2017-01-21T13:45:07Z</time>
      </trkpt>
      <trkpt lat="45.38707" lon="5.80778">
        <ele>1718.2</ele>
        <time>2017-01-21T13:45:12Z</time>
      </trkpt>
      <trkpt lat="45.38706" lon="5.80773">
        <ele>1719.8</ele>
        <time>2017-01-21T13:45:17Z</time>
      </trkpt>
      <trkpt lat="45.38705" lon="5.80769">
        <ele>1721</ele>
        <time>2017-01-21T13:45:22Z</time>
      </trkpt>
      <trkpt lat="45.38705" lon="5.80765">
        <ele>1720.6</ele>
        <time>2017-01-21T13:45:27Z</time>
      </trkpt>
      <trkpt lat="45.38704" lon="5.80761">
        <ele>1720.2</ele>
        <time>2017-01-21T13:45:32Z</time>
      </trkpt>
      <trkpt lat="45.38704" lon="5.80757">
        <ele>1721.6</ele>
        <time>2017-01-21T13:45:37Z</time>
      </trkpt>
      <trkpt lat="45.38703" lon="5.80753">
        <ele>1719.4</ele>
        <time>2017-01-21T13:45:42Z</time>
      </trkpt>
      <trkpt lat="45.38704" lon="5.8075">
        <ele>1725</ele>
        <time>2017-01-21T13:45:47Z</time>
      </trkpt>
      <trkpt lat="45.38704" lon="5.80748">
        <ele>1722.4</ele>
        <time>2017-01-21T13:45:52Z</time>
      </trkpt>
      <trkpt lat="45.38705" lon="5.80745">
        <ele>1725</ele>
        <time>2017-01-21T13:45:57Z</time>
      </trkpt>
      <trkpt lat="45.38706" lon="5.80742">
        <ele>1725</ele>
        <time>2017-01-21T13:46:02Z</time>
      </trkpt>
      <trkpt lat="45.38708" lon="5.80739">
        <ele>1725.6</ele>
        <time>2017-01-21T13:46:07Z</time>
      </trkpt>
      <trkpt lat="45.3871" lon="5.80736">
        <ele>1726</ele>
        <time>2017-01-21T13:46:12Z</time>
      </trkpt>
      <trkpt lat="45.3871" lon="5.80736">
        <ele>1726</ele>
        <time>2017-01-21T13:46:17Z</time>
      </trkpt>
      <trkpt lat="45.3871" lon="5.80736">
        <ele>1726</ele>
        <time>2017-01-21T13:46:22Z</time>
      </trkpt>
      <trkpt lat="45.3871" lon="5.80736">
        <ele>1726</ele>
        <time>2017-01-21T13:46:27Z</time>
      </trkpt>
      <trkpt lat="45.3871" lon="5.80736">
        <ele>1726</ele>
        <time>2017-01-21T13:46:32Z</time>
      </trkpt>
      <trkpt lat="45.3871" lon="5.80736">
        <ele>1726</ele>
        <time>2017-01-21T13:46:37Z</time>
      </trkpt>
      <trkpt lat="45.3871" lon="5.80736">
        <ele>1725.8</ele>
        <time>2017-01-21T13:46:42Z</time>
      </trkpt>
      <trkpt lat="45.3871" lon="5.80736">
        <ele>1725.8</ele>
        <time>2017-01-21T13:46:47Z</time>
      </trkpt>
      <trkpt lat="45.3871" lon="5.80736">
        <ele>1725.8</ele>
        <time>2017-01-21T13:46:52Z</time>
      </trkpt>
      <trkpt lat="45.3871" lon="5.80736">
        <ele>1725.8</ele>
        <time>2017-01-21T13:46:57Z</time>
      </trkpt>
      <trkpt lat="45.3871" lon="5.80736">
        <ele>1725.8</ele>
        <time>2017-01-21T13:47:02Z</time>
      </trkpt>
      <trkpt lat="45.38712" lon="5.80734">
        <ele>1724.2</ele>
        <time>2017-01-21T13:47:07Z</time>
      </trkpt>
      <trkpt lat="45.38712" lon="5.80734">
        <ele>1724.8</ele>
        <time>2017-01-21T13:47:12Z</time>
      </trkpt>
      <trkpt lat="45.38712" lon="5.80734">
        <ele>1725</ele>
        <time>2017-01-21T13:47:17Z</time>
      </trkpt>
      <trkpt lat="45.38712" lon="5.80734">
        <ele>1725.2</ele>
        <time>2017-01-21T13:47:22Z</time>
      </trkpt>
      <trkpt lat="45.38712" lon="5.80734">
        <ele>1725.4</ele>
        <time>2017-01-21T13:47:27Z</time>
      </trkpt>
      <trkpt lat="45.38712" lon="5.80734">
        <ele>1725.4</ele>
        <time>2017-01-21T13:47:32Z</time>
      </trkpt>
      <trkpt lat="45.38712" lon="5.80734">
        <ele>1725.6</ele>
        <time>2017-01-21T13:47:38Z</time>
      </trkpt>
      <trkpt lat="45.38712" lon="5.80734">
        <ele>1725.6</ele>
        <time>2017-01-21T13:47:43Z</time>
      </trkpt>
      <trkpt lat="45.38712" lon="5.80734">
        <ele>1725.6</ele>
        <time>2017-01-21T13:47:48Z</time>
      </trkpt>
      <trkpt lat="45.38712" lon="5.80734">
        <ele>1725.8</ele>
        <time>2017-01-21T13:47:53Z</time>
      </trkpt>
      <trkpt lat="45.38713" lon="5.80732">
        <ele>1726.6</ele>
        <time>2017-01-21T13:47:58Z</time>
      </trkpt>
      <trkpt lat="45.38715" lon="5.80729">
        <ele>1725</ele>
        <time>2017-01-21T13:48:03Z</time>
      </trkpt>
      <trkpt lat="45.38716" lon="5.80727">
        <ele>1727.2</ele>
        <time>2017-01-21T13:48:08Z</time>
      </trkpt>
      <trkpt lat="45.38717" lon="5.80725">
        <ele>1727.2</ele>
        <time>2017-01-21T13:48:13Z</time>
      </trkpt>
      <trkpt lat="45.38718" lon="5.80723">
        <ele>1728.4</ele>
        <time>2017-01-21T13:48:18Z</time>
      </trkpt>
      <trkpt lat="45.38719" lon="5.80721">
        <ele>1729.2</ele>
        <time>2017-01-21T13:48:23Z</time>
      </trkpt>
      <trkpt lat="45.38721" lon="5.80718">
        <ele>1728.6</ele>
        <time>2017-01-21T13:48:28Z</time>
      </trkpt>
      <trkpt lat="45.38723" lon="5.80714">
        <ele>1730.2</ele>
        <time>2017-01-21T13:48:33Z</time>
      </trkpt>
      <trkpt lat="45.38724" lon="5.80711">
        <ele>1728.6</ele>
        <time>2017-01-21T13:48:38Z</time>
      </trkpt>
      <trkpt lat="45.38726" lon="5.80708">
        <ele>1731.2</ele>
        <time>2017-01-21T13:48:43Z</time>
      </trkpt>
      <trkpt lat="45.38727" lon="5.80705">
        <ele>1732.6</ele>
        <time>2017-01-21T13:48:48Z</time>
      </trkpt>
      <trkpt lat="45.38729" lon="5.80702">
        <ele>1730.8</ele>
        <time>2017-01-21T13:48:53Z</time>
      </trkpt>
      <trkpt lat="45.3873" lon="5.80699">
        <ele>1731.6</ele>
        <time>2017-01-21T13:48:58Z</time>
      </trkpt>
      <trkpt lat="45.38731" lon="5.80698">
        <ele>1734.4</ele>
        <time>2017-01-21T13:49:03Z</time>
      </trkpt>
      <trkpt lat="45.38731" lon="5.80698">
        <ele>1734</ele>
        <time>2017-01-21T13:49:08Z</time>
      </trkpt>
      <trkpt lat="45.38731" lon="5.80698">
        <ele>1733.6</ele>
        <time>2017-01-21T13:49:13Z</time>
      </trkpt>
      <trkpt lat="45.38731" lon="5.80698">
        <ele>1733.4</ele>
        <time>2017-01-21T13:49:18Z</time>
      </trkpt>
      <trkpt lat="45.38731" lon="5.80698">
        <ele>1733.4</ele>
        <time>2017-01-21T13:49:23Z</time>
      </trkpt>
      <trkpt lat="45.38731" lon="5.80698">
        <ele>1733.2</ele>
        <time>2017-01-21T13:49:28Z</time>
      </trkpt>
      <trkpt lat="45.38731" lon="5.80696">
        <ele>1732.4</ele>
        <time>2017-01-21T13:49:33Z</time>
      </trkpt>
      <trkpt lat="45.38728" lon="5.80695">
        <ele>1735.8</ele>
        <time>2017-01-21T13:49:38Z</time>
      </trkpt>
      <trkpt lat="45.38726" lon="5.80695">
        <ele>1737.2</ele>
        <time>2017-01-21T13:49:43Z</time>
      </trkpt>
      <trkpt lat="45.38723" lon="5.80694">
        <ele>1736.6</ele>
        <time>2017-01-21T13:49:48Z</time>
      </trkpt>
      <trkpt lat="45.3872" lon="5.80693">
        <ele>1738.8</ele>
        <time>2017-01-21T13:49:53Z</time>
      </trkpt>
      <trkpt lat="45.38717" lon="5.80692">
        <ele>1739.4</ele>
        <time>2017-01-21T13:49:58Z</time>
      </trkpt>
      <trkpt lat="45.38715" lon="5.80691">
        <ele>1737.2</ele>
        <time>2017-01-21T13:50:03Z</time>
      </trkpt>
      <trkpt lat="45.38712" lon="5.80689">
        <ele>1738.8</ele>
        <time>2017-01-21T13:50:08Z</time>
      </trkpt>
      <trkpt lat="45.38709" lon="5.80687">
        <ele>1738</ele>
        <time>2017-01-21T13:50:13Z</time>
      </trkpt>
      <trkpt lat="45.38708" lon="5.80685">
        <ele>1739</ele>
        <time>2017-01-21T13:50:18Z</time>
      </trkpt>
      <trkpt lat="45.38709" lon="5.80683">
        <ele>1743</ele>
        <time>2017-01-21T13:50:23Z</time>
      </trkpt>
      <trkpt lat="45.3871" lon="5.80682">
        <ele>1741.8</ele>
        <time>2017-01-21T13:50:28Z</time>
      </trkpt>
      <trkpt lat="45.38713" lon="5.8068">
        <ele>1740.4</ele>
        <time>2017-01-21T13:50:34Z</time>
      </trkpt>
      <trkpt lat="45.38716" lon="5.80678">
        <ele>1742.6</ele>
        <time>2017-01-21T13:50:40Z</time>
      </trkpt>
      <trkpt lat="45.38718" lon="5.80676">
        <ele>1743.4</ele>
        <time>2017-01-21T13:50:45Z</time>
      </trkpt>
      <trkpt lat="45.3872" lon="5.80675">
        <ele>1742.6</ele>
        <time>2017-01-21T13:50:50Z</time>
      </trkpt>
      <trkpt lat="45.38722" lon="5.80673">
        <ele>1743.6</ele>
        <time>2017-01-21T13:50:55Z</time>
      </trkpt>
      <trkpt lat="45.38724" lon="5.80671">
        <ele>1743.8</ele>
        <time>2017-01-21T13:51:00Z</time>
      </trkpt>
      <trkpt lat="45.38725" lon="5.80669">
        <ele>1743.8</ele>
        <time>2017-01-21T13:51:05Z</time>
      </trkpt>
      <trkpt lat="45.38727" lon="5.80667">
        <ele>1741.8</ele>
        <time>2017-01-21T13:51:10Z</time>
      </trkpt>
      <trkpt lat="45.38729" lon="5.80665">
        <ele>1745.2</ele>
        <time>2017-01-21T13:51:15Z</time>
      </trkpt>
      <trkpt lat="45.3873" lon="5.80663">
        <ele>1746.6</ele>
        <time>2017-01-21T13:51:21Z</time>
      </trkpt>
      <trkpt lat="45.38732" lon="5.80661">
        <ele>1747.6</ele>
        <time>2017-01-21T13:51:26Z</time>
      </trkpt>
      <trkpt lat="45.38733" lon="5.80659">
        <ele>1748.4</ele>
        <time>2017-01-21T13:51:32Z</time>
      </trkpt>
      <trkpt lat="45.38735" lon="5.80657">
        <ele>1748.4</ele>
        <time>2017-01-21T13:51:37Z</time>
      </trkpt>
      <trkpt lat="45.38736" lon="5.80655">
        <ele>1750</ele>
        <time>2017-01-21T13:51:42Z</time>
      </trkpt>
      <trkpt lat="45.38738" lon="5.80653">
        <ele>1753.4</ele>
        <time>2017-01-21T13:51:47Z</time>
      </trkpt>
      <trkpt lat="45.3874" lon="5.80651">
        <ele>1752.2</ele>
        <time>2017-01-21T13:51:52Z</time>
      </trkpt>
      <trkpt lat="45.38742" lon="5.80649">
        <ele>1750.8</ele>
        <time>2017-01-21T13:51:57Z</time>
      </trkpt>
      <trkpt lat="45.38744" lon="5.80647">
        <ele>1752.6</ele>
        <time>2017-01-21T13:52:02Z</time>
      </trkpt>
      <trkpt lat="45.38744" lon="5.80646">
        <ele>1752.8</ele>
        <time>2017-01-21T13:52:07Z</time>
      </trkpt>
      <trkpt lat="45.38742" lon="5.80646">
        <ele>1754.2</ele>
        <time>2017-01-21T13:52:12Z</time>
      </trkpt>
      <trkpt lat="45.38741" lon="5.80646">
        <ele>1754.2</ele>
        <time>2017-01-21T13:52:17Z</time>
      </trkpt>
      <trkpt lat="45.38743" lon="5.80643">
        <ele>1755</ele>
        <time>2017-01-21T13:52:22Z</time>
      </trkpt>
      <trkpt lat="45.38744" lon="5.8064">
        <ele>1757.6</ele>
        <time>2017-01-21T13:52:27Z</time>
      </trkpt>
      <trkpt lat="45.38747" lon="5.80637">
        <ele>1755.2</ele>
        <time>2017-01-21T13:52:33Z</time>
      </trkpt>
      <trkpt lat="45.38748" lon="5.80633">
        <ele>1756.6</ele>
        <time>2017-01-21T13:52:38Z</time>
      </trkpt>
      <trkpt lat="45.38749" lon="5.8063">
        <ele>1757.8</ele>
        <time>2017-01-21T13:52:43Z</time>
      </trkpt>
      <trkpt lat="45.38749" lon="5.8063">
        <ele>1757.8</ele>
        <time>2017-01-21T13:52:48Z</time>
      </trkpt>
      <trkpt lat="45.38749" lon="5.8063">
        <ele>1757.8</ele>
        <time>2017-01-21T13:52:53Z</time>
      </trkpt>
      <trkpt lat="45.38749" lon="5.80629">
        <ele>1757.4</ele>
        <time>2017-01-21T13:52:58Z</time>
      </trkpt>
      <trkpt lat="45.3875" lon="5.80626">
        <ele>1758.6</ele>
        <time>2017-01-21T13:53:03Z</time>
      </trkpt>
      <trkpt lat="45.38751" lon="5.80623">
        <ele>1758.6</ele>
        <time>2017-01-21T13:53:08Z</time>
      </trkpt>
      <trkpt lat="45.38751" lon="5.8062">
        <ele>1759.2</ele>
        <time>2017-01-21T13:53:13Z</time>
      </trkpt>
      <trkpt lat="45.38752" lon="5.80615">
        <ele>1758.8</ele>
        <time>2017-01-21T13:53:18Z</time>
      </trkpt>
      <trkpt lat="45.38753" lon="5.80612">
        <ele>1758.8</ele>
        <time>2017-01-21T13:53:23Z</time>
      </trkpt>
      <trkpt lat="45.38754" lon="5.80606">
        <ele>1759</ele>
        <time>2017-01-21T13:53:28Z</time>
      </trkpt>
      <trkpt lat="45.38756" lon="5.80602">
        <ele>1760.8</ele>
        <time>2017-01-21T13:53:33Z</time>
      </trkpt>
      <trkpt lat="45.38757" lon="5.80597">
        <ele>1760.4</ele>
        <time>2017-01-21T13:53:38Z</time>
      </trkpt>
      <trkpt lat="45.38758" lon="5.80594">
        <ele>1763</ele>
        <time>2017-01-21T13:53:43Z</time>
      </trkpt>
      <trkpt lat="45.38759" lon="5.80591">
        <ele>1761.6</ele>
        <time>2017-01-21T13:53:48Z</time>
      </trkpt>
      <trkpt lat="45.3876" lon="5.80588">
        <ele>1765.8</ele>
        <time>2017-01-21T13:53:53Z</time>
      </trkpt>
      <trkpt lat="45.38761" lon="5.80583">
        <ele>1761.2</ele>
        <time>2017-01-21T13:53:58Z</time>
      </trkpt>
      <trkpt lat="45.38762" lon="5.80577">
        <ele>1760.8</ele>
        <time>2017-01-21T13:54:03Z</time>
      </trkpt>
      <trkpt lat="45.38764" lon="5.80572">
        <ele>1763.2</ele>
        <time>2017-01-21T13:54:08Z</time>
      </trkpt>
      <trkpt lat="45.38766" lon="5.80567">
        <ele>1762</ele>
        <time>2017-01-21T13:54:13Z</time>
      </trkpt>
      <trkpt lat="45.38767" lon="5.80562">
        <ele>1766</ele>
        <time>2017-01-21T13:54:18Z</time>
      </trkpt>
      <trkpt lat="45.38768" lon="5.80559">
        <ele>1764.4</ele>
        <time>2017-01-21T13:54:23Z</time>
      </trkpt>
      <trkpt lat="45.38768" lon="5.80559">
        <ele>1764</ele>
        <time>2017-01-21T13:54:28Z</time>
      </trkpt>
      <trkpt lat="45.38768" lon="5.80559">
        <ele>1763.8</ele>
        <time>2017-01-21T13:54:33Z</time>
      </trkpt>
      <trkpt lat="45.38768" lon="5.80559">
        <ele>1763.6</ele>
        <time>2017-01-21T13:54:38Z</time>
      </trkpt>
      <trkpt lat="45.38768" lon="5.80559">
        <ele>1763.4</ele>
        <time>2017-01-21T13:54:43Z</time>
      </trkpt>
      <trkpt lat="45.38769" lon="5.80559">
        <ele>1763.4</ele>
        <time>2017-01-21T13:54:48Z</time>
      </trkpt>
      <trkpt lat="45.38769" lon="5.80558">
        <ele>1763.4</ele>
        <time>2017-01-21T13:54:53Z</time>
      </trkpt>
      <trkpt lat="45.3877" lon="5.80556">
        <ele>1762.8</ele>
        <time>2017-01-21T13:54:58Z</time>
      </trkpt>
      <trkpt lat="45.3877" lon="5.80556">
        <ele>1763</ele>
        <time>2017-01-21T13:55:03Z</time>
      </trkpt>
      <trkpt lat="45.38771" lon="5.80555">
        <ele>1763.4</ele>
        <time>2017-01-21T13:55:08Z</time>
      </trkpt>
      <trkpt lat="45.38772" lon="5.80552">
        <ele>1767.2</ele>
        <time>2017-01-21T13:55:13Z</time>
      </trkpt>
      <trkpt lat="45.38774" lon="5.80549">
        <ele>1766</ele>
        <time>2017-01-21T13:55:18Z</time>
      </trkpt>
      <trkpt lat="45.38776" lon="5.80546">
        <ele>1768.8</ele>
        <time>2017-01-21T13:55:23Z</time>
      </trkpt>
      <trkpt lat="45.38778" lon="5.80543">
        <ele>1767.8</ele>
        <time>2017-01-21T13:55:28Z</time>
      </trkpt>
      <trkpt lat="45.3878" lon="5.8054">
        <ele>1769.6</ele>
        <time>2017-01-21T13:55:33Z</time>
      </trkpt>
      <trkpt lat="45.38782" lon="5.80537">
        <ele>1767.6</ele>
        <time>2017-01-21T13:55:38Z</time>
      </trkpt>
      <trkpt lat="45.38783" lon="5.80535">
        <ele>1771.2</ele>
        <time>2017-01-21T13:55:43Z</time>
      </trkpt>
      <trkpt lat="45.38783" lon="5.80535">
        <ele>1770.4</ele>
        <time>2017-01-21T13:55:48Z</time>
      </trkpt>
      <trkpt lat="45.38783" lon="5.80535">
        <ele>1770</ele>
        <time>2017-01-21T13:55:53Z</time>
      </trkpt>
      <trkpt lat="45.38784" lon="5.80534">
        <ele>1769</ele>
        <time>2017-01-21T13:55:58Z</time>
      </trkpt>
      <trkpt lat="45.38786" lon="5.80531">
        <ele>1771</ele>
        <time>2017-01-21T13:56:03Z</time>
      </trkpt>
      <trkpt lat="45.38786" lon="5.8053">
        <ele>1770.8</ele>
        <time>2017-01-21T13:56:08Z</time>
      </trkpt>
      <trkpt lat="45.38785" lon="5.80528">
        <ele>1772.6</ele>
        <time>2017-01-21T13:56:13Z</time>
      </trkpt>
      <trkpt lat="45.38787" lon="5.80525">
        <ele>1773</ele>
        <time>2017-01-21T13:56:18Z</time>
      </trkpt>
      <trkpt lat="45.38787" lon="5.80525">
        <ele>1772.6</ele>
        <time>2017-01-21T13:56:23Z</time>
      </trkpt>
      <trkpt lat="45.38786" lon="5.80525">
        <ele>1772.4</ele>
        <time>2017-01-21T13:56:28Z</time>
      </trkpt>
      <trkpt lat="45.38786" lon="5.80525">
        <ele>1772.4</ele>
        <time>2017-01-21T13:56:33Z</time>
      </trkpt>
      <trkpt lat="45.38786" lon="5.80525">
        <ele>1772.2</ele>
        <time>2017-01-21T13:56:38Z</time>
      </trkpt>
      <trkpt lat="45.38786" lon="5.80525">
        <ele>1772.2</ele>
        <time>2017-01-21T13:56:43Z</time>
      </trkpt>
      <trkpt lat="45.38786" lon="5.80525">
        <ele>1772.2</ele>
        <time>2017-01-21T13:56:48Z</time>
      </trkpt>
      <trkpt lat="45.38786" lon="5.80525">
        <ele>1772.2</ele>
        <time>2017-01-21T13:56:53Z</time>
      </trkpt>
      <trkpt lat="45.38787" lon="5.80525">
        <ele>1772.2</ele>
        <time>2017-01-21T13:56:58Z</time>
      </trkpt>
      <trkpt lat="45.38787" lon="5.80523">
        <ele>1775.2</ele>
        <time>2017-01-21T13:57:03Z</time>
      </trkpt>
      <trkpt lat="45.38788" lon="5.80523">
        <ele>1774.4</ele>
        <time>2017-01-21T13:57:08Z</time>
      </trkpt>
      <trkpt lat="45.38788" lon="5.80523">
        <ele>1774</ele>
        <time>2017-01-21T13:57:13Z</time>
      </trkpt>
      <trkpt lat="45.38788" lon="5.80523">
        <ele>1773.6</ele>
        <time>2017-01-21T13:57:18Z</time>
      </trkpt>
      <trkpt lat="45.38788" lon="5.80523">
        <ele>1773.4</ele>
        <time>2017-01-21T13:57:23Z</time>
      </trkpt>
      <trkpt lat="45.38788" lon="5.80523">
        <ele>1773.2</ele>
        <time>2017-01-21T13:57:28Z</time>
      </trkpt>
      <trkpt lat="45.38788" lon="5.80523">
        <ele>1773</ele>
        <time>2017-01-21T13:57:33Z</time>
      </trkpt>
      <trkpt lat="45.38788" lon="5.80523">
        <ele>1773</ele>
        <time>2017-01-21T13:57:38Z</time>
      </trkpt>
      <trkpt lat="45.38788" lon="5.80523">
        <ele>1772.8</ele>
        <time>2017-01-21T13:57:43Z</time>
      </trkpt>
      <trkpt lat="45.38788" lon="5.80523">
        <ele>1772.8</ele>
        <time>2017-01-21T13:57:48Z</time>
      </trkpt>
      <trkpt lat="45.38788" lon="5.80523">
        <ele>1772.8</ele>
        <time>2017-01-21T13:57:53Z</time>
      </trkpt>
      <trkpt lat="45.38788" lon="5.80523">
        <ele>1772.8</ele>
        <time>2017-01-21T13:57:58Z</time>
      </trkpt>
      <trkpt lat="45.38788" lon="5.80523">
        <ele>1771.2</ele>
        <time>2017-01-21T13:58:03Z</time>
      </trkpt>
      <trkpt lat="45.38788" lon="5.80523">
        <ele>1771.2</ele>
        <time>2017-01-21T13:58:08Z</time>
      </trkpt>
      <trkpt lat="45.38788" lon="5.80522">
        <ele>1771.6</ele>
        <time>2017-01-21T13:58:13Z</time>
      </trkpt>
      <trkpt lat="45.38788" lon="5.80522">
        <ele>1771.8</ele>
        <time>2017-01-21T13:58:18Z</time>
      </trkpt>
      <trkpt lat="45.38788" lon="5.80522">
        <ele>1772</ele>
        <time>2017-01-21T13:58:23Z</time>
      </trkpt>
      <trkpt lat="45.38788" lon="5.80522">
        <ele>1772.2</ele>
        <time>2017-01-21T13:58:28Z</time>
      </trkpt>
      <trkpt lat="45.38788" lon="5.80522">
        <ele>1772.4</ele>
        <time>2017-01-21T13:58:33Z</time>
      </trkpt>
      <trkpt lat="45.38788" lon="5.80522">
        <ele>1772.4</ele>
        <time>2017-01-21T13:58:38Z</time>
      </trkpt>
      <trkpt lat="45.38788" lon="5.80522">
        <ele>1768.4</ele>
        <time>2017-01-21T13:58:43Z</time>
      </trkpt>
      <trkpt lat="45.38788" lon="5.80522">
        <ele>1769.6</ele>
        <time>2017-01-21T13:58:48Z</time>
      </trkpt>
      <trkpt lat="45.38788" lon="5.80522">
        <ele>1770.4</ele>
        <time>2017-01-21T13:58:54Z</time>
      </trkpt>
      <trkpt lat="45.38788" lon="5.80522">
        <ele>1771</ele>
        <time>2017-01-21T13:58:59Z</time>
      </trkpt>
      <trkpt lat="45.38788" lon="5.80522">
        <ele>1771.4</ele>
        <time>2017-01-21T13:59:04Z</time>
      </trkpt>
      <trkpt lat="45.38788" lon="5.80522">
        <ele>1771.8</ele>
        <time>2017-01-21T13:59:09Z</time>
      </trkpt>
      <trkpt lat="45.38788" lon="5.80522">
        <ele>1772</ele>
        <time>2017-01-21T13:59:14Z</time>
      </trkpt>
      <trkpt lat="45.38788" lon="5.80522">
        <ele>1772</ele>
        <time>2017-01-21T13:59:19Z</time>
      </trkpt>
      <trkpt lat="45.38788" lon="5.80522">
        <ele>1772.2</ele>
        <time>2017-01-21T13:59:24Z</time>
      </trkpt>
      <trkpt lat="45.38788" lon="5.80522">
        <ele>1772.2</ele>
        <time>2017-01-21T13:59:29Z</time>
      </trkpt>
      <trkpt lat="45.38788" lon="5.80522">
        <ele>1772.2</ele>
        <time>2017-01-21T13:59:34Z</time>
      </trkpt>
      <trkpt lat="45.38788" lon="5.80522">
        <ele>1772.4</ele>
        <time>2017-01-21T13:59:39Z</time>
      </trkpt>
      <trkpt lat="45.38788" lon="5.80522">
        <ele>1772.4</ele>
        <time>2017-01-21T13:59:44Z</time>
      </trkpt>
      <trkpt lat="45.38788" lon="5.80522">
        <ele>1772.4</ele>
        <time>2017-01-21T13:59:49Z</time>
      </trkpt>
      <trkpt lat="45.38788" lon="5.80522">
        <ele>1772.4</ele>
        <time>2017-01-21T13:59:54Z</time>
      </trkpt>
      <trkpt lat="45.38788" lon="5.80522">
        <ele>1772.4</ele>
        <time>2017-01-21T13:59:59Z</time>
      </trkpt>
      <trkpt lat="45.38788" lon="5.80522">
        <ele>1772.4</ele>
        <time>2017-01-21T14:00:04Z</time>
      </trkpt>
      <trkpt lat="45.38788" lon="5.80522">
        <ele>1772.4</ele>
        <time>2017-01-21T14:00:09Z</time>
      </trkpt>
      <trkpt lat="45.38788" lon="5.80522">
        <ele>1772.4</ele>
        <time>2017-01-21T14:00:14Z</time>
      </trkpt>
      <trkpt lat="45.38788" lon="5.80522">
        <ele>1772.4</ele>
        <time>2017-01-21T14:00:19Z</time>
      </trkpt>
      <trkpt lat="45.38788" lon="5.80522">
        <ele>1772.2</ele>
        <time>2017-01-21T14:00:24Z</time>
      </trkpt>
      <trkpt lat="45.38788" lon="5.80522">
        <ele>1772.2</ele>
        <time>2017-01-21T14:00:29Z</time>
      </trkpt>
      <trkpt lat="45.38788" lon="5.80522">
        <ele>1772.2</ele>
        <time>2017-01-21T14:00:34Z</time>
      </trkpt>
      <trkpt lat="45.38788" lon="5.80522">
        <ele>1772.2</ele>
        <time>2017-01-21T14:00:39Z</time>
      </trkpt>
      <trkpt lat="45.38788" lon="5.80522">
        <ele>1772.2</ele>
        <time>2017-01-21T14:00:44Z</time>
      </trkpt>
      <trkpt lat="45.38788" lon="5.80522">
        <ele>1772.2</ele>
        <time>2017-01-21T14:00:49Z</time>
      </trkpt>
      <trkpt lat="45.38788" lon="5.80522">
        <ele>1772.2</ele>
        <time>2017-01-21T14:00:54Z</time>
      </trkpt>
      <trkpt lat="45.38788" lon="5.80522">
        <ele>1772.2</ele>
        <time>2017-01-21T14:01:00Z</time>
      </trkpt>
      <trkpt lat="45.38788" lon="5.80522">
        <ele>1772.2</ele>
        <time>2017-01-21T14:01:05Z</time>
      </trkpt>
      <trkpt lat="45.38788" lon="5.80522">
        <ele>1772.2</ele>
        <time>2017-01-21T14:01:10Z</time>
      </trkpt>
      <trkpt lat="45.38788" lon="5.80522">
        <ele>1772.2</ele>
        <time>2017-01-21T14:01:15Z</time>
      </trkpt>
      <trkpt lat="45.38788" lon="5.80522">
        <ele>1772.2</ele>
        <time>2017-01-21T14:01:20Z</time>
      </trkpt>
      <trkpt lat="45.38788" lon="5.80522">
        <ele>1771</ele>
        <time>2017-01-21T14:01:25Z</time>
      </trkpt>
      <trkpt lat="45.38788" lon="5.80522">
        <ele>1771.2</ele>
        <time>2017-01-21T14:01:30Z</time>
      </trkpt>
      <trkpt lat="45.38788" lon="5.80522">
        <ele>1771.4</ele>
        <time>2017-01-21T14:01:35Z</time>
      </trkpt>
      <trkpt lat="45.38788" lon="5.80522">
        <ele>1771.4</ele>
        <time>2017-01-21T14:01:40Z</time>
      </trkpt>
      <trkpt lat="45.38788" lon="5.80522">
        <ele>1771.6</ele>
        <time>2017-01-21T14:01:45Z</time>
      </trkpt>
      <trkpt lat="45.38788" lon="5.80522">
        <ele>1771.6</ele>
        <time>2017-01-21T14:01:50Z</time>
      </trkpt>
      <trkpt lat="45.38788" lon="5.80522">
        <ele>1771.6</ele>
        <time>2017-01-21T14:01:55Z</time>
      </trkpt>
      <trkpt lat="45.38788" lon="5.80522">
        <ele>1771.6</ele>
        <time>2017-01-21T14:02:00Z</time>
      </trkpt>
      <trkpt lat="45.38788" lon="5.80522">
        <ele>1771.6</ele>
        <time>2017-01-21T14:02:05Z</time>
      </trkpt>
      <trkpt lat="45.38788" lon="5.80523">
        <ele>1771.6</ele>
        <time>2017-01-21T14:02:10Z</time>
      </trkpt>
      <trkpt lat="45.38788" lon="5.80523">
        <ele>1771.4</ele>
        <time>2017-01-21T14:02:15Z</time>
      </trkpt>
      <trkpt lat="45.38788" lon="5.80523">
        <ele>1771.4</ele>
        <time>2017-01-21T14:02:20Z</time>
      </trkpt>
      <trkpt lat="45.38788" lon="5.80523">
        <ele>1771.4</ele>
        <time>2017-01-21T14:02:25Z</time>
      </trkpt>
      <trkpt lat="45.38788" lon="5.80523">
        <ele>1771.4</ele>
        <time>2017-01-21T14:02:30Z</time>
      </trkpt>
      <trkpt lat="45.38788" lon="5.80523">
        <ele>1771.2</ele>
        <time>2017-01-21T14:02:35Z</time>
      </trkpt>
      <trkpt lat="45.38788" lon="5.80523">
        <ele>1771.2</ele>
        <time>2017-01-21T14:02:40Z</time>
      </trkpt>
      <trkpt lat="45.38788" lon="5.80523">
        <ele>1771.2</ele>
        <time>2017-01-21T14:02:45Z</time>
      </trkpt>
      <trkpt lat="45.38788" lon="5.80523">
        <ele>1771.2</ele>
        <time>2017-01-21T14:02:50Z</time>
      </trkpt>
      <trkpt lat="45.38788" lon="5.80523">
        <ele>1771.2</ele>
        <time>2017-01-21T14:02:55Z</time>
      </trkpt>
      <trkpt lat="45.38788" lon="5.80523">
        <ele>1771.2</ele>
        <time>2017-01-21T14:03:00Z</time>
      </trkpt>
      <trkpt lat="45.38788" lon="5.80523">
        <ele>1771.2</ele>
        <time>2017-01-21T14:03:05Z</time>
      </trkpt>
      <trkpt lat="45.38788" lon="5.80523">
        <ele>1771.2</ele>
        <time>2017-01-21T14:03:10Z</time>
      </trkpt>
      <trkpt lat="45.38787" lon="5.80523">
        <ele>1771.2</ele>
        <time>2017-01-21T14:03:15Z</time>
      </trkpt>
      <trkpt lat="45.38787" lon="5.80523">
        <ele>1771.2</ele>
        <time>2017-01-21T14:03:20Z</time>
      </trkpt>
      <trkpt lat="45.38787" lon="5.80523">
        <ele>1771.2</ele>
        <time>2017-01-21T14:03:25Z</time>
      </trkpt>
      <trkpt lat="45.38787" lon="5.80523">
        <ele>1771.2</ele>
        <time>2017-01-21T14:03:30Z</time>
      </trkpt>
      <trkpt lat="45.38787" lon="5.80523">
        <ele>1771.2</ele>
        <time>2017-01-21T14:03:35Z</time>
      </trkpt>
      <trkpt lat="45.38787" lon="5.80523">
        <ele>1771.2</ele>
        <time>2017-01-21T14:03:40Z</time>
      </trkpt>
      <trkpt lat="45.38787" lon="5.80523">
        <ele>1771.2</ele>
        <time>2017-01-21T14:03:45Z</time>
      </trkpt>
      <trkpt lat="45.38787" lon="5.80523">
        <ele>1771.2</ele>
        <time>2017-01-21T14:03:50Z</time>
      </trkpt>
      <trkpt lat="45.38787" lon="5.80523">
        <ele>1771.2</ele>
        <time>2017-01-21T14:03:55Z</time>
      </trkpt>
      <trkpt lat="45.38787" lon="5.80523">
        <ele>1771.2</ele>
        <time>2017-01-21T14:04:00Z</time>
      </trkpt>
      <trkpt lat="45.38787" lon="5.80523">
        <ele>1771.2</ele>
        <time>2017-01-21T14:04:05Z</time>
      </trkpt>
      <trkpt lat="45.38787" lon="5.80523">
        <ele>1771.2</ele>
        <time>2017-01-21T14:04:10Z</time>
      </trkpt>
      <trkpt lat="45.38787" lon="5.80523">
        <ele>1771.2</ele>
        <time>2017-01-21T14:04:16Z</time>
      </trkpt>
      <trkpt lat="45.38787" lon="5.80523">
        <ele>1771.2</ele>
        <time>2017-01-21T14:04:21Z</time>
      </trkpt>
      <trkpt lat="45.38787" lon="5.80523">
        <ele>1771.2</ele>
        <time>2017-01-21T14:04:26Z</time>
      </trkpt>
      <trkpt lat="45.38787" lon="5.80523">
        <ele>1771.2</ele>
        <time>2017-01-21T14:04:31Z</time>
      </trkpt>
      <trkpt lat="45.38787" lon="5.80523">
        <ele>1771.2</ele>
        <time>2017-01-21T14:04:36Z</time>
      </trkpt>
      <trkpt lat="45.38787" lon="5.80523">
        <ele>1771.2</ele>
        <time>2017-01-21T14:04:41Z</time>
      </trkpt>
      <trkpt lat="45.38787" lon="5.80523">
        <ele>1771.2</ele>
        <time>2017-01-21T14:04:46Z</time>
      </trkpt>
      <trkpt lat="45.38787" lon="5.80523">
        <ele>1771.2</ele>
        <time>2017-01-21T14:04:51Z</time>
      </trkpt>
      <trkpt lat="45.38787" lon="5.80523">
        <ele>1771.2</ele>
        <time>2017-01-21T14:04:56Z</time>
      </trkpt>
      <trkpt lat="45.38787" lon="5.80523">
        <ele>1771.2</ele>
        <time>2017-01-21T14:05:01Z</time>
      </trkpt>
      <trkpt lat="45.38787" lon="5.80523">
        <ele>1771.2</ele>
        <time>2017-01-21T14:05:06Z</time>
      </trkpt>
      <trkpt lat="45.38787" lon="5.80523">
        <ele>1771.2</ele>
        <time>2017-01-21T14:05:11Z</time>
      </trkpt>
      <trkpt lat="45.38787" lon="5.80523">
        <ele>1771.2</ele>
        <time>2017-01-21T14:05:16Z</time>
      </trkpt>
      <trkpt lat="45.38787" lon="5.80523">
        <ele>1771.2</ele>
        <time>2017-01-21T14:05:21Z</time>
      </trkpt>
      <trkpt lat="45.38787" lon="5.80523">
        <ele>1771.2</ele>
        <time>2017-01-21T14:05:26Z</time>
      </trkpt>
      <trkpt lat="45.38787" lon="5.80523">
        <ele>1771.2</ele>
        <time>2017-01-21T14:05:31Z</time>
      </trkpt>
      <trkpt lat="45.38787" lon="5.80523">
        <ele>1771.2</ele>
        <time>2017-01-21T14:05:36Z</time>
      </trkpt>
      <trkpt lat="45.38787" lon="5.80522">
        <ele>1771.4</ele>
        <time>2017-01-21T14:05:41Z</time>
      </trkpt>
      <trkpt lat="45.38787" lon="5.80522">
        <ele>1771.4</ele>
        <time>2017-01-21T14:05:46Z</time>
      </trkpt>
      <trkpt lat="45.38787" lon="5.80522">
        <ele>1771.4</ele>
        <time>2017-01-21T14:05:51Z</time>
      </trkpt>
      <trkpt lat="45.38787" lon="5.80522">
        <ele>1771.4</ele>
        <time>2017-01-21T14:05:56Z</time>
      </trkpt>
      <trkpt lat="45.38787" lon="5.80522">
        <ele>1771.4</ele>
        <time>2017-01-21T14:06:01Z</time>
      </trkpt>
      <trkpt lat="45.38787" lon="5.80522">
        <ele>1771.4</ele>
        <time>2017-01-21T14:06:06Z</time>
      </trkpt>
      <trkpt lat="45.38787" lon="5.80522">
        <ele>1771.4</ele>
        <time>2017-01-21T14:06:11Z</time>
      </trkpt>
      <trkpt lat="45.38787" lon="5.80522">
        <ele>1771.4</ele>
        <time>2017-01-21T14:06:16Z</time>
      </trkpt>
      <trkpt lat="45.38787" lon="5.80522">
        <ele>1771.4</ele>
        <time>2017-01-21T14:06:22Z</time>
      </trkpt>
      <trkpt lat="45.38787" lon="5.80522">
        <ele>1771.4</ele>
        <time>2017-01-21T14:06:27Z</time>
      </trkpt>
      <trkpt lat="45.38787" lon="5.80522">
        <ele>1771.4</ele>
        <time>2017-01-21T14:06:32Z</time>
      </trkpt>
      <trkpt lat="45.38787" lon="5.80522">
        <ele>1771.4</ele>
        <time>2017-01-21T14:06:37Z</time>
      </trkpt>
      <trkpt lat="45.38787" lon="5.80522">
        <ele>1771.4</ele>
        <time>2017-01-21T14:06:42Z</time>
      </trkpt>
      <trkpt lat="45.38787" lon="5.80522">
        <ele>1771.4</ele>
        <time>2017-01-21T14:06:47Z</time>
      </trkpt>
      <trkpt lat="45.38787" lon="5.80522">
        <ele>1771.4</ele>
        <time>2017-01-21T14:06:52Z</time>
      </trkpt>
      <trkpt lat="45.38787" lon="5.80522">
        <ele>1771.4</ele>
        <time>2017-01-21T14:06:57Z</time>
      </trkpt>
      <trkpt lat="45.38787" lon="5.80522">
        <ele>1771.4</ele>
        <time>2017-01-21T14:07:02Z</time>
      </trkpt>
      <trkpt lat="45.38787" lon="5.80522">
        <ele>1771.4</ele>
        <time>2017-01-21T14:07:07Z</time>
      </trkpt>
      <trkpt lat="45.38787" lon="5.80522">
        <ele>1771.4</ele>
        <time>2017-01-21T14:07:12Z</time>
      </trkpt>
      <trkpt lat="45.38787" lon="5.80522">
        <ele>1771.4</ele>
        <time>2017-01-21T14:07:17Z</time>
      </trkpt>
      <trkpt lat="45.38787" lon="5.80522">
        <ele>1771.4</ele>
        <time>2017-01-21T14:07:23Z</time>
      </trkpt>
      <trkpt lat="45.38787" lon="5.80522">
        <ele>1771.2</ele>
        <time>2017-01-21T14:07:28Z</time>
      </trkpt>
      <trkpt lat="45.38787" lon="5.80522">
        <ele>1771.2</ele>
        <time>2017-01-21T14:07:33Z</time>
      </trkpt>
      <trkpt lat="45.38787" lon="5.80522">
        <ele>1771.2</ele>
        <time>2017-01-21T14:07:38Z</time>
      </trkpt>
      <trkpt lat="45.38787" lon="5.80523">
        <ele>1772.2</ele>
        <time>2017-01-21T14:07:43Z</time>
      </trkpt>
      <trkpt lat="45.38786" lon="5.80523">
        <ele>1772.8</ele>
        <time>2017-01-21T14:07:48Z</time>
      </trkpt>
      <trkpt lat="45.38786" lon="5.80524">
        <ele>1773.4</ele>
        <time>2017-01-21T14:07:53Z</time>
      </trkpt>
      <trkpt lat="45.38786" lon="5.80525">
        <ele>1772.8</ele>
        <time>2017-01-21T14:07:58Z</time>
      </trkpt>
      <trkpt lat="45.38786" lon="5.80525">
        <ele>1772.2</ele>
        <time>2017-01-21T14:08:03Z</time>
      </trkpt>
      <trkpt lat="45.38786" lon="5.80525">
        <ele>1770</ele>
        <time>2017-01-21T14:08:08Z</time>
      </trkpt>
      <trkpt lat="45.38786" lon="5.80525">
        <ele>1770.4</ele>
        <time>2017-01-21T14:08:13Z</time>
      </trkpt>
      <trkpt lat="45.38786" lon="5.80526">
        <ele>1770.6</ele>
        <time>2017-01-21T14:08:18Z</time>
      </trkpt>
      <trkpt lat="45.38786" lon="5.80526">
        <ele>1770.6</ele>
        <time>2017-01-21T14:08:23Z</time>
      </trkpt>
      <trkpt lat="45.38786" lon="5.80526">
        <ele>1770.8</ele>
        <time>2017-01-21T14:08:29Z</time>
      </trkpt>
      <trkpt lat="45.38787" lon="5.80526">
        <ele>1771</ele>
        <time>2017-01-21T14:08:34Z</time>
      </trkpt>
      <trkpt lat="45.38787" lon="5.80526">
        <ele>1770.2</ele>
        <time>2017-01-21T14:08:39Z</time>
      </trkpt>
      <trkpt lat="45.38787" lon="5.80526">
        <ele>1770.4</ele>
        <time>2017-01-21T14:08:44Z</time>
      </trkpt>
      <trkpt lat="45.38786" lon="5.80526">
        <ele>1770.6</ele>
        <time>2017-01-21T14:08:49Z</time>
      </trkpt>
      <trkpt lat="45.38786" lon="5.80526">
        <ele>1772</ele>
        <time>2017-01-21T14:08:54Z</time>
      </trkpt>
      <trkpt lat="45.38786" lon="5.80526">
        <ele>1771.8</ele>
        <time>2017-01-21T14:08:59Z</time>
      </trkpt>
      <trkpt lat="45.38786" lon="5.80526">
        <ele>1771.6</ele>
        <time>2017-01-21T14:09:04Z</time>
      </trkpt>
      <trkpt lat="45.38786" lon="5.80525">
        <ele>1771.6</ele>
        <time>2017-01-21T14:09:09Z</time>
      </trkpt>
      <trkpt lat="45.38785" lon="5.80528">
        <ele>1770.4</ele>
        <time>2017-01-21T14:09:14Z</time>
      </trkpt>
      <trkpt lat="45.38781" lon="5.80531">
        <ele>1768.6</ele>
        <time>2017-01-21T14:09:19Z</time>
      </trkpt>
      <trkpt lat="45.38781" lon="5.80531">
        <ele>1769.2</ele>
        <time>2017-01-21T14:09:24Z</time>
      </trkpt>
      <trkpt lat="45.38781" lon="5.80531">
        <ele>1769.8</ele>
        <time>2017-01-21T14:09:29Z</time>
      </trkpt>
      <trkpt lat="45.38781" lon="5.80531">
        <ele>1769.8</ele>
        <time>2017-01-21T14:09:34Z</time>
      </trkpt>
      <trkpt lat="45.38781" lon="5.80531">
        <ele>1770</ele>
        <time>2017-01-21T14:09:39Z</time>
      </trkpt>
      <trkpt lat="45.38781" lon="5.80531">
        <ele>1770.4</ele>
        <time>2017-01-21T14:09:44Z</time>
      </trkpt>
      <trkpt lat="45.38781" lon="5.80532">
        <ele>1769.6</ele>
        <time>2017-01-21T14:09:49Z</time>
      </trkpt>
      <trkpt lat="45.38781" lon="5.80532">
        <ele>1769.8</ele>
        <time>2017-01-21T14:09:54Z</time>
      </trkpt>
      <trkpt lat="45.38781" lon="5.80532">
        <ele>1770</ele>
        <time>2017-01-21T14:09:59Z</time>
      </trkpt>
      <trkpt lat="45.38781" lon="5.80532">
        <ele>1770</ele>
        <time>2017-01-21T14:10:04Z</time>
      </trkpt>
      <trkpt lat="45.38781" lon="5.80532">
        <ele>1770.2</ele>
        <time>2017-01-21T14:10:09Z</time>
      </trkpt>
      <trkpt lat="45.38781" lon="5.80532">
        <ele>1770.2</ele>
        <time>2017-01-21T14:10:14Z</time>
      </trkpt>
      <trkpt lat="45.38778" lon="5.80534">
        <ele>1770.2</ele>
        <time>2017-01-21T14:10:19Z</time>
      </trkpt>
      <trkpt lat="45.38768" lon="5.80538">
        <ele>1769</ele>
        <time>2017-01-21T14:10:24Z</time>
      </trkpt>
      <trkpt lat="45.38755" lon="5.80544">
        <ele>1766.4</ele>
        <time>2017-01-21T14:10:29Z</time>
      </trkpt>
      <trkpt lat="45.38746" lon="5.80573">
        <ele>1764.6</ele>
        <time>2017-01-21T14:10:34Z</time>
      </trkpt>
      <trkpt lat="45.38745" lon="5.80574">
        <ele>1765</ele>
        <time>2017-01-21T14:10:39Z</time>
      </trkpt>
      <trkpt lat="45.38745" lon="5.80574">
        <ele>1764.4</ele>
        <time>2017-01-21T14:10:44Z</time>
      </trkpt>
      <trkpt lat="45.38745" lon="5.80574">
        <ele>1763.8</ele>
        <time>2017-01-21T14:10:49Z</time>
      </trkpt>
      <trkpt lat="45.38745" lon="5.80574">
        <ele>1763.6</ele>
        <time>2017-01-21T14:10:54Z</time>
      </trkpt>
      <trkpt lat="45.38745" lon="5.80574">
        <ele>1763.2</ele>
        <time>2017-01-21T14:10:59Z</time>
      </trkpt>
      <trkpt lat="45.38745" lon="5.80574">
        <ele>1763</ele>
        <time>2017-01-21T14:11:04Z</time>
      </trkpt>
      <trkpt lat="45.38745" lon="5.80573">
        <ele>1763</ele>
        <time>2017-01-21T14:11:09Z</time>
      </trkpt>
      <trkpt lat="45.38745" lon="5.80574">
        <ele>1762.8</ele>
        <time>2017-01-21T14:11:14Z</time>
      </trkpt>
      <trkpt lat="45.38745" lon="5.80574">
        <ele>1762.8</ele>
        <time>2017-01-21T14:11:19Z</time>
      </trkpt>
      <trkpt lat="45.38745" lon="5.80574">
        <ele>1762.6</ele>
        <time>2017-01-21T14:11:24Z</time>
      </trkpt>
      <trkpt lat="45.38745" lon="5.80574">
        <ele>1762.6</ele>
        <time>2017-01-21T14:11:29Z</time>
      </trkpt>
      <trkpt lat="45.38747" lon="5.80573">
        <ele>1764.8</ele>
        <time>2017-01-21T14:11:34Z</time>
      </trkpt>
      <trkpt lat="45.38747" lon="5.80571">
        <ele>1765.2</ele>
        <time>2017-01-21T14:11:39Z</time>
      </trkpt>
      <trkpt lat="45.38747" lon="5.80571">
        <ele>1764.4</ele>
        <time>2017-01-21T14:11:44Z</time>
      </trkpt>
      <trkpt lat="45.38747" lon="5.80571">
        <ele>1763.8</ele>
        <time>2017-01-21T14:11:49Z</time>
      </trkpt>
      <trkpt lat="45.38747" lon="5.80571">
        <ele>1763.4</ele>
        <time>2017-01-21T14:11:54Z</time>
      </trkpt>
      <trkpt lat="45.38747" lon="5.80571">
        <ele>1762.6</ele>
        <time>2017-01-21T14:11:59Z</time>
      </trkpt>
      <trkpt lat="45.38747" lon="5.80571">
        <ele>1762</ele>
        <time>2017-01-21T14:12:04Z</time>
      </trkpt>
      <trkpt lat="45.38747" lon="5.80571">
        <ele>1762</ele>
        <time>2017-01-21T14:12:09Z</time>
      </trkpt>
      <trkpt lat="45.38747" lon="5.80571">
        <ele>1762.2</ele>
        <time>2017-01-21T14:12:14Z</time>
      </trkpt>
      <trkpt lat="45.38747" lon="5.8057">
        <ele>1762.2</ele>
        <time>2017-01-21T14:12:19Z</time>
      </trkpt>
      <trkpt lat="45.38747" lon="5.8057">
        <ele>1762.2</ele>
        <time>2017-01-21T14:12:24Z</time>
      </trkpt>
      <trkpt lat="45.38747" lon="5.8057">
        <ele>1762.2</ele>
        <time>2017-01-21T14:12:29Z</time>
      </trkpt>
      <trkpt lat="45.38747" lon="5.8057">
        <ele>1762.2</ele>
        <time>2017-01-21T14:12:34Z</time>
      </trkpt>
      <trkpt lat="45.38748" lon="5.8057">
        <ele>1763</ele>
        <time>2017-01-21T14:12:39Z</time>
      </trkpt>
      <trkpt lat="45.38752" lon="5.8057">
        <ele>1762.6</ele>
        <time>2017-01-21T14:12:44Z</time>
      </trkpt>
      <trkpt lat="45.3876" lon="5.80571">
        <ele>1760.4</ele>
        <time>2017-01-21T14:12:49Z</time>
      </trkpt>
      <trkpt lat="45.38776" lon="5.8057">
        <ele>1757.8</ele>
        <time>2017-01-21T14:12:54Z</time>
      </trkpt>
      <trkpt lat="45.38786" lon="5.80578">
        <ele>1754</ele>
        <time>2017-01-21T14:12:59Z</time>
      </trkpt>
      <trkpt lat="45.38789" lon="5.80586">
        <ele>1752.4</ele>
        <time>2017-01-21T14:13:04Z</time>
      </trkpt>
      <trkpt lat="45.38798" lon="5.80586">
        <ele>1750.4</ele>
        <time>2017-01-21T14:13:09Z</time>
      </trkpt>
      <trkpt lat="45.38813" lon="5.80587">
        <ele>1747.8</ele>
        <time>2017-01-21T14:13:14Z</time>
      </trkpt>
      <trkpt lat="45.38831" lon="5.8059">
        <ele>1746.4</ele>
        <time>2017-01-21T14:13:19Z</time>
      </trkpt>
      <trkpt lat="45.38829" lon="5.80605">
        <ele>1740.8</ele>
        <time>2017-01-21T14:13:24Z</time>
      </trkpt>
      <trkpt lat="45.38841" lon="5.80606">
        <ele>1738</ele>
        <time>2017-01-21T14:13:29Z</time>
      </trkpt>
      <trkpt lat="45.38842" lon="5.80606">
        <ele>1734</ele>
        <time>2017-01-21T14:13:34Z</time>
      </trkpt>
      <trkpt lat="45.38843" lon="5.80617">
        <ele>1731.6</ele>
        <time>2017-01-21T14:13:39Z</time>
      </trkpt>
      <trkpt lat="45.38842" lon="5.80633">
        <ele>1726.8</ele>
        <time>2017-01-21T14:13:44Z</time>
      </trkpt>
      <trkpt lat="45.38842" lon="5.80642">
        <ele>1727</ele>
        <time>2017-01-21T14:13:49Z</time>
      </trkpt>
      <trkpt lat="45.38843" lon="5.80642">
        <ele>1726.4</ele>
        <time>2017-01-21T14:13:55Z</time>
      </trkpt>
      <trkpt lat="45.38845" lon="5.80643">
        <ele>1727</ele>
        <time>2017-01-21T14:14:00Z</time>
      </trkpt>
      <trkpt lat="45.38859" lon="5.80644">
        <ele>1723.2</ele>
        <time>2017-01-21T14:14:05Z</time>
      </trkpt>
      <trkpt lat="45.38865" lon="5.80648">
        <ele>1717.6</ele>
        <time>2017-01-21T14:14:10Z</time>
      </trkpt>
      <trkpt lat="45.38864" lon="5.8065">
        <ele>1715.8</ele>
        <time>2017-01-21T14:14:15Z</time>
      </trkpt>
      <trkpt lat="45.38871" lon="5.80658">
        <ele>1706.4</ele>
        <time>2017-01-21T14:14:20Z</time>
      </trkpt>
      <trkpt lat="45.38883" lon="5.80665">
        <ele>1708.2</ele>
        <time>2017-01-21T14:14:25Z</time>
      </trkpt>
      <trkpt lat="45.38881" lon="5.80676">
        <ele>1701.6</ele>
        <time>2017-01-21T14:14:30Z</time>
      </trkpt>
      <trkpt lat="45.38885" lon="5.80676">
        <ele>1702.4</ele>
        <time>2017-01-21T14:14:35Z</time>
      </trkpt>
      <trkpt lat="45.38885" lon="5.80676">
        <ele>1701.8</ele>
        <time>2017-01-21T14:14:40Z</time>
      </trkpt>
      <trkpt lat="45.38884" lon="5.80676">
        <ele>1700.6</ele>
        <time>2017-01-21T14:14:46Z</time>
      </trkpt>
      <trkpt lat="45.38884" lon="5.80676">
        <ele>1699.4</ele>
        <time>2017-01-21T14:14:51Z</time>
      </trkpt>
      <trkpt lat="45.38884" lon="5.80676">
        <ele>1698.4</ele>
        <time>2017-01-21T14:14:56Z</time>
      </trkpt>
      <trkpt lat="45.38884" lon="5.80687">
        <ele>1692.2</ele>
        <time>2017-01-21T14:15:01Z</time>
      </trkpt>
      <trkpt lat="45.38894" lon="5.80697">
        <ele>1688.2</ele>
        <time>2017-01-21T14:15:06Z</time>
      </trkpt>
      <trkpt lat="45.38901" lon="5.80695">
        <ele>1686.6</ele>
        <time>2017-01-21T14:15:11Z</time>
      </trkpt>
      <trkpt lat="45.389" lon="5.80695">
        <ele>1686</ele>
        <time>2017-01-21T14:15:16Z</time>
      </trkpt>
      <trkpt lat="45.38903" lon="5.80695">
        <ele>1683.6</ele>
        <time>2017-01-21T14:15:21Z</time>
      </trkpt>
      <trkpt lat="45.38903" lon="5.80695">
        <ele>1683.2</ele>
        <time>2017-01-21T14:15:26Z</time>
      </trkpt>
      <trkpt lat="45.38903" lon="5.80699">
        <ele>1684</ele>
        <time>2017-01-21T14:15:31Z</time>
      </trkpt>
      <trkpt lat="45.38902" lon="5.80699">
        <ele>1684.4</ele>
        <time>2017-01-21T14:15:36Z</time>
      </trkpt>
      <trkpt lat="45.38899" lon="5.80701">
        <ele>1681.2</ele>
        <time>2017-01-21T14:15:41Z</time>
      </trkpt>
      <trkpt lat="45.38898" lon="5.80702">
        <ele>1680.8</ele>
        <time>2017-01-21T14:15:46Z</time>
      </trkpt>
      <trkpt lat="45.38897" lon="5.80704">
        <ele>1679.4</ele>
        <time>2017-01-21T14:15:51Z</time>
      </trkpt>
      <trkpt lat="45.38898" lon="5.80705">
        <ele>1677.2</ele>
        <time>2017-01-21T14:15:56Z</time>
      </trkpt>
      <trkpt lat="45.38897" lon="5.80706">
        <ele>1677</ele>
        <time>2017-01-21T14:16:01Z</time>
      </trkpt>
      <trkpt lat="45.3889" lon="5.80717">
        <ele>1675.4</ele>
        <time>2017-01-21T14:16:06Z</time>
      </trkpt>
      <trkpt lat="45.3889" lon="5.80718">
        <ele>1675.6</ele>
        <time>2017-01-21T14:16:11Z</time>
      </trkpt>
      <trkpt lat="45.3889" lon="5.80718">
        <ele>1675.8</ele>
        <time>2017-01-21T14:16:16Z</time>
      </trkpt>
      <trkpt lat="45.3889" lon="5.80719">
        <ele>1675.8</ele>
        <time>2017-01-21T14:16:21Z</time>
      </trkpt>
      <trkpt lat="45.38889" lon="5.80721">
        <ele>1677.4</ele>
        <time>2017-01-21T14:16:26Z</time>
      </trkpt>
      <trkpt lat="45.38888" lon="5.80722">
        <ele>1676.4</ele>
        <time>2017-01-21T14:16:32Z</time>
      </trkpt>
      <trkpt lat="45.38883" lon="5.80727">
        <ele>1673</ele>
        <time>2017-01-21T14:16:37Z</time>
      </trkpt>
      <trkpt lat="45.38879" lon="5.80731">
        <ele>1672</ele>
        <time>2017-01-21T14:16:42Z</time>
      </trkpt>
      <trkpt lat="45.38879" lon="5.80731">
        <ele>1671.8</ele>
        <time>2017-01-21T14:16:47Z</time>
      </trkpt>
      <trkpt lat="45.38879" lon="5.80731">
        <ele>1671.6</ele>
        <time>2017-01-21T14:16:52Z</time>
      </trkpt>
      <trkpt lat="45.38879" lon="5.80731">
        <ele>1671.6</ele>
        <time>2017-01-21T14:16:57Z</time>
      </trkpt>
      <trkpt lat="45.38879" lon="5.80731">
        <ele>1671.6</ele>
        <time>2017-01-21T14:17:02Z</time>
      </trkpt>
      <trkpt lat="45.38879" lon="5.80731">
        <ele>1671.4</ele>
        <time>2017-01-21T14:17:07Z</time>
      </trkpt>
      <trkpt lat="45.38879" lon="5.80731">
        <ele>1671.4</ele>
        <time>2017-01-21T14:17:12Z</time>
      </trkpt>
      <trkpt lat="45.38879" lon="5.80732">
        <ele>1671.4</ele>
        <time>2017-01-21T14:17:17Z</time>
      </trkpt>
      <trkpt lat="45.38879" lon="5.80732">
        <ele>1671.2</ele>
        <time>2017-01-21T14:17:22Z</time>
      </trkpt>
      <trkpt lat="45.38879" lon="5.80732">
        <ele>1670.8</ele>
        <time>2017-01-21T14:17:27Z</time>
      </trkpt>
      <trkpt lat="45.38879" lon="5.80732">
        <ele>1670.6</ele>
        <time>2017-01-21T14:17:32Z</time>
      </trkpt>
      <trkpt lat="45.38879" lon="5.80732">
        <ele>1670.6</ele>
        <time>2017-01-21T14:17:38Z</time>
      </trkpt>
      <trkpt lat="45.38879" lon="5.80732">
        <ele>1670.4</ele>
        <time>2017-01-21T14:17:43Z</time>
      </trkpt>
      <trkpt lat="45.38879" lon="5.80732">
        <ele>1670.4</ele>
        <time>2017-01-21T14:17:48Z</time>
      </trkpt>
      <trkpt lat="45.38879" lon="5.80732">
        <ele>1670.4</ele>
        <time>2017-01-21T14:17:53Z</time>
      </trkpt>
      <trkpt lat="45.38882" lon="5.80737">
        <ele>1667.8</ele>
        <time>2017-01-21T14:17:58Z</time>
      </trkpt>
      <trkpt lat="45.38889" lon="5.80744">
        <ele>1664</ele>
        <time>2017-01-21T14:18:03Z</time>
      </trkpt>
      <trkpt lat="45.38901" lon="5.80742">
        <ele>1660.4</ele>
        <time>2017-01-21T14:18:08Z</time>
      </trkpt>
      <trkpt lat="45.38901" lon="5.80741">
        <ele>1660.6</ele>
        <time>2017-01-21T14:18:13Z</time>
      </trkpt>
      <trkpt lat="45.389" lon="5.80741">
        <ele>1660.2</ele>
        <time>2017-01-21T14:18:18Z</time>
      </trkpt>
      <trkpt lat="45.389" lon="5.80741">
        <ele>1659.8</ele>
        <time>2017-01-21T14:18:23Z</time>
      </trkpt>
      <trkpt lat="45.389" lon="5.80741">
        <ele>1659.4</ele>
        <time>2017-01-21T14:18:28Z</time>
      </trkpt>
      <trkpt lat="45.389" lon="5.80741">
        <ele>1659.2</ele>
        <time>2017-01-21T14:18:33Z</time>
      </trkpt>
      <trkpt lat="45.389" lon="5.80741">
        <ele>1659</ele>
        <time>2017-01-21T14:18:38Z</time>
      </trkpt>
      <trkpt lat="45.389" lon="5.80741">
        <ele>1659</ele>
        <time>2017-01-21T14:18:43Z</time>
      </trkpt>
      <trkpt lat="45.38902" lon="5.80744">
        <ele>1658</ele>
        <time>2017-01-21T14:18:48Z</time>
      </trkpt>
      <trkpt lat="45.38918" lon="5.80741">
        <ele>1655</ele>
        <time>2017-01-21T14:18:53Z</time>
      </trkpt>
      <trkpt lat="45.38933" lon="5.80734">
        <ele>1650.8</ele>
        <time>2017-01-21T14:18:58Z</time>
      </trkpt>
      <trkpt lat="45.38933" lon="5.80751">
        <ele>1642.8</ele>
        <time>2017-01-21T14:19:03Z</time>
      </trkpt>
      <trkpt lat="45.38935" lon="5.80764">
        <ele>1640.6</ele>
        <time>2017-01-21T14:19:09Z</time>
      </trkpt>
      <trkpt lat="45.38948" lon="5.80764">
        <ele>1636.6</ele>
        <time>2017-01-21T14:19:14Z</time>
      </trkpt>
      <trkpt lat="45.38956" lon="5.80771">
        <ele>1631.2</ele>
        <time>2017-01-21T14:19:19Z</time>
      </trkpt>
      <trkpt lat="45.3896" lon="5.80769">
        <ele>1629.8</ele>
        <time>2017-01-21T14:19:24Z</time>
      </trkpt>
      <trkpt lat="45.38959" lon="5.80769">
        <ele>1629.6</ele>
        <time>2017-01-21T14:19:29Z</time>
      </trkpt>
      <trkpt lat="45.38959" lon="5.80769">
        <ele>1629</ele>
        <time>2017-01-21T14:19:34Z</time>
      </trkpt>
      <trkpt lat="45.38959" lon="5.80769">
        <ele>1628.4</ele>
        <time>2017-01-21T14:19:39Z</time>
      </trkpt>
      <trkpt lat="45.38958" lon="5.80769">
        <ele>1628</ele>
        <time>2017-01-21T14:19:44Z</time>
      </trkpt>
      <trkpt lat="45.38958" lon="5.80769">
        <ele>1627.6</ele>
        <time>2017-01-21T14:19:49Z</time>
      </trkpt>
      <trkpt lat="45.38958" lon="5.80769">
        <ele>1627.4</ele>
        <time>2017-01-21T14:19:54Z</time>
      </trkpt>
      <trkpt lat="45.38958" lon="5.80769">
        <ele>1627.2</ele>
        <time>2017-01-21T14:19:59Z</time>
      </trkpt>
      <trkpt lat="45.38958" lon="5.80769">
        <ele>1627.2</ele>
        <time>2017-01-21T14:20:04Z</time>
      </trkpt>
      <trkpt lat="45.38958" lon="5.80769">
        <ele>1627</ele>
        <time>2017-01-21T14:20:09Z</time>
      </trkpt>
      <trkpt lat="45.38958" lon="5.80769">
        <ele>1627</ele>
        <time>2017-01-21T14:20:14Z</time>
      </trkpt>
      <trkpt lat="45.38958" lon="5.80768">
        <ele>1626.8</ele>
        <time>2017-01-21T14:20:20Z</time>
      </trkpt>
      <trkpt lat="45.38958" lon="5.80768">
        <ele>1626.6</ele>
        <time>2017-01-21T14:20:25Z</time>
      </trkpt>
      <trkpt lat="45.38958" lon="5.80768">
        <ele>1626.2</ele>
        <time>2017-01-21T14:20:30Z</time>
      </trkpt>
      <trkpt lat="45.38958" lon="5.80768">
        <ele>1625.8</ele>
        <time>2017-01-21T14:20:35Z</time>
      </trkpt>
      <trkpt lat="45.38958" lon="5.80769">
        <ele>1622</ele>
        <time>2017-01-21T14:20:40Z</time>
      </trkpt>
      <trkpt lat="45.38968" lon="5.80767">
        <ele>1622.4</ele>
        <time>2017-01-21T14:20:45Z</time>
      </trkpt>
      <trkpt lat="45.38976" lon="5.8078">
        <ele>1611.6</ele>
        <time>2017-01-21T14:20:50Z</time>
      </trkpt>
      <trkpt lat="45.38989" lon="5.80788">
        <ele>1602.8</ele>
        <time>2017-01-21T14:20:55Z</time>
      </trkpt>
      <trkpt lat="45.39001" lon="5.808">
        <ele>1606.2</ele>
        <time>2017-01-21T14:21:00Z</time>
      </trkpt>
      <trkpt lat="45.39003" lon="5.80801">
        <ele>1604.8</ele>
        <time>2017-01-21T14:21:05Z</time>
      </trkpt>
      <trkpt lat="45.39003" lon="5.80801">
        <ele>1605.8</ele>
        <time>2017-01-21T14:21:11Z</time>
      </trkpt>
      <trkpt lat="45.39003" lon="5.80801">
        <ele>1606.2</ele>
        <time>2017-01-21T14:21:16Z</time>
      </trkpt>
      <trkpt lat="45.39003" lon="5.80801">
        <ele>1606.8</ele>
        <time>2017-01-21T14:21:21Z</time>
      </trkpt>
      <trkpt lat="45.39003" lon="5.80801">
        <ele>1607</ele>
        <time>2017-01-21T14:21:26Z</time>
      </trkpt>
      <trkpt lat="45.39003" lon="5.80801">
        <ele>1607.2</ele>
        <time>2017-01-21T14:21:31Z</time>
      </trkpt>
      <trkpt lat="45.39004" lon="5.80802">
        <ele>1607.4</ele>
        <time>2017-01-21T14:21:36Z</time>
      </trkpt>
      <trkpt lat="45.39003" lon="5.80802">
        <ele>1607.2</ele>
        <time>2017-01-21T14:21:41Z</time>
      </trkpt>
      <trkpt lat="45.39003" lon="5.80802">
        <ele>1606.8</ele>
        <time>2017-01-21T14:21:46Z</time>
      </trkpt>
      <trkpt lat="45.39003" lon="5.80802">
        <ele>1606.4</ele>
        <time>2017-01-21T14:21:51Z</time>
      </trkpt>
      <trkpt lat="45.39003" lon="5.80802">
        <ele>1606.2</ele>
        <time>2017-01-21T14:21:56Z</time>
      </trkpt>
      <trkpt lat="45.39003" lon="5.80802">
        <ele>1606</ele>
        <time>2017-01-21T14:22:01Z</time>
      </trkpt>
      <trkpt lat="45.39003" lon="5.80802">
        <ele>1605.8</ele>
        <time>2017-01-21T14:22:06Z</time>
      </trkpt>
      <trkpt lat="45.39004" lon="5.80803">
        <ele>1603.8</ele>
        <time>2017-01-21T14:22:11Z</time>
      </trkpt>
      <trkpt lat="45.39009" lon="5.80814">
        <ele>1601.4</ele>
        <time>2017-01-21T14:22:16Z</time>
      </trkpt>
      <trkpt lat="45.39014" lon="5.80822">
        <ele>1597</ele>
        <time>2017-01-21T14:22:21Z</time>
      </trkpt>
      <trkpt lat="45.39026" lon="5.80816">
        <ele>1592.8</ele>
        <time>2017-01-21T14:22:26Z</time>
      </trkpt>
      <trkpt lat="45.39027" lon="5.80821">
        <ele>1596.4</ele>
        <time>2017-01-21T14:22:31Z</time>
      </trkpt>
      <trkpt lat="45.39027" lon="5.80822">
        <ele>1597.2</ele>
        <time>2017-01-21T14:22:36Z</time>
      </trkpt>
      <trkpt lat="45.39032" lon="5.80832">
        <ele>1592.6</ele>
        <time>2017-01-21T14:22:41Z</time>
      </trkpt>
      <trkpt lat="45.39037" lon="5.8085">
        <ele>1589</ele>
        <time>2017-01-21T14:22:46Z</time>
      </trkpt>
      <trkpt lat="45.39045" lon="5.80855">
        <ele>1581.4</ele>
        <time>2017-01-21T14:22:51Z</time>
      </trkpt>
      <trkpt lat="45.39045" lon="5.80855">
        <ele>1582</ele>
        <time>2017-01-21T14:22:56Z</time>
      </trkpt>
      <trkpt lat="45.39045" lon="5.80855">
        <ele>1582.4</ele>
        <time>2017-01-21T14:23:01Z</time>
      </trkpt>
      <trkpt lat="45.3905" lon="5.80852">
        <ele>1582</ele>
        <time>2017-01-21T14:23:06Z</time>
      </trkpt>
      <trkpt lat="45.39051" lon="5.80851">
        <ele>1582</ele>
        <time>2017-01-21T14:23:11Z</time>
      </trkpt>
      <trkpt lat="45.39052" lon="5.80851">
        <ele>1581.8</ele>
        <time>2017-01-21T14:23:16Z</time>
      </trkpt>
      <trkpt lat="45.39053" lon="5.80853">
        <ele>1581.6</ele>
        <time>2017-01-21T14:23:21Z</time>
      </trkpt>
      <trkpt lat="45.39058" lon="5.80856">
        <ele>1581.4</ele>
        <time>2017-01-21T14:23:26Z</time>
      </trkpt>
      <trkpt lat="45.39074" lon="5.80856">
        <ele>1578.2</ele>
        <time>2017-01-21T14:23:31Z</time>
      </trkpt>
      <trkpt lat="45.39092" lon="5.80857">
        <ele>1575.8</ele>
        <time>2017-01-21T14:23:36Z</time>
      </trkpt>
      <trkpt lat="45.39105" lon="5.80869">
        <ele>1576</ele>
        <time>2017-01-21T14:23:41Z</time>
      </trkpt>
      <trkpt lat="45.39119" lon="5.80872">
        <ele>1571</ele>
        <time>2017-01-21T14:23:46Z</time>
      </trkpt>
      <trkpt lat="45.39134" lon="5.80856">
        <ele>1571.6</ele>
        <time>2017-01-21T14:23:51Z</time>
      </trkpt>
      <trkpt lat="45.39148" lon="5.80843">
        <ele>1569.8</ele>
        <time>2017-01-21T14:23:56Z</time>
      </trkpt>
      <trkpt lat="45.39148" lon="5.80832">
        <ele>1569.6</ele>
        <time>2017-01-21T14:24:01Z</time>
      </trkpt>
      <trkpt lat="45.39148" lon="5.80831">
        <ele>1570.6</ele>
        <time>2017-01-21T14:24:06Z</time>
      </trkpt>
      <trkpt lat="45.39148" lon="5.80831">
        <ele>1569.8</ele>
        <time>2017-01-21T14:24:11Z</time>
      </trkpt>
      <trkpt lat="45.39158" lon="5.80825">
        <ele>1565</ele>
        <time>2017-01-21T14:24:16Z</time>
      </trkpt>
      <trkpt lat="45.39178" lon="5.80828">
        <ele>1566.2</ele>
        <time>2017-01-21T14:24:21Z</time>
      </trkpt>
      <trkpt lat="45.39189" lon="5.80829">
        <ele>1563.2</ele>
        <time>2017-01-21T14:24:26Z</time>
      </trkpt>
      <trkpt lat="45.39193" lon="5.80832">
        <ele>1558.8</ele>
        <time>2017-01-21T14:24:31Z</time>
      </trkpt>
      <trkpt lat="45.39195" lon="5.80835">
        <ele>1560.4</ele>
        <time>2017-01-21T14:24:36Z</time>
      </trkpt>
      <trkpt lat="45.39196" lon="5.80837">
        <ele>1560.2</ele>
        <time>2017-01-21T14:24:41Z</time>
      </trkpt>
      <trkpt lat="45.392" lon="5.80835">
        <ele>1558.2</ele>
        <time>2017-01-21T14:24:46Z</time>
      </trkpt>
      <trkpt lat="45.39208" lon="5.80829">
        <ele>1555.4</ele>
        <time>2017-01-21T14:24:51Z</time>
      </trkpt>
      <trkpt lat="45.39213" lon="5.80826">
        <ele>1548</ele>
        <time>2017-01-21T14:24:56Z</time>
      </trkpt>
      <trkpt lat="45.39216" lon="5.80825">
        <ele>1550.8</ele>
        <time>2017-01-21T14:25:01Z</time>
      </trkpt>
      <trkpt lat="45.39218" lon="5.80825">
        <ele>1547.4</ele>
        <time>2017-01-21T14:25:06Z</time>
      </trkpt>
      <trkpt lat="45.39232" lon="5.8083">
        <ele>1544.6</ele>
        <time>2017-01-21T14:25:11Z</time>
      </trkpt>
      <trkpt lat="45.39235" lon="5.80831">
        <ele>1538.8</ele>
        <time>2017-01-21T14:25:16Z</time>
      </trkpt>
      <trkpt lat="45.39237" lon="5.80836">
        <ele>1537.2</ele>
        <time>2017-01-21T14:25:21Z</time>
      </trkpt>
      <trkpt lat="45.39238" lon="5.80839">
        <ele>1539.2</ele>
        <time>2017-01-21T14:25:26Z</time>
      </trkpt>
      <trkpt lat="45.39238" lon="5.80839">
        <ele>1538</ele>
        <time>2017-01-21T14:25:31Z</time>
      </trkpt>
      <trkpt lat="45.39238" lon="5.80839">
        <ele>1537</ele>
        <time>2017-01-21T14:25:36Z</time>
      </trkpt>
      <trkpt lat="45.39238" lon="5.80839">
        <ele>1536.4</ele>
        <time>2017-01-21T14:25:41Z</time>
      </trkpt>
      <trkpt lat="45.39238" lon="5.80839">
        <ele>1536</ele>
        <time>2017-01-21T14:25:46Z</time>
      </trkpt>
      <trkpt lat="45.39238" lon="5.80839">
        <ele>1535.6</ele>
        <time>2017-01-21T14:25:51Z</time>
      </trkpt>
      <trkpt lat="45.39238" lon="5.80839">
        <ele>1535.2</ele>
        <time>2017-01-21T14:25:56Z</time>
      </trkpt>
      <trkpt lat="45.39238" lon="5.80839">
        <ele>1535</ele>
        <time>2017-01-21T14:26:01Z</time>
      </trkpt>
      <trkpt lat="45.39238" lon="5.80839">
        <ele>1534.8</ele>
        <time>2017-01-21T14:26:06Z</time>
      </trkpt>
      <trkpt lat="45.39237" lon="5.80839">
        <ele>1534.4</ele>
        <time>2017-01-21T14:26:11Z</time>
      </trkpt>
      <trkpt lat="45.39237" lon="5.80839">
        <ele>1534.2</ele>
        <time>2017-01-21T14:26:16Z</time>
      </trkpt>
      <trkpt lat="45.39237" lon="5.80839">
        <ele>1534</ele>
        <time>2017-01-21T14:26:21Z</time>
      </trkpt>
      <trkpt lat="45.39237" lon="5.80839">
        <ele>1533.8</ele>
        <time>2017-01-21T14:26:26Z</time>
      </trkpt>
      <trkpt lat="45.39237" lon="5.80839">
        <ele>1533.6</ele>
        <time>2017-01-21T14:26:32Z</time>
      </trkpt>
      <trkpt lat="45.39236" lon="5.80841">
        <ele>1536.6</ele>
        <time>2017-01-21T14:26:37Z</time>
      </trkpt>
      <trkpt lat="45.39238" lon="5.80854">
        <ele>1529.6</ele>
        <time>2017-01-21T14:26:42Z</time>
      </trkpt>
      <trkpt lat="45.39243" lon="5.80859">
        <ele>1528.8</ele>
        <time>2017-01-21T14:26:47Z</time>
      </trkpt>
      <trkpt lat="45.39252" lon="5.80863">
        <ele>1523</ele>
        <time>2017-01-21T14:26:52Z</time>
      </trkpt>
      <trkpt lat="45.39252" lon="5.80862">
        <ele>1524.8</ele>
        <time>2017-01-21T14:26:57Z</time>
      </trkpt>
      <trkpt lat="45.39252" lon="5.80862">
        <ele>1526</ele>
        <time>2017-01-21T14:27:02Z</time>
      </trkpt>
      <trkpt lat="45.39253" lon="5.80862">
        <ele>1526.8</ele>
        <time>2017-01-21T14:27:08Z</time>
      </trkpt>
      <trkpt lat="45.39253" lon="5.80862">
        <ele>1527.2</ele>
        <time>2017-01-21T14:27:13Z</time>
      </trkpt>
      <trkpt lat="45.39253" lon="5.80862">
        <ele>1527.4</ele>
        <time>2017-01-21T14:27:18Z</time>
      </trkpt>
      <trkpt lat="45.39255" lon="5.80863">
        <ele>1527</ele>
        <time>2017-01-21T14:27:23Z</time>
      </trkpt>
      <trkpt lat="45.39259" lon="5.80865">
        <ele>1526.6</ele>
        <time>2017-01-21T14:27:28Z</time>
      </trkpt>
      <trkpt lat="45.39261" lon="5.80863">
        <ele>1526</ele>
        <time>2017-01-21T14:27:33Z</time>
      </trkpt>
      <trkpt lat="45.39266" lon="5.80857">
        <ele>1520.6</ele>
        <time>2017-01-21T14:27:38Z</time>
      </trkpt>
      <trkpt lat="45.39271" lon="5.80867">
        <ele>1514.8</ele>
        <time>2017-01-21T14:27:43Z</time>
      </trkpt>
      <trkpt lat="45.39276" lon="5.80867">
        <ele>1517.2</ele>
        <time>2017-01-21T14:27:48Z</time>
      </trkpt>
      <trkpt lat="45.39278" lon="5.80864">
        <ele>1516.8</ele>
        <time>2017-01-21T14:27:53Z</time>
      </trkpt>
      <trkpt lat="45.39278" lon="5.80864">
        <ele>1516.4</ele>
        <time>2017-01-21T14:27:58Z</time>
      </trkpt>
      <trkpt lat="45.39278" lon="5.80863">
        <ele>1515.2</ele>
        <time>2017-01-21T14:28:03Z</time>
      </trkpt>
      <trkpt lat="45.39278" lon="5.80863">
        <ele>1514.2</ele>
        <time>2017-01-21T14:28:08Z</time>
      </trkpt>
      <trkpt lat="45.39278" lon="5.80863">
        <ele>1513.4</ele>
        <time>2017-01-21T14:28:13Z</time>
      </trkpt>
      <trkpt lat="45.3928" lon="5.80863">
        <ele>1513.2</ele>
        <time>2017-01-21T14:28:18Z</time>
      </trkpt>
      <trkpt lat="45.39283" lon="5.80873">
        <ele>1507.8</ele>
        <time>2017-01-21T14:28:23Z</time>
      </trkpt>
      <trkpt lat="45.3929" lon="5.80889">
        <ele>1505.8</ele>
        <time>2017-01-21T14:28:28Z</time>
      </trkpt>
      <trkpt lat="45.39303" lon="5.80908">
        <ele>1500</ele>
        <time>2017-01-21T14:28:33Z</time>
      </trkpt>
      <trkpt lat="45.39318" lon="5.80909">
        <ele>1499.6</ele>
        <time>2017-01-21T14:28:38Z</time>
      </trkpt>
      <trkpt lat="45.39332" lon="5.80912">
        <ele>1496.2</ele>
        <time>2017-01-21T14:28:43Z</time>
      </trkpt>
      <trkpt lat="45.39352" lon="5.80913">
        <ele>1493.8</ele>
        <time>2017-01-21T14:28:48Z</time>
      </trkpt>
      <trkpt lat="45.3937" lon="5.80908">
        <ele>1491.2</ele>
        <time>2017-01-21T14:28:53Z</time>
      </trkpt>
      <trkpt lat="45.3939" lon="5.80905">
        <ele>1492</ele>
        <time>2017-01-21T14:28:58Z</time>
      </trkpt>
      <trkpt lat="45.39405" lon="5.80898">
        <ele>1488.2</ele>
        <time>2017-01-21T14:29:03Z</time>
      </trkpt>
      <trkpt lat="45.39416" lon="5.80885">
        <ele>1485.8</ele>
        <time>2017-01-21T14:29:08Z</time>
      </trkpt>
      <trkpt lat="45.39437" lon="5.80874">
        <ele>1483.2</ele>
        <time>2017-01-21T14:29:13Z</time>
      </trkpt>
      <trkpt lat="45.3945" lon="5.8087">
        <ele>1483.4</ele>
        <time>2017-01-21T14:29:18Z</time>
      </trkpt>
      <trkpt lat="45.39465" lon="5.80857">
        <ele>1483.2</ele>
        <time>2017-01-21T14:29:23Z</time>
      </trkpt>
      <trkpt lat="45.39484" lon="5.80839">
        <ele>1479.4</ele>
        <time>2017-01-21T14:29:28Z</time>
      </trkpt>
      <trkpt lat="45.39497" lon="5.80823">
        <ele>1478.8</ele>
        <time>2017-01-21T14:29:34Z</time>
      </trkpt>
      <trkpt lat="45.39501" lon="5.80805">
        <ele>1477</ele>
        <time>2017-01-21T14:29:39Z</time>
      </trkpt>
      <trkpt lat="45.39502" lon="5.80776">
        <ele>1468.2</ele>
        <time>2017-01-21T14:29:44Z</time>
      </trkpt>
      <trkpt lat="45.39506" lon="5.80752">
        <ele>1465.8</ele>
        <time>2017-01-21T14:29:49Z</time>
      </trkpt>
      <trkpt lat="45.39516" lon="5.80726">
        <ele>1457.4</ele>
        <time>2017-01-21T14:29:54Z</time>
      </trkpt>
      <trkpt lat="45.3952" lon="5.80713">
        <ele>1451.6</ele>
        <time>2017-01-21T14:29:59Z</time>
      </trkpt>
      <trkpt lat="45.39518" lon="5.80695">
        <ele>1445.6</ele>
        <time>2017-01-21T14:30:04Z</time>
      </trkpt>
      <trkpt lat="45.39509" lon="5.80679">
        <ele>1438.2</ele>
        <time>2017-01-21T14:30:09Z</time>
      </trkpt>
      <trkpt lat="45.39502" lon="5.80668">
        <ele>1434.2</ele>
        <time>2017-01-21T14:30:14Z</time>
      </trkpt>
      <trkpt lat="45.39496" lon="5.80654">
        <ele>1431.6</ele>
        <time>2017-01-21T14:30:19Z</time>
      </trkpt>
      <trkpt lat="45.39486" lon="5.80642">
        <ele>1428.4</ele>
        <time>2017-01-21T14:30:24Z</time>
      </trkpt>
      <trkpt lat="45.39473" lon="5.80629">
        <ele>1421.8</ele>
        <time>2017-01-21T14:30:29Z</time>
      </trkpt>
      <trkpt lat="45.39471" lon="5.80629">
        <ele>1421.4</ele>
        <time>2017-01-21T14:30:34Z</time>
      </trkpt>
      <trkpt lat="45.39464" lon="5.80626">
        <ele>1417.4</ele>
        <time>2017-01-21T14:30:39Z</time>
      </trkpt>
      <trkpt lat="45.39462" lon="5.80625">
        <ele>1417.4</ele>
        <time>2017-01-21T14:30:44Z</time>
      </trkpt>
      <trkpt lat="45.39462" lon="5.80624">
        <ele>1416.4</ele>
        <time>2017-01-21T14:30:49Z</time>
      </trkpt>
      <trkpt lat="45.39462" lon="5.80624">
        <ele>1415.6</ele>
        <time>2017-01-21T14:30:54Z</time>
      </trkpt>
      <trkpt lat="45.39462" lon="5.80624">
        <ele>1415</ele>
        <time>2017-01-21T14:30:59Z</time>
      </trkpt>
      <trkpt lat="45.39462" lon="5.80624">
        <ele>1414.6</ele>
        <time>2017-01-21T14:31:04Z</time>
      </trkpt>
      <trkpt lat="45.39462" lon="5.80624">
        <ele>1414.2</ele>
        <time>2017-01-21T14:31:09Z</time>
      </trkpt>
      <trkpt lat="45.39462" lon="5.80624">
        <ele>1414</ele>
        <time>2017-01-21T14:31:14Z</time>
      </trkpt>
      <trkpt lat="45.39462" lon="5.80624">
        <ele>1413.8</ele>
        <time>2017-01-21T14:31:19Z</time>
      </trkpt>
      <trkpt lat="45.39462" lon="5.80624">
        <ele>1413.8</ele>
        <time>2017-01-21T14:31:24Z</time>
      </trkpt>
      <trkpt lat="45.39462" lon="5.80624">
        <ele>1413.6</ele>
        <time>2017-01-21T14:31:29Z</time>
      </trkpt>
      <trkpt lat="45.39462" lon="5.80624">
        <ele>1413.6</ele>
        <time>2017-01-21T14:31:34Z</time>
      </trkpt>
      <trkpt lat="45.39462" lon="5.80624">
        <ele>1413.6</ele>
        <time>2017-01-21T14:31:39Z</time>
      </trkpt>
      <trkpt lat="45.39462" lon="5.80624">
        <ele>1413.6</ele>
        <time>2017-01-21T14:31:44Z</time>
      </trkpt>
      <trkpt lat="45.39462" lon="5.80622">
        <ele>1413.6</ele>
        <time>2017-01-21T14:31:49Z</time>
      </trkpt>
      <trkpt lat="45.39462" lon="5.80623">
        <ele>1413.6</ele>
        <time>2017-01-21T14:31:54Z</time>
      </trkpt>
      <trkpt lat="45.39462" lon="5.80622">
        <ele>1413.6</ele>
        <time>2017-01-21T14:31:59Z</time>
      </trkpt>
      <trkpt lat="45.39459" lon="5.80617">
        <ele>1412.4</ele>
        <time>2017-01-21T14:32:05Z</time>
      </trkpt>
      <trkpt lat="45.39455" lon="5.8061">
        <ele>1410.6</ele>
        <time>2017-01-21T14:32:10Z</time>
      </trkpt>
      <trkpt lat="45.39449" lon="5.806">
        <ele>1409</ele>
        <time>2017-01-21T14:32:15Z</time>
      </trkpt>
      <trkpt lat="45.39449" lon="5.80599">
        <ele>1407.4</ele>
        <time>2017-01-21T14:32:20Z</time>
      </trkpt>
      <trkpt lat="45.3944" lon="5.80593">
        <ele>1408</ele>
        <time>2017-01-21T14:32:25Z</time>
      </trkpt>
      <trkpt lat="45.3944" lon="5.80593">
        <ele>1407.4</ele>
        <time>2017-01-21T14:32:30Z</time>
      </trkpt>
      <trkpt lat="45.3944" lon="5.80595">
        <ele>1406.6</ele>
        <time>2017-01-21T14:32:35Z</time>
      </trkpt>
      <trkpt lat="45.3944" lon="5.80596">
        <ele>1405.6</ele>
        <time>2017-01-21T14:32:40Z</time>
      </trkpt>
      <trkpt lat="45.3944" lon="5.80596">
        <ele>1405</ele>
        <time>2017-01-21T14:32:45Z</time>
      </trkpt>
      <trkpt lat="45.3944" lon="5.80596">
        <ele>1404.4</ele>
        <time>2017-01-21T14:32:50Z</time>
      </trkpt>
      <trkpt lat="45.3944" lon="5.80596">
        <ele>1404</ele>
        <time>2017-01-21T14:32:55Z</time>
      </trkpt>
      <trkpt lat="45.3944" lon="5.80596">
        <ele>1403.8</ele>
        <time>2017-01-21T14:33:00Z</time>
      </trkpt>
      <trkpt lat="45.3944" lon="5.80596">
        <ele>1403.6</ele>
        <time>2017-01-21T14:33:05Z</time>
      </trkpt>
      <trkpt lat="45.3944" lon="5.80596">
        <ele>1403.4</ele>
        <time>2017-01-21T14:33:10Z</time>
      </trkpt>
      <trkpt lat="45.3944" lon="5.80596">
        <ele>1403.4</ele>
        <time>2017-01-21T14:33:15Z</time>
      </trkpt>
      <trkpt lat="45.3944" lon="5.80596">
        <ele>1403.2</ele>
        <time>2017-01-21T14:33:20Z</time>
      </trkpt>
      <trkpt lat="45.39437" lon="5.80592">
        <ele>1403.2</ele>
        <time>2017-01-21T14:33:25Z</time>
      </trkpt>
      <trkpt lat="45.39432" lon="5.80583">
        <ele>1401.4</ele>
        <time>2017-01-21T14:33:30Z</time>
      </trkpt>
      <trkpt lat="45.39425" lon="5.80571">
        <ele>1400</ele>
        <time>2017-01-21T14:33:35Z</time>
      </trkpt>
      <trkpt lat="45.39421" lon="5.80562">
        <ele>1393.8</ele>
        <time>2017-01-21T14:33:40Z</time>
      </trkpt>
      <trkpt lat="45.39419" lon="5.80558">
        <ele>1393</ele>
        <time>2017-01-21T14:33:45Z</time>
      </trkpt>
      <trkpt lat="45.39417" lon="5.80555">
        <ele>1393.8</ele>
        <time>2017-01-21T14:33:50Z</time>
      </trkpt>
      <trkpt lat="45.39416" lon="5.80555">
        <ele>1394.2</ele>
        <time>2017-01-21T14:33:55Z</time>
      </trkpt>
      <trkpt lat="45.39415" lon="5.80555">
        <ele>1394.4</ele>
        <time>2017-01-21T14:34:00Z</time>
      </trkpt>
      <trkpt lat="45.39414" lon="5.80554">
        <ele>1393</ele>
        <time>2017-01-21T14:34:05Z</time>
      </trkpt>
      <trkpt lat="45.39414" lon="5.80554">
        <ele>1393.4</ele>
        <time>2017-01-21T14:34:10Z</time>
      </trkpt>
      <trkpt lat="45.39412" lon="5.8055">
        <ele>1391.6</ele>
        <time>2017-01-21T14:34:15Z</time>
      </trkpt>
      <trkpt lat="45.39408" lon="5.80537">
        <ele>1390</ele>
        <time>2017-01-21T14:34:20Z</time>
      </trkpt>
      <trkpt lat="45.39401" lon="5.80522">
        <ele>1382.6</ele>
        <time>2017-01-21T14:34:25Z</time>
      </trkpt>
      <trkpt lat="45.394" lon="5.80525">
        <ele>1383.8</ele>
        <time>2017-01-21T14:34:31Z</time>
      </trkpt>
      <trkpt lat="45.39406" lon="5.80528">
        <ele>1384.2</ele>
        <time>2017-01-21T14:34:36Z</time>
      </trkpt>
      <trkpt lat="45.39413" lon="5.80526">
        <ele>1381.4</ele>
        <time>2017-01-21T14:34:41Z</time>
      </trkpt>
      <trkpt lat="45.39415" lon="5.80526">
        <ele>1384</ele>
        <time>2017-01-21T14:34:46Z</time>
      </trkpt>
      <trkpt lat="45.39415" lon="5.80525">
        <ele>1385</ele>
        <time>2017-01-21T14:34:51Z</time>
      </trkpt>
      <trkpt lat="45.39416" lon="5.80524">
        <ele>1385.8</ele>
        <time>2017-01-21T14:34:56Z</time>
      </trkpt>
      <trkpt lat="45.39418" lon="5.80521">
        <ele>1383</ele>
        <time>2017-01-21T14:35:01Z</time>
      </trkpt>
      <trkpt lat="45.3942" lon="5.80509">
        <ele>1380.6</ele>
        <time>2017-01-21T14:35:06Z</time>
      </trkpt>
      <trkpt lat="45.39419" lon="5.80509">
        <ele>1380.8</ele>
        <time>2017-01-21T14:35:11Z</time>
      </trkpt>
      <trkpt lat="45.39419" lon="5.80509">
        <ele>1381</ele>
        <time>2017-01-21T14:35:16Z</time>
      </trkpt>
      <trkpt lat="45.39419" lon="5.80509">
        <ele>1381</ele>
        <time>2017-01-21T14:35:21Z</time>
      </trkpt>
      <trkpt lat="45.39419" lon="5.80509">
        <ele>1381.2</ele>
        <time>2017-01-21T14:35:26Z</time>
      </trkpt>
      <trkpt lat="45.39421" lon="5.80508">
        <ele>1379.6</ele>
        <time>2017-01-21T14:35:31Z</time>
      </trkpt>
      <trkpt lat="45.39422" lon="5.80507">
        <ele>1377.8</ele>
        <time>2017-01-21T14:35:36Z</time>
      </trkpt>
      <trkpt lat="45.39421" lon="5.80501">
        <ele>1375</ele>
        <time>2017-01-21T14:35:41Z</time>
      </trkpt>
      <trkpt lat="45.39425" lon="5.80503">
        <ele>1368.4</ele>
        <time>2017-01-21T14:35:46Z</time>
      </trkpt>
      <trkpt lat="45.39428" lon="5.80503">
        <ele>1367.2</ele>
        <time>2017-01-21T14:35:51Z</time>
      </trkpt>
      <trkpt lat="45.39429" lon="5.80504">
        <ele>1366.8</ele>
        <time>2017-01-21T14:35:56Z</time>
      </trkpt>
      <trkpt lat="45.39432" lon="5.80502">
        <ele>1365.4</ele>
        <time>2017-01-21T14:36:01Z</time>
      </trkpt>
      <trkpt lat="45.39435" lon="5.80502">
        <ele>1365.2</ele>
        <time>2017-01-21T14:36:06Z</time>
      </trkpt>
      <trkpt lat="45.39444" lon="5.80507">
        <ele>1365.6</ele>
        <time>2017-01-21T14:36:11Z</time>
      </trkpt>
      <trkpt lat="45.39448" lon="5.80503">
        <ele>1364</ele>
        <time>2017-01-21T14:36:16Z</time>
      </trkpt>
      <trkpt lat="45.39449" lon="5.80502">
        <ele>1364.8</ele>
        <time>2017-01-21T14:36:21Z</time>
      </trkpt>
      <trkpt lat="45.39453" lon="5.805">
        <ele>1364</ele>
        <time>2017-01-21T14:36:26Z</time>
      </trkpt>
      <trkpt lat="45.3945" lon="5.80495">
        <ele>1364.8</ele>
        <time>2017-01-21T14:36:31Z</time>
      </trkpt>
      <trkpt lat="45.39449" lon="5.80494">
        <ele>1363.6</ele>
        <time>2017-01-21T14:36:36Z</time>
      </trkpt>
      <trkpt lat="45.3945" lon="5.80488">
        <ele>1365.2</ele>
        <time>2017-01-21T14:36:41Z</time>
      </trkpt>
      <trkpt lat="45.39452" lon="5.80479">
        <ele>1356.4</ele>
        <time>2017-01-21T14:36:46Z</time>
      </trkpt>
      <trkpt lat="45.39452" lon="5.80479">
        <ele>1355.8</ele>
        <time>2017-01-21T14:36:51Z</time>
      </trkpt>
      <trkpt lat="45.39451" lon="5.80479">
        <ele>1355.4</ele>
        <time>2017-01-21T14:36:56Z</time>
      </trkpt>
      <trkpt lat="45.39454" lon="5.80481">
        <ele>1352.2</ele>
        <time>2017-01-21T14:37:01Z</time>
      </trkpt>
      <trkpt lat="45.39454" lon="5.80481">
        <ele>1352.8</ele>
        <time>2017-01-21T14:37:06Z</time>
      </trkpt>
      <trkpt lat="45.39454" lon="5.80481">
        <ele>1353</ele>
        <time>2017-01-21T14:37:11Z</time>
      </trkpt>
      <trkpt lat="45.39454" lon="5.80481">
        <ele>1353.2</ele>
        <time>2017-01-21T14:37:16Z</time>
      </trkpt>
      <trkpt lat="45.39454" lon="5.80481">
        <ele>1353.4</ele>
        <time>2017-01-21T14:37:21Z</time>
      </trkpt>
      <trkpt lat="45.39454" lon="5.80481">
        <ele>1353.4</ele>
        <time>2017-01-21T14:37:26Z</time>
      </trkpt>
      <trkpt lat="45.39458" lon="5.80468">
        <ele>1350.4</ele>
        <time>2017-01-21T14:37:31Z</time>
      </trkpt>
      <trkpt lat="45.39458" lon="5.80458">
        <ele>1350</ele>
        <time>2017-01-21T14:37:36Z</time>
      </trkpt>
      <trkpt lat="45.3946" lon="5.80454">
        <ele>1350.4</ele>
        <time>2017-01-21T14:37:41Z</time>
      </trkpt>
      <trkpt lat="45.39463" lon="5.80452">
        <ele>1350.8</ele>
        <time>2017-01-21T14:37:46Z</time>
      </trkpt>
      <trkpt lat="45.39464" lon="5.8045">
        <ele>1346</ele>
        <time>2017-01-21T14:37:51Z</time>
      </trkpt>
      <trkpt lat="45.39466" lon="5.80443">
        <ele>1342.6</ele>
        <time>2017-01-21T14:37:56Z</time>
      </trkpt>
      <trkpt lat="45.39464" lon="5.8044">
        <ele>1342.8</ele>
        <time>2017-01-21T14:38:01Z</time>
      </trkpt>
      <trkpt lat="45.39463" lon="5.8044">
        <ele>1342.4</ele>
        <time>2017-01-21T14:38:06Z</time>
      </trkpt>
      <trkpt lat="45.39463" lon="5.8044">
        <ele>1341</ele>
        <time>2017-01-21T14:38:11Z</time>
      </trkpt>
      <trkpt lat="45.39463" lon="5.8044">
        <ele>1341.4</ele>
        <time>2017-01-21T14:38:16Z</time>
      </trkpt>
      <trkpt lat="45.39464" lon="5.80438">
        <ele>1339.8</ele>
        <time>2017-01-21T14:38:21Z</time>
      </trkpt>
      <trkpt lat="45.39464" lon="5.80437">
        <ele>1340.4</ele>
        <time>2017-01-21T14:38:26Z</time>
      </trkpt>
      <trkpt lat="45.39465" lon="5.80435">
        <ele>1338</ele>
        <time>2017-01-21T14:38:31Z</time>
      </trkpt>
      <trkpt lat="45.39464" lon="5.80436">
        <ele>1338.4</ele>
        <time>2017-01-21T14:38:36Z</time>
      </trkpt>
      <trkpt lat="45.39464" lon="5.80435">
        <ele>1338.8</ele>
        <time>2017-01-21T14:38:41Z</time>
      </trkpt>
      <trkpt lat="45.39465" lon="5.80435">
        <ele>1339</ele>
        <time>2017-01-21T14:38:46Z</time>
      </trkpt>
      <trkpt lat="45.39465" lon="5.80436">
        <ele>1340</ele>
        <time>2017-01-21T14:38:51Z</time>
      </trkpt>
      <trkpt lat="45.39468" lon="5.80435">
        <ele>1339.6</ele>
        <time>2017-01-21T14:38:56Z</time>
      </trkpt>
      <trkpt lat="45.39468" lon="5.80433">
        <ele>1338</ele>
        <time>2017-01-21T14:39:01Z</time>
      </trkpt>
      <trkpt lat="45.39469" lon="5.80433">
        <ele>1338.4</ele>
        <time>2017-01-21T14:39:06Z</time>
      </trkpt>
      <trkpt lat="45.39469" lon="5.80432">
        <ele>1338.8</ele>
        <time>2017-01-21T14:39:11Z</time>
      </trkpt>
      <trkpt lat="45.39468" lon="5.80429">
        <ele>1342</ele>
        <time>2017-01-21T14:39:16Z</time>
      </trkpt>
      <trkpt lat="45.39467" lon="5.80429">
        <ele>1341.4</ele>
        <time>2017-01-21T14:39:21Z</time>
      </trkpt>
      <trkpt lat="45.39466" lon="5.80426">
        <ele>1339.4</ele>
        <time>2017-01-21T14:39:26Z</time>
      </trkpt>
      <trkpt lat="45.39466" lon="5.80426">
        <ele>1338.8</ele>
        <time>2017-01-21T14:39:31Z</time>
      </trkpt>
      <trkpt lat="45.39465" lon="5.80423">
        <ele>1336.8</ele>
        <time>2017-01-21T14:39:36Z</time>
      </trkpt>
      <trkpt lat="45.39463" lon="5.80419">
        <ele>1338.2</ele>
        <time>2017-01-21T14:39:41Z</time>
      </trkpt>
      <trkpt lat="45.39462" lon="5.80415">
        <ele>1337.2</ele>
        <time>2017-01-21T14:39:46Z</time>
      </trkpt>
      <trkpt lat="45.3946" lon="5.8041">
        <ele>1332.4</ele>
        <time>2017-01-21T14:39:51Z</time>
      </trkpt>
      <trkpt lat="45.39459" lon="5.80404">
        <ele>1330.6</ele>
        <time>2017-01-21T14:39:56Z</time>
      </trkpt>
      <trkpt lat="45.39457" lon="5.804">
        <ele>1328</ele>
        <time>2017-01-21T14:40:01Z</time>
      </trkpt>
      <trkpt lat="45.39457" lon="5.804">
        <ele>1327.2</ele>
        <time>2017-01-21T14:40:06Z</time>
      </trkpt>
      <trkpt lat="45.39457" lon="5.804">
        <ele>1327.2</ele>
        <time>2017-01-21T14:40:11Z</time>
      </trkpt>
      <trkpt lat="45.39457" lon="5.804">
        <ele>1326.6</ele>
        <time>2017-01-21T14:40:16Z</time>
      </trkpt>
      <trkpt lat="45.39457" lon="5.804">
        <ele>1326.2</ele>
        <time>2017-01-21T14:40:21Z</time>
      </trkpt>
      <trkpt lat="45.39457" lon="5.804">
        <ele>1326</ele>
        <time>2017-01-21T14:40:26Z</time>
      </trkpt>
      <trkpt lat="45.39456" lon="5.804">
        <ele>1325.8</ele>
        <time>2017-01-21T14:40:31Z</time>
      </trkpt>
      <trkpt lat="45.39456" lon="5.80399">
        <ele>1325.6</ele>
        <time>2017-01-21T14:40:36Z</time>
      </trkpt>
      <trkpt lat="45.39456" lon="5.80397">
        <ele>1325.4</ele>
        <time>2017-01-21T14:40:41Z</time>
      </trkpt>
      <trkpt lat="45.39456" lon="5.80397">
        <ele>1325</ele>
        <time>2017-01-21T14:40:46Z</time>
      </trkpt>
      <trkpt lat="45.39456" lon="5.80397">
        <ele>1324.6</ele>
        <time>2017-01-21T14:40:51Z</time>
      </trkpt>
      <trkpt lat="45.39457" lon="5.80397">
        <ele>1324.4</ele>
        <time>2017-01-21T14:40:56Z</time>
      </trkpt>
      <trkpt lat="45.39457" lon="5.80397">
        <ele>1324.2</ele>
        <time>2017-01-21T14:41:01Z</time>
      </trkpt>
      <trkpt lat="45.39457" lon="5.80396">
        <ele>1324</ele>
        <time>2017-01-21T14:41:06Z</time>
      </trkpt>
      <trkpt lat="45.39458" lon="5.80392">
        <ele>1320.8</ele>
        <time>2017-01-21T14:41:11Z</time>
      </trkpt>
      <trkpt lat="45.39458" lon="5.80389">
        <ele>1326.6</ele>
        <time>2017-01-21T14:41:16Z</time>
      </trkpt>
      <trkpt lat="45.39458" lon="5.80388">
        <ele>1322</ele>
        <time>2017-01-21T14:41:21Z</time>
      </trkpt>
      <trkpt lat="45.39458" lon="5.80388">
        <ele>1322.2</ele>
        <time>2017-01-21T14:41:26Z</time>
      </trkpt>
      <trkpt lat="45.39457" lon="5.80386">
        <ele>1319.2</ele>
        <time>2017-01-21T14:41:31Z</time>
      </trkpt>
      <trkpt lat="45.39456" lon="5.80385">
        <ele>1320.2</ele>
        <time>2017-01-21T14:41:36Z</time>
      </trkpt>
      <trkpt lat="45.39456" lon="5.80385">
        <ele>1320.8</ele>
        <time>2017-01-21T14:41:41Z</time>
      </trkpt>
      <trkpt lat="45.39455" lon="5.80383">
        <ele>1321.2</ele>
        <time>2017-01-21T14:41:46Z</time>
      </trkpt>
      <trkpt lat="45.39455" lon="5.80383">
        <ele>1321.4</ele>
        <time>2017-01-21T14:41:51Z</time>
      </trkpt>
      <trkpt lat="45.39455" lon="5.80382">
        <ele>1321.6</ele>
        <time>2017-01-21T14:41:56Z</time>
      </trkpt>
      <trkpt lat="45.39454" lon="5.80381">
        <ele>1320.8</ele>
        <time>2017-01-21T14:42:01Z</time>
      </trkpt>
      <trkpt lat="45.39453" lon="5.80379">
        <ele>1323.6</ele>
        <time>2017-01-21T14:42:06Z</time>
      </trkpt>
      <trkpt lat="45.39453" lon="5.80375">
        <ele>1322.4</ele>
        <time>2017-01-21T14:42:12Z</time>
      </trkpt>
      <trkpt lat="45.39453" lon="5.80375">
        <ele>1321.4</ele>
        <time>2017-01-21T14:42:17Z</time>
      </trkpt>
      <trkpt lat="45.39452" lon="5.80374">
        <ele>1320.6</ele>
        <time>2017-01-21T14:42:22Z</time>
      </trkpt>
      <trkpt lat="45.39452" lon="5.80373">
        <ele>1320</ele>
        <time>2017-01-21T14:42:27Z</time>
      </trkpt>
      <trkpt lat="45.39452" lon="5.80373">
        <ele>1319.6</ele>
        <time>2017-01-21T14:42:32Z</time>
      </trkpt>
      <trkpt lat="45.39452" lon="5.80373">
        <ele>1319.4</ele>
        <time>2017-01-21T14:42:37Z</time>
      </trkpt>
      <trkpt lat="45.39452" lon="5.80373">
        <ele>1319.2</ele>
        <time>2017-01-21T14:42:42Z</time>
      </trkpt>
      <trkpt lat="45.39451" lon="5.80375">
        <ele>1321.2</ele>
        <time>2017-01-21T14:42:47Z</time>
      </trkpt>
      <trkpt lat="45.3945" lon="5.80375">
        <ele>1321.4</ele>
        <time>2017-01-21T14:42:52Z</time>
      </trkpt>
      <trkpt lat="45.39448" lon="5.80374">
        <ele>1320.6</ele>
        <time>2017-01-21T14:42:57Z</time>
      </trkpt>
      <trkpt lat="45.39448" lon="5.80374">
        <ele>1319.6</ele>
        <time>2017-01-21T14:43:02Z</time>
      </trkpt>
      <trkpt lat="45.39448" lon="5.80374">
        <ele>1318.8</ele>
        <time>2017-01-21T14:43:07Z</time>
      </trkpt>
      <trkpt lat="45.39448" lon="5.80374">
        <ele>1318.2</ele>
        <time>2017-01-21T14:43:12Z</time>
      </trkpt>
      <trkpt lat="45.39448" lon="5.80372">
        <ele>1320.4</ele>
        <time>2017-01-21T14:43:17Z</time>
      </trkpt>
      <trkpt lat="45.39448" lon="5.80371">
        <ele>1316.6</ele>
        <time>2017-01-21T14:43:22Z</time>
      </trkpt>
      <trkpt lat="45.3945" lon="5.80369">
        <ele>1313.4</ele>
        <time>2017-01-21T14:43:27Z</time>
      </trkpt>
      <trkpt lat="45.39455" lon="5.80352">
        <ele>1310.4</ele>
        <time>2017-01-21T14:43:32Z</time>
      </trkpt>
      <trkpt lat="45.39456" lon="5.80353">
        <ele>1311.2</ele>
        <time>2017-01-21T14:43:37Z</time>
      </trkpt>
      <trkpt lat="45.39456" lon="5.80353">
        <ele>1311.6</ele>
        <time>2017-01-21T14:43:42Z</time>
      </trkpt>
      <trkpt lat="45.39457" lon="5.80354">
        <ele>1311.8</ele>
        <time>2017-01-21T14:43:47Z</time>
      </trkpt>
      <trkpt lat="45.39457" lon="5.80354">
        <ele>1312</ele>
        <time>2017-01-21T14:43:52Z</time>
      </trkpt>
      <trkpt lat="45.39462" lon="5.80355">
        <ele>1308.8</ele>
        <time>2017-01-21T14:43:57Z</time>
      </trkpt>
      <trkpt lat="45.39471" lon="5.80352">
        <ele>1307.6</ele>
        <time>2017-01-21T14:44:02Z</time>
      </trkpt>
      <trkpt lat="45.39485" lon="5.80352">
        <ele>1299.8</ele>
        <time>2017-01-21T14:44:07Z</time>
      </trkpt>
      <trkpt lat="45.39501" lon="5.80358">
        <ele>1296.8</ele>
        <time>2017-01-21T14:44:12Z</time>
      </trkpt>
      <trkpt lat="45.39519" lon="5.80355">
        <ele>1296.4</ele>
        <time>2017-01-21T14:44:17Z</time>
      </trkpt>
      <trkpt lat="45.39538" lon="5.80351">
        <ele>1292</ele>
        <time>2017-01-21T14:44:22Z</time>
      </trkpt>
      <trkpt lat="45.39552" lon="5.8034">
        <ele>1284.8</ele>
        <time>2017-01-21T14:44:27Z</time>
      </trkpt>
      <trkpt lat="45.3957" lon="5.80331">
        <ele>1282</ele>
        <time>2017-01-21T14:44:32Z</time>
      </trkpt>
      <trkpt lat="45.39589" lon="5.8032">
        <ele>1280.4</ele>
        <time>2017-01-21T14:44:37Z</time>
      </trkpt>
      <trkpt lat="45.39606" lon="5.80308">
        <ele>1274.8</ele>
        <time>2017-01-21T14:44:42Z</time>
      </trkpt>
      <trkpt lat="45.39624" lon="5.80304">
        <ele>1273.4</ele>
        <time>2017-01-21T14:44:47Z</time>
      </trkpt>
      <trkpt lat="45.39625" lon="5.80303">
        <ele>1272.4</ele>
        <time>2017-01-21T14:44:52Z</time>
      </trkpt>
      <trkpt lat="45.39624" lon="5.80303">
        <ele>1272.2</ele>
        <time>2017-01-21T14:44:57Z</time>
      </trkpt>
      <trkpt lat="45.39624" lon="5.80303">
        <ele>1272</ele>
        <time>2017-01-21T14:45:02Z</time>
      </trkpt>
      <trkpt lat="45.39624" lon="5.80303">
        <ele>1271.8</ele>
        <time>2017-01-21T14:45:07Z</time>
      </trkpt>
      <trkpt lat="45.39624" lon="5.80303">
        <ele>1271.8</ele>
        <time>2017-01-21T14:45:12Z</time>
      </trkpt>
      <trkpt lat="45.39624" lon="5.80303">
        <ele>1271.8</ele>
        <time>2017-01-21T14:45:17Z</time>
      </trkpt>
      <trkpt lat="45.39624" lon="5.80303">
        <ele>1271.6</ele>
        <time>2017-01-21T14:45:22Z</time>
      </trkpt>
      <trkpt lat="45.39624" lon="5.80303">
        <ele>1271.6</ele>
        <time>2017-01-21T14:45:27Z</time>
      </trkpt>
      <trkpt lat="45.39624" lon="5.80303">
        <ele>1271.6</ele>
        <time>2017-01-21T14:45:32Z</time>
      </trkpt>
      <trkpt lat="45.39626" lon="5.80303">
        <ele>1269.4</ele>
        <time>2017-01-21T14:45:37Z</time>
      </trkpt>
      <trkpt lat="45.39638" lon="5.80302">
        <ele>1266.4</ele>
        <time>2017-01-21T14:45:42Z</time>
      </trkpt>
      <trkpt lat="45.39658" lon="5.80295">
        <ele>1262.6</ele>
        <time>2017-01-21T14:45:47Z</time>
      </trkpt>
      <trkpt lat="45.39685" lon="5.80291">
        <ele>1262.8</ele>
        <time>2017-01-21T14:45:52Z</time>
      </trkpt>
      <trkpt lat="45.39716" lon="5.80285">
        <ele>1260.4</ele>
        <time>2017-01-21T14:45:57Z</time>
      </trkpt>
      <trkpt lat="45.3974" lon="5.80276">
        <ele>1259.8</ele>
        <time>2017-01-21T14:46:02Z</time>
      </trkpt>
      <trkpt lat="45.39761" lon="5.80269">
        <ele>1255.6</ele>
        <time>2017-01-21T14:46:07Z</time>
      </trkpt>
      <trkpt lat="45.39775" lon="5.80272">
        <ele>1253.2</ele>
        <time>2017-01-21T14:46:12Z</time>
      </trkpt>
      <trkpt lat="45.39791" lon="5.80264">
        <ele>1250.6</ele>
        <time>2017-01-21T14:46:17Z</time>
      </trkpt>
      <trkpt lat="45.39806" lon="5.80258">
        <ele>1246.8</ele>
        <time>2017-01-21T14:46:22Z</time>
      </trkpt>
      <trkpt lat="45.39827" lon="5.8026">
        <ele>1243.8</ele>
        <time>2017-01-21T14:46:27Z</time>
      </trkpt>
      <trkpt lat="45.39844" lon="5.80261">
        <ele>1231.4</ele>
        <time>2017-01-21T14:46:32Z</time>
      </trkpt>
      <trkpt lat="45.39855" lon="5.80253">
        <ele>1232.4</ele>
        <time>2017-01-21T14:46:37Z</time>
      </trkpt>
      <trkpt lat="45.39867" lon="5.80237">
        <ele>1226.8</ele>
        <time>2017-01-21T14:46:42Z</time>
      </trkpt>
      <trkpt lat="45.39882" lon="5.80233">
        <ele>1221.4</ele>
        <time>2017-01-21T14:46:47Z</time>
      </trkpt>
      <trkpt lat="45.39896" lon="5.80222">
        <ele>1217.8</ele>
        <time>2017-01-21T14:46:52Z</time>
      </trkpt>
      <trkpt lat="45.39915" lon="5.80217">
        <ele>1212.6</ele>
        <time>2017-01-21T14:46:57Z</time>
      </trkpt>
      <trkpt lat="45.39935" lon="5.80205">
        <ele>1206.2</ele>
        <time>2017-01-21T14:47:02Z</time>
      </trkpt>
      <trkpt lat="45.39957" lon="5.80193">
        <ele>1203.8</ele>
        <time>2017-01-21T14:47:07Z</time>
      </trkpt>
      <trkpt lat="45.39972" lon="5.80174">
        <ele>1200.4</ele>
        <time>2017-01-21T14:47:12Z</time>
      </trkpt>
      <trkpt lat="45.39977" lon="5.8017">
        <ele>1195.4</ele>
        <time>2017-01-21T14:47:17Z</time>
      </trkpt>
      <trkpt lat="45.39977" lon="5.8017">
        <ele>1193.6</ele>
        <time>2017-01-21T14:47:22Z</time>
      </trkpt>
      <trkpt lat="45.39977" lon="5.80168">
        <ele>1191.2</ele>
        <time>2017-01-21T14:47:27Z</time>
      </trkpt>
      <trkpt lat="45.39984" lon="5.80154">
        <ele>1192</ele>
        <time>2017-01-21T14:47:32Z</time>
      </trkpt>
      <trkpt lat="45.39998" lon="5.80153">
        <ele>1182.6</ele>
        <time>2017-01-21T14:47:37Z</time>
      </trkpt>
      <trkpt lat="45.40004" lon="5.80147">
        <ele>1176.8</ele>
        <time>2017-01-21T14:47:42Z</time>
      </trkpt>
      <trkpt lat="45.40009" lon="5.80136">
        <ele>1173.2</ele>
        <time>2017-01-21T14:47:47Z</time>
      </trkpt>
      <trkpt lat="45.4002" lon="5.80144">
        <ele>1170</ele>
        <time>2017-01-21T14:47:52Z</time>
      </trkpt>
      <trkpt lat="45.40025" lon="5.80117">
        <ele>1166</ele>
        <time>2017-01-21T14:47:57Z</time>
      </trkpt>
      <trkpt lat="45.40029" lon="5.80094">
        <ele>1162.6</ele>
        <time>2017-01-21T14:48:02Z</time>
      </trkpt>
      <trkpt lat="45.40029" lon="5.80079">
        <ele>1158</ele>
        <time>2017-01-21T14:48:07Z</time>
      </trkpt>
      <trkpt lat="45.40029" lon="5.8008">
        <ele>1157.4</ele>
        <time>2017-01-21T14:48:12Z</time>
      </trkpt>
      <trkpt lat="45.40029" lon="5.8008">
        <ele>1156.4</ele>
        <time>2017-01-21T14:48:17Z</time>
      </trkpt>
      <trkpt lat="45.40029" lon="5.8008">
        <ele>1155.8</ele>
        <time>2017-01-21T14:48:22Z</time>
      </trkpt>
      <trkpt lat="45.40029" lon="5.8008">
        <ele>1155.4</ele>
        <time>2017-01-21T14:48:27Z</time>
      </trkpt>
      <trkpt lat="45.40029" lon="5.8008">
        <ele>1155</ele>
        <time>2017-01-21T14:48:32Z</time>
      </trkpt>
      <trkpt lat="45.40029" lon="5.8008">
        <ele>1154.8</ele>
        <time>2017-01-21T14:48:37Z</time>
      </trkpt>
      <trkpt lat="45.40029" lon="5.8008">
        <ele>1154.6</ele>
        <time>2017-01-21T14:48:42Z</time>
      </trkpt>
      <trkpt lat="45.40029" lon="5.8008">
        <ele>1154.4</ele>
        <time>2017-01-21T14:48:47Z</time>
      </trkpt>
      <trkpt lat="45.40029" lon="5.8008">
        <ele>1154.4</ele>
        <time>2017-01-21T14:48:52Z</time>
      </trkpt>
      <trkpt lat="45.40029" lon="5.8008">
        <ele>1154.2</ele>
        <time>2017-01-21T14:48:57Z</time>
      </trkpt>
      <trkpt lat="45.40029" lon="5.8008">
        <ele>1154.2</ele>
        <time>2017-01-21T14:49:02Z</time>
      </trkpt>
      <trkpt lat="45.40029" lon="5.8008">
        <ele>1154.2</ele>
        <time>2017-01-21T14:49:07Z</time>
      </trkpt>
      <trkpt lat="45.40029" lon="5.8008">
        <ele>1154.2</ele>
        <time>2017-01-21T14:49:12Z</time>
      </trkpt>
      <trkpt lat="45.40029" lon="5.8008">
        <ele>1154.2</ele>
        <time>2017-01-21T14:49:17Z</time>
      </trkpt>
      <trkpt lat="45.40029" lon="5.8008">
        <ele>1154.2</ele>
        <time>2017-01-21T14:49:22Z</time>
      </trkpt>
      <trkpt lat="45.40029" lon="5.8008">
        <ele>1154.2</ele>
        <time>2017-01-21T14:49:27Z</time>
      </trkpt>
      <trkpt lat="45.4003" lon="5.8008">
        <ele>1154</ele>
        <time>2017-01-21T14:49:32Z</time>
      </trkpt>
      <trkpt lat="45.40032" lon="5.80078">
        <ele>1152</ele>
        <time>2017-01-21T14:49:38Z</time>
      </trkpt>
      <trkpt lat="45.40041" lon="5.8007">
        <ele>1150.2</ele>
        <time>2017-01-21T14:49:43Z</time>
      </trkpt>
      <trkpt lat="45.40052" lon="5.80047">
        <ele>1142.8</ele>
        <time>2017-01-21T14:49:48Z</time>
      </trkpt>
      <trkpt lat="45.40054" lon="5.80022">
        <ele>1138.4</ele>
        <time>2017-01-21T14:49:53Z</time>
      </trkpt>
      <trkpt lat="45.40055" lon="5.79999">
        <ele>1139.6</ele>
        <time>2017-01-21T14:49:58Z</time>
      </trkpt>
      <trkpt lat="45.40059" lon="5.7997">
        <ele>1136.6</ele>
        <time>2017-01-21T14:50:03Z</time>
      </trkpt>
      <trkpt lat="45.40059" lon="5.79949">
        <ele>1134</ele>
        <time>2017-01-21T14:50:08Z</time>
      </trkpt>
      <trkpt lat="45.40058" lon="5.79942">
        <ele>1133.4</ele>
        <time>2017-01-21T14:50:13Z</time>
      </trkpt>
      <trkpt lat="45.40051" lon="5.79933">
        <ele>1128.2</ele>
        <time>2017-01-21T14:50:18Z</time>
      </trkpt>
      <trkpt lat="45.40049" lon="5.79932">
        <ele>1128.8</ele>
        <time>2017-01-21T14:50:23Z</time>
      </trkpt>
      <trkpt lat="45.40049" lon="5.79926">
        <ele>1129.2</ele>
        <time>2017-01-21T14:50:28Z</time>
      </trkpt>
      <trkpt lat="45.40048" lon="5.79922">
        <ele>1130</ele>
        <time>2017-01-21T14:50:33Z</time>
      </trkpt>
      <trkpt lat="45.40046" lon="5.79921">
        <ele>1130.2</ele>
        <time>2017-01-21T14:50:38Z</time>
      </trkpt>
      <trkpt lat="45.4004" lon="5.79918">
        <ele>1132.6</ele>
        <time>2017-01-21T14:50:43Z</time>
      </trkpt>
      <trkpt lat="45.40037" lon="5.79918">
        <ele>1130.4</ele>
        <time>2017-01-21T14:50:48Z</time>
      </trkpt>
      <trkpt lat="45.40038" lon="5.79918">
        <ele>1130.8</ele>
        <time>2017-01-21T14:50:53Z</time>
      </trkpt>
      <trkpt lat="45.40038" lon="5.7992">
        <ele>1130.6</ele>
        <time>2017-01-21T14:50:58Z</time>
      </trkpt>
      <trkpt lat="45.40038" lon="5.7992">
        <ele>1131</ele>
        <time>2017-01-21T14:51:03Z</time>
      </trkpt>
      <trkpt lat="45.40039" lon="5.79922">
        <ele>1132</ele>
        <time>2017-01-21T14:51:08Z</time>
      </trkpt>
      <trkpt lat="45.40037" lon="5.7992">
        <ele>1129.6</ele>
        <time>2017-01-21T14:51:13Z</time>
      </trkpt>
      <trkpt lat="45.4003" lon="5.79915">
        <ele>1129.4</ele>
        <time>2017-01-21T14:51:18Z</time>
      </trkpt>
      <trkpt lat="45.4002" lon="5.79913">
        <ele>1129.4</ele>
        <time>2017-01-21T14:51:23Z</time>
      </trkpt>
      <trkpt lat="45.40018" lon="5.7991">
        <ele>1130.4</ele>
        <time>2017-01-21T14:51:28Z</time>
      </trkpt>
      <trkpt lat="45.40018" lon="5.7991">
        <ele>1131</ele>
        <time>2017-01-21T14:51:33Z</time>
      </trkpt>
      <trkpt lat="45.40018" lon="5.7991">
        <ele>1131.2</ele>
        <time>2017-01-21T14:51:38Z</time>
      </trkpt>
      <trkpt lat="45.40018" lon="5.7991">
        <ele>1131.4</ele>
        <time>2017-01-21T14:51:43Z</time>
      </trkpt>
      <trkpt lat="45.40018" lon="5.7991">
        <ele>1131.4</ele>
        <time>2017-01-21T14:51:48Z</time>
      </trkpt>
      <trkpt lat="45.40018" lon="5.79909">
        <ele>1131.4</ele>
        <time>2017-01-21T14:51:53Z</time>
      </trkpt>
      <trkpt lat="45.40017" lon="5.79909">
        <ele>1131.6</ele>
        <time>2017-01-21T14:51:58Z</time>
      </trkpt>
      <trkpt lat="45.40017" lon="5.79908">
        <ele>1131.6</ele>
        <time>2017-01-21T14:52:03Z</time>
      </trkpt>
      <trkpt lat="45.40016" lon="5.79909">
        <ele>1131</ele>
        <time>2017-01-21T14:52:08Z</time>
      </trkpt>
      <trkpt lat="45.40016" lon="5.7991">
        <ele>1131.4</ele>
        <time>2017-01-21T14:52:13Z</time>
      </trkpt>
      <trkpt lat="45.40016" lon="5.7991">
        <ele>1131.4</ele>
        <time>2017-01-21T14:52:18Z</time>
      </trkpt>
      <trkpt lat="45.40016" lon="5.7991">
        <ele>1130.8</ele>
        <time>2017-01-21T14:52:23Z</time>
      </trkpt>
      <trkpt lat="45.40016" lon="5.7991">
        <ele>1131</ele>
        <time>2017-01-21T14:52:29Z</time>
      </trkpt>
      <trkpt lat="45.40016" lon="5.79909">
        <ele>1130.8</ele>
        <time>2017-01-21T14:52:34Z</time>
      </trkpt>
      <trkpt lat="45.40016" lon="5.79909">
        <ele>1130.2</ele>
        <time>2017-01-21T14:52:39Z</time>
      </trkpt>
      <trkpt lat="45.40017" lon="5.79909">
        <ele>1129.8</ele>
        <time>2017-01-21T14:52:44Z</time>
      </trkpt>
      <trkpt lat="45.40017" lon="5.79911">
        <ele>1129.6</ele>
        <time>2017-01-21T14:52:49Z</time>
      </trkpt>
      <trkpt lat="45.40017" lon="5.79911">
        <ele>1129.4</ele>
        <time>2017-01-21T14:52:54Z</time>
      </trkpt>
      <trkpt lat="45.40016" lon="5.79911">
        <ele>1128.6</ele>
        <time>2017-01-21T14:52:59Z</time>
      </trkpt>
      <trkpt lat="45.40016" lon="5.7991">
        <ele>1127.4</ele>
        <time>2017-01-21T14:53:04Z</time>
      </trkpt>
      <trkpt lat="45.40016" lon="5.7991">
        <ele>1126.2</ele>
        <time>2017-01-21T14:53:09Z</time>
      </trkpt>
      <trkpt lat="45.40016" lon="5.7991">
        <ele>1125</ele>
        <time>2017-01-21T14:53:14Z</time>
      </trkpt>
    </trkseg>
  </trk>
</gpx>